<?xml version="1.0" encoding="UTF-8" standalone="no" ?>
<gpx xmlns="http://www.topografix.com/GPX/1/1" xmlns:xsi="http://www.w3.org/2001/XMLSchema-instance" xsi:schemaLocation="http://www.topografix.com/GPX/1/1 http://www.topografix.com/GPX/1/1/gpx.xsd" version="1.1" creator="VisuGPX - https://www.visugpx.com">
  <metadata>
    <name>1200 RAA 2022 Béost - Pontenx</name>
    <desc><![CDATA[Trace modifiée à partit de Mimizan]]></desc>
  </metadata>
  <trk>
    <name><![CDATA[14985528-1200 RAA 2022 Béost - Mimizan]]></name>
    <extensions>
      <line xmlns="http://www.topografix.com/GPX/gpx_style/0/2">
        <color>0000FF</color>
        <width>4</width>
      </line>
    </extensions>
    <trkseg>
      <trkpt lat="42.9937" lon="-0.4193">
        <ele>492</ele>
        <time>2022-06-27T09:54:08Z</time>
      </trkpt>
      <trkpt lat="42.99358" lon="-0.42026">
        <ele>489</ele>
        <time>2022-06-27T09:54:21Z</time>
      </trkpt>
      <trkpt lat="42.99418" lon="-0.42225">
        <ele>498</ele>
        <time>2022-06-27T09:54:49Z</time>
      </trkpt>
      <trkpt lat="42.99653" lon="-0.42195">
        <ele>490</ele>
        <time>2022-06-27T09:55:31Z</time>
      </trkpt>
      <trkpt lat="42.99732" lon="-0.42176">
        <ele>487</ele>
        <time>2022-06-27T09:55:45Z</time>
      </trkpt>
      <trkpt lat="43.00085" lon="-0.42026">
        <ele>486</ele>
        <time>2022-06-27T09:56:51Z</time>
      </trkpt>
      <trkpt lat="43.00157" lon="-0.42009">
        <ele>489</ele>
        <time>2022-06-27T09:57:04Z</time>
      </trkpt>
      <trkpt lat="43.00222" lon="-0.42017">
        <ele>485</ele>
        <time>2022-06-27T09:57:15Z</time>
      </trkpt>
      <trkpt lat="43.00289" lon="-0.42049">
        <ele>482</ele>
        <time>2022-06-27T09:57:28Z</time>
      </trkpt>
      <trkpt lat="43.00407" lon="-0.42118">
        <ele>481</ele>
        <time>2022-06-27T09:57:51Z</time>
      </trkpt>
      <trkpt lat="43.00462" lon="-0.42145">
        <ele>485</ele>
        <time>2022-06-27T09:58:01Z</time>
      </trkpt>
      <trkpt lat="43.00497" lon="-0.42154">
        <ele>490</ele>
        <time>2022-06-27T09:58:08Z</time>
      </trkpt>
      <trkpt lat="43.00533" lon="-0.42155">
        <ele>494</ele>
        <time>2022-06-27T09:58:14Z</time>
      </trkpt>
      <trkpt lat="43.00578" lon="-0.42142">
        <ele>494</ele>
        <time>2022-06-27T09:58:22Z</time>
      </trkpt>
      <trkpt lat="43.00676" lon="-0.42092">
        <ele>490</ele>
        <time>2022-06-27T09:58:41Z</time>
      </trkpt>
      <trkpt lat="43.00722" lon="-0.42084">
        <ele>487</ele>
        <time>2022-06-27T09:58:49Z</time>
      </trkpt>
      <trkpt lat="43.00801" lon="-0.42094">
        <ele>486</ele>
        <time>2022-06-27T09:59:03Z</time>
      </trkpt>
      <trkpt lat="43.0085" lon="-0.42112">
        <ele>486</ele>
        <time>2022-06-27T09:59:12Z</time>
      </trkpt>
      <trkpt lat="43.00996" lon="-0.42201">
        <ele>477</ele>
        <time>2022-06-27T09:59:41Z</time>
      </trkpt>
      <trkpt lat="43.01151" lon="-0.42275">
        <ele>475</ele>
        <time>2022-06-27T10:00:10Z</time>
      </trkpt>
      <trkpt lat="43.01217" lon="-0.42298">
        <ele>476</ele>
        <time>2022-06-27T10:00:22Z</time>
      </trkpt>
      <trkpt lat="43.01275" lon="-0.42305">
        <ele>474</ele>
        <time>2022-06-27T10:00:32Z</time>
      </trkpt>
      <trkpt lat="43.01421" lon="-0.42307">
        <ele>476</ele>
        <time>2022-06-27T10:00:58Z</time>
      </trkpt>
      <trkpt lat="43.01544" lon="-0.42297">
        <ele>478</ele>
        <time>2022-06-27T10:01:20Z</time>
      </trkpt>
      <trkpt lat="43.01872" lon="-0.42316">
        <ele>468</ele>
        <time>2022-06-27T10:02:19Z</time>
      </trkpt>
      <trkpt lat="43.02044" lon="-0.42283">
        <ele>463</ele>
        <time>2022-06-27T10:02:49Z</time>
      </trkpt>
      <trkpt lat="43.02296" lon="-0.4219">
        <ele>460</ele>
        <time>2022-06-27T10:03:36Z</time>
      </trkpt>
      <trkpt lat="43.02349" lon="-0.42187">
        <ele>461</ele>
        <time>2022-06-27T10:03:45Z</time>
      </trkpt>
      <trkpt lat="43.02376" lon="-0.42167">
        <ele>462</ele>
        <time>2022-06-27T10:03:51Z</time>
      </trkpt>
      <trkpt lat="43.02386" lon="-0.42147">
        <ele>461</ele>
        <time>2022-06-27T10:03:54Z</time>
      </trkpt>
      <trkpt lat="43.02399" lon="-0.42143">
        <ele>462</ele>
        <time>2022-06-27T10:03:56Z</time>
      </trkpt>
      <trkpt lat="43.02413" lon="-0.42155">
        <ele>462</ele>
        <time>2022-06-27T10:03:59Z</time>
      </trkpt>
      <trkpt lat="43.02429" lon="-0.42156">
        <ele>462</ele>
        <time>2022-06-27T10:04:02Z</time>
      </trkpt>
      <trkpt lat="43.02576" lon="-0.42153">
        <ele>461</ele>
        <time>2022-06-27T10:04:28Z</time>
      </trkpt>
      <trkpt lat="43.03259" lon="-0.42183">
        <ele>453</ele>
        <time>2022-06-27T10:06:30Z</time>
      </trkpt>
      <trkpt lat="43.03361" lon="-0.42203">
        <ele>454</ele>
        <time>2022-06-27T10:06:48Z</time>
      </trkpt>
      <trkpt lat="43.03687" lon="-0.42322">
        <ele>451</ele>
        <time>2022-06-27T10:07:48Z</time>
      </trkpt>
      <trkpt lat="43.03713" lon="-0.42319">
        <ele>450</ele>
        <time>2022-06-27T10:07:53Z</time>
      </trkpt>
      <trkpt lat="43.03725" lon="-0.42334">
        <ele>450</ele>
        <time>2022-06-27T10:07:56Z</time>
      </trkpt>
      <trkpt lat="43.03762" lon="-0.4235">
        <ele>449</ele>
        <time>2022-06-27T10:08:03Z</time>
      </trkpt>
      <trkpt lat="43.03825" lon="-0.42367">
        <ele>447</ele>
        <time>2022-06-27T10:08:14Z</time>
      </trkpt>
      <trkpt lat="43.04712" lon="-0.42679">
        <ele>437</ele>
        <time>2022-06-27T10:10:57Z</time>
      </trkpt>
      <trkpt lat="43.04781" lon="-0.42699">
        <ele>436</ele>
        <time>2022-06-27T10:11:10Z</time>
      </trkpt>
      <trkpt lat="43.04879" lon="-0.42712">
        <ele>436</ele>
        <time>2022-06-27T10:11:27Z</time>
      </trkpt>
      <trkpt lat="43.04936" lon="-0.42712">
        <ele>436</ele>
        <time>2022-06-27T10:11:37Z</time>
      </trkpt>
      <trkpt lat="43.05217" lon="-0.42676">
        <ele>441</ele>
        <time>2022-06-27T10:12:27Z</time>
      </trkpt>
      <trkpt lat="43.05781" lon="-0.42636">
        <ele>439</ele>
        <time>2022-06-27T10:14:08Z</time>
      </trkpt>
      <trkpt lat="43.05875" lon="-0.42652">
        <ele>440</ele>
        <time>2022-06-27T10:14:25Z</time>
      </trkpt>
      <trkpt lat="43.05937" lon="-0.42678">
        <ele>441</ele>
        <time>2022-06-27T10:14:36Z</time>
      </trkpt>
      <trkpt lat="43.05963" lon="-0.42683">
        <ele>440</ele>
        <time>2022-06-27T10:14:41Z</time>
      </trkpt>
      <trkpt lat="43.0599" lon="-0.42676">
        <ele>439</ele>
        <time>2022-06-27T10:14:46Z</time>
      </trkpt>
      <trkpt lat="43.06016" lon="-0.42681">
        <ele>438</ele>
        <time>2022-06-27T10:14:51Z</time>
      </trkpt>
      <trkpt lat="43.06052" lon="-0.4267">
        <ele>437</ele>
        <time>2022-06-27T10:14:57Z</time>
      </trkpt>
      <trkpt lat="43.0617" lon="-0.42551">
        <ele>433</ele>
        <time>2022-06-27T10:15:23Z</time>
      </trkpt>
      <trkpt lat="43.06297" lon="-0.42466">
        <ele>430</ele>
        <time>2022-06-27T10:15:48Z</time>
      </trkpt>
      <trkpt lat="43.06336" lon="-0.42448">
        <ele>430</ele>
        <time>2022-06-27T10:15:56Z</time>
      </trkpt>
      <trkpt lat="43.06431" lon="-0.42436">
        <ele>432</ele>
        <time>2022-06-27T10:16:13Z</time>
      </trkpt>
      <trkpt lat="43.06652" lon="-0.42377">
        <ele>434</ele>
        <time>2022-06-27T10:16:53Z</time>
      </trkpt>
      <trkpt lat="43.06708" lon="-0.42344">
        <ele>432</ele>
        <time>2022-06-27T10:17:04Z</time>
      </trkpt>
      <trkpt lat="43.0682" lon="-0.42263">
        <ele>429</ele>
        <time>2022-06-27T10:17:26Z</time>
      </trkpt>
      <trkpt lat="43.0688" lon="-0.42234">
        <ele>433</ele>
        <time>2022-06-27T10:17:37Z</time>
      </trkpt>
      <trkpt lat="43.06927" lon="-0.42227">
        <ele>437</ele>
        <time>2022-06-27T10:17:46Z</time>
      </trkpt>
      <trkpt lat="43.07044" lon="-0.42241">
        <ele>435</ele>
        <time>2022-06-27T10:18:07Z</time>
      </trkpt>
      <trkpt lat="43.07089" lon="-0.42242">
        <ele>435</ele>
        <time>2022-06-27T10:18:15Z</time>
      </trkpt>
      <trkpt lat="43.07119" lon="-0.42236">
        <ele>435</ele>
        <time>2022-06-27T10:18:20Z</time>
      </trkpt>
      <trkpt lat="43.07149" lon="-0.42222">
        <ele>436</ele>
        <time>2022-06-27T10:18:26Z</time>
      </trkpt>
      <trkpt lat="43.07246" lon="-0.42146">
        <ele>432</ele>
        <time>2022-06-27T10:18:46Z</time>
      </trkpt>
      <trkpt lat="43.07311" lon="-0.42115">
        <ele>433</ele>
        <time>2022-06-27T10:18:58Z</time>
      </trkpt>
      <trkpt lat="43.07358" lon="-0.42103">
        <ele>433</ele>
        <time>2022-06-27T10:19:06Z</time>
      </trkpt>
      <trkpt lat="43.07394" lon="-0.42103">
        <ele>434</ele>
        <time>2022-06-27T10:19:13Z</time>
      </trkpt>
      <trkpt lat="43.07566" lon="-0.42142">
        <ele>435</ele>
        <time>2022-06-27T10:19:44Z</time>
      </trkpt>
      <trkpt lat="43.07649" lon="-0.42149">
        <ele>432</ele>
        <time>2022-06-27T10:19:59Z</time>
      </trkpt>
      <trkpt lat="43.07712" lon="-0.42139">
        <ele>429</ele>
        <time>2022-06-27T10:20:10Z</time>
      </trkpt>
      <trkpt lat="43.07783" lon="-0.42118">
        <ele>428</ele>
        <time>2022-06-27T10:20:23Z</time>
      </trkpt>
      <trkpt lat="43.0784" lon="-0.42111">
        <ele>430</ele>
        <time>2022-06-27T10:20:33Z</time>
      </trkpt>
      <trkpt lat="43.07913" lon="-0.42115">
        <ele>428</ele>
        <time>2022-06-27T10:20:46Z</time>
      </trkpt>
      <trkpt lat="43.08123" lon="-0.42157">
        <ele>429</ele>
        <time>2022-06-27T10:21:24Z</time>
      </trkpt>
      <trkpt lat="43.08205" lon="-0.42194">
        <ele>424</ele>
        <time>2022-06-27T10:21:39Z</time>
      </trkpt>
      <trkpt lat="43.08435" lon="-0.4234">
        <ele>423</ele>
        <time>2022-06-27T10:22:24Z</time>
      </trkpt>
      <trkpt lat="43.08463" lon="-0.42348">
        <ele>422</ele>
        <time>2022-06-27T10:22:29Z</time>
      </trkpt>
      <trkpt lat="43.08479" lon="-0.42339">
        <ele>422</ele>
        <time>2022-06-27T10:22:32Z</time>
      </trkpt>
      <trkpt lat="43.08489" lon="-0.42344">
        <ele>422</ele>
        <time>2022-06-27T10:22:34Z</time>
      </trkpt>
      <trkpt lat="43.08498" lon="-0.42364">
        <ele>422</ele>
        <time>2022-06-27T10:22:37Z</time>
      </trkpt>
      <trkpt lat="43.08494" lon="-0.42385">
        <ele>422</ele>
        <time>2022-06-27T10:22:40Z</time>
      </trkpt>
      <trkpt lat="43.08502" lon="-0.42438">
        <ele>422</ele>
        <time>2022-06-27T10:22:47Z</time>
      </trkpt>
      <trkpt lat="43.08515" lon="-0.42469">
        <ele>423</ele>
        <time>2022-06-27T10:22:52Z</time>
      </trkpt>
      <trkpt lat="43.08561" lon="-0.42532">
        <ele>426</ele>
        <time>2022-06-27T10:23:03Z</time>
      </trkpt>
      <trkpt lat="43.08618" lon="-0.42567">
        <ele>435</ele>
        <time>2022-06-27T10:23:15Z</time>
      </trkpt>
      <trkpt lat="43.08752" lon="-0.42584">
        <ele>440</ele>
        <time>2022-06-27T10:23:39Z</time>
      </trkpt>
      <trkpt lat="43.0882" lon="-0.42617">
        <ele>438</ele>
        <time>2022-06-27T10:23:51Z</time>
      </trkpt>
      <trkpt lat="43.08855" lon="-0.42647">
        <ele>439</ele>
        <time>2022-06-27T10:23:59Z</time>
      </trkpt>
      <trkpt lat="43.0893" lon="-0.4274">
        <ele>434</ele>
        <time>2022-06-27T10:24:17Z</time>
      </trkpt>
      <trkpt lat="43.0902" lon="-0.42919">
        <ele>422</ele>
        <time>2022-06-27T10:24:45Z</time>
      </trkpt>
      <trkpt lat="43.09054" lon="-0.42941">
        <ele>421</ele>
        <time>2022-06-27T10:24:52Z</time>
      </trkpt>
      <trkpt lat="43.09073" lon="-0.42991">
        <ele>420</ele>
        <time>2022-06-27T10:24:59Z</time>
      </trkpt>
      <trkpt lat="43.09142" lon="-0.43056">
        <ele>419</ele>
        <time>2022-06-27T10:25:14Z</time>
      </trkpt>
      <trkpt lat="43.09211" lon="-0.43102">
        <ele>419</ele>
        <time>2022-06-27T10:25:28Z</time>
      </trkpt>
      <trkpt lat="43.09337" lon="-0.43213">
        <ele>417</ele>
        <time>2022-06-27T10:25:54Z</time>
      </trkpt>
      <trkpt lat="43.09419" lon="-0.43254">
        <ele>416</ele>
        <time>2022-06-27T10:26:10Z</time>
      </trkpt>
      <trkpt lat="43.09503" lon="-0.43274">
        <ele>416</ele>
        <time>2022-06-27T10:26:25Z</time>
      </trkpt>
      <trkpt lat="43.09882" lon="-0.43304">
        <ele>419</ele>
        <time>2022-06-27T10:27:32Z</time>
      </trkpt>
      <trkpt lat="43.10027" lon="-0.43347">
        <ele>416</ele>
        <time>2022-06-27T10:27:59Z</time>
      </trkpt>
      <trkpt lat="43.10057" lon="-0.43348">
        <ele>417</ele>
        <time>2022-06-27T10:28:04Z</time>
      </trkpt>
      <trkpt lat="43.10064" lon="-0.43338">
        <ele>417</ele>
        <time>2022-06-27T10:28:06Z</time>
      </trkpt>
      <trkpt lat="43.10079" lon="-0.43337">
        <ele>418</ele>
        <time>2022-06-27T10:28:09Z</time>
      </trkpt>
      <trkpt lat="43.10088" lon="-0.43348">
        <ele>417</ele>
        <time>2022-06-27T10:28:11Z</time>
      </trkpt>
      <trkpt lat="43.10086" lon="-0.43375">
        <ele>416</ele>
        <time>2022-06-27T10:28:14Z</time>
      </trkpt>
      <trkpt lat="43.10092" lon="-0.434">
        <ele>414</ele>
        <time>2022-06-27T10:28:18Z</time>
      </trkpt>
      <trkpt lat="43.10109" lon="-0.43424">
        <ele>413</ele>
        <time>2022-06-27T10:28:22Z</time>
      </trkpt>
      <trkpt lat="43.10196" lon="-0.43474">
        <ele>415</ele>
        <time>2022-06-27T10:28:39Z</time>
      </trkpt>
      <trkpt lat="43.10247" lon="-0.4349">
        <ele>417</ele>
        <time>2022-06-27T10:28:48Z</time>
      </trkpt>
      <trkpt lat="43.10308" lon="-0.43499">
        <ele>415</ele>
        <time>2022-06-27T10:28:59Z</time>
      </trkpt>
      <trkpt lat="43.10382" lon="-0.43531">
        <ele>413</ele>
        <time>2022-06-27T10:29:13Z</time>
      </trkpt>
      <trkpt lat="43.10444" lon="-0.43544">
        <ele>414</ele>
        <time>2022-06-27T10:29:24Z</time>
      </trkpt>
      <trkpt lat="43.10637" lon="-0.43574">
        <ele>414</ele>
        <time>2022-06-27T10:29:59Z</time>
      </trkpt>
      <trkpt lat="43.1066" lon="-0.43573">
        <ele>415</ele>
        <time>2022-06-27T10:30:03Z</time>
      </trkpt>
      <trkpt lat="43.10704" lon="-0.4356">
        <ele>414</ele>
        <time>2022-06-27T10:30:11Z</time>
      </trkpt>
      <trkpt lat="43.10758" lon="-0.43584">
        <ele>416</ele>
        <time>2022-06-27T10:30:21Z</time>
      </trkpt>
      <trkpt lat="43.11052" lon="-0.43787">
        <ele>400</ele>
        <time>2022-06-27T10:31:19Z</time>
      </trkpt>
      <trkpt lat="43.11098" lon="-0.43811">
        <ele>404</ele>
        <time>2022-06-27T10:31:28Z</time>
      </trkpt>
      <trkpt lat="43.1115" lon="-0.43826">
        <ele>407</ele>
        <time>2022-06-27T10:31:38Z</time>
      </trkpt>
      <trkpt lat="43.11198" lon="-0.43827">
        <ele>412</ele>
        <time>2022-06-27T10:31:46Z</time>
      </trkpt>
      <trkpt lat="43.1125" lon="-0.43818">
        <ele>415</ele>
        <time>2022-06-27T10:31:56Z</time>
      </trkpt>
      <trkpt lat="43.11473" lon="-0.43763">
        <ele>404</ele>
        <time>2022-06-27T10:32:36Z</time>
      </trkpt>
      <trkpt lat="43.11519" lon="-0.43801">
        <ele>408</ele>
        <time>2022-06-27T10:32:45Z</time>
      </trkpt>
      <trkpt lat="43.11551" lon="-0.4382">
        <ele>409</ele>
        <time>2022-06-27T10:32:52Z</time>
      </trkpt>
      <trkpt lat="43.11577" lon="-0.43826">
        <ele>408</ele>
        <time>2022-06-27T10:32:56Z</time>
      </trkpt>
      <trkpt lat="43.11599" lon="-0.43823">
        <ele>406</ele>
        <time>2022-06-27T10:33:00Z</time>
      </trkpt>
      <trkpt lat="43.11634" lon="-0.43806">
        <ele>404</ele>
        <time>2022-06-27T10:33:07Z</time>
      </trkpt>
      <trkpt lat="43.11664" lon="-0.438">
        <ele>402</ele>
        <time>2022-06-27T10:33:12Z</time>
      </trkpt>
      <trkpt lat="43.11682" lon="-0.43804">
        <ele>403</ele>
        <time>2022-06-27T10:33:15Z</time>
      </trkpt>
      <trkpt lat="43.11855" lon="-0.43937">
        <ele>411</ele>
        <time>2022-06-27T10:33:51Z</time>
      </trkpt>
      <trkpt lat="43.11888" lon="-0.43989">
        <ele>414</ele>
        <time>2022-06-27T10:34:00Z</time>
      </trkpt>
      <trkpt lat="43.11969" lon="-0.44026">
        <ele>414</ele>
        <time>2022-06-27T10:34:15Z</time>
      </trkpt>
      <trkpt lat="43.11999" lon="-0.44066">
        <ele>419</ele>
        <time>2022-06-27T10:34:22Z</time>
      </trkpt>
      <trkpt lat="43.12041" lon="-0.44099">
        <ele>422</ele>
        <time>2022-06-27T10:34:31Z</time>
      </trkpt>
      <trkpt lat="43.12164" lon="-0.44141">
        <ele>418</ele>
        <time>2022-06-27T10:34:54Z</time>
      </trkpt>
      <trkpt lat="43.12266" lon="-0.44192">
        <ele>423</ele>
        <time>2022-06-27T10:35:13Z</time>
      </trkpt>
      <trkpt lat="43.12383" lon="-0.44218">
        <ele>421</ele>
        <time>2022-06-27T10:35:34Z</time>
      </trkpt>
      <trkpt lat="43.12538" lon="-0.44296">
        <ele>430</ele>
        <time>2022-06-27T10:36:03Z</time>
      </trkpt>
      <trkpt lat="43.12601" lon="-0.44306">
        <ele>430</ele>
        <time>2022-06-27T10:36:15Z</time>
      </trkpt>
      <trkpt lat="43.12669" lon="-0.44298">
        <ele>427</ele>
        <time>2022-06-27T10:36:27Z</time>
      </trkpt>
      <trkpt lat="43.12688" lon="-0.44301">
        <ele>426</ele>
        <time>2022-06-27T10:36:30Z</time>
      </trkpt>
      <trkpt lat="43.12787" lon="-0.44374">
        <ele>423</ele>
        <time>2022-06-27T10:36:50Z</time>
      </trkpt>
      <trkpt lat="43.12814" lon="-0.4438">
        <ele>423</ele>
        <time>2022-06-27T10:36:55Z</time>
      </trkpt>
      <trkpt lat="43.12889" lon="-0.44377">
        <ele>422</ele>
        <time>2022-06-27T10:37:08Z</time>
      </trkpt>
      <trkpt lat="43.12906" lon="-0.4438">
        <ele>422</ele>
        <time>2022-06-27T10:37:11Z</time>
      </trkpt>
      <trkpt lat="43.12934" lon="-0.44398">
        <ele>420</ele>
        <time>2022-06-27T10:37:17Z</time>
      </trkpt>
      <trkpt lat="43.12956" lon="-0.44442">
        <ele>417</ele>
        <time>2022-06-27T10:37:24Z</time>
      </trkpt>
      <trkpt lat="43.12961" lon="-0.44546">
        <ele>411</ele>
        <time>2022-06-27T10:37:37Z</time>
      </trkpt>
      <trkpt lat="43.12975" lon="-0.44595">
        <ele>405</ele>
        <time>2022-06-27T10:37:44Z</time>
      </trkpt>
      <trkpt lat="43.13146" lon="-0.45048">
        <ele>387</ele>
        <time>2022-06-27T10:38:50Z</time>
      </trkpt>
      <trkpt lat="43.13157" lon="-0.45089">
        <ele>384</ele>
        <time>2022-06-27T10:38:56Z</time>
      </trkpt>
      <trkpt lat="43.13214" lon="-0.45455">
        <ele>382</ele>
        <time>2022-06-27T10:39:45Z</time>
      </trkpt>
      <trkpt lat="43.1329" lon="-0.45602">
        <ele>376</ele>
        <time>2022-06-27T10:40:08Z</time>
      </trkpt>
      <trkpt lat="43.13306" lon="-0.45698">
        <ele>375</ele>
        <time>2022-06-27T10:40:21Z</time>
      </trkpt>
      <trkpt lat="43.13333" lon="-0.4576">
        <ele>374</ele>
        <time>2022-06-27T10:40:30Z</time>
      </trkpt>
      <trkpt lat="43.13357" lon="-0.45773">
        <ele>372</ele>
        <time>2022-06-27T10:40:35Z</time>
      </trkpt>
      <trkpt lat="43.13416" lon="-0.4577">
        <ele>371</ele>
        <time>2022-06-27T10:40:45Z</time>
      </trkpt>
      <trkpt lat="43.13431" lon="-0.45776">
        <ele>371</ele>
        <time>2022-06-27T10:40:48Z</time>
      </trkpt>
      <trkpt lat="43.13441" lon="-0.45792">
        <ele>371</ele>
        <time>2022-06-27T10:40:51Z</time>
      </trkpt>
      <trkpt lat="43.13468" lon="-0.45882">
        <ele>369</ele>
        <time>2022-06-27T10:41:04Z</time>
      </trkpt>
      <trkpt lat="43.13489" lon="-0.45919">
        <ele>368</ele>
        <time>2022-06-27T10:41:10Z</time>
      </trkpt>
      <trkpt lat="43.13586" lon="-0.46153">
        <ele>362</ele>
        <time>2022-06-27T10:41:45Z</time>
      </trkpt>
      <trkpt lat="43.14" lon="-0.47273">
        <ele>349</ele>
        <time>2022-06-27T10:44:28Z</time>
      </trkpt>
      <trkpt lat="43.14124" lon="-0.47572">
        <ele>346</ele>
        <time>2022-06-27T10:45:12Z</time>
      </trkpt>
      <trkpt lat="43.14146" lon="-0.47663">
        <ele>345</ele>
        <time>2022-06-27T10:45:25Z</time>
      </trkpt>
      <trkpt lat="43.14237" lon="-0.47959">
        <ele>342</ele>
        <time>2022-06-27T10:46:06Z</time>
      </trkpt>
      <trkpt lat="43.14353" lon="-0.48161">
        <ele>339</ele>
        <time>2022-06-27T10:46:40Z</time>
      </trkpt>
      <trkpt lat="43.14455" lon="-0.48508">
        <ele>336</ele>
        <time>2022-06-27T10:47:28Z</time>
      </trkpt>
      <trkpt lat="43.14618" lon="-0.49006">
        <ele>331</ele>
        <time>2022-06-27T10:48:39Z</time>
      </trkpt>
      <trkpt lat="43.14819" lon="-0.49499">
        <ele>327</ele>
        <time>2022-06-27T10:49:52Z</time>
      </trkpt>
      <trkpt lat="43.14904" lon="-0.49786">
        <ele>325</ele>
        <time>2022-06-27T10:50:33Z</time>
      </trkpt>
      <trkpt lat="43.14999" lon="-0.49963">
        <ele>323</ele>
        <time>2022-06-27T10:51:01Z</time>
      </trkpt>
      <trkpt lat="43.15039" lon="-0.50106">
        <ele>323</ele>
        <time>2022-06-27T10:51:21Z</time>
      </trkpt>
      <trkpt lat="43.15155" lon="-0.50251">
        <ele>320</ele>
        <time>2022-06-27T10:51:49Z</time>
      </trkpt>
      <trkpt lat="43.15175" lon="-0.50292">
        <ele>320</ele>
        <time>2022-06-27T10:51:55Z</time>
      </trkpt>
      <trkpt lat="43.15201" lon="-0.50421">
        <ele>320</ele>
        <time>2022-06-27T10:52:13Z</time>
      </trkpt>
      <trkpt lat="43.15349" lon="-0.50789">
        <ele>316</ele>
        <time>2022-06-27T10:53:07Z</time>
      </trkpt>
      <trkpt lat="43.15423" lon="-0.50996">
        <ele>314</ele>
        <time>2022-06-27T10:53:37Z</time>
      </trkpt>
      <trkpt lat="43.15531" lon="-0.51347">
        <ele>310</ele>
        <time>2022-06-27T10:54:27Z</time>
      </trkpt>
      <trkpt lat="43.15602" lon="-0.51705">
        <ele>307</ele>
        <time>2022-06-27T10:55:15Z</time>
      </trkpt>
      <trkpt lat="43.1573" lon="-0.52075">
        <ele>304</ele>
        <time>2022-06-27T10:56:08Z</time>
      </trkpt>
      <trkpt lat="43.15755" lon="-0.52127">
        <ele>304</ele>
        <time>2022-06-27T10:56:16Z</time>
      </trkpt>
      <trkpt lat="43.15805" lon="-0.52199">
        <ele>304</ele>
        <time>2022-06-27T10:56:29Z</time>
      </trkpt>
      <trkpt lat="43.15835" lon="-0.52265">
        <ele>305</ele>
        <time>2022-06-27T10:56:39Z</time>
      </trkpt>
      <trkpt lat="43.1585" lon="-0.52284">
        <ele>306</ele>
        <time>2022-06-27T10:56:43Z</time>
      </trkpt>
      <trkpt lat="43.1589" lon="-0.52306">
        <ele>308</ele>
        <time>2022-06-27T10:56:50Z</time>
      </trkpt>
      <trkpt lat="43.15988" lon="-0.52433">
        <ele>307</ele>
        <time>2022-06-27T10:57:14Z</time>
      </trkpt>
      <trkpt lat="43.16061" lon="-0.52482">
        <ele>303</ele>
        <time>2022-06-27T10:57:29Z</time>
      </trkpt>
      <trkpt lat="43.16182" lon="-0.52591">
        <ele>300</ele>
        <time>2022-06-27T10:57:55Z</time>
      </trkpt>
      <trkpt lat="43.16587" lon="-0.52932">
        <ele>294</ele>
        <time>2022-06-27T10:59:19Z</time>
      </trkpt>
      <trkpt lat="43.16761" lon="-0.53094">
        <ele>294</ele>
        <time>2022-06-27T10:59:57Z</time>
      </trkpt>
      <trkpt lat="43.16818" lon="-0.53126">
        <ele>292</ele>
        <time>2022-06-27T11:00:08Z</time>
      </trkpt>
      <trkpt lat="43.17054" lon="-0.53203">
        <ele>290</ele>
        <time>2022-06-27T11:00:51Z</time>
      </trkpt>
      <trkpt lat="43.17073" lon="-0.53229">
        <ele>290</ele>
        <time>2022-06-27T11:00:55Z</time>
      </trkpt>
      <trkpt lat="43.171" lon="-0.53306">
        <ele>289</ele>
        <time>2022-06-27T11:01:07Z</time>
      </trkpt>
      <trkpt lat="43.17153" lon="-0.53493">
        <ele>287</ele>
        <time>2022-06-27T11:01:33Z</time>
      </trkpt>
      <trkpt lat="43.17197" lon="-0.53481">
        <ele>285</ele>
        <time>2022-06-27T11:01:41Z</time>
      </trkpt>
      <trkpt lat="43.17211" lon="-0.53465">
        <ele>285</ele>
        <time>2022-06-27T11:01:44Z</time>
      </trkpt>
      <trkpt lat="43.17212" lon="-0.53445">
        <ele>285</ele>
        <time>2022-06-27T11:01:46Z</time>
      </trkpt>
      <trkpt lat="43.17227" lon="-0.53436">
        <ele>285</ele>
        <time>2022-06-27T11:01:49Z</time>
      </trkpt>
      <trkpt lat="43.17239" lon="-0.53449">
        <ele>284</ele>
        <time>2022-06-27T11:01:52Z</time>
      </trkpt>
      <trkpt lat="43.17255" lon="-0.53444">
        <ele>284</ele>
        <time>2022-06-27T11:01:55Z</time>
      </trkpt>
      <trkpt lat="43.17277" lon="-0.53447">
        <ele>284</ele>
        <time>2022-06-27T11:01:59Z</time>
      </trkpt>
      <trkpt lat="43.17621" lon="-0.53589">
        <ele>281</ele>
        <time>2022-06-27T11:03:03Z</time>
      </trkpt>
      <trkpt lat="43.17685" lon="-0.53608">
        <ele>281</ele>
        <time>2022-06-27T11:03:14Z</time>
      </trkpt>
      <trkpt lat="43.1782" lon="-0.53606">
        <ele>281</ele>
        <time>2022-06-27T11:03:39Z</time>
      </trkpt>
      <trkpt lat="43.17862" lon="-0.53612">
        <ele>281</ele>
        <time>2022-06-27T11:03:46Z</time>
      </trkpt>
      <trkpt lat="43.17988" lon="-0.53645">
        <ele>280</ele>
        <time>2022-06-27T11:04:09Z</time>
      </trkpt>
      <trkpt lat="43.18015" lon="-0.53704">
        <ele>279</ele>
        <time>2022-06-27T11:04:18Z</time>
      </trkpt>
      <trkpt lat="43.18024" lon="-0.53745">
        <ele>279</ele>
        <time>2022-06-27T11:04:23Z</time>
      </trkpt>
      <trkpt lat="43.18068" lon="-0.53862">
        <ele>280</ele>
        <time>2022-06-27T11:04:41Z</time>
      </trkpt>
      <trkpt lat="43.18123" lon="-0.53957">
        <ele>279</ele>
        <time>2022-06-27T11:04:56Z</time>
      </trkpt>
      <trkpt lat="43.1814" lon="-0.53978">
        <ele>278</ele>
        <time>2022-06-27T11:05:00Z</time>
      </trkpt>
      <trkpt lat="43.18157" lon="-0.53985">
        <ele>278</ele>
        <time>2022-06-27T11:05:03Z</time>
      </trkpt>
      <trkpt lat="43.18162" lon="-0.5401">
        <ele>278</ele>
        <time>2022-06-27T11:05:07Z</time>
      </trkpt>
      <trkpt lat="43.18152" lon="-0.54108">
        <ele>276</ele>
        <time>2022-06-27T11:05:20Z</time>
      </trkpt>
      <trkpt lat="43.18154" lon="-0.54166">
        <ele>276</ele>
        <time>2022-06-27T11:05:27Z</time>
      </trkpt>
      <trkpt lat="43.18185" lon="-0.54286">
        <ele>273</ele>
        <time>2022-06-27T11:05:44Z</time>
      </trkpt>
      <trkpt lat="43.18183" lon="-0.54384">
        <ele>273</ele>
        <time>2022-06-27T11:05:56Z</time>
      </trkpt>
      <trkpt lat="43.18213" lon="-0.54477">
        <ele>273</ele>
        <time>2022-06-27T11:06:10Z</time>
      </trkpt>
      <trkpt lat="43.18218" lon="-0.54568">
        <ele>273</ele>
        <time>2022-06-27T11:06:21Z</time>
      </trkpt>
      <trkpt lat="43.18242" lon="-0.54638">
        <ele>274</ele>
        <time>2022-06-27T11:06:32Z</time>
      </trkpt>
      <trkpt lat="43.18257" lon="-0.54757">
        <ele>273</ele>
        <time>2022-06-27T11:06:47Z</time>
      </trkpt>
      <trkpt lat="43.18285" lon="-0.54882">
        <ele>273</ele>
        <time>2022-06-27T11:07:04Z</time>
      </trkpt>
      <trkpt lat="43.1833" lon="-0.55042">
        <ele>273</ele>
        <time>2022-06-27T11:07:26Z</time>
      </trkpt>
      <trkpt lat="43.1836" lon="-0.55126">
        <ele>271</ele>
        <time>2022-06-27T11:07:39Z</time>
      </trkpt>
      <trkpt lat="43.18421" lon="-0.55246">
        <ele>270</ele>
        <time>2022-06-27T11:07:58Z</time>
      </trkpt>
      <trkpt lat="43.18479" lon="-0.55321">
        <ele>270</ele>
        <time>2022-06-27T11:08:12Z</time>
      </trkpt>
      <trkpt lat="43.18529" lon="-0.55406">
        <ele>269</ele>
        <time>2022-06-27T11:08:26Z</time>
      </trkpt>
      <trkpt lat="43.18536" lon="-0.55408">
        <ele>268</ele>
        <time>2022-06-27T11:08:27Z</time>
      </trkpt>
      <trkpt lat="43.18593" lon="-0.55678">
        <ele>266</ele>
        <time>2022-06-27T11:09:04Z</time>
      </trkpt>
      <trkpt lat="43.18763" lon="-0.56232">
        <ele>262</ele>
        <time>2022-06-27T11:10:22Z</time>
      </trkpt>
      <trkpt lat="43.18806" lon="-0.56338">
        <ele>260</ele>
        <time>2022-06-27T11:10:37Z</time>
      </trkpt>
      <trkpt lat="43.18937" lon="-0.56579">
        <ele>260</ele>
        <time>2022-06-27T11:11:16Z</time>
      </trkpt>
      <trkpt lat="43.18973" lon="-0.56681">
        <ele>258</ele>
        <time>2022-06-27T11:11:31Z</time>
      </trkpt>
      <trkpt lat="43.19008" lon="-0.56812">
        <ele>256</ele>
        <time>2022-06-27T11:11:49Z</time>
      </trkpt>
      <trkpt lat="43.19037" lon="-0.56882">
        <ele>255</ele>
        <time>2022-06-27T11:12:00Z</time>
      </trkpt>
      <trkpt lat="43.19068" lon="-0.56994">
        <ele>255</ele>
        <time>2022-06-27T11:12:15Z</time>
      </trkpt>
      <trkpt lat="43.19091" lon="-0.5714">
        <ele>253</ele>
        <time>2022-06-27T11:12:34Z</time>
      </trkpt>
      <trkpt lat="43.19116" lon="-0.57244">
        <ele>252</ele>
        <time>2022-06-27T11:12:49Z</time>
      </trkpt>
      <trkpt lat="43.19195" lon="-0.57445">
        <ele>252</ele>
        <time>2022-06-27T11:13:18Z</time>
      </trkpt>
      <trkpt lat="43.1921" lon="-0.57545">
        <ele>253</ele>
        <time>2022-06-27T11:13:32Z</time>
      </trkpt>
      <trkpt lat="43.1922" lon="-0.57576">
        <ele>254</ele>
        <time>2022-06-27T11:13:36Z</time>
      </trkpt>
      <trkpt lat="43.19246" lon="-0.57628">
        <ele>253</ele>
        <time>2022-06-27T11:13:44Z</time>
      </trkpt>
      <trkpt lat="43.19268" lon="-0.57658">
        <ele>252</ele>
        <time>2022-06-27T11:13:50Z</time>
      </trkpt>
      <trkpt lat="43.19302" lon="-0.57795">
        <ele>250</ele>
        <time>2022-06-27T11:14:08Z</time>
      </trkpt>
      <trkpt lat="43.19338" lon="-0.57899">
        <ele>250</ele>
        <time>2022-06-27T11:14:23Z</time>
      </trkpt>
      <trkpt lat="43.19398" lon="-0.58018">
        <ele>249</ele>
        <time>2022-06-27T11:14:42Z</time>
      </trkpt>
      <trkpt lat="43.19483" lon="-0.58085">
        <ele>247</ele>
        <time>2022-06-27T11:15:00Z</time>
      </trkpt>
      <trkpt lat="43.195" lon="-0.58198">
        <ele>249</ele>
        <time>2022-06-27T11:15:15Z</time>
      </trkpt>
      <trkpt lat="43.19536" lon="-0.58282">
        <ele>247</ele>
        <time>2022-06-27T11:15:27Z</time>
      </trkpt>
      <trkpt lat="43.19567" lon="-0.58337">
        <ele>247</ele>
        <time>2022-06-27T11:15:36Z</time>
      </trkpt>
      <trkpt lat="43.19634" lon="-0.58406">
        <ele>245</ele>
        <time>2022-06-27T11:15:51Z</time>
      </trkpt>
      <trkpt lat="43.19675" lon="-0.58518">
        <ele>245</ele>
        <time>2022-06-27T11:16:07Z</time>
      </trkpt>
      <trkpt lat="43.19703" lon="-0.58561">
        <ele>244</ele>
        <time>2022-06-27T11:16:15Z</time>
      </trkpt>
      <trkpt lat="43.19756" lon="-0.58672">
        <ele>243</ele>
        <time>2022-06-27T11:16:32Z</time>
      </trkpt>
      <trkpt lat="43.19804" lon="-0.58782">
        <ele>242</ele>
        <time>2022-06-27T11:16:49Z</time>
      </trkpt>
      <trkpt lat="43.19812" lon="-0.58812">
        <ele>241</ele>
        <time>2022-06-27T11:16:53Z</time>
      </trkpt>
      <trkpt lat="43.1985" lon="-0.59042">
        <ele>241</ele>
        <time>2022-06-27T11:17:23Z</time>
      </trkpt>
      <trkpt lat="43.1987" lon="-0.591">
        <ele>241</ele>
        <time>2022-06-27T11:17:32Z</time>
      </trkpt>
      <trkpt lat="43.19878" lon="-0.59111">
        <ele>240</ele>
        <time>2022-06-27T11:17:34Z</time>
      </trkpt>
      <trkpt lat="43.19934" lon="-0.59147">
        <ele>240</ele>
        <time>2022-06-27T11:17:45Z</time>
      </trkpt>
      <trkpt lat="43.19958" lon="-0.59179">
        <ele>240</ele>
        <time>2022-06-27T11:17:51Z</time>
      </trkpt>
      <trkpt lat="43.19967" lon="-0.59173">
        <ele>239</ele>
        <time>2022-06-27T11:17:52Z</time>
      </trkpt>
      <trkpt lat="43.19973" lon="-0.59176">
        <ele>239</ele>
        <time>2022-06-27T11:17:54Z</time>
      </trkpt>
      <trkpt lat="43.19975" lon="-0.59196">
        <ele>239</ele>
        <time>2022-06-27T11:17:56Z</time>
      </trkpt>
      <trkpt lat="43.20016" lon="-0.59209">
        <ele>239</ele>
        <time>2022-06-27T11:18:04Z</time>
      </trkpt>
      <trkpt lat="43.20054" lon="-0.59208">
        <ele>238</ele>
        <time>2022-06-27T11:18:10Z</time>
      </trkpt>
      <trkpt lat="43.20073" lon="-0.59215">
        <ele>238</ele>
        <time>2022-06-27T11:18:14Z</time>
      </trkpt>
      <trkpt lat="43.20082" lon="-0.59225">
        <ele>238</ele>
        <time>2022-06-27T11:18:16Z</time>
      </trkpt>
      <trkpt lat="43.201" lon="-0.5927">
        <ele>238</ele>
        <time>2022-06-27T11:18:23Z</time>
      </trkpt>
      <trkpt lat="43.20103" lon="-0.59339">
        <ele>238</ele>
        <time>2022-06-27T11:18:32Z</time>
      </trkpt>
      <trkpt lat="43.2008" lon="-0.5949">
        <ele>237</ele>
        <time>2022-06-27T11:18:52Z</time>
      </trkpt>
      <trkpt lat="43.20088" lon="-0.59562">
        <ele>237</ele>
        <time>2022-06-27T11:19:01Z</time>
      </trkpt>
      <trkpt lat="43.2014" lon="-0.59721">
        <ele>235</ele>
        <time>2022-06-27T11:19:24Z</time>
      </trkpt>
      <trkpt lat="43.20169" lon="-0.59786">
        <ele>235</ele>
        <time>2022-06-27T11:19:34Z</time>
      </trkpt>
      <trkpt lat="43.20194" lon="-0.59824">
        <ele>235</ele>
        <time>2022-06-27T11:19:40Z</time>
      </trkpt>
      <trkpt lat="43.20231" lon="-0.59943">
        <ele>233</ele>
        <time>2022-06-27T11:19:57Z</time>
      </trkpt>
      <trkpt lat="43.20162" lon="-0.60018">
        <ele>230</ele>
        <time>2022-06-27T11:20:13Z</time>
      </trkpt>
      <trkpt lat="43.20212" lon="-0.60084">
        <ele>228</ele>
        <time>2022-06-27T11:20:25Z</time>
      </trkpt>
      <trkpt lat="43.20223" lon="-0.60111">
        <ele>228</ele>
        <time>2022-06-27T11:20:29Z</time>
      </trkpt>
      <trkpt lat="43.20247" lon="-0.60229">
        <ele>229</ele>
        <time>2022-06-27T11:20:45Z</time>
      </trkpt>
      <trkpt lat="43.20259" lon="-0.60255">
        <ele>229</ele>
        <time>2022-06-27T11:20:49Z</time>
      </trkpt>
      <trkpt lat="43.20312" lon="-0.60303">
        <ele>227</ele>
        <time>2022-06-27T11:21:00Z</time>
      </trkpt>
      <trkpt lat="43.20335" lon="-0.60386">
        <ele>224</ele>
        <time>2022-06-27T11:21:12Z</time>
      </trkpt>
      <trkpt lat="43.20334" lon="-0.604">
        <ele>224</ele>
        <time>2022-06-27T11:21:14Z</time>
      </trkpt>
      <trkpt lat="43.20319" lon="-0.60429">
        <ele>224</ele>
        <time>2022-06-27T11:21:18Z</time>
      </trkpt>
      <trkpt lat="43.20351" lon="-0.60474">
        <ele>221</ele>
        <time>2022-06-27T11:21:26Z</time>
      </trkpt>
      <trkpt lat="43.204" lon="-0.60588">
        <ele>220</ele>
        <time>2022-06-27T11:21:44Z</time>
      </trkpt>
      <trkpt lat="43.205" lon="-0.60684">
        <ele>225</ele>
        <time>2022-06-27T11:22:05Z</time>
      </trkpt>
      <trkpt lat="43.20573" lon="-0.60766">
        <ele>223</ele>
        <time>2022-06-27T11:22:22Z</time>
      </trkpt>
      <trkpt lat="43.20798" lon="-0.61072">
        <ele>222</ele>
        <time>2022-06-27T11:23:18Z</time>
      </trkpt>
      <trkpt lat="43.21003" lon="-0.61326">
        <ele>219</ele>
        <time>2022-06-27T11:24:08Z</time>
      </trkpt>
      <trkpt lat="43.21075" lon="-0.61376">
        <ele>219</ele>
        <time>2022-06-27T11:24:22Z</time>
      </trkpt>
      <trkpt lat="43.2113" lon="-0.61393">
        <ele>219</ele>
        <time>2022-06-27T11:24:32Z</time>
      </trkpt>
      <trkpt lat="43.21246" lon="-0.61413">
        <ele>220</ele>
        <time>2022-06-27T11:24:53Z</time>
      </trkpt>
      <trkpt lat="43.21292" lon="-0.61432">
        <ele>220</ele>
        <time>2022-06-27T11:25:01Z</time>
      </trkpt>
      <trkpt lat="43.21363" lon="-0.61487">
        <ele>221</ele>
        <time>2022-06-27T11:25:16Z</time>
      </trkpt>
      <trkpt lat="43.21409" lon="-0.61543">
        <ele>221</ele>
        <time>2022-06-27T11:25:27Z</time>
      </trkpt>
      <trkpt lat="43.21501" lon="-0.61701">
        <ele>219</ele>
        <time>2022-06-27T11:25:53Z</time>
      </trkpt>
      <trkpt lat="43.21634" lon="-0.62007">
        <ele>219</ele>
        <time>2022-06-27T11:26:39Z</time>
      </trkpt>
      <trkpt lat="43.2166" lon="-0.62039">
        <ele>219</ele>
        <time>2022-06-27T11:26:45Z</time>
      </trkpt>
      <trkpt lat="43.21657" lon="-0.62051">
        <ele>218</ele>
        <time>2022-06-27T11:26:47Z</time>
      </trkpt>
      <trkpt lat="43.21666" lon="-0.62075">
        <ele>217</ele>
        <time>2022-06-27T11:26:51Z</time>
      </trkpt>
      <trkpt lat="43.21701" lon="-0.62134">
        <ele>217</ele>
        <time>2022-06-27T11:27:00Z</time>
      </trkpt>
      <trkpt lat="43.21736" lon="-0.62174">
        <ele>219</ele>
        <time>2022-06-27T11:27:08Z</time>
      </trkpt>
      <trkpt lat="43.21742" lon="-0.62188">
        <ele>219</ele>
        <time>2022-06-27T11:27:11Z</time>
      </trkpt>
      <trkpt lat="43.21738" lon="-0.62197">
        <ele>219</ele>
        <time>2022-06-27T11:27:12Z</time>
      </trkpt>
      <trkpt lat="43.21743" lon="-0.62236">
        <ele>220</ele>
        <time>2022-06-27T11:27:17Z</time>
      </trkpt>
      <trkpt lat="43.21798" lon="-0.62491">
        <ele>217</ele>
        <time>2022-06-27T11:27:52Z</time>
      </trkpt>
      <trkpt lat="43.2184" lon="-0.62586">
        <ele>214</ele>
        <time>2022-06-27T11:28:06Z</time>
      </trkpt>
      <trkpt lat="43.2188" lon="-0.62664">
        <ele>215</ele>
        <time>2022-06-27T11:28:18Z</time>
      </trkpt>
      <trkpt lat="43.2204" lon="-0.62839">
        <ele>212</ele>
        <time>2022-06-27T11:28:55Z</time>
      </trkpt>
      <trkpt lat="43.22247" lon="-0.63336">
        <ele>209</ele>
        <time>2022-06-27T11:30:09Z</time>
      </trkpt>
      <trkpt lat="43.22266" lon="-0.6337">
        <ele>209</ele>
        <time>2022-06-27T11:30:15Z</time>
      </trkpt>
      <trkpt lat="43.22432" lon="-0.6357">
        <ele>210</ele>
        <time>2022-06-27T11:30:54Z</time>
      </trkpt>
      <trkpt lat="43.22483" lon="-0.6364">
        <ele>209</ele>
        <time>2022-06-27T11:31:07Z</time>
      </trkpt>
      <trkpt lat="43.22672" lon="-0.64082">
        <ele>207</ele>
        <time>2022-06-27T11:32:13Z</time>
      </trkpt>
      <trkpt lat="43.22734" lon="-0.64173">
        <ele>206</ele>
        <time>2022-06-27T11:32:29Z</time>
      </trkpt>
      <trkpt lat="43.22793" lon="-0.64307">
        <ele>204</ele>
        <time>2022-06-27T11:32:50Z</time>
      </trkpt>
      <trkpt lat="43.22855" lon="-0.64471">
        <ele>205</ele>
        <time>2022-06-27T11:33:14Z</time>
      </trkpt>
      <trkpt lat="43.22866" lon="-0.64481">
        <ele>205</ele>
        <time>2022-06-27T11:33:16Z</time>
      </trkpt>
      <trkpt lat="43.22888" lon="-0.64487">
        <ele>205</ele>
        <time>2022-06-27T11:33:20Z</time>
      </trkpt>
      <trkpt lat="43.2328" lon="-0.64552">
        <ele>219</ele>
        <time>2022-06-27T11:34:30Z</time>
      </trkpt>
      <trkpt lat="43.23295" lon="-0.64559">
        <ele>221</ele>
        <time>2022-06-27T11:34:33Z</time>
      </trkpt>
      <trkpt lat="43.23316" lon="-0.64599">
        <ele>222</ele>
        <time>2022-06-27T11:34:39Z</time>
      </trkpt>
      <trkpt lat="43.23552" lon="-0.65269">
        <ele>235</ele>
        <time>2022-06-27T11:36:16Z</time>
      </trkpt>
      <trkpt lat="43.23749" lon="-0.65554">
        <ele>236</ele>
        <time>2022-06-27T11:37:07Z</time>
      </trkpt>
      <trkpt lat="43.24437" lon="-0.65799">
        <ele>223</ele>
        <time>2022-06-27T11:39:13Z</time>
      </trkpt>
      <trkpt lat="43.24476" lon="-0.65846">
        <ele>222</ele>
        <time>2022-06-27T11:39:22Z</time>
      </trkpt>
      <trkpt lat="43.24626" lon="-0.66074">
        <ele>221</ele>
        <time>2022-06-27T11:40:02Z</time>
      </trkpt>
      <trkpt lat="43.24646" lon="-0.66095">
        <ele>221</ele>
        <time>2022-06-27T11:40:07Z</time>
      </trkpt>
      <trkpt lat="43.25071" lon="-0.66283">
        <ele>222</ele>
        <time>2022-06-27T11:41:26Z</time>
      </trkpt>
      <trkpt lat="43.25107" lon="-0.66307">
        <ele>221</ele>
        <time>2022-06-27T11:41:33Z</time>
      </trkpt>
      <trkpt lat="43.25678" lon="-0.668">
        <ele>212</ele>
        <time>2022-06-27T11:43:33Z</time>
      </trkpt>
      <trkpt lat="43.26296" lon="-0.67409">
        <ele>208</ele>
        <time>2022-06-27T11:45:49Z</time>
      </trkpt>
      <trkpt lat="43.26335" lon="-0.67441">
        <ele>208</ele>
        <time>2022-06-27T11:45:57Z</time>
      </trkpt>
      <trkpt lat="43.26431" lon="-0.67551">
        <ele>210</ele>
        <time>2022-06-27T11:46:19Z</time>
      </trkpt>
      <trkpt lat="43.26617" lon="-0.67795">
        <ele>189</ele>
        <time>2022-06-27T11:47:05Z</time>
      </trkpt>
      <trkpt lat="43.26652" lon="-0.67817">
        <ele>186</ele>
        <time>2022-06-27T11:47:12Z</time>
      </trkpt>
      <trkpt lat="43.26743" lon="-0.67843">
        <ele>180</ele>
        <time>2022-06-27T11:47:28Z</time>
      </trkpt>
      <trkpt lat="43.26809" lon="-0.6789">
        <ele>177</ele>
        <time>2022-06-27T11:47:41Z</time>
      </trkpt>
      <trkpt lat="43.26857" lon="-0.67963">
        <ele>174</ele>
        <time>2022-06-27T11:47:54Z</time>
      </trkpt>
      <trkpt lat="43.26886" lon="-0.68019">
        <ele>172</ele>
        <time>2022-06-27T11:48:03Z</time>
      </trkpt>
      <trkpt lat="43.2694" lon="-0.68194">
        <ele>169</ele>
        <time>2022-06-27T11:48:28Z</time>
      </trkpt>
      <trkpt lat="43.26976" lon="-0.68291">
        <ele>166</ele>
        <time>2022-06-27T11:48:42Z</time>
      </trkpt>
      <trkpt lat="43.26953" lon="-0.68391">
        <ele>161</ele>
        <time>2022-06-27T11:48:55Z</time>
      </trkpt>
      <trkpt lat="43.26951" lon="-0.68439">
        <ele>161</ele>
        <time>2022-06-27T11:49:02Z</time>
      </trkpt>
      <trkpt lat="43.26933" lon="-0.68474">
        <ele>160</ele>
        <time>2022-06-27T11:49:07Z</time>
      </trkpt>
      <trkpt lat="43.26916" lon="-0.68527">
        <ele>160</ele>
        <time>2022-06-27T11:49:15Z</time>
      </trkpt>
      <trkpt lat="43.26901" lon="-0.68619">
        <ele>161</ele>
        <time>2022-06-27T11:49:27Z</time>
      </trkpt>
      <trkpt lat="43.26869" lon="-0.68679">
        <ele>162</ele>
        <time>2022-06-27T11:49:36Z</time>
      </trkpt>
      <trkpt lat="43.26846" lon="-0.68697">
        <ele>162</ele>
        <time>2022-06-27T11:49:41Z</time>
      </trkpt>
      <trkpt lat="43.26786" lon="-0.68764">
        <ele>161</ele>
        <time>2022-06-27T11:49:55Z</time>
      </trkpt>
      <trkpt lat="43.26773" lon="-0.68797">
        <ele>159</ele>
        <time>2022-06-27T11:50:00Z</time>
      </trkpt>
      <trkpt lat="43.26772" lon="-0.68854">
        <ele>158</ele>
        <time>2022-06-27T11:50:07Z</time>
      </trkpt>
      <trkpt lat="43.26814" lon="-0.68938">
        <ele>158</ele>
        <time>2022-06-27T11:50:20Z</time>
      </trkpt>
      <trkpt lat="43.2686" lon="-0.68999">
        <ele>158</ele>
        <time>2022-06-27T11:50:32Z</time>
      </trkpt>
      <trkpt lat="43.26872" lon="-0.69024">
        <ele>157</ele>
        <time>2022-06-27T11:50:36Z</time>
      </trkpt>
      <trkpt lat="43.26906" lon="-0.69146">
        <ele>155</ele>
        <time>2022-06-27T11:50:53Z</time>
      </trkpt>
      <trkpt lat="43.26921" lon="-0.69337">
        <ele>158</ele>
        <time>2022-06-27T11:51:17Z</time>
      </trkpt>
      <trkpt lat="43.26978" lon="-0.69506">
        <ele>155</ele>
        <time>2022-06-27T11:51:42Z</time>
      </trkpt>
      <trkpt lat="43.26989" lon="-0.69525">
        <ele>155</ele>
        <time>2022-06-27T11:51:45Z</time>
      </trkpt>
      <trkpt lat="43.2709" lon="-0.69639">
        <ele>155</ele>
        <time>2022-06-27T11:52:08Z</time>
      </trkpt>
      <trkpt lat="43.27109" lon="-0.69671">
        <ele>155</ele>
        <time>2022-06-27T11:52:13Z</time>
      </trkpt>
      <trkpt lat="43.273" lon="-0.70046">
        <ele>154</ele>
        <time>2022-06-27T11:53:13Z</time>
      </trkpt>
      <trkpt lat="43.27464" lon="-0.7033">
        <ele>153</ele>
        <time>2022-06-27T11:54:00Z</time>
      </trkpt>
      <trkpt lat="43.2755" lon="-0.70554">
        <ele>153</ele>
        <time>2022-06-27T11:54:32Z</time>
      </trkpt>
      <trkpt lat="43.27649" lon="-0.70679">
        <ele>158</ele>
        <time>2022-06-27T11:54:56Z</time>
      </trkpt>
      <trkpt lat="43.27677" lon="-0.70705">
        <ele>159</ele>
        <time>2022-06-27T11:55:02Z</time>
      </trkpt>
      <trkpt lat="43.27873" lon="-0.70807">
        <ele>161</ele>
        <time>2022-06-27T11:55:40Z</time>
      </trkpt>
      <trkpt lat="43.28008" lon="-0.7092">
        <ele>160</ele>
        <time>2022-06-27T11:56:08Z</time>
      </trkpt>
      <trkpt lat="43.28094" lon="-0.71024">
        <ele>159</ele>
        <time>2022-06-27T11:56:28Z</time>
      </trkpt>
      <trkpt lat="43.28148" lon="-0.71103">
        <ele>160</ele>
        <time>2022-06-27T11:56:42Z</time>
      </trkpt>
      <trkpt lat="43.28168" lon="-0.71145">
        <ele>161</ele>
        <time>2022-06-27T11:56:49Z</time>
      </trkpt>
      <trkpt lat="43.28216" lon="-0.7122">
        <ele>160</ele>
        <time>2022-06-27T11:57:02Z</time>
      </trkpt>
      <trkpt lat="43.28667" lon="-0.71715">
        <ele>157</ele>
        <time>2022-06-27T11:58:44Z</time>
      </trkpt>
      <trkpt lat="43.28777" lon="-0.71804">
        <ele>158</ele>
        <time>2022-06-27T11:59:07Z</time>
      </trkpt>
      <trkpt lat="43.28893" lon="-0.7195">
        <ele>157</ele>
        <time>2022-06-27T11:59:35Z</time>
      </trkpt>
      <trkpt lat="43.28915" lon="-0.72021">
        <ele>156</ele>
        <time>2022-06-27T11:59:45Z</time>
      </trkpt>
      <trkpt lat="43.28951" lon="-0.72181">
        <ele>155</ele>
        <time>2022-06-27T12:00:07Z</time>
      </trkpt>
      <trkpt lat="43.29012" lon="-0.72302">
        <ele>156</ele>
        <time>2022-06-27T12:00:26Z</time>
      </trkpt>
      <trkpt lat="43.2908" lon="-0.72464">
        <ele>155</ele>
        <time>2022-06-27T12:00:50Z</time>
      </trkpt>
      <trkpt lat="43.29157" lon="-0.72581">
        <ele>155</ele>
        <time>2022-06-27T12:01:10Z</time>
      </trkpt>
      <trkpt lat="43.29194" lon="-0.72623">
        <ele>155</ele>
        <time>2022-06-27T12:01:19Z</time>
      </trkpt>
      <trkpt lat="43.29243" lon="-0.7267">
        <ele>155</ele>
        <time>2022-06-27T12:01:30Z</time>
      </trkpt>
      <trkpt lat="43.29326" lon="-0.72734">
        <ele>152</ele>
        <time>2022-06-27T12:01:47Z</time>
      </trkpt>
      <trkpt lat="43.29384" lon="-0.72796">
        <ele>152</ele>
        <time>2022-06-27T12:02:00Z</time>
      </trkpt>
      <trkpt lat="43.29406" lon="-0.72832">
        <ele>151</ele>
        <time>2022-06-27T12:02:06Z</time>
      </trkpt>
      <trkpt lat="43.29545" lon="-0.73222">
        <ele>152</ele>
        <time>2022-06-27T12:03:02Z</time>
      </trkpt>
      <trkpt lat="43.29575" lon="-0.73364">
        <ele>152</ele>
        <time>2022-06-27T12:03:21Z</time>
      </trkpt>
      <trkpt lat="43.29634" lon="-0.73535">
        <ele>150</ele>
        <time>2022-06-27T12:03:46Z</time>
      </trkpt>
      <trkpt lat="43.29742" lon="-0.73696">
        <ele>149</ele>
        <time>2022-06-27T12:04:14Z</time>
      </trkpt>
      <trkpt lat="43.29852" lon="-0.73772">
        <ele>146</ele>
        <time>2022-06-27T12:04:36Z</time>
      </trkpt>
      <trkpt lat="43.29914" lon="-0.73798">
        <ele>148</ele>
        <time>2022-06-27T12:04:47Z</time>
      </trkpt>
      <trkpt lat="43.29956" lon="-0.73834">
        <ele>148</ele>
        <time>2022-06-27T12:04:56Z</time>
      </trkpt>
      <trkpt lat="43.29992" lon="-0.73893">
        <ele>148</ele>
        <time>2022-06-27T12:05:06Z</time>
      </trkpt>
      <trkpt lat="43.30276" lon="-0.74198">
        <ele>145</ele>
        <time>2022-06-27T12:06:10Z</time>
      </trkpt>
      <trkpt lat="43.30315" lon="-0.74253">
        <ele>146</ele>
        <time>2022-06-27T12:06:20Z</time>
      </trkpt>
      <trkpt lat="43.30365" lon="-0.7431">
        <ele>145</ele>
        <time>2022-06-27T12:06:32Z</time>
      </trkpt>
      <trkpt lat="43.30413" lon="-0.74387">
        <ele>145</ele>
        <time>2022-06-27T12:06:45Z</time>
      </trkpt>
      <trkpt lat="43.30435" lon="-0.74398">
        <ele>145</ele>
        <time>2022-06-27T12:06:49Z</time>
      </trkpt>
      <trkpt lat="43.30484" lon="-0.74391">
        <ele>145</ele>
        <time>2022-06-27T12:06:58Z</time>
      </trkpt>
      <trkpt lat="43.30515" lon="-0.74398">
        <ele>145</ele>
        <time>2022-06-27T12:07:03Z</time>
      </trkpt>
      <trkpt lat="43.30555" lon="-0.7443">
        <ele>146</ele>
        <time>2022-06-27T12:07:12Z</time>
      </trkpt>
      <trkpt lat="43.30579" lon="-0.74437">
        <ele>146</ele>
        <time>2022-06-27T12:07:16Z</time>
      </trkpt>
      <trkpt lat="43.30639" lon="-0.74416">
        <ele>144</ele>
        <time>2022-06-27T12:07:27Z</time>
      </trkpt>
      <trkpt lat="43.30667" lon="-0.74426">
        <ele>143</ele>
        <time>2022-06-27T12:07:32Z</time>
      </trkpt>
      <trkpt lat="43.30689" lon="-0.74448">
        <ele>144</ele>
        <time>2022-06-27T12:07:37Z</time>
      </trkpt>
      <trkpt lat="43.30743" lon="-0.74541">
        <ele>144</ele>
        <time>2022-06-27T12:07:52Z</time>
      </trkpt>
      <trkpt lat="43.3077" lon="-0.74566">
        <ele>143</ele>
        <time>2022-06-27T12:07:58Z</time>
      </trkpt>
      <trkpt lat="43.30859" lon="-0.74593">
        <ele>144</ele>
        <time>2022-06-27T12:08:14Z</time>
      </trkpt>
      <trkpt lat="43.30914" lon="-0.74649">
        <ele>140</ele>
        <time>2022-06-27T12:08:27Z</time>
      </trkpt>
      <trkpt lat="43.30955" lon="-0.74665">
        <ele>140</ele>
        <time>2022-06-27T12:08:34Z</time>
      </trkpt>
      <trkpt lat="43.30964" lon="-0.74676">
        <ele>140</ele>
        <time>2022-06-27T12:08:36Z</time>
      </trkpt>
      <trkpt lat="43.30992" lon="-0.7467">
        <ele>141</ele>
        <time>2022-06-27T12:08:41Z</time>
      </trkpt>
      <trkpt lat="43.31075" lon="-0.74698">
        <ele>144</ele>
        <time>2022-06-27T12:08:57Z</time>
      </trkpt>
      <trkpt lat="43.31121" lon="-0.74684">
        <ele>144</ele>
        <time>2022-06-27T12:09:05Z</time>
      </trkpt>
      <trkpt lat="43.31208" lon="-0.74742">
        <ele>143</ele>
        <time>2022-06-27T12:09:22Z</time>
      </trkpt>
      <trkpt lat="43.31275" lon="-0.74804">
        <ele>143</ele>
        <time>2022-06-27T12:09:37Z</time>
      </trkpt>
      <trkpt lat="43.31487" lon="-0.74872">
        <ele>140</ele>
        <time>2022-06-27T12:10:15Z</time>
      </trkpt>
      <trkpt lat="43.31528" lon="-0.74901">
        <ele>139</ele>
        <time>2022-06-27T12:10:24Z</time>
      </trkpt>
      <trkpt lat="43.3159" lon="-0.74919">
        <ele>140</ele>
        <time>2022-06-27T12:10:35Z</time>
      </trkpt>
      <trkpt lat="43.3168" lon="-0.74985">
        <ele>138</ele>
        <time>2022-06-27T12:10:53Z</time>
      </trkpt>
      <trkpt lat="43.31718" lon="-0.75021">
        <ele>138</ele>
        <time>2022-06-27T12:11:01Z</time>
      </trkpt>
      <trkpt lat="43.31769" lon="-0.75043">
        <ele>138</ele>
        <time>2022-06-27T12:11:11Z</time>
      </trkpt>
      <trkpt lat="43.31836" lon="-0.7503">
        <ele>138</ele>
        <time>2022-06-27T12:11:23Z</time>
      </trkpt>
      <trkpt lat="43.31855" lon="-0.75032">
        <ele>138</ele>
        <time>2022-06-27T12:11:26Z</time>
      </trkpt>
      <trkpt lat="43.31908" lon="-0.75073">
        <ele>139</ele>
        <time>2022-06-27T12:11:37Z</time>
      </trkpt>
      <trkpt lat="43.31957" lon="-0.75133">
        <ele>138</ele>
        <time>2022-06-27T12:11:49Z</time>
      </trkpt>
      <trkpt lat="43.32001" lon="-0.75173">
        <ele>137</ele>
        <time>2022-06-27T12:11:58Z</time>
      </trkpt>
      <trkpt lat="43.31998" lon="-0.7526">
        <ele>136</ele>
        <time>2022-06-27T12:12:09Z</time>
      </trkpt>
      <trkpt lat="43.32061" lon="-0.75478">
        <ele>135</ele>
        <time>2022-06-27T12:12:40Z</time>
      </trkpt>
      <trkpt lat="43.32066" lon="-0.75518">
        <ele>134</ele>
        <time>2022-06-27T12:12:45Z</time>
      </trkpt>
      <trkpt lat="43.32033" lon="-0.75634">
        <ele>130</ele>
        <time>2022-06-27T12:13:01Z</time>
      </trkpt>
      <trkpt lat="43.32036" lon="-0.75659">
        <ele>129</ele>
        <time>2022-06-27T12:13:04Z</time>
      </trkpt>
      <trkpt lat="43.32069" lon="-0.75755">
        <ele>130</ele>
        <time>2022-06-27T12:13:18Z</time>
      </trkpt>
      <trkpt lat="43.32078" lon="-0.7576">
        <ele>130</ele>
        <time>2022-06-27T12:13:20Z</time>
      </trkpt>
      <trkpt lat="43.32085" lon="-0.75744">
        <ele>130</ele>
        <time>2022-06-27T12:13:22Z</time>
      </trkpt>
      <trkpt lat="43.32112" lon="-0.75718">
        <ele>130</ele>
        <time>2022-06-27T12:13:28Z</time>
      </trkpt>
      <trkpt lat="43.32194" lon="-0.75692">
        <ele>130</ele>
        <time>2022-06-27T12:13:43Z</time>
      </trkpt>
      <trkpt lat="43.32235" lon="-0.75707">
        <ele>131</ele>
        <time>2022-06-27T12:13:51Z</time>
      </trkpt>
      <trkpt lat="43.32395" lon="-0.7581">
        <ele>129</ele>
        <time>2022-06-27T12:14:22Z</time>
      </trkpt>
      <trkpt lat="43.32415" lon="-0.7581">
        <ele>129</ele>
        <time>2022-06-27T12:14:26Z</time>
      </trkpt>
      <trkpt lat="43.32428" lon="-0.75796">
        <ele>129</ele>
        <time>2022-06-27T12:14:28Z</time>
      </trkpt>
      <trkpt lat="43.32443" lon="-0.75797">
        <ele>129</ele>
        <time>2022-06-27T12:14:31Z</time>
      </trkpt>
      <trkpt lat="43.32457" lon="-0.75821">
        <ele>129</ele>
        <time>2022-06-27T12:14:35Z</time>
      </trkpt>
      <trkpt lat="43.32447" lon="-0.75851">
        <ele>129</ele>
        <time>2022-06-27T12:14:39Z</time>
      </trkpt>
      <trkpt lat="43.32452" lon="-0.75965">
        <ele>129</ele>
        <time>2022-06-27T12:14:54Z</time>
      </trkpt>
      <trkpt lat="43.32479" lon="-0.7597">
        <ele>129</ele>
        <time>2022-06-27T12:14:59Z</time>
      </trkpt>
      <trkpt lat="43.32512" lon="-0.75963">
        <ele>130</ele>
        <time>2022-06-27T12:15:05Z</time>
      </trkpt>
      <trkpt lat="43.32539" lon="-0.7597">
        <ele>130</ele>
        <time>2022-06-27T12:15:10Z</time>
      </trkpt>
      <trkpt lat="43.32611" lon="-0.76029">
        <ele>129</ele>
        <time>2022-06-27T12:15:25Z</time>
      </trkpt>
      <trkpt lat="43.32773" lon="-0.7622">
        <ele>128</ele>
        <time>2022-06-27T12:16:03Z</time>
      </trkpt>
      <trkpt lat="43.32884" lon="-0.76275">
        <ele>127</ele>
        <time>2022-06-27T12:16:24Z</time>
      </trkpt>
      <trkpt lat="43.32973" lon="-0.76367">
        <ele>126</ele>
        <time>2022-06-27T12:16:44Z</time>
      </trkpt>
      <trkpt lat="43.33011" lon="-0.76372">
        <ele>126</ele>
        <time>2022-06-27T12:16:50Z</time>
      </trkpt>
      <trkpt lat="43.33087" lon="-0.7636">
        <ele>127</ele>
        <time>2022-06-27T12:17:04Z</time>
      </trkpt>
      <trkpt lat="43.33111" lon="-0.76363">
        <ele>127</ele>
        <time>2022-06-27T12:17:08Z</time>
      </trkpt>
      <trkpt lat="43.33213" lon="-0.76396">
        <ele>131</ele>
        <time>2022-06-27T12:17:27Z</time>
      </trkpt>
      <trkpt lat="43.33266" lon="-0.76403">
        <ele>134</ele>
        <time>2022-06-27T12:17:36Z</time>
      </trkpt>
      <trkpt lat="43.33386" lon="-0.7636">
        <ele>132</ele>
        <time>2022-06-27T12:17:58Z</time>
      </trkpt>
      <trkpt lat="43.33481" lon="-0.76408">
        <ele>131</ele>
        <time>2022-06-27T12:18:16Z</time>
      </trkpt>
      <trkpt lat="43.33571" lon="-0.76493">
        <ele>129</ele>
        <time>2022-06-27T12:18:36Z</time>
      </trkpt>
      <trkpt lat="43.33622" lon="-0.76526">
        <ele>127</ele>
        <time>2022-06-27T12:18:46Z</time>
      </trkpt>
      <trkpt lat="43.33632" lon="-0.76525">
        <ele>127</ele>
        <time>2022-06-27T12:18:48Z</time>
      </trkpt>
      <trkpt lat="43.3367" lon="-0.76496">
        <ele>127</ele>
        <time>2022-06-27T12:18:55Z</time>
      </trkpt>
      <trkpt lat="43.33758" lon="-0.76486">
        <ele>125</ele>
        <time>2022-06-27T12:19:11Z</time>
      </trkpt>
      <trkpt lat="43.33777" lon="-0.7649">
        <ele>125</ele>
        <time>2022-06-27T12:19:15Z</time>
      </trkpt>
      <trkpt lat="43.33834" lon="-0.76514">
        <ele>125</ele>
        <time>2022-06-27T12:19:25Z</time>
      </trkpt>
      <trkpt lat="43.3393" lon="-0.76613">
        <ele>124</ele>
        <time>2022-06-27T12:19:47Z</time>
      </trkpt>
      <trkpt lat="43.34153" lon="-0.76778">
        <ele>124</ele>
        <time>2022-06-27T12:20:32Z</time>
      </trkpt>
      <trkpt lat="43.34217" lon="-0.76817">
        <ele>124</ele>
        <time>2022-06-27T12:20:44Z</time>
      </trkpt>
      <trkpt lat="43.34262" lon="-0.76835">
        <ele>124</ele>
        <time>2022-06-27T12:20:52Z</time>
      </trkpt>
      <trkpt lat="43.34263" lon="-0.76849">
        <ele>124</ele>
        <time>2022-06-27T12:20:54Z</time>
      </trkpt>
      <trkpt lat="43.34291" lon="-0.76919">
        <ele>123</ele>
        <time>2022-06-27T12:21:05Z</time>
      </trkpt>
      <trkpt lat="43.34307" lon="-0.77008">
        <ele>123</ele>
        <time>2022-06-27T12:21:16Z</time>
      </trkpt>
      <trkpt lat="43.34353" lon="-0.77115">
        <ele>120</ele>
        <time>2022-06-27T12:21:32Z</time>
      </trkpt>
      <trkpt lat="43.34379" lon="-0.77142">
        <ele>120</ele>
        <time>2022-06-27T12:21:38Z</time>
      </trkpt>
      <trkpt lat="43.34476" lon="-0.7722">
        <ele>120</ele>
        <time>2022-06-27T12:21:58Z</time>
      </trkpt>
      <trkpt lat="43.34573" lon="-0.77342">
        <ele>120</ele>
        <time>2022-06-27T12:22:22Z</time>
      </trkpt>
      <trkpt lat="43.34744" lon="-0.77691">
        <ele>118</ele>
        <time>2022-06-27T12:23:16Z</time>
      </trkpt>
      <trkpt lat="43.35241" lon="-0.78208">
        <ele>117</ele>
        <time>2022-06-27T12:25:07Z</time>
      </trkpt>
      <trkpt lat="43.35278" lon="-0.78278">
        <ele>117</ele>
        <time>2022-06-27T12:25:18Z</time>
      </trkpt>
      <trkpt lat="43.35675" lon="-0.78921">
        <ele>114</ele>
        <time>2022-06-27T12:27:07Z</time>
      </trkpt>
      <trkpt lat="43.35815" lon="-0.79158">
        <ele>110</ele>
        <time>2022-06-27T12:27:47Z</time>
      </trkpt>
      <trkpt lat="43.3596" lon="-0.795">
        <ele>107</ele>
        <time>2022-06-27T12:28:38Z</time>
      </trkpt>
      <trkpt lat="43.36052" lon="-0.79586">
        <ele>108</ele>
        <time>2022-06-27T12:28:58Z</time>
      </trkpt>
      <trkpt lat="43.36123" lon="-0.79618">
        <ele>107</ele>
        <time>2022-06-27T12:29:11Z</time>
      </trkpt>
      <trkpt lat="43.36163" lon="-0.7962">
        <ele>107</ele>
        <time>2022-06-27T12:29:18Z</time>
      </trkpt>
      <trkpt lat="43.36258" lon="-0.79571">
        <ele>106</ele>
        <time>2022-06-27T12:29:36Z</time>
      </trkpt>
      <trkpt lat="43.36303" lon="-0.79563">
        <ele>107</ele>
        <time>2022-06-27T12:29:44Z</time>
      </trkpt>
      <trkpt lat="43.36309" lon="-0.79555">
        <ele>107</ele>
        <time>2022-06-27T12:29:46Z</time>
      </trkpt>
      <trkpt lat="43.36316" lon="-0.79558">
        <ele>107</ele>
        <time>2022-06-27T12:29:47Z</time>
      </trkpt>
      <trkpt lat="43.36315" lon="-0.79575">
        <ele>107</ele>
        <time>2022-06-27T12:29:49Z</time>
      </trkpt>
      <trkpt lat="43.36336" lon="-0.7964">
        <ele>108</ele>
        <time>2022-06-27T12:29:59Z</time>
      </trkpt>
      <trkpt lat="43.36385" lon="-0.79715">
        <ele>110</ele>
        <time>2022-06-27T12:30:12Z</time>
      </trkpt>
      <trkpt lat="43.36454" lon="-0.7987">
        <ele>108</ele>
        <time>2022-06-27T12:30:35Z</time>
      </trkpt>
      <trkpt lat="43.36471" lon="-0.79968">
        <ele>108</ele>
        <time>2022-06-27T12:30:48Z</time>
      </trkpt>
      <trkpt lat="43.36492" lon="-0.80181">
        <ele>105</ele>
        <time>2022-06-27T12:31:16Z</time>
      </trkpt>
      <trkpt lat="43.36603" lon="-0.80776">
        <ele>105</ele>
        <time>2022-06-27T12:32:35Z</time>
      </trkpt>
      <trkpt lat="43.36639" lon="-0.80843">
        <ele>104</ele>
        <time>2022-06-27T12:32:46Z</time>
      </trkpt>
      <trkpt lat="43.36712" lon="-0.80907">
        <ele>105</ele>
        <time>2022-06-27T12:33:02Z</time>
      </trkpt>
      <trkpt lat="43.36761" lon="-0.80981">
        <ele>105</ele>
        <time>2022-06-27T12:33:15Z</time>
      </trkpt>
      <trkpt lat="43.36813" lon="-0.81084">
        <ele>108</ele>
        <time>2022-06-27T12:33:31Z</time>
      </trkpt>
      <trkpt lat="43.3684" lon="-0.81174">
        <ele>109</ele>
        <time>2022-06-27T12:33:43Z</time>
      </trkpt>
      <trkpt lat="43.36855" lon="-0.81274">
        <ele>108</ele>
        <time>2022-06-27T12:33:57Z</time>
      </trkpt>
      <trkpt lat="43.36923" lon="-0.81515">
        <ele>109</ele>
        <time>2022-06-27T12:34:30Z</time>
      </trkpt>
      <trkpt lat="43.36928" lon="-0.81537">
        <ele>109</ele>
        <time>2022-06-27T12:34:33Z</time>
      </trkpt>
      <trkpt lat="43.36929" lon="-0.81631">
        <ele>108</ele>
        <time>2022-06-27T12:34:45Z</time>
      </trkpt>
      <trkpt lat="43.36971" lon="-0.81962">
        <ele>107</ele>
        <time>2022-06-27T12:35:29Z</time>
      </trkpt>
      <trkpt lat="43.36978" lon="-0.82103">
        <ele>106</ele>
        <time>2022-06-27T12:35:47Z</time>
      </trkpt>
      <trkpt lat="43.36997" lon="-0.82168">
        <ele>104</ele>
        <time>2022-06-27T12:35:56Z</time>
      </trkpt>
      <trkpt lat="43.37062" lon="-0.82291">
        <ele>106</ele>
        <time>2022-06-27T12:36:16Z</time>
      </trkpt>
      <trkpt lat="43.37088" lon="-0.82377">
        <ele>106</ele>
        <time>2022-06-27T12:36:28Z</time>
      </trkpt>
      <trkpt lat="43.37089" lon="-0.8243">
        <ele>104</ele>
        <time>2022-06-27T12:36:35Z</time>
      </trkpt>
      <trkpt lat="43.37077" lon="-0.82549">
        <ele>104</ele>
        <time>2022-06-27T12:36:50Z</time>
      </trkpt>
      <trkpt lat="43.37086" lon="-0.82615">
        <ele>104</ele>
        <time>2022-06-27T12:36:59Z</time>
      </trkpt>
      <trkpt lat="43.37086" lon="-0.82774">
        <ele>103</ele>
        <time>2022-06-27T12:37:19Z</time>
      </trkpt>
      <trkpt lat="43.37105" lon="-0.82924">
        <ele>100</ele>
        <time>2022-06-27T12:37:39Z</time>
      </trkpt>
      <trkpt lat="43.37128" lon="-0.82967">
        <ele>99</ele>
        <time>2022-06-27T12:37:46Z</time>
      </trkpt>
      <trkpt lat="43.37338" lon="-0.8323">
        <ele>98</ele>
        <time>2022-06-27T12:38:36Z</time>
      </trkpt>
      <trkpt lat="43.37389" lon="-0.83334">
        <ele>100</ele>
        <time>2022-06-27T12:38:53Z</time>
      </trkpt>
      <trkpt lat="43.37466" lon="-0.83587">
        <ele>98</ele>
        <time>2022-06-27T12:39:28Z</time>
      </trkpt>
      <trkpt lat="43.37526" lon="-0.83734">
        <ele>100</ele>
        <time>2022-06-27T12:39:50Z</time>
      </trkpt>
      <trkpt lat="43.37541" lon="-0.83802">
        <ele>100</ele>
        <time>2022-06-27T12:39:59Z</time>
      </trkpt>
      <trkpt lat="43.37543" lon="-0.83962">
        <ele>98</ele>
        <time>2022-06-27T12:40:20Z</time>
      </trkpt>
      <trkpt lat="43.37579" lon="-0.84096">
        <ele>97</ele>
        <time>2022-06-27T12:40:38Z</time>
      </trkpt>
      <trkpt lat="43.37631" lon="-0.84335">
        <ele>98</ele>
        <time>2022-06-27T12:41:11Z</time>
      </trkpt>
      <trkpt lat="43.37662" lon="-0.84414">
        <ele>97</ele>
        <time>2022-06-27T12:41:22Z</time>
      </trkpt>
      <trkpt lat="43.37859" lon="-0.84765">
        <ele>96</ele>
        <time>2022-06-27T12:42:20Z</time>
      </trkpt>
      <trkpt lat="43.37957" lon="-0.84903">
        <ele>96</ele>
        <time>2022-06-27T12:42:44Z</time>
      </trkpt>
      <trkpt lat="43.38014" lon="-0.85018">
        <ele>97</ele>
        <time>2022-06-27T12:43:02Z</time>
      </trkpt>
      <trkpt lat="43.38064" lon="-0.85082">
        <ele>99</ele>
        <time>2022-06-27T12:43:15Z</time>
      </trkpt>
      <trkpt lat="43.38097" lon="-0.85086">
        <ele>99</ele>
        <time>2022-06-27T12:43:21Z</time>
      </trkpt>
      <trkpt lat="43.38168" lon="-0.85113">
        <ele>98</ele>
        <time>2022-06-27T12:43:34Z</time>
      </trkpt>
      <trkpt lat="43.38377" lon="-0.85858">
        <ele>97</ele>
        <time>2022-06-27T12:45:17Z</time>
      </trkpt>
      <trkpt lat="43.38462" lon="-0.86055">
        <ele>96</ele>
        <time>2022-06-27T12:45:47Z</time>
      </trkpt>
      <trkpt lat="43.38491" lon="-0.86231">
        <ele>97</ele>
        <time>2022-06-27T12:46:10Z</time>
      </trkpt>
      <trkpt lat="43.38496" lon="-0.86353">
        <ele>96</ele>
        <time>2022-06-27T12:46:26Z</time>
      </trkpt>
      <trkpt lat="43.38512" lon="-0.8644">
        <ele>97</ele>
        <time>2022-06-27T12:46:37Z</time>
      </trkpt>
      <trkpt lat="43.3853" lon="-0.86786">
        <ele>99</ele>
        <time>2022-06-27T12:47:22Z</time>
      </trkpt>
      <trkpt lat="43.38532" lon="-0.86946">
        <ele>101</ele>
        <time>2022-06-27T12:47:43Z</time>
      </trkpt>
      <trkpt lat="43.38527" lon="-0.87027">
        <ele>102</ele>
        <time>2022-06-27T12:47:53Z</time>
      </trkpt>
      <trkpt lat="43.38448" lon="-0.87355">
        <ele>96</ele>
        <time>2022-06-27T12:48:38Z</time>
      </trkpt>
      <trkpt lat="43.38434" lon="-0.87542">
        <ele>93</ele>
        <time>2022-06-27T12:49:02Z</time>
      </trkpt>
      <trkpt lat="43.3844" lon="-0.87607">
        <ele>94</ele>
        <time>2022-06-27T12:49:11Z</time>
      </trkpt>
      <trkpt lat="43.38455" lon="-0.87642">
        <ele>96</ele>
        <time>2022-06-27T12:49:16Z</time>
      </trkpt>
      <trkpt lat="43.38494" lon="-0.87697">
        <ele>98</ele>
        <time>2022-06-27T12:49:26Z</time>
      </trkpt>
      <trkpt lat="43.38535" lon="-0.87729">
        <ele>97</ele>
        <time>2022-06-27T12:49:34Z</time>
      </trkpt>
      <trkpt lat="43.38562" lon="-0.87742">
        <ele>97</ele>
        <time>2022-06-27T12:49:39Z</time>
      </trkpt>
      <trkpt lat="43.38592" lon="-0.87743">
        <ele>98</ele>
        <time>2022-06-27T12:49:45Z</time>
      </trkpt>
      <trkpt lat="43.38615" lon="-0.87725">
        <ele>100</ele>
        <time>2022-06-27T12:49:49Z</time>
      </trkpt>
      <trkpt lat="43.38643" lon="-0.87691">
        <ele>104</ele>
        <time>2022-06-27T12:49:56Z</time>
      </trkpt>
      <trkpt lat="43.38661" lon="-0.87685">
        <ele>104</ele>
        <time>2022-06-27T12:49:59Z</time>
      </trkpt>
      <trkpt lat="43.38746" lon="-0.87703">
        <ele>106</ele>
        <time>2022-06-27T12:50:15Z</time>
      </trkpt>
      <trkpt lat="43.38782" lon="-0.87719">
        <ele>111</ele>
        <time>2022-06-27T12:50:21Z</time>
      </trkpt>
      <trkpt lat="43.38794" lon="-0.87745">
        <ele>114</ele>
        <time>2022-06-27T12:50:25Z</time>
      </trkpt>
      <trkpt lat="43.38788" lon="-0.87792">
        <ele>116</ele>
        <time>2022-06-27T12:50:32Z</time>
      </trkpt>
      <trkpt lat="43.38766" lon="-0.87858">
        <ele>117</ele>
        <time>2022-06-27T12:50:41Z</time>
      </trkpt>
      <trkpt lat="43.38769" lon="-0.87884">
        <ele>119</ele>
        <time>2022-06-27T12:50:44Z</time>
      </trkpt>
      <trkpt lat="43.38781" lon="-0.87901">
        <ele>120</ele>
        <time>2022-06-27T12:50:47Z</time>
      </trkpt>
      <trkpt lat="43.38798" lon="-0.87911">
        <ele>121</ele>
        <time>2022-06-27T12:50:51Z</time>
      </trkpt>
      <trkpt lat="43.38815" lon="-0.87905">
        <ele>122</ele>
        <time>2022-06-27T12:50:54Z</time>
      </trkpt>
      <trkpt lat="43.38917" lon="-0.87831">
        <ele>116</ele>
        <time>2022-06-27T12:51:14Z</time>
      </trkpt>
      <trkpt lat="43.38949" lon="-0.87814">
        <ele>112</ele>
        <time>2022-06-27T12:51:21Z</time>
      </trkpt>
      <trkpt lat="43.38976" lon="-0.87781">
        <ele>109</ele>
        <time>2022-06-27T12:51:27Z</time>
      </trkpt>
      <trkpt lat="43.38992" lon="-0.87775">
        <ele>107</ele>
        <time>2022-06-27T12:51:30Z</time>
      </trkpt>
      <trkpt lat="43.39006" lon="-0.87776">
        <ele>105</ele>
        <time>2022-06-27T12:51:32Z</time>
      </trkpt>
      <trkpt lat="43.39031" lon="-0.87806">
        <ele>101</ele>
        <time>2022-06-27T12:51:38Z</time>
      </trkpt>
      <trkpt lat="43.3906" lon="-0.87858">
        <ele>97</ele>
        <time>2022-06-27T12:51:47Z</time>
      </trkpt>
      <trkpt lat="43.39079" lon="-0.88079">
        <ele>100</ele>
        <time>2022-06-27T12:52:16Z</time>
      </trkpt>
      <trkpt lat="43.39057" lon="-0.88261">
        <ele>99</ele>
        <time>2022-06-27T12:52:39Z</time>
      </trkpt>
      <trkpt lat="43.39066" lon="-0.88572">
        <ele>103</ele>
        <time>2022-06-27T12:53:20Z</time>
      </trkpt>
      <trkpt lat="43.39044" lon="-0.88659">
        <ele>100</ele>
        <time>2022-06-27T12:53:32Z</time>
      </trkpt>
      <trkpt lat="43.39042" lon="-0.88699">
        <ele>99</ele>
        <time>2022-06-27T12:53:37Z</time>
      </trkpt>
      <trkpt lat="43.39052" lon="-0.88738">
        <ele>100</ele>
        <time>2022-06-27T12:53:42Z</time>
      </trkpt>
      <trkpt lat="43.39025" lon="-0.88777">
        <ele>92</ele>
        <time>2022-06-27T12:53:49Z</time>
      </trkpt>
      <trkpt lat="43.39024" lon="-0.88793">
        <ele>91</ele>
        <time>2022-06-27T12:53:51Z</time>
      </trkpt>
      <trkpt lat="43.39092" lon="-0.8902">
        <ele>94</ele>
        <time>2022-06-27T12:54:23Z</time>
      </trkpt>
      <trkpt lat="43.39114" lon="-0.89116">
        <ele>95</ele>
        <time>2022-06-27T12:54:36Z</time>
      </trkpt>
      <trkpt lat="43.39134" lon="-0.89241">
        <ele>91</ele>
        <time>2022-06-27T12:54:52Z</time>
      </trkpt>
      <trkpt lat="43.39157" lon="-0.89284">
        <ele>90</ele>
        <time>2022-06-27T12:54:59Z</time>
      </trkpt>
      <trkpt lat="43.39163" lon="-0.89313">
        <ele>88</ele>
        <time>2022-06-27T12:55:03Z</time>
      </trkpt>
      <trkpt lat="43.39126" lon="-0.8948">
        <ele>89</ele>
        <time>2022-06-27T12:55:26Z</time>
      </trkpt>
      <trkpt lat="43.39134" lon="-0.8955">
        <ele>92</ele>
        <time>2022-06-27T12:55:35Z</time>
      </trkpt>
      <trkpt lat="43.39172" lon="-0.89679">
        <ele>93</ele>
        <time>2022-06-27T12:55:53Z</time>
      </trkpt>
      <trkpt lat="43.39168" lon="-0.89999">
        <ele>91</ele>
        <time>2022-06-27T12:56:34Z</time>
      </trkpt>
      <trkpt lat="43.39154" lon="-0.90169">
        <ele>96</ele>
        <time>2022-06-27T12:56:56Z</time>
      </trkpt>
      <trkpt lat="43.3914" lon="-0.90257">
        <ele>95</ele>
        <time>2022-06-27T12:57:08Z</time>
      </trkpt>
      <trkpt lat="43.39131" lon="-0.90424">
        <ele>94</ele>
        <time>2022-06-27T12:57:30Z</time>
      </trkpt>
      <trkpt lat="43.3919" lon="-0.90667">
        <ele>90</ele>
        <time>2022-06-27T12:58:03Z</time>
      </trkpt>
      <trkpt lat="43.39239" lon="-0.90797">
        <ele>91</ele>
        <time>2022-06-27T12:58:22Z</time>
      </trkpt>
      <trkpt lat="43.39276" lon="-0.90865">
        <ele>90</ele>
        <time>2022-06-27T12:58:33Z</time>
      </trkpt>
      <trkpt lat="43.39325" lon="-0.90922">
        <ele>91</ele>
        <time>2022-06-27T12:58:44Z</time>
      </trkpt>
      <trkpt lat="43.39353" lon="-0.90989">
        <ele>88</ele>
        <time>2022-06-27T12:58:54Z</time>
      </trkpt>
      <trkpt lat="43.39373" lon="-0.91012">
        <ele>86</ele>
        <time>2022-06-27T12:58:59Z</time>
      </trkpt>
      <trkpt lat="43.39438" lon="-0.91056">
        <ele>86</ele>
        <time>2022-06-27T12:59:12Z</time>
      </trkpt>
      <trkpt lat="43.39453" lon="-0.91085">
        <ele>86</ele>
        <time>2022-06-27T12:59:16Z</time>
      </trkpt>
      <trkpt lat="43.3945" lon="-0.91127">
        <ele>86</ele>
        <time>2022-06-27T12:59:22Z</time>
      </trkpt>
      <trkpt lat="43.39443" lon="-0.9114">
        <ele>86</ele>
        <time>2022-06-27T12:59:24Z</time>
      </trkpt>
      <trkpt lat="43.39399" lon="-0.9118">
        <ele>81</ele>
        <time>2022-06-27T12:59:33Z</time>
      </trkpt>
      <trkpt lat="43.39399" lon="-0.91196">
        <ele>81</ele>
        <time>2022-06-27T12:59:35Z</time>
      </trkpt>
      <trkpt lat="43.39424" lon="-0.91265">
        <ele>83</ele>
        <time>2022-06-27T12:59:45Z</time>
      </trkpt>
      <trkpt lat="43.39437" lon="-0.91328">
        <ele>82</ele>
        <time>2022-06-27T12:59:54Z</time>
      </trkpt>
      <trkpt lat="43.39444" lon="-0.91431">
        <ele>79</ele>
        <time>2022-06-27T13:00:07Z</time>
      </trkpt>
      <trkpt lat="43.39441" lon="-0.91598">
        <ele>85</ele>
        <time>2022-06-27T13:00:29Z</time>
      </trkpt>
      <trkpt lat="43.39409" lon="-0.91755">
        <ele>83</ele>
        <time>2022-06-27T13:00:50Z</time>
      </trkpt>
      <trkpt lat="43.39405" lon="-0.91829">
        <ele>84</ele>
        <time>2022-06-27T13:00:59Z</time>
      </trkpt>
      <trkpt lat="43.39409" lon="-0.91878">
        <ele>83</ele>
        <time>2022-06-27T13:01:06Z</time>
      </trkpt>
      <trkpt lat="43.3947" lon="-0.92094">
        <ele>82</ele>
        <time>2022-06-27T13:01:36Z</time>
      </trkpt>
      <trkpt lat="43.39482" lon="-0.92158">
        <ele>82</ele>
        <time>2022-06-27T13:01:44Z</time>
      </trkpt>
      <trkpt lat="43.39487" lon="-0.92251">
        <ele>82</ele>
        <time>2022-06-27T13:01:56Z</time>
      </trkpt>
      <trkpt lat="43.39505" lon="-0.9231">
        <ele>83</ele>
        <time>2022-06-27T13:02:05Z</time>
      </trkpt>
      <trkpt lat="43.39525" lon="-0.92337">
        <ele>85</ele>
        <time>2022-06-27T13:02:10Z</time>
      </trkpt>
      <trkpt lat="43.39577" lon="-0.92351">
        <ele>88</ele>
        <time>2022-06-27T13:02:19Z</time>
      </trkpt>
      <trkpt lat="43.39599" lon="-0.9238">
        <ele>88</ele>
        <time>2022-06-27T13:02:24Z</time>
      </trkpt>
      <trkpt lat="43.39664" lon="-0.92552">
        <ele>87</ele>
        <time>2022-06-27T13:02:50Z</time>
      </trkpt>
      <trkpt lat="43.39697" lon="-0.92656">
        <ele>87</ele>
        <time>2022-06-27T13:03:04Z</time>
      </trkpt>
      <trkpt lat="43.39716" lon="-0.92693">
        <ele>87</ele>
        <time>2022-06-27T13:03:10Z</time>
      </trkpt>
      <trkpt lat="43.39838" lon="-0.93005">
        <ele>89</ele>
        <time>2022-06-27T13:03:56Z</time>
      </trkpt>
      <trkpt lat="43.39848" lon="-0.93018">
        <ele>89</ele>
        <time>2022-06-27T13:03:58Z</time>
      </trkpt>
      <trkpt lat="43.3986" lon="-0.93019">
        <ele>89</ele>
        <time>2022-06-27T13:04:00Z</time>
      </trkpt>
      <trkpt lat="43.39911" lon="-0.92996">
        <ele>91</ele>
        <time>2022-06-27T13:04:10Z</time>
      </trkpt>
      <trkpt lat="43.39947" lon="-0.92997">
        <ele>91</ele>
        <time>2022-06-27T13:04:16Z</time>
      </trkpt>
      <trkpt lat="43.40056" lon="-0.93026">
        <ele>95</ele>
        <time>2022-06-27T13:04:36Z</time>
      </trkpt>
      <trkpt lat="43.40074" lon="-0.93042">
        <ele>95</ele>
        <time>2022-06-27T13:04:40Z</time>
      </trkpt>
      <trkpt lat="43.40086" lon="-0.93067">
        <ele>95</ele>
        <time>2022-06-27T13:04:44Z</time>
      </trkpt>
      <trkpt lat="43.40105" lon="-0.93263">
        <ele>94</ele>
        <time>2022-06-27T13:05:09Z</time>
      </trkpt>
      <trkpt lat="43.40027" lon="-0.9344">
        <ele>88</ele>
        <time>2022-06-27T13:05:36Z</time>
      </trkpt>
      <trkpt lat="43.40007" lon="-0.93505">
        <ele>87</ele>
        <time>2022-06-27T13:05:45Z</time>
      </trkpt>
      <trkpt lat="43.40057" lon="-0.93528">
        <ele>88</ele>
        <time>2022-06-27T13:05:55Z</time>
      </trkpt>
      <trkpt lat="43.40067" lon="-0.9354">
        <ele>88</ele>
        <time>2022-06-27T13:05:57Z</time>
      </trkpt>
      <trkpt lat="43.40067" lon="-0.93559">
        <ele>88</ele>
        <time>2022-06-27T13:06:00Z</time>
      </trkpt>
      <trkpt lat="43.40004" lon="-0.93908">
        <ele>85</ele>
        <time>2022-06-27T13:06:46Z</time>
      </trkpt>
      <trkpt lat="43.4011" lon="-0.93935">
        <ele>85</ele>
        <time>2022-06-27T13:07:05Z</time>
      </trkpt>
      <trkpt lat="43.40101" lon="-0.94061">
        <ele>82</ele>
        <time>2022-06-27T13:07:22Z</time>
      </trkpt>
      <trkpt lat="43.40094" lon="-0.94303">
        <ele>82</ele>
        <time>2022-06-27T13:07:53Z</time>
      </trkpt>
      <trkpt lat="43.39977" lon="-0.94296">
        <ele>83</ele>
        <time>2022-06-27T13:08:14Z</time>
      </trkpt>
      <trkpt lat="43.39963" lon="-0.94333">
        <ele>83</ele>
        <time>2022-06-27T13:08:19Z</time>
      </trkpt>
      <trkpt lat="43.39808" lon="-0.94294">
        <ele>82</ele>
        <time>2022-06-27T13:08:47Z</time>
      </trkpt>
      <trkpt lat="43.39793" lon="-0.94266">
        <ele>82</ele>
        <time>2022-06-27T13:08:52Z</time>
      </trkpt>
      <trkpt lat="43.39788" lon="-0.94239">
        <ele>83</ele>
        <time>2022-06-27T13:08:55Z</time>
      </trkpt>
      <trkpt lat="43.39684" lon="-0.94261">
        <ele>70</ele>
        <time>2022-06-27T13:09:14Z</time>
      </trkpt>
      <trkpt lat="43.39665" lon="-0.94271">
        <ele>67</ele>
        <time>2022-06-27T13:09:18Z</time>
      </trkpt>
      <trkpt lat="43.39611" lon="-0.9448">
        <ele>60</ele>
        <time>2022-06-27T13:09:46Z</time>
      </trkpt>
      <trkpt lat="43.39607" lon="-0.94547">
        <ele>60</ele>
        <time>2022-06-27T13:09:55Z</time>
      </trkpt>
      <trkpt lat="43.3959" lon="-0.94569">
        <ele>58</ele>
        <time>2022-06-27T13:09:59Z</time>
      </trkpt>
      <trkpt lat="43.39572" lon="-0.94564">
        <ele>56</ele>
        <time>2022-06-27T13:10:02Z</time>
      </trkpt>
      <trkpt lat="43.39563" lon="-0.94541">
        <ele>56</ele>
        <time>2022-06-27T13:10:06Z</time>
      </trkpt>
      <trkpt lat="43.39535" lon="-0.94509">
        <ele>54</ele>
        <time>2022-06-27T13:10:12Z</time>
      </trkpt>
      <trkpt lat="43.39393" lon="-0.94445">
        <ele>56</ele>
        <time>2022-06-27T13:10:39Z</time>
      </trkpt>
      <trkpt lat="43.39353" lon="-0.9442">
        <ele>61</ele>
        <time>2022-06-27T13:10:47Z</time>
      </trkpt>
      <trkpt lat="43.39206" lon="-0.94293">
        <ele>69</ele>
        <time>2022-06-27T13:11:17Z</time>
      </trkpt>
      <trkpt lat="43.39169" lon="-0.94285">
        <ele>70</ele>
        <time>2022-06-27T13:11:24Z</time>
      </trkpt>
      <trkpt lat="43.39137" lon="-0.94289">
        <ele>71</ele>
        <time>2022-06-27T13:11:30Z</time>
      </trkpt>
      <trkpt lat="43.39022" lon="-0.94315">
        <ele>71</ele>
        <time>2022-06-27T13:11:51Z</time>
      </trkpt>
      <trkpt lat="43.38981" lon="-0.94338">
        <ele>71</ele>
        <time>2022-06-27T13:11:58Z</time>
      </trkpt>
      <trkpt lat="43.38964" lon="-0.94357">
        <ele>71</ele>
        <time>2022-06-27T13:12:02Z</time>
      </trkpt>
      <trkpt lat="43.38955" lon="-0.94383">
        <ele>70</ele>
        <time>2022-06-27T13:12:06Z</time>
      </trkpt>
      <trkpt lat="43.38938" lon="-0.94386">
        <ele>71</ele>
        <time>2022-06-27T13:12:09Z</time>
      </trkpt>
      <trkpt lat="43.389" lon="-0.94424">
        <ele>71</ele>
        <time>2022-06-27T13:12:18Z</time>
      </trkpt>
      <trkpt lat="43.38684" lon="-0.94564">
        <ele>72</ele>
        <time>2022-06-27T13:13:00Z</time>
      </trkpt>
      <trkpt lat="43.38632" lon="-0.94607">
        <ele>72</ele>
        <time>2022-06-27T13:13:11Z</time>
      </trkpt>
      <trkpt lat="43.3859" lon="-0.94646">
        <ele>71</ele>
        <time>2022-06-27T13:13:20Z</time>
      </trkpt>
      <trkpt lat="43.38486" lon="-0.94773">
        <ele>70</ele>
        <time>2022-06-27T13:13:45Z</time>
      </trkpt>
      <trkpt lat="43.38458" lon="-0.948">
        <ele>70</ele>
        <time>2022-06-27T13:13:51Z</time>
      </trkpt>
      <trkpt lat="43.38377" lon="-0.94833">
        <ele>71</ele>
        <time>2022-06-27T13:14:06Z</time>
      </trkpt>
      <trkpt lat="43.38195" lon="-0.9496">
        <ele>63</ele>
        <time>2022-06-27T13:14:42Z</time>
      </trkpt>
      <trkpt lat="43.38151" lon="-0.9497">
        <ele>58</ele>
        <time>2022-06-27T13:14:50Z</time>
      </trkpt>
      <trkpt lat="43.37997" lon="-0.94972">
        <ele>55</ele>
        <time>2022-06-27T13:15:17Z</time>
      </trkpt>
      <trkpt lat="43.37956" lon="-0.94963">
        <ele>54</ele>
        <time>2022-06-27T13:15:25Z</time>
      </trkpt>
      <trkpt lat="43.37859" lon="-0.94915">
        <ele>57</ele>
        <time>2022-06-27T13:15:43Z</time>
      </trkpt>
      <trkpt lat="43.37813" lon="-0.94904">
        <ele>63</ele>
        <time>2022-06-27T13:15:51Z</time>
      </trkpt>
      <trkpt lat="43.37794" lon="-0.94904">
        <ele>64</ele>
        <time>2022-06-27T13:15:55Z</time>
      </trkpt>
      <trkpt lat="43.37638" lon="-0.94939">
        <ele>68</ele>
        <time>2022-06-27T13:16:23Z</time>
      </trkpt>
      <trkpt lat="43.37597" lon="-0.94957">
        <ele>70</ele>
        <time>2022-06-27T13:16:31Z</time>
      </trkpt>
      <trkpt lat="43.37566" lon="-0.94983">
        <ele>70</ele>
        <time>2022-06-27T13:16:37Z</time>
      </trkpt>
      <trkpt lat="43.37528" lon="-0.95032">
        <ele>70</ele>
        <time>2022-06-27T13:16:46Z</time>
      </trkpt>
      <trkpt lat="43.37293" lon="-0.95478">
        <ele>68</ele>
        <time>2022-06-27T13:17:57Z</time>
      </trkpt>
      <trkpt lat="43.37227" lon="-0.95576">
        <ele>70</ele>
        <time>2022-06-27T13:18:15Z</time>
      </trkpt>
      <trkpt lat="43.37187" lon="-0.95621">
        <ele>69</ele>
        <time>2022-06-27T13:18:24Z</time>
      </trkpt>
      <trkpt lat="43.36942" lon="-0.95809">
        <ele>78</ele>
        <time>2022-06-27T13:19:14Z</time>
      </trkpt>
      <trkpt lat="43.36867" lon="-0.95879">
        <ele>80</ele>
        <time>2022-06-27T13:19:30Z</time>
      </trkpt>
      <trkpt lat="43.36772" lon="-0.96014">
        <ele>83</ele>
        <time>2022-06-27T13:19:54Z</time>
      </trkpt>
      <trkpt lat="43.36588" lon="-0.96366">
        <ele>94</ele>
        <time>2022-06-27T13:20:50Z</time>
      </trkpt>
      <trkpt lat="43.3649" lon="-0.96513">
        <ele>97</ele>
        <time>2022-06-27T13:21:16Z</time>
      </trkpt>
      <trkpt lat="43.36397" lon="-0.96623">
        <ele>99</ele>
        <time>2022-06-27T13:21:38Z</time>
      </trkpt>
      <trkpt lat="43.36305" lon="-0.9671">
        <ele>102</ele>
        <time>2022-06-27T13:21:58Z</time>
      </trkpt>
      <trkpt lat="43.36169" lon="-0.96776">
        <ele>100</ele>
        <time>2022-06-27T13:22:24Z</time>
      </trkpt>
      <trkpt lat="43.36051" lon="-0.96822">
        <ele>104</ele>
        <time>2022-06-27T13:22:45Z</time>
      </trkpt>
      <trkpt lat="43.35954" lon="-0.9687">
        <ele>112</ele>
        <time>2022-06-27T13:23:04Z</time>
      </trkpt>
      <trkpt lat="43.35869" lon="-0.96947">
        <ele>116</ele>
        <time>2022-06-27T13:23:22Z</time>
      </trkpt>
      <trkpt lat="43.35768" lon="-0.97025">
        <ele>124</ele>
        <time>2022-06-27T13:23:42Z</time>
      </trkpt>
      <trkpt lat="43.35412" lon="-0.97204">
        <ele>146</ele>
        <time>2022-06-27T13:24:50Z</time>
      </trkpt>
      <trkpt lat="43.35317" lon="-0.97231">
        <ele>146</ele>
        <time>2022-06-27T13:25:07Z</time>
      </trkpt>
      <trkpt lat="43.35276" lon="-0.97249">
        <ele>144</ele>
        <time>2022-06-27T13:25:15Z</time>
      </trkpt>
      <trkpt lat="43.35223" lon="-0.97294">
        <ele>138</ele>
        <time>2022-06-27T13:25:26Z</time>
      </trkpt>
      <trkpt lat="43.3506" lon="-0.9751">
        <ele>133</ele>
        <time>2022-06-27T13:26:06Z</time>
      </trkpt>
      <trkpt lat="43.34885" lon="-0.97756">
        <ele>131</ele>
        <time>2022-06-27T13:26:51Z</time>
      </trkpt>
      <trkpt lat="43.34855" lon="-0.97804">
        <ele>132</ele>
        <time>2022-06-27T13:26:59Z</time>
      </trkpt>
      <trkpt lat="43.34818" lon="-0.97881">
        <ele>131</ele>
        <time>2022-06-27T13:27:11Z</time>
      </trkpt>
      <trkpt lat="43.34791" lon="-0.97982">
        <ele>131</ele>
        <time>2022-06-27T13:27:25Z</time>
      </trkpt>
      <trkpt lat="43.34785" lon="-0.98045">
        <ele>129</ele>
        <time>2022-06-27T13:27:33Z</time>
      </trkpt>
      <trkpt lat="43.34775" lon="-0.98984">
        <ele>105</ele>
        <time>2022-06-27T13:29:34Z</time>
      </trkpt>
      <trkpt lat="43.34765" lon="-0.99074">
        <ele>104</ele>
        <time>2022-06-27T13:29:46Z</time>
      </trkpt>
      <trkpt lat="43.34652" lon="-0.99603">
        <ele>100</ele>
        <time>2022-06-27T13:30:58Z</time>
      </trkpt>
      <trkpt lat="43.34642" lon="-0.99704">
        <ele>96</ele>
        <time>2022-06-27T13:31:11Z</time>
      </trkpt>
      <trkpt lat="43.34643" lon="-0.99794">
        <ele>94</ele>
        <time>2022-06-27T13:31:22Z</time>
      </trkpt>
      <trkpt lat="43.34689" lon="-1.00283">
        <ele>86</ele>
        <time>2022-06-27T13:32:26Z</time>
      </trkpt>
      <trkpt lat="43.34678" lon="-1.00391">
        <ele>84</ele>
        <time>2022-06-27T13:32:40Z</time>
      </trkpt>
      <trkpt lat="43.34654" lon="-1.00471">
        <ele>84</ele>
        <time>2022-06-27T13:32:52Z</time>
      </trkpt>
      <trkpt lat="43.34575" lon="-1.00605">
        <ele>77</ele>
        <time>2022-06-27T13:33:14Z</time>
      </trkpt>
      <trkpt lat="43.34277" lon="-1.00999">
        <ele>75</ele>
        <time>2022-06-27T13:34:27Z</time>
      </trkpt>
      <trkpt lat="43.34212" lon="-1.01078">
        <ele>76</ele>
        <time>2022-06-27T13:34:43Z</time>
      </trkpt>
      <trkpt lat="43.34113" lon="-1.01168">
        <ele>77</ele>
        <time>2022-06-27T13:35:04Z</time>
      </trkpt>
      <trkpt lat="43.34038" lon="-1.01221">
        <ele>80</ele>
        <time>2022-06-27T13:35:19Z</time>
      </trkpt>
      <trkpt lat="43.33942" lon="-1.01275">
        <ele>79</ele>
        <time>2022-06-27T13:35:37Z</time>
      </trkpt>
      <trkpt lat="43.33629" lon="-1.014">
        <ele>74</ele>
        <time>2022-06-27T13:36:35Z</time>
      </trkpt>
      <trkpt lat="43.33313" lon="-1.01538">
        <ele>65</ele>
        <time>2022-06-27T13:37:34Z</time>
      </trkpt>
      <trkpt lat="43.33099" lon="-1.01624">
        <ele>60</ele>
        <time>2022-06-27T13:38:14Z</time>
      </trkpt>
      <trkpt lat="43.33061" lon="-1.01642">
        <ele>60</ele>
        <time>2022-06-27T13:38:21Z</time>
      </trkpt>
      <trkpt lat="43.3302" lon="-1.01677">
        <ele>61</ele>
        <time>2022-06-27T13:38:30Z</time>
      </trkpt>
      <trkpt lat="43.32864" lon="-1.01905">
        <ele>62</ele>
        <time>2022-06-27T13:39:10Z</time>
      </trkpt>
      <trkpt lat="43.32736" lon="-1.02036">
        <ele>62</ele>
        <time>2022-06-27T13:39:39Z</time>
      </trkpt>
      <trkpt lat="43.32715" lon="-1.02072">
        <ele>63</ele>
        <time>2022-06-27T13:39:45Z</time>
      </trkpt>
      <trkpt lat="43.32651" lon="-1.02226">
        <ele>64</ele>
        <time>2022-06-27T13:40:08Z</time>
      </trkpt>
      <trkpt lat="43.32602" lon="-1.02356">
        <ele>60</ele>
        <time>2022-06-27T13:40:27Z</time>
      </trkpt>
      <trkpt lat="43.32606" lon="-1.02437">
        <ele>60</ele>
        <time>2022-06-27T13:40:37Z</time>
      </trkpt>
      <trkpt lat="43.32581" lon="-1.02611">
        <ele>55</ele>
        <time>2022-06-27T13:41:00Z</time>
      </trkpt>
      <trkpt lat="43.32576" lon="-1.02749">
        <ele>51</ele>
        <time>2022-06-27T13:41:18Z</time>
      </trkpt>
      <trkpt lat="43.32583" lon="-1.02836">
        <ele>50</ele>
        <time>2022-06-27T13:41:29Z</time>
      </trkpt>
      <trkpt lat="43.32599" lon="-1.02932">
        <ele>46</ele>
        <time>2022-06-27T13:41:42Z</time>
      </trkpt>
      <trkpt lat="43.32631" lon="-1.03065">
        <ele>46</ele>
        <time>2022-06-27T13:42:00Z</time>
      </trkpt>
      <trkpt lat="43.32648" lon="-1.0311">
        <ele>45</ele>
        <time>2022-06-27T13:42:07Z</time>
      </trkpt>
      <trkpt lat="43.32752" lon="-1.03306">
        <ele>50</ele>
        <time>2022-06-27T13:42:38Z</time>
      </trkpt>
      <trkpt lat="43.3288" lon="-1.03473">
        <ele>53</ele>
        <time>2022-06-27T13:43:09Z</time>
      </trkpt>
      <trkpt lat="43.32994" lon="-1.03559">
        <ele>49</ele>
        <time>2022-06-27T13:43:33Z</time>
      </trkpt>
      <trkpt lat="43.33009" lon="-1.03578">
        <ele>48</ele>
        <time>2022-06-27T13:43:36Z</time>
      </trkpt>
      <trkpt lat="43.33025" lon="-1.03675">
        <ele>44</ele>
        <time>2022-06-27T13:43:49Z</time>
      </trkpt>
      <trkpt lat="43.33063" lon="-1.03824">
        <ele>47</ele>
        <time>2022-06-27T13:44:10Z</time>
      </trkpt>
      <trkpt lat="43.33123" lon="-1.03945">
        <ele>51</ele>
        <time>2022-06-27T13:44:29Z</time>
      </trkpt>
      <trkpt lat="43.33153" lon="-1.03988">
        <ele>51</ele>
        <time>2022-06-27T13:44:36Z</time>
      </trkpt>
      <trkpt lat="43.33231" lon="-1.04058">
        <ele>55</ele>
        <time>2022-06-27T13:44:53Z</time>
      </trkpt>
      <trkpt lat="43.33243" lon="-1.04059">
        <ele>54</ele>
        <time>2022-06-27T13:44:55Z</time>
      </trkpt>
      <trkpt lat="43.3325" lon="-1.04068">
        <ele>53</ele>
        <time>2022-06-27T13:44:57Z</time>
      </trkpt>
      <trkpt lat="43.33247" lon="-1.04108">
        <ele>54</ele>
        <time>2022-06-27T13:45:02Z</time>
      </trkpt>
      <trkpt lat="43.33257" lon="-1.04161">
        <ele>57</ele>
        <time>2022-06-27T13:45:09Z</time>
      </trkpt>
      <trkpt lat="43.33259" lon="-1.04309">
        <ele>68</ele>
        <time>2022-06-27T13:45:28Z</time>
      </trkpt>
      <trkpt lat="43.33269" lon="-1.04371">
        <ele>70</ele>
        <time>2022-06-27T13:45:36Z</time>
      </trkpt>
      <trkpt lat="43.33378" lon="-1.04632">
        <ele>83</ele>
        <time>2022-06-27T13:46:15Z</time>
      </trkpt>
      <trkpt lat="43.33404" lon="-1.04681">
        <ele>83</ele>
        <time>2022-06-27T13:46:23Z</time>
      </trkpt>
      <trkpt lat="43.33442" lon="-1.04732">
        <ele>85</ele>
        <time>2022-06-27T13:46:33Z</time>
      </trkpt>
      <trkpt lat="43.33541" lon="-1.04845">
        <ele>92</ele>
        <time>2022-06-27T13:46:55Z</time>
      </trkpt>
      <trkpt lat="43.33621" lon="-1.04957">
        <ele>94</ele>
        <time>2022-06-27T13:47:16Z</time>
      </trkpt>
      <trkpt lat="43.33666" lon="-1.05053">
        <ele>97</ele>
        <time>2022-06-27T13:47:31Z</time>
      </trkpt>
      <trkpt lat="43.33789" lon="-1.05389">
        <ele>114</ele>
        <time>2022-06-27T13:48:19Z</time>
      </trkpt>
      <trkpt lat="43.33885" lon="-1.05606">
        <ele>123</ele>
        <time>2022-06-27T13:48:52Z</time>
      </trkpt>
      <trkpt lat="43.33911" lon="-1.0565">
        <ele>125</ele>
        <time>2022-06-27T13:48:59Z</time>
      </trkpt>
      <trkpt lat="43.33941" lon="-1.05667">
        <ele>127</ele>
        <time>2022-06-27T13:49:05Z</time>
      </trkpt>
      <trkpt lat="43.33952" lon="-1.05667">
        <ele>127</ele>
        <time>2022-06-27T13:49:07Z</time>
      </trkpt>
      <trkpt lat="43.3396" lon="-1.05678">
        <ele>128</ele>
        <time>2022-06-27T13:49:09Z</time>
      </trkpt>
      <trkpt lat="43.33959" lon="-1.05695">
        <ele>128</ele>
        <time>2022-06-27T13:49:11Z</time>
      </trkpt>
      <trkpt lat="43.33946" lon="-1.05719">
        <ele>128</ele>
        <time>2022-06-27T13:49:15Z</time>
      </trkpt>
      <trkpt lat="43.33947" lon="-1.05736">
        <ele>129</ele>
        <time>2022-06-27T13:49:17Z</time>
      </trkpt>
      <trkpt lat="43.34012" lon="-1.05887">
        <ele>137</ele>
        <time>2022-06-27T13:49:40Z</time>
      </trkpt>
      <trkpt lat="43.33985" lon="-1.05926">
        <ele>137</ele>
        <time>2022-06-27T13:49:47Z</time>
      </trkpt>
      <trkpt lat="43.33894" lon="-1.06233">
        <ele>139</ele>
        <time>2022-06-27T13:50:30Z</time>
      </trkpt>
      <trkpt lat="43.3382" lon="-1.06328">
        <ele>141</ele>
        <time>2022-06-27T13:50:48Z</time>
      </trkpt>
      <trkpt lat="43.33796" lon="-1.06371">
        <ele>142</ele>
        <time>2022-06-27T13:50:55Z</time>
      </trkpt>
      <trkpt lat="43.33784" lon="-1.06454">
        <ele>143</ele>
        <time>2022-06-27T13:51:06Z</time>
      </trkpt>
      <trkpt lat="43.33797" lon="-1.06521">
        <ele>140</ele>
        <time>2022-06-27T13:51:15Z</time>
      </trkpt>
      <trkpt lat="43.33773" lon="-1.06647">
        <ele>148</ele>
        <time>2022-06-27T13:51:32Z</time>
      </trkpt>
      <trkpt lat="43.33785" lon="-1.06682">
        <ele>149</ele>
        <time>2022-06-27T13:51:37Z</time>
      </trkpt>
      <trkpt lat="43.33908" lon="-1.0679">
        <ele>140</ele>
        <time>2022-06-27T13:52:03Z</time>
      </trkpt>
      <trkpt lat="43.33922" lon="-1.06819">
        <ele>139</ele>
        <time>2022-06-27T13:52:07Z</time>
      </trkpt>
      <trkpt lat="43.33922" lon="-1.06875">
        <ele>138</ele>
        <time>2022-06-27T13:52:15Z</time>
      </trkpt>
      <trkpt lat="43.339" lon="-1.06941">
        <ele>141</ele>
        <time>2022-06-27T13:52:24Z</time>
      </trkpt>
      <trkpt lat="43.33891" lon="-1.06999">
        <ele>142</ele>
        <time>2022-06-27T13:52:32Z</time>
      </trkpt>
      <trkpt lat="43.33948" lon="-1.0712">
        <ele>144</ele>
        <time>2022-06-27T13:52:50Z</time>
      </trkpt>
      <trkpt lat="43.33999" lon="-1.07448">
        <ele>145</ele>
        <time>2022-06-27T13:53:34Z</time>
      </trkpt>
      <trkpt lat="43.33988" lon="-1.07561">
        <ele>146</ele>
        <time>2022-06-27T13:53:48Z</time>
      </trkpt>
      <trkpt lat="43.34001" lon="-1.07645">
        <ele>138</ele>
        <time>2022-06-27T13:54:00Z</time>
      </trkpt>
      <trkpt lat="43.34019" lon="-1.07692">
        <ele>140</ele>
        <time>2022-06-27T13:54:06Z</time>
      </trkpt>
      <trkpt lat="43.34118" lon="-1.07827">
        <ele>147</ele>
        <time>2022-06-27T13:54:31Z</time>
      </trkpt>
      <trkpt lat="43.3418" lon="-1.0793">
        <ele>142</ele>
        <time>2022-06-27T13:54:49Z</time>
      </trkpt>
      <trkpt lat="43.34201" lon="-1.0795">
        <ele>142</ele>
        <time>2022-06-27T13:54:53Z</time>
      </trkpt>
      <trkpt lat="43.34309" lon="-1.08024">
        <ele>138</ele>
        <time>2022-06-27T13:55:15Z</time>
      </trkpt>
      <trkpt lat="43.34352" lon="-1.08084">
        <ele>139</ele>
        <time>2022-06-27T13:55:25Z</time>
      </trkpt>
      <trkpt lat="43.34382" lon="-1.08174">
        <ele>135</ele>
        <time>2022-06-27T13:55:38Z</time>
      </trkpt>
      <trkpt lat="43.34409" lon="-1.08441">
        <ele>124</ele>
        <time>2022-06-27T13:56:13Z</time>
      </trkpt>
      <trkpt lat="43.34403" lon="-1.08537">
        <ele>119</ele>
        <time>2022-06-27T13:56:26Z</time>
      </trkpt>
      <trkpt lat="43.34341" lon="-1.08676">
        <ele>119</ele>
        <time>2022-06-27T13:56:47Z</time>
      </trkpt>
      <trkpt lat="43.3426" lon="-1.08778">
        <ele>114</ele>
        <time>2022-06-27T13:57:06Z</time>
      </trkpt>
      <trkpt lat="43.34226" lon="-1.08811">
        <ele>113</ele>
        <time>2022-06-27T13:57:14Z</time>
      </trkpt>
      <trkpt lat="43.34072" lon="-1.08929">
        <ele>115</ele>
        <time>2022-06-27T13:57:45Z</time>
      </trkpt>
      <trkpt lat="43.34057" lon="-1.08952">
        <ele>117</ele>
        <time>2022-06-27T13:57:49Z</time>
      </trkpt>
      <trkpt lat="43.34037" lon="-1.09014">
        <ele>121</ele>
        <time>2022-06-27T13:57:58Z</time>
      </trkpt>
      <trkpt lat="43.34021" lon="-1.09214">
        <ele>122</ele>
        <time>2022-06-27T13:58:24Z</time>
      </trkpt>
      <trkpt lat="43.34008" lon="-1.09248">
        <ele>121</ele>
        <time>2022-06-27T13:58:29Z</time>
      </trkpt>
      <trkpt lat="43.33926" lon="-1.09367">
        <ele>124</ele>
        <time>2022-06-27T13:58:50Z</time>
      </trkpt>
      <trkpt lat="43.33912" lon="-1.094">
        <ele>124</ele>
        <time>2022-06-27T13:58:55Z</time>
      </trkpt>
      <trkpt lat="43.33895" lon="-1.09555">
        <ele>129</ele>
        <time>2022-06-27T13:59:15Z</time>
      </trkpt>
      <trkpt lat="43.33896" lon="-1.09627">
        <ele>131</ele>
        <time>2022-06-27T13:59:25Z</time>
      </trkpt>
      <trkpt lat="43.33919" lon="-1.09724">
        <ele>130</ele>
        <time>2022-06-27T13:59:38Z</time>
      </trkpt>
      <trkpt lat="43.33949" lon="-1.09754">
        <ele>135</ele>
        <time>2022-06-27T13:59:44Z</time>
      </trkpt>
      <trkpt lat="43.33961" lon="-1.09774">
        <ele>137</ele>
        <time>2022-06-27T13:59:48Z</time>
      </trkpt>
      <trkpt lat="43.33962" lon="-1.09799">
        <ele>138</ele>
        <time>2022-06-27T13:59:51Z</time>
      </trkpt>
      <trkpt lat="43.33937" lon="-1.09885">
        <ele>137</ele>
        <time>2022-06-27T14:00:03Z</time>
      </trkpt>
      <trkpt lat="43.33935" lon="-1.09939">
        <ele>140</ele>
        <time>2022-06-27T14:00:10Z</time>
      </trkpt>
      <trkpt lat="43.33944" lon="-1.09992">
        <ele>144</ele>
        <time>2022-06-27T14:00:17Z</time>
      </trkpt>
      <trkpt lat="43.33983" lon="-1.10101">
        <ele>155</ele>
        <time>2022-06-27T14:00:33Z</time>
      </trkpt>
      <trkpt lat="43.33977" lon="-1.10124">
        <ele>158</ele>
        <time>2022-06-27T14:00:36Z</time>
      </trkpt>
      <trkpt lat="43.33966" lon="-1.10137">
        <ele>160</ele>
        <time>2022-06-27T14:00:38Z</time>
      </trkpt>
      <trkpt lat="43.33938" lon="-1.10131">
        <ele>158</ele>
        <time>2022-06-27T14:00:44Z</time>
      </trkpt>
      <trkpt lat="43.33905" lon="-1.10097">
        <ele>150</ele>
        <time>2022-06-27T14:00:51Z</time>
      </trkpt>
      <trkpt lat="43.33876" lon="-1.10102">
        <ele>147</ele>
        <time>2022-06-27T14:00:56Z</time>
      </trkpt>
      <trkpt lat="43.33863" lon="-1.1012">
        <ele>148</ele>
        <time>2022-06-27T14:00:59Z</time>
      </trkpt>
      <trkpt lat="43.33848" lon="-1.10188">
        <ele>153</ele>
        <time>2022-06-27T14:01:09Z</time>
      </trkpt>
      <trkpt lat="43.33842" lon="-1.10335">
        <ele>161</ele>
        <time>2022-06-27T14:01:28Z</time>
      </trkpt>
      <trkpt lat="43.33842" lon="-1.10395">
        <ele>161</ele>
        <time>2022-06-27T14:01:35Z</time>
      </trkpt>
      <trkpt lat="43.33857" lon="-1.105">
        <ele>169</ele>
        <time>2022-06-27T14:01:49Z</time>
      </trkpt>
      <trkpt lat="43.33853" lon="-1.10546">
        <ele>170</ele>
        <time>2022-06-27T14:01:55Z</time>
      </trkpt>
      <trkpt lat="43.33794" lon="-1.10746">
        <ele>177</ele>
        <time>2022-06-27T14:02:23Z</time>
      </trkpt>
      <trkpt lat="43.33782" lon="-1.10865">
        <ele>178</ele>
        <time>2022-06-27T14:02:39Z</time>
      </trkpt>
      <trkpt lat="43.33759" lon="-1.10985">
        <ele>180</ele>
        <time>2022-06-27T14:02:55Z</time>
      </trkpt>
      <trkpt lat="43.33729" lon="-1.11056">
        <ele>182</ele>
        <time>2022-06-27T14:03:05Z</time>
      </trkpt>
      <trkpt lat="43.33684" lon="-1.1111">
        <ele>185</ele>
        <time>2022-06-27T14:03:16Z</time>
      </trkpt>
      <trkpt lat="43.33676" lon="-1.11129">
        <ele>185</ele>
        <time>2022-06-27T14:03:19Z</time>
      </trkpt>
      <trkpt lat="43.33675" lon="-1.11149">
        <ele>185</ele>
        <time>2022-06-27T14:03:21Z</time>
      </trkpt>
      <trkpt lat="43.33682" lon="-1.11172">
        <ele>185</ele>
        <time>2022-06-27T14:03:25Z</time>
      </trkpt>
      <trkpt lat="43.33698" lon="-1.11185">
        <ele>186</ele>
        <time>2022-06-27T14:03:28Z</time>
      </trkpt>
      <trkpt lat="43.33723" lon="-1.1118">
        <ele>185</ele>
        <time>2022-06-27T14:03:32Z</time>
      </trkpt>
      <trkpt lat="43.33751" lon="-1.11162">
        <ele>184</ele>
        <time>2022-06-27T14:03:38Z</time>
      </trkpt>
      <trkpt lat="43.33769" lon="-1.11166">
        <ele>184</ele>
        <time>2022-06-27T14:03:41Z</time>
      </trkpt>
      <trkpt lat="43.33866" lon="-1.11248">
        <ele>191</ele>
        <time>2022-06-27T14:04:01Z</time>
      </trkpt>
      <trkpt lat="43.33886" lon="-1.11317">
        <ele>195</ele>
        <time>2022-06-27T14:04:11Z</time>
      </trkpt>
      <trkpt lat="43.33898" lon="-1.11388">
        <ele>194</ele>
        <time>2022-06-27T14:04:21Z</time>
      </trkpt>
      <trkpt lat="43.33899" lon="-1.11447">
        <ele>192</ele>
        <time>2022-06-27T14:04:28Z</time>
      </trkpt>
      <trkpt lat="43.33878" lon="-1.11511">
        <ele>192</ele>
        <time>2022-06-27T14:04:37Z</time>
      </trkpt>
      <trkpt lat="43.33874" lon="-1.11547">
        <ele>192</ele>
        <time>2022-06-27T14:04:42Z</time>
      </trkpt>
      <trkpt lat="43.33889" lon="-1.11629">
        <ele>191</ele>
        <time>2022-06-27T14:04:53Z</time>
      </trkpt>
      <trkpt lat="43.33889" lon="-1.11736">
        <ele>196</ele>
        <time>2022-06-27T14:05:07Z</time>
      </trkpt>
      <trkpt lat="43.33871" lon="-1.11934">
        <ele>200</ele>
        <time>2022-06-27T14:05:33Z</time>
      </trkpt>
      <trkpt lat="43.33874" lon="-1.1198">
        <ele>203</ele>
        <time>2022-06-27T14:05:39Z</time>
      </trkpt>
      <trkpt lat="43.33892" lon="-1.1204">
        <ele>205</ele>
        <time>2022-06-27T14:05:47Z</time>
      </trkpt>
      <trkpt lat="43.33905" lon="-1.1212">
        <ele>207</ele>
        <time>2022-06-27T14:05:58Z</time>
      </trkpt>
      <trkpt lat="43.33926" lon="-1.12307">
        <ele>213</ele>
        <time>2022-06-27T14:06:22Z</time>
      </trkpt>
      <trkpt lat="43.33931" lon="-1.12405">
        <ele>214</ele>
        <time>2022-06-27T14:06:35Z</time>
      </trkpt>
      <trkpt lat="43.33926" lon="-1.12629">
        <ele>201</ele>
        <time>2022-06-27T14:07:04Z</time>
      </trkpt>
      <trkpt lat="43.33911" lon="-1.12702">
        <ele>194</ele>
        <time>2022-06-27T14:07:14Z</time>
      </trkpt>
      <trkpt lat="43.3389" lon="-1.1274">
        <ele>191</ele>
        <time>2022-06-27T14:07:20Z</time>
      </trkpt>
      <trkpt lat="43.33865" lon="-1.12767">
        <ele>190</ele>
        <time>2022-06-27T14:07:25Z</time>
      </trkpt>
      <trkpt lat="43.33843" lon="-1.12779">
        <ele>189</ele>
        <time>2022-06-27T14:07:30Z</time>
      </trkpt>
      <trkpt lat="43.3382" lon="-1.12783">
        <ele>189</ele>
        <time>2022-06-27T14:07:34Z</time>
      </trkpt>
      <trkpt lat="43.33768" lon="-1.12779">
        <ele>190</ele>
        <time>2022-06-27T14:07:43Z</time>
      </trkpt>
      <trkpt lat="43.33751" lon="-1.12785">
        <ele>188</ele>
        <time>2022-06-27T14:07:46Z</time>
      </trkpt>
      <trkpt lat="43.33738" lon="-1.128">
        <ele>187</ele>
        <time>2022-06-27T14:07:49Z</time>
      </trkpt>
      <trkpt lat="43.33709" lon="-1.12882">
        <ele>180</ele>
        <time>2022-06-27T14:08:01Z</time>
      </trkpt>
      <trkpt lat="43.3368" lon="-1.12927">
        <ele>179</ele>
        <time>2022-06-27T14:08:09Z</time>
      </trkpt>
      <trkpt lat="43.33645" lon="-1.12965">
        <ele>178</ele>
        <time>2022-06-27T14:08:17Z</time>
      </trkpt>
      <trkpt lat="43.33628" lon="-1.13009">
        <ele>174</ele>
        <time>2022-06-27T14:08:23Z</time>
      </trkpt>
      <trkpt lat="43.336" lon="-1.13044">
        <ele>171</ele>
        <time>2022-06-27T14:08:30Z</time>
      </trkpt>
      <trkpt lat="43.33567" lon="-1.13053">
        <ele>172</ele>
        <time>2022-06-27T14:08:36Z</time>
      </trkpt>
      <trkpt lat="43.33531" lon="-1.13036">
        <ele>175</ele>
        <time>2022-06-27T14:08:43Z</time>
      </trkpt>
      <trkpt lat="43.33519" lon="-1.13037">
        <ele>175</ele>
        <time>2022-06-27T14:08:45Z</time>
      </trkpt>
      <trkpt lat="43.33505" lon="-1.13048">
        <ele>175</ele>
        <time>2022-06-27T14:08:48Z</time>
      </trkpt>
      <trkpt lat="43.33502" lon="-1.13067">
        <ele>174</ele>
        <time>2022-06-27T14:08:50Z</time>
      </trkpt>
      <trkpt lat="43.33531" lon="-1.13145">
        <ele>164</ele>
        <time>2022-06-27T14:09:01Z</time>
      </trkpt>
      <trkpt lat="43.33534" lon="-1.13172">
        <ele>161</ele>
        <time>2022-06-27T14:09:05Z</time>
      </trkpt>
      <trkpt lat="43.3352" lon="-1.1322">
        <ele>158</ele>
        <time>2022-06-27T14:09:12Z</time>
      </trkpt>
      <trkpt lat="43.33481" lon="-1.13268">
        <ele>154</ele>
        <time>2022-06-27T14:09:21Z</time>
      </trkpt>
      <trkpt lat="43.33438" lon="-1.13289">
        <ele>151</ele>
        <time>2022-06-27T14:09:29Z</time>
      </trkpt>
      <trkpt lat="43.334" lon="-1.13288">
        <ele>150</ele>
        <time>2022-06-27T14:09:36Z</time>
      </trkpt>
      <trkpt lat="43.33381" lon="-1.13283">
        <ele>150</ele>
        <time>2022-06-27T14:09:39Z</time>
      </trkpt>
      <trkpt lat="43.33348" lon="-1.13243">
        <ele>153</ele>
        <time>2022-06-27T14:09:47Z</time>
      </trkpt>
      <trkpt lat="43.33325" lon="-1.13234">
        <ele>153</ele>
        <time>2022-06-27T14:09:51Z</time>
      </trkpt>
      <trkpt lat="43.33313" lon="-1.13241">
        <ele>153</ele>
        <time>2022-06-27T14:09:54Z</time>
      </trkpt>
      <trkpt lat="43.33296" lon="-1.13291">
        <ele>147</ele>
        <time>2022-06-27T14:10:01Z</time>
      </trkpt>
      <trkpt lat="43.33276" lon="-1.13318">
        <ele>144</ele>
        <time>2022-06-27T14:10:06Z</time>
      </trkpt>
      <trkpt lat="43.33244" lon="-1.13341">
        <ele>142</ele>
        <time>2022-06-27T14:10:12Z</time>
      </trkpt>
      <trkpt lat="43.33163" lon="-1.13361">
        <ele>139</ele>
        <time>2022-06-27T14:10:27Z</time>
      </trkpt>
      <trkpt lat="43.33121" lon="-1.13362">
        <ele>138</ele>
        <time>2022-06-27T14:10:34Z</time>
      </trkpt>
      <trkpt lat="43.33068" lon="-1.13354">
        <ele>138</ele>
        <time>2022-06-27T14:10:44Z</time>
      </trkpt>
      <trkpt lat="43.33022" lon="-1.13367">
        <ele>138</ele>
        <time>2022-06-27T14:10:52Z</time>
      </trkpt>
      <trkpt lat="43.32949" lon="-1.13448">
        <ele>132</ele>
        <time>2022-06-27T14:11:09Z</time>
      </trkpt>
      <trkpt lat="43.32916" lon="-1.13467">
        <ele>128</ele>
        <time>2022-06-27T14:11:15Z</time>
      </trkpt>
      <trkpt lat="43.32784" lon="-1.13493">
        <ele>120</ele>
        <time>2022-06-27T14:11:39Z</time>
      </trkpt>
      <trkpt lat="43.32763" lon="-1.1351">
        <ele>118</ele>
        <time>2022-06-27T14:11:43Z</time>
      </trkpt>
      <trkpt lat="43.32753" lon="-1.13545">
        <ele>116</ele>
        <time>2022-06-27T14:11:48Z</time>
      </trkpt>
      <trkpt lat="43.32759" lon="-1.13701">
        <ele>115</ele>
        <time>2022-06-27T14:12:08Z</time>
      </trkpt>
      <trkpt lat="43.32778" lon="-1.13833">
        <ele>113</ele>
        <time>2022-06-27T14:12:26Z</time>
      </trkpt>
      <trkpt lat="43.32798" lon="-1.13881">
        <ele>113</ele>
        <time>2022-06-27T14:12:33Z</time>
      </trkpt>
      <trkpt lat="43.32864" lon="-1.1399">
        <ele>114</ele>
        <time>2022-06-27T14:12:51Z</time>
      </trkpt>
      <trkpt lat="43.32879" lon="-1.14026">
        <ele>114</ele>
        <time>2022-06-27T14:12:57Z</time>
      </trkpt>
      <trkpt lat="43.32893" lon="-1.14089">
        <ele>111</ele>
        <time>2022-06-27T14:13:05Z</time>
      </trkpt>
      <trkpt lat="43.3291" lon="-1.14118">
        <ele>111</ele>
        <time>2022-06-27T14:13:10Z</time>
      </trkpt>
      <trkpt lat="43.32985" lon="-1.14169">
        <ele>113</ele>
        <time>2022-06-27T14:13:25Z</time>
      </trkpt>
      <trkpt lat="43.33128" lon="-1.14291">
        <ele>110</ele>
        <time>2022-06-27T14:13:55Z</time>
      </trkpt>
      <trkpt lat="43.33334" lon="-1.14409">
        <ele>104</ele>
        <time>2022-06-27T14:14:35Z</time>
      </trkpt>
      <trkpt lat="43.33345" lon="-1.14437">
        <ele>106</ele>
        <time>2022-06-27T14:14:39Z</time>
      </trkpt>
      <trkpt lat="43.33275" lon="-1.14795">
        <ele>113</ele>
        <time>2022-06-27T14:15:27Z</time>
      </trkpt>
      <trkpt lat="43.33206" lon="-1.15038">
        <ele>116</ele>
        <time>2022-06-27T14:16:00Z</time>
      </trkpt>
      <trkpt lat="43.33195" lon="-1.15108">
        <ele>115</ele>
        <time>2022-06-27T14:16:10Z</time>
      </trkpt>
      <trkpt lat="43.33202" lon="-1.15148">
        <ele>115</ele>
        <time>2022-06-27T14:16:15Z</time>
      </trkpt>
      <trkpt lat="43.3324" lon="-1.15273">
        <ele>118</ele>
        <time>2022-06-27T14:16:33Z</time>
      </trkpt>
      <trkpt lat="43.33237" lon="-1.15392">
        <ele>124</ele>
        <time>2022-06-27T14:16:48Z</time>
      </trkpt>
      <trkpt lat="43.33242" lon="-1.15446">
        <ele>126</ele>
        <time>2022-06-27T14:16:55Z</time>
      </trkpt>
      <trkpt lat="43.33337" lon="-1.1573">
        <ele>137</ele>
        <time>2022-06-27T14:17:36Z</time>
      </trkpt>
      <trkpt lat="43.3335" lon="-1.15814">
        <ele>143</ele>
        <time>2022-06-27T14:17:47Z</time>
      </trkpt>
      <trkpt lat="43.33311" lon="-1.16029">
        <ele>155</ele>
        <time>2022-06-27T14:18:15Z</time>
      </trkpt>
      <trkpt lat="43.33299" lon="-1.16068">
        <ele>158</ele>
        <time>2022-06-27T14:18:21Z</time>
      </trkpt>
      <trkpt lat="43.33274" lon="-1.16117">
        <ele>162</ele>
        <time>2022-06-27T14:18:29Z</time>
      </trkpt>
      <trkpt lat="43.33272" lon="-1.16138">
        <ele>162</ele>
        <time>2022-06-27T14:18:31Z</time>
      </trkpt>
      <trkpt lat="43.3328" lon="-1.16187">
        <ele>162</ele>
        <time>2022-06-27T14:18:38Z</time>
      </trkpt>
      <trkpt lat="43.3328" lon="-1.1623">
        <ele>166</ele>
        <time>2022-06-27T14:18:43Z</time>
      </trkpt>
      <trkpt lat="43.33269" lon="-1.16305">
        <ele>170</ele>
        <time>2022-06-27T14:18:53Z</time>
      </trkpt>
      <trkpt lat="43.33261" lon="-1.16475">
        <ele>178</ele>
        <time>2022-06-27T14:19:15Z</time>
      </trkpt>
      <trkpt lat="43.33277" lon="-1.16593">
        <ele>188</ele>
        <time>2022-06-27T14:19:31Z</time>
      </trkpt>
      <trkpt lat="43.33275" lon="-1.16632">
        <ele>190</ele>
        <time>2022-06-27T14:19:36Z</time>
      </trkpt>
      <trkpt lat="43.33256" lon="-1.16705">
        <ele>191</ele>
        <time>2022-06-27T14:19:46Z</time>
      </trkpt>
      <trkpt lat="43.33227" lon="-1.16759">
        <ele>199</ele>
        <time>2022-06-27T14:19:55Z</time>
      </trkpt>
      <trkpt lat="43.33178" lon="-1.16891">
        <ele>204</ele>
        <time>2022-06-27T14:20:14Z</time>
      </trkpt>
      <trkpt lat="43.33124" lon="-1.16981">
        <ele>209</ele>
        <time>2022-06-27T14:20:29Z</time>
      </trkpt>
      <trkpt lat="43.33121" lon="-1.17053">
        <ele>213</ele>
        <time>2022-06-27T14:20:38Z</time>
      </trkpt>
      <trkpt lat="43.33105" lon="-1.17142">
        <ele>220</ele>
        <time>2022-06-27T14:20:50Z</time>
      </trkpt>
      <trkpt lat="43.33119" lon="-1.17156">
        <ele>221</ele>
        <time>2022-06-27T14:20:53Z</time>
      </trkpt>
      <trkpt lat="43.33128" lon="-1.17152">
        <ele>221</ele>
        <time>2022-06-27T14:20:55Z</time>
      </trkpt>
      <trkpt lat="43.33156" lon="-1.17116">
        <ele>217</ele>
        <time>2022-06-27T14:21:02Z</time>
      </trkpt>
      <trkpt lat="43.33169" lon="-1.17111">
        <ele>216</ele>
        <time>2022-06-27T14:21:04Z</time>
      </trkpt>
      <trkpt lat="43.33199" lon="-1.17129">
        <ele>221</ele>
        <time>2022-06-27T14:21:10Z</time>
      </trkpt>
      <trkpt lat="43.33254" lon="-1.1722">
        <ele>230</ele>
        <time>2022-06-27T14:21:25Z</time>
      </trkpt>
      <trkpt lat="43.33279" lon="-1.17273">
        <ele>232</ele>
        <time>2022-06-27T14:21:33Z</time>
      </trkpt>
      <trkpt lat="43.33289" lon="-1.17311">
        <ele>230</ele>
        <time>2022-06-27T14:21:39Z</time>
      </trkpt>
      <trkpt lat="43.33289" lon="-1.17348">
        <ele>226</ele>
        <time>2022-06-27T14:21:43Z</time>
      </trkpt>
      <trkpt lat="43.33286" lon="-1.17361">
        <ele>224</ele>
        <time>2022-06-27T14:21:45Z</time>
      </trkpt>
      <trkpt lat="43.33222" lon="-1.17477">
        <ele>218</ele>
        <time>2022-06-27T14:22:04Z</time>
      </trkpt>
      <trkpt lat="43.33197" lon="-1.17508">
        <ele>221</ele>
        <time>2022-06-27T14:22:10Z</time>
      </trkpt>
      <trkpt lat="43.33186" lon="-1.17535">
        <ele>220</ele>
        <time>2022-06-27T14:22:14Z</time>
      </trkpt>
      <trkpt lat="43.33192" lon="-1.17561">
        <ele>216</ele>
        <time>2022-06-27T14:22:18Z</time>
      </trkpt>
      <trkpt lat="43.33219" lon="-1.17597">
        <ele>207</ele>
        <time>2022-06-27T14:22:24Z</time>
      </trkpt>
      <trkpt lat="43.33227" lon="-1.17636">
        <ele>203</ele>
        <time>2022-06-27T14:22:29Z</time>
      </trkpt>
      <trkpt lat="43.33223" lon="-1.17664">
        <ele>202</ele>
        <time>2022-06-27T14:22:33Z</time>
      </trkpt>
      <trkpt lat="43.3321" lon="-1.17687">
        <ele>201</ele>
        <time>2022-06-27T14:22:37Z</time>
      </trkpt>
      <trkpt lat="43.3319" lon="-1.17705">
        <ele>202</ele>
        <time>2022-06-27T14:22:41Z</time>
      </trkpt>
      <trkpt lat="43.33137" lon="-1.1772">
        <ele>208</ele>
        <time>2022-06-27T14:22:51Z</time>
      </trkpt>
      <trkpt lat="43.33123" lon="-1.1773">
        <ele>209</ele>
        <time>2022-06-27T14:22:54Z</time>
      </trkpt>
      <trkpt lat="43.33111" lon="-1.17765">
        <ele>206</ele>
        <time>2022-06-27T14:22:59Z</time>
      </trkpt>
      <trkpt lat="43.3308" lon="-1.17816">
        <ele>204</ele>
        <time>2022-06-27T14:23:07Z</time>
      </trkpt>
      <trkpt lat="43.33069" lon="-1.17853">
        <ele>204</ele>
        <time>2022-06-27T14:23:12Z</time>
      </trkpt>
      <trkpt lat="43.33065" lon="-1.17895">
        <ele>204</ele>
        <time>2022-06-27T14:23:18Z</time>
      </trkpt>
      <trkpt lat="43.3307" lon="-1.17937">
        <ele>202</ele>
        <time>2022-06-27T14:23:23Z</time>
      </trkpt>
      <trkpt lat="43.3312" lon="-1.18008">
        <ele>192</ele>
        <time>2022-06-27T14:23:36Z</time>
      </trkpt>
      <trkpt lat="43.33131" lon="-1.18078">
        <ele>189</ele>
        <time>2022-06-27T14:23:45Z</time>
      </trkpt>
      <trkpt lat="43.33073" lon="-1.18469">
        <ele>200</ele>
        <time>2022-06-27T14:24:37Z</time>
      </trkpt>
      <trkpt lat="43.33092" lon="-1.18526">
        <ele>195</ele>
        <time>2022-06-27T14:24:45Z</time>
      </trkpt>
      <trkpt lat="43.33149" lon="-1.18608">
        <ele>182</ele>
        <time>2022-06-27T14:25:00Z</time>
      </trkpt>
      <trkpt lat="43.33187" lon="-1.18724">
        <ele>172</ele>
        <time>2022-06-27T14:25:16Z</time>
      </trkpt>
      <trkpt lat="43.33203" lon="-1.18867">
        <ele>168</ele>
        <time>2022-06-27T14:25:35Z</time>
      </trkpt>
      <trkpt lat="43.33168" lon="-1.18966">
        <ele>158</ele>
        <time>2022-06-27T14:25:49Z</time>
      </trkpt>
      <trkpt lat="43.33166" lon="-1.1901">
        <ele>153</ele>
        <time>2022-06-27T14:25:55Z</time>
      </trkpt>
      <trkpt lat="43.33203" lon="-1.19228">
        <ele>138</ele>
        <time>2022-06-27T14:26:24Z</time>
      </trkpt>
      <trkpt lat="43.33214" lon="-1.19263">
        <ele>136</ele>
        <time>2022-06-27T14:26:29Z</time>
      </trkpt>
      <trkpt lat="43.33247" lon="-1.19316">
        <ele>135</ele>
        <time>2022-06-27T14:26:38Z</time>
      </trkpt>
      <trkpt lat="43.33311" lon="-1.19386">
        <ele>134</ele>
        <time>2022-06-27T14:26:53Z</time>
      </trkpt>
      <trkpt lat="43.33336" lon="-1.19405">
        <ele>134</ele>
        <time>2022-06-27T14:26:58Z</time>
      </trkpt>
      <trkpt lat="43.33556" lon="-1.19462">
        <ele>132</ele>
        <time>2022-06-27T14:27:37Z</time>
      </trkpt>
      <trkpt lat="43.33621" lon="-1.19508">
        <ele>133</ele>
        <time>2022-06-27T14:27:50Z</time>
      </trkpt>
      <trkpt lat="43.33645" lon="-1.19541">
        <ele>133</ele>
        <time>2022-06-27T14:27:57Z</time>
      </trkpt>
      <trkpt lat="43.33655" lon="-1.19609">
        <ele>133</ele>
        <time>2022-06-27T14:28:05Z</time>
      </trkpt>
      <trkpt lat="43.33645" lon="-1.19685">
        <ele>132</ele>
        <time>2022-06-27T14:28:15Z</time>
      </trkpt>
      <trkpt lat="43.33647" lon="-1.19714">
        <ele>131</ele>
        <time>2022-06-27T14:28:19Z</time>
      </trkpt>
      <trkpt lat="43.33689" lon="-1.1979">
        <ele>126</ele>
        <time>2022-06-27T14:28:32Z</time>
      </trkpt>
      <trkpt lat="43.33696" lon="-1.19826">
        <ele>126</ele>
        <time>2022-06-27T14:28:36Z</time>
      </trkpt>
      <trkpt lat="43.33695" lon="-1.19854">
        <ele>125</ele>
        <time>2022-06-27T14:28:40Z</time>
      </trkpt>
      <trkpt lat="43.33671" lon="-1.19919">
        <ele>124</ele>
        <time>2022-06-27T14:28:49Z</time>
      </trkpt>
      <trkpt lat="43.3363" lon="-1.19963">
        <ele>123</ele>
        <time>2022-06-27T14:28:59Z</time>
      </trkpt>
      <trkpt lat="43.33625" lon="-1.19983">
        <ele>122</ele>
        <time>2022-06-27T14:29:01Z</time>
      </trkpt>
      <trkpt lat="43.33628" lon="-1.2">
        <ele>120</ele>
        <time>2022-06-27T14:29:04Z</time>
      </trkpt>
      <trkpt lat="43.3389" lon="-1.20379">
        <ele>124</ele>
        <time>2022-06-27T14:30:11Z</time>
      </trkpt>
      <trkpt lat="43.33934" lon="-1.20487">
        <ele>126</ele>
        <time>2022-06-27T14:30:27Z</time>
      </trkpt>
      <trkpt lat="43.33935" lon="-1.2052">
        <ele>126</ele>
        <time>2022-06-27T14:30:32Z</time>
      </trkpt>
      <trkpt lat="43.33926" lon="-1.20575">
        <ele>126</ele>
        <time>2022-06-27T14:30:39Z</time>
      </trkpt>
      <trkpt lat="43.3389" lon="-1.20679">
        <ele>131</ele>
        <time>2022-06-27T14:30:54Z</time>
      </trkpt>
      <trkpt lat="43.33868" lon="-1.20783">
        <ele>140</ele>
        <time>2022-06-27T14:31:08Z</time>
      </trkpt>
      <trkpt lat="43.33868" lon="-1.20827">
        <ele>142</ele>
        <time>2022-06-27T14:31:14Z</time>
      </trkpt>
      <trkpt lat="43.33876" lon="-1.20854">
        <ele>143</ele>
        <time>2022-06-27T14:31:17Z</time>
      </trkpt>
      <trkpt lat="43.33902" lon="-1.20904">
        <ele>143</ele>
        <time>2022-06-27T14:31:25Z</time>
      </trkpt>
      <trkpt lat="43.33959" lon="-1.20961">
        <ele>143</ele>
        <time>2022-06-27T14:31:38Z</time>
      </trkpt>
      <trkpt lat="43.33983" lon="-1.21001">
        <ele>142</ele>
        <time>2022-06-27T14:31:45Z</time>
      </trkpt>
      <trkpt lat="43.33998" lon="-1.21043">
        <ele>142</ele>
        <time>2022-06-27T14:31:51Z</time>
      </trkpt>
      <trkpt lat="43.34005" lon="-1.21082">
        <ele>144</ele>
        <time>2022-06-27T14:31:56Z</time>
      </trkpt>
      <trkpt lat="43.34006" lon="-1.21149">
        <ele>142</ele>
        <time>2022-06-27T14:32:05Z</time>
      </trkpt>
      <trkpt lat="43.34016" lon="-1.21183">
        <ele>142</ele>
        <time>2022-06-27T14:32:09Z</time>
      </trkpt>
      <trkpt lat="43.34088" lon="-1.21293">
        <ele>142</ele>
        <time>2022-06-27T14:32:28Z</time>
      </trkpt>
      <trkpt lat="43.34222" lon="-1.21841">
        <ele>167</ele>
        <time>2022-06-27T14:33:43Z</time>
      </trkpt>
      <trkpt lat="43.34241" lon="-1.21895">
        <ele>172</ele>
        <time>2022-06-27T14:33:51Z</time>
      </trkpt>
      <trkpt lat="43.34268" lon="-1.21926">
        <ele>175</ele>
        <time>2022-06-27T14:33:57Z</time>
      </trkpt>
      <trkpt lat="43.34284" lon="-1.21934">
        <ele>176</ele>
        <time>2022-06-27T14:34:00Z</time>
      </trkpt>
      <trkpt lat="43.34342" lon="-1.21941">
        <ele>174</ele>
        <time>2022-06-27T14:34:11Z</time>
      </trkpt>
      <trkpt lat="43.34376" lon="-1.21981">
        <ele>174</ele>
        <time>2022-06-27T14:34:19Z</time>
      </trkpt>
      <trkpt lat="43.34381" lon="-1.22029">
        <ele>179</ele>
        <time>2022-06-27T14:34:25Z</time>
      </trkpt>
      <trkpt lat="43.34372" lon="-1.22101">
        <ele>188</ele>
        <time>2022-06-27T14:34:34Z</time>
      </trkpt>
      <trkpt lat="43.34379" lon="-1.2213">
        <ele>191</ele>
        <time>2022-06-27T14:34:38Z</time>
      </trkpt>
      <trkpt lat="43.34427" lon="-1.22169">
        <ele>190</ele>
        <time>2022-06-27T14:34:48Z</time>
      </trkpt>
      <trkpt lat="43.3445" lon="-1.22208">
        <ele>192</ele>
        <time>2022-06-27T14:34:55Z</time>
      </trkpt>
      <trkpt lat="43.34482" lon="-1.22319">
        <ele>193</ele>
        <time>2022-06-27T14:35:10Z</time>
      </trkpt>
      <trkpt lat="43.34501" lon="-1.22412">
        <ele>185</ele>
        <time>2022-06-27T14:35:23Z</time>
      </trkpt>
      <trkpt lat="43.34548" lon="-1.22492">
        <ele>181</ele>
        <time>2022-06-27T14:35:36Z</time>
      </trkpt>
      <trkpt lat="43.34588" lon="-1.22543">
        <ele>174</ele>
        <time>2022-06-27T14:35:46Z</time>
      </trkpt>
      <trkpt lat="43.34654" lon="-1.22606">
        <ele>169</ele>
        <time>2022-06-27T14:36:00Z</time>
      </trkpt>
      <trkpt lat="43.34661" lon="-1.22623">
        <ele>168</ele>
        <time>2022-06-27T14:36:02Z</time>
      </trkpt>
      <trkpt lat="43.34647" lon="-1.22741">
        <ele>165</ele>
        <time>2022-06-27T14:36:18Z</time>
      </trkpt>
      <trkpt lat="43.34674" lon="-1.22904">
        <ele>167</ele>
        <time>2022-06-27T14:36:40Z</time>
      </trkpt>
      <trkpt lat="43.34698" lon="-1.22948">
        <ele>165</ele>
        <time>2022-06-27T14:36:47Z</time>
      </trkpt>
      <trkpt lat="43.34751" lon="-1.22999">
        <ele>161</ele>
        <time>2022-06-27T14:36:58Z</time>
      </trkpt>
      <trkpt lat="43.34864" lon="-1.23082">
        <ele>157</ele>
        <time>2022-06-27T14:37:21Z</time>
      </trkpt>
      <trkpt lat="43.34928" lon="-1.23111">
        <ele>156</ele>
        <time>2022-06-27T14:37:33Z</time>
      </trkpt>
      <trkpt lat="43.34938" lon="-1.23122">
        <ele>156</ele>
        <time>2022-06-27T14:37:35Z</time>
      </trkpt>
      <trkpt lat="43.34943" lon="-1.23136">
        <ele>156</ele>
        <time>2022-06-27T14:37:37Z</time>
      </trkpt>
      <trkpt lat="43.34944" lon="-1.23225">
        <ele>156</ele>
        <time>2022-06-27T14:37:49Z</time>
      </trkpt>
      <trkpt lat="43.34995" lon="-1.23346">
        <ele>158</ele>
        <time>2022-06-27T14:38:07Z</time>
      </trkpt>
      <trkpt lat="43.35057" lon="-1.23546">
        <ele>156</ele>
        <time>2022-06-27T14:38:35Z</time>
      </trkpt>
      <trkpt lat="43.35178" lon="-1.24215">
        <ele>143</ele>
        <time>2022-06-27T14:40:04Z</time>
      </trkpt>
      <trkpt lat="43.35188" lon="-1.24244">
        <ele>142</ele>
        <time>2022-06-27T14:40:08Z</time>
      </trkpt>
      <trkpt lat="43.35204" lon="-1.24259">
        <ele>141</ele>
        <time>2022-06-27T14:40:12Z</time>
      </trkpt>
      <trkpt lat="43.35241" lon="-1.24262">
        <ele>139</ele>
        <time>2022-06-27T14:40:18Z</time>
      </trkpt>
      <trkpt lat="43.3529" lon="-1.24294">
        <ele>136</ele>
        <time>2022-06-27T14:40:28Z</time>
      </trkpt>
      <trkpt lat="43.35335" lon="-1.24308">
        <ele>132</ele>
        <time>2022-06-27T14:40:36Z</time>
      </trkpt>
      <trkpt lat="43.35357" lon="-1.2432">
        <ele>130</ele>
        <time>2022-06-27T14:40:40Z</time>
      </trkpt>
      <trkpt lat="43.35376" lon="-1.24342">
        <ele>129</ele>
        <time>2022-06-27T14:40:45Z</time>
      </trkpt>
      <trkpt lat="43.35402" lon="-1.24388">
        <ele>127</ele>
        <time>2022-06-27T14:40:52Z</time>
      </trkpt>
      <trkpt lat="43.35427" lon="-1.24479">
        <ele>124</ele>
        <time>2022-06-27T14:41:05Z</time>
      </trkpt>
      <trkpt lat="43.35454" lon="-1.24503">
        <ele>120</ele>
        <time>2022-06-27T14:41:11Z</time>
      </trkpt>
      <trkpt lat="43.35509" lon="-1.24525">
        <ele>113</ele>
        <time>2022-06-27T14:41:21Z</time>
      </trkpt>
      <trkpt lat="43.35535" lon="-1.2455">
        <ele>113</ele>
        <time>2022-06-27T14:41:27Z</time>
      </trkpt>
      <trkpt lat="43.35551" lon="-1.24578">
        <ele>113</ele>
        <time>2022-06-27T14:41:31Z</time>
      </trkpt>
      <trkpt lat="43.35613" lon="-1.24739">
        <ele>106</ele>
        <time>2022-06-27T14:41:55Z</time>
      </trkpt>
      <trkpt lat="43.35699" lon="-1.24816">
        <ele>94</ele>
        <time>2022-06-27T14:42:13Z</time>
      </trkpt>
      <trkpt lat="43.35713" lon="-1.2484">
        <ele>93</ele>
        <time>2022-06-27T14:42:17Z</time>
      </trkpt>
      <trkpt lat="43.3575" lon="-1.24952">
        <ele>88</ele>
        <time>2022-06-27T14:42:33Z</time>
      </trkpt>
      <trkpt lat="43.35775" lon="-1.24987">
        <ele>86</ele>
        <time>2022-06-27T14:42:39Z</time>
      </trkpt>
      <trkpt lat="43.35807" lon="-1.25008">
        <ele>85</ele>
        <time>2022-06-27T14:42:46Z</time>
      </trkpt>
      <trkpt lat="43.35846" lon="-1.25014">
        <ele>84</ele>
        <time>2022-06-27T14:42:53Z</time>
      </trkpt>
      <trkpt lat="43.36068" lon="-1.25006">
        <ele>85</ele>
        <time>2022-06-27T14:43:32Z</time>
      </trkpt>
      <trkpt lat="43.36098" lon="-1.25021">
        <ele>87</ele>
        <time>2022-06-27T14:43:38Z</time>
      </trkpt>
      <trkpt lat="43.36131" lon="-1.25057">
        <ele>86</ele>
        <time>2022-06-27T14:43:45Z</time>
      </trkpt>
      <trkpt lat="43.36152" lon="-1.25109">
        <ele>84</ele>
        <time>2022-06-27T14:43:53Z</time>
      </trkpt>
      <trkpt lat="43.3616" lon="-1.25196">
        <ele>86</ele>
        <time>2022-06-27T14:44:04Z</time>
      </trkpt>
      <trkpt lat="43.36159" lon="-1.25272">
        <ele>90</ele>
        <time>2022-06-27T14:44:14Z</time>
      </trkpt>
      <trkpt lat="43.36173" lon="-1.25327">
        <ele>93</ele>
        <time>2022-06-27T14:44:22Z</time>
      </trkpt>
      <trkpt lat="43.36195" lon="-1.25365">
        <ele>91</ele>
        <time>2022-06-27T14:44:28Z</time>
      </trkpt>
      <trkpt lat="43.36237" lon="-1.25412">
        <ele>81</ele>
        <time>2022-06-27T14:44:38Z</time>
      </trkpt>
      <trkpt lat="43.36254" lon="-1.25441">
        <ele>81</ele>
        <time>2022-06-27T14:44:42Z</time>
      </trkpt>
      <trkpt lat="43.36285" lon="-1.25535">
        <ele>88</ele>
        <time>2022-06-27T14:44:56Z</time>
      </trkpt>
      <trkpt lat="43.36298" lon="-1.2556">
        <ele>87</ele>
        <time>2022-06-27T14:45:00Z</time>
      </trkpt>
      <trkpt lat="43.36334" lon="-1.25604">
        <ele>79</ele>
        <time>2022-06-27T14:45:08Z</time>
      </trkpt>
      <trkpt lat="43.36348" lon="-1.25639">
        <ele>81</ele>
        <time>2022-06-27T14:45:13Z</time>
      </trkpt>
      <trkpt lat="43.36367" lon="-1.25772">
        <ele>80</ele>
        <time>2022-06-27T14:45:31Z</time>
      </trkpt>
      <trkpt lat="43.36366" lon="-1.25807">
        <ele>77</ele>
        <time>2022-06-27T14:45:36Z</time>
      </trkpt>
      <trkpt lat="43.36363" lon="-1.25834">
        <ele>76</ele>
        <time>2022-06-27T14:45:39Z</time>
      </trkpt>
      <trkpt lat="43.36337" lon="-1.2591">
        <ele>77</ele>
        <time>2022-06-27T14:45:50Z</time>
      </trkpt>
      <trkpt lat="43.36338" lon="-1.25934">
        <ele>77</ele>
        <time>2022-06-27T14:45:53Z</time>
      </trkpt>
      <trkpt lat="43.36376" lon="-1.26009">
        <ele>73</ele>
        <time>2022-06-27T14:46:05Z</time>
      </trkpt>
      <trkpt lat="43.36405" lon="-1.26136">
        <ele>71</ele>
        <time>2022-06-27T14:46:22Z</time>
      </trkpt>
      <trkpt lat="43.36613" lon="-1.26448">
        <ele>56</ele>
        <time>2022-06-27T14:47:17Z</time>
      </trkpt>
      <trkpt lat="43.36626" lon="-1.26493">
        <ele>58</ele>
        <time>2022-06-27T14:47:23Z</time>
      </trkpt>
      <trkpt lat="43.36657" lon="-1.26729">
        <ele>55</ele>
        <time>2022-06-27T14:47:54Z</time>
      </trkpt>
      <trkpt lat="43.36658" lon="-1.26773">
        <ele>56</ele>
        <time>2022-06-27T14:48:00Z</time>
      </trkpt>
      <trkpt lat="43.36787" lon="-1.26864">
        <ele>52</ele>
        <time>2022-06-27T14:48:26Z</time>
      </trkpt>
      <trkpt lat="43.3682" lon="-1.26895">
        <ele>51</ele>
        <time>2022-06-27T14:48:33Z</time>
      </trkpt>
      <trkpt lat="43.36889" lon="-1.26996">
        <ele>56</ele>
        <time>2022-06-27T14:48:51Z</time>
      </trkpt>
      <trkpt lat="43.36916" lon="-1.27053">
        <ele>59</ele>
        <time>2022-06-27T14:48:59Z</time>
      </trkpt>
      <trkpt lat="43.36945" lon="-1.27135">
        <ele>67</ele>
        <time>2022-06-27T14:49:11Z</time>
      </trkpt>
      <trkpt lat="43.36988" lon="-1.27329">
        <ele>71</ele>
        <time>2022-06-27T14:49:37Z</time>
      </trkpt>
      <trkpt lat="43.36999" lon="-1.27358">
        <ele>70</ele>
        <time>2022-06-27T14:49:42Z</time>
      </trkpt>
      <trkpt lat="43.37019" lon="-1.27376">
        <ele>72</ele>
        <time>2022-06-27T14:49:46Z</time>
      </trkpt>
      <trkpt lat="43.37073" lon="-1.27405">
        <ele>79</ele>
        <time>2022-06-27T14:49:56Z</time>
      </trkpt>
      <trkpt lat="43.371" lon="-1.27431">
        <ele>84</ele>
        <time>2022-06-27T14:50:02Z</time>
      </trkpt>
      <trkpt lat="43.3711" lon="-1.27458">
        <ele>86</ele>
        <time>2022-06-27T14:50:06Z</time>
      </trkpt>
      <trkpt lat="43.37117" lon="-1.27525">
        <ele>85</ele>
        <time>2022-06-27T14:50:15Z</time>
      </trkpt>
      <trkpt lat="43.37136" lon="-1.27559">
        <ele>86</ele>
        <time>2022-06-27T14:50:20Z</time>
      </trkpt>
      <trkpt lat="43.37165" lon="-1.27584">
        <ele>90</ele>
        <time>2022-06-27T14:50:26Z</time>
      </trkpt>
      <trkpt lat="43.37203" lon="-1.27601">
        <ele>90</ele>
        <time>2022-06-27T14:50:34Z</time>
      </trkpt>
      <trkpt lat="43.37271" lon="-1.27595">
        <ele>98</ele>
        <time>2022-06-27T14:50:46Z</time>
      </trkpt>
      <trkpt lat="43.37295" lon="-1.27602">
        <ele>102</ele>
        <time>2022-06-27T14:50:50Z</time>
      </trkpt>
      <trkpt lat="43.37319" lon="-1.27624">
        <ele>104</ele>
        <time>2022-06-27T14:50:55Z</time>
      </trkpt>
      <trkpt lat="43.37354" lon="-1.27672">
        <ele>103</ele>
        <time>2022-06-27T14:51:04Z</time>
      </trkpt>
      <trkpt lat="43.37386" lon="-1.27691">
        <ele>105</ele>
        <time>2022-06-27T14:51:10Z</time>
      </trkpt>
      <trkpt lat="43.37488" lon="-1.27733">
        <ele>110</ele>
        <time>2022-06-27T14:51:29Z</time>
      </trkpt>
      <trkpt lat="43.3762" lon="-1.27857">
        <ele>122</ele>
        <time>2022-06-27T14:51:58Z</time>
      </trkpt>
      <trkpt lat="43.37701" lon="-1.27871">
        <ele>126</ele>
        <time>2022-06-27T14:52:12Z</time>
      </trkpt>
      <trkpt lat="43.37714" lon="-1.27878">
        <ele>125</ele>
        <time>2022-06-27T14:52:15Z</time>
      </trkpt>
      <trkpt lat="43.37739" lon="-1.2791">
        <ele>124</ele>
        <time>2022-06-27T14:52:21Z</time>
      </trkpt>
      <trkpt lat="43.37752" lon="-1.27952">
        <ele>123</ele>
        <time>2022-06-27T14:52:27Z</time>
      </trkpt>
      <trkpt lat="43.37752" lon="-1.27981">
        <ele>125</ele>
        <time>2022-06-27T14:52:30Z</time>
      </trkpt>
      <trkpt lat="43.3773" lon="-1.28079">
        <ele>127</ele>
        <time>2022-06-27T14:52:44Z</time>
      </trkpt>
      <trkpt lat="43.37722" lon="-1.28215">
        <ele>122</ele>
        <time>2022-06-27T14:53:01Z</time>
      </trkpt>
      <trkpt lat="43.37667" lon="-1.28489">
        <ele>121</ele>
        <time>2022-06-27T14:53:38Z</time>
      </trkpt>
      <trkpt lat="43.37661" lon="-1.28538">
        <ele>122</ele>
        <time>2022-06-27T14:53:44Z</time>
      </trkpt>
      <trkpt lat="43.37671" lon="-1.28598">
        <ele>120</ele>
        <time>2022-06-27T14:53:52Z</time>
      </trkpt>
      <trkpt lat="43.37693" lon="-1.28635">
        <ele>118</ele>
        <time>2022-06-27T14:53:59Z</time>
      </trkpt>
      <trkpt lat="43.37787" lon="-1.28742">
        <ele>113</ele>
        <time>2022-06-27T14:54:20Z</time>
      </trkpt>
      <trkpt lat="43.37992" lon="-1.29096">
        <ele>102</ele>
        <time>2022-06-27T14:55:19Z</time>
      </trkpt>
      <trkpt lat="43.38035" lon="-1.29142">
        <ele>99</ele>
        <time>2022-06-27T14:55:28Z</time>
      </trkpt>
      <trkpt lat="43.38112" lon="-1.29182">
        <ele>91</ele>
        <time>2022-06-27T14:55:43Z</time>
      </trkpt>
      <trkpt lat="43.38133" lon="-1.29202">
        <ele>89</ele>
        <time>2022-06-27T14:55:48Z</time>
      </trkpt>
      <trkpt lat="43.3839" lon="-1.29527">
        <ele>77</ele>
        <time>2022-06-27T14:56:50Z</time>
      </trkpt>
      <trkpt lat="43.38444" lon="-1.29632">
        <ele>76</ele>
        <time>2022-06-27T14:57:06Z</time>
      </trkpt>
      <trkpt lat="43.38506" lon="-1.29707">
        <ele>76</ele>
        <time>2022-06-27T14:57:21Z</time>
      </trkpt>
      <trkpt lat="43.38516" lon="-1.29744">
        <ele>74</ele>
        <time>2022-06-27T14:57:26Z</time>
      </trkpt>
      <trkpt lat="43.38638" lon="-1.29944">
        <ele>75</ele>
        <time>2022-06-27T14:58:00Z</time>
      </trkpt>
      <trkpt lat="43.3866" lon="-1.29997">
        <ele>73</ele>
        <time>2022-06-27T14:58:08Z</time>
      </trkpt>
      <trkpt lat="43.38665" lon="-1.3005">
        <ele>74</ele>
        <time>2022-06-27T14:58:15Z</time>
      </trkpt>
      <trkpt lat="43.38669" lon="-1.3019">
        <ele>70</ele>
        <time>2022-06-27T14:58:33Z</time>
      </trkpt>
      <trkpt lat="43.3863" lon="-1.30391">
        <ele>71</ele>
        <time>2022-06-27T14:59:00Z</time>
      </trkpt>
      <trkpt lat="43.38614" lon="-1.30445">
        <ele>73</ele>
        <time>2022-06-27T14:59:07Z</time>
      </trkpt>
      <trkpt lat="43.38618" lon="-1.30462">
        <ele>73</ele>
        <time>2022-06-27T14:59:10Z</time>
      </trkpt>
      <trkpt lat="43.38604" lon="-1.30469">
        <ele>74</ele>
        <time>2022-06-27T14:59:12Z</time>
      </trkpt>
      <trkpt lat="43.38595" lon="-1.30482">
        <ele>75</ele>
        <time>2022-06-27T14:59:15Z</time>
      </trkpt>
      <trkpt lat="43.38587" lon="-1.30479">
        <ele>76</ele>
        <time>2022-06-27T14:59:16Z</time>
      </trkpt>
      <trkpt lat="43.38581" lon="-1.30489">
        <ele>77</ele>
        <time>2022-06-27T14:59:18Z</time>
      </trkpt>
      <trkpt lat="43.3853" lon="-1.30527">
        <ele>81</ele>
        <time>2022-06-27T14:59:28Z</time>
      </trkpt>
      <trkpt lat="43.38461" lon="-1.3054">
        <ele>85</ele>
        <time>2022-06-27T14:59:40Z</time>
      </trkpt>
      <trkpt lat="43.38412" lon="-1.30543">
        <ele>88</ele>
        <time>2022-06-27T14:59:49Z</time>
      </trkpt>
      <trkpt lat="43.38377" lon="-1.30535">
        <ele>91</ele>
        <time>2022-06-27T14:59:56Z</time>
      </trkpt>
      <trkpt lat="43.38339" lon="-1.30783">
        <ele>87</ele>
        <time>2022-06-27T15:00:28Z</time>
      </trkpt>
      <trkpt lat="43.38328" lon="-1.30826">
        <ele>86</ele>
        <time>2022-06-27T15:00:34Z</time>
      </trkpt>
      <trkpt lat="43.38264" lon="-1.30999">
        <ele>79</ele>
        <time>2022-06-27T15:00:59Z</time>
      </trkpt>
      <trkpt lat="43.38261" lon="-1.311">
        <ele>79</ele>
        <time>2022-06-27T15:01:12Z</time>
      </trkpt>
      <trkpt lat="43.38225" lon="-1.31274">
        <ele>67</ele>
        <time>2022-06-27T15:01:36Z</time>
      </trkpt>
      <trkpt lat="43.38233" lon="-1.3129">
        <ele>67</ele>
        <time>2022-06-27T15:01:38Z</time>
      </trkpt>
      <trkpt lat="43.3823" lon="-1.31299">
        <ele>66</ele>
        <time>2022-06-27T15:01:40Z</time>
      </trkpt>
      <trkpt lat="43.3822" lon="-1.31303">
        <ele>67</ele>
        <time>2022-06-27T15:01:41Z</time>
      </trkpt>
      <trkpt lat="43.3818" lon="-1.31505">
        <ele>70</ele>
        <time>2022-06-27T15:02:08Z</time>
      </trkpt>
      <trkpt lat="43.38187" lon="-1.31518">
        <ele>70</ele>
        <time>2022-06-27T15:02:11Z</time>
      </trkpt>
      <trkpt lat="43.38176" lon="-1.31524">
        <ele>70</ele>
        <time>2022-06-27T15:02:13Z</time>
      </trkpt>
      <trkpt lat="43.38179" lon="-1.3157">
        <ele>70</ele>
        <time>2022-06-27T15:02:19Z</time>
      </trkpt>
      <trkpt lat="43.38277" lon="-1.32089">
        <ele>67</ele>
        <time>2022-06-27T15:03:28Z</time>
      </trkpt>
      <trkpt lat="43.38308" lon="-1.32282">
        <ele>71</ele>
        <time>2022-06-27T15:03:54Z</time>
      </trkpt>
      <trkpt lat="43.38306" lon="-1.3236">
        <ele>72</ele>
        <time>2022-06-27T15:04:04Z</time>
      </trkpt>
      <trkpt lat="43.38192" lon="-1.32923">
        <ele>81</ele>
        <time>2022-06-27T15:05:19Z</time>
      </trkpt>
      <trkpt lat="43.38224" lon="-1.33093">
        <ele>81</ele>
        <time>2022-06-27T15:05:42Z</time>
      </trkpt>
      <trkpt lat="43.38217" lon="-1.33248">
        <ele>79</ele>
        <time>2022-06-27T15:06:02Z</time>
      </trkpt>
      <trkpt lat="43.382" lon="-1.33317">
        <ele>80</ele>
        <time>2022-06-27T15:06:11Z</time>
      </trkpt>
      <trkpt lat="43.38138" lon="-1.33425">
        <ele>82</ele>
        <time>2022-06-27T15:06:29Z</time>
      </trkpt>
      <trkpt lat="43.38101" lon="-1.3346">
        <ele>86</ele>
        <time>2022-06-27T15:06:37Z</time>
      </trkpt>
      <trkpt lat="43.38058" lon="-1.33488">
        <ele>87</ele>
        <time>2022-06-27T15:06:46Z</time>
      </trkpt>
      <trkpt lat="43.38018" lon="-1.33529">
        <ele>86</ele>
        <time>2022-06-27T15:06:55Z</time>
      </trkpt>
      <trkpt lat="43.37879" lon="-1.33745">
        <ele>90</ele>
        <time>2022-06-27T15:07:32Z</time>
      </trkpt>
      <trkpt lat="43.37813" lon="-1.33805">
        <ele>92</ele>
        <time>2022-06-27T15:07:46Z</time>
      </trkpt>
      <trkpt lat="43.37781" lon="-1.33842">
        <ele>95</ele>
        <time>2022-06-27T15:07:53Z</time>
      </trkpt>
      <trkpt lat="43.37757" lon="-1.33892">
        <ele>99</ele>
        <time>2022-06-27T15:08:01Z</time>
      </trkpt>
      <trkpt lat="43.37703" lon="-1.34101">
        <ele>107</ele>
        <time>2022-06-27T15:08:30Z</time>
      </trkpt>
      <trkpt lat="43.37626" lon="-1.34214">
        <ele>112</ele>
        <time>2022-06-27T15:08:50Z</time>
      </trkpt>
      <trkpt lat="43.37589" lon="-1.34248">
        <ele>112</ele>
        <time>2022-06-27T15:08:58Z</time>
      </trkpt>
      <trkpt lat="43.37546" lon="-1.34276">
        <ele>118</ele>
        <time>2022-06-27T15:09:06Z</time>
      </trkpt>
      <trkpt lat="43.37403" lon="-1.34599">
        <ele>131</ele>
        <time>2022-06-27T15:09:55Z</time>
      </trkpt>
      <trkpt lat="43.37389" lon="-1.3467">
        <ele>135</ele>
        <time>2022-06-27T15:10:05Z</time>
      </trkpt>
      <trkpt lat="43.37396" lon="-1.34793">
        <ele>141</ele>
        <time>2022-06-27T15:10:21Z</time>
      </trkpt>
      <trkpt lat="43.37384" lon="-1.34832">
        <ele>141</ele>
        <time>2022-06-27T15:10:26Z</time>
      </trkpt>
      <trkpt lat="43.37317" lon="-1.34904">
        <ele>137</ele>
        <time>2022-06-27T15:10:41Z</time>
      </trkpt>
      <trkpt lat="43.37191" lon="-1.35103">
        <ele>123</ele>
        <time>2022-06-27T15:11:15Z</time>
      </trkpt>
      <trkpt lat="43.37143" lon="-1.35153">
        <ele>116</ele>
        <time>2022-06-27T15:11:26Z</time>
      </trkpt>
      <trkpt lat="43.37112" lon="-1.35166">
        <ele>113</ele>
        <time>2022-06-27T15:11:32Z</time>
      </trkpt>
      <trkpt lat="43.3709" lon="-1.35168">
        <ele>112</ele>
        <time>2022-06-27T15:11:36Z</time>
      </trkpt>
      <trkpt lat="43.36982" lon="-1.35155">
        <ele>103</ele>
        <time>2022-06-27T15:11:55Z</time>
      </trkpt>
      <trkpt lat="43.36954" lon="-1.35163">
        <ele>100</ele>
        <time>2022-06-27T15:12:00Z</time>
      </trkpt>
      <trkpt lat="43.36928" lon="-1.35161">
        <ele>97</ele>
        <time>2022-06-27T15:12:05Z</time>
      </trkpt>
      <trkpt lat="43.3691" lon="-1.3517">
        <ele>96</ele>
        <time>2022-06-27T15:12:08Z</time>
      </trkpt>
      <trkpt lat="43.36827" lon="-1.35242">
        <ele>92</ele>
        <time>2022-06-27T15:12:26Z</time>
      </trkpt>
      <trkpt lat="43.36794" lon="-1.35358">
        <ele>92</ele>
        <time>2022-06-27T15:12:42Z</time>
      </trkpt>
      <trkpt lat="43.36766" lon="-1.35665">
        <ele>87</ele>
        <time>2022-06-27T15:13:22Z</time>
      </trkpt>
      <trkpt lat="43.36702" lon="-1.35926">
        <ele>85</ele>
        <time>2022-06-27T15:13:57Z</time>
      </trkpt>
      <trkpt lat="43.3666" lon="-1.36026">
        <ele>78</ele>
        <time>2022-06-27T15:14:12Z</time>
      </trkpt>
      <trkpt lat="43.36648" lon="-1.36084">
        <ele>77</ele>
        <time>2022-06-27T15:14:20Z</time>
      </trkpt>
      <trkpt lat="43.36642" lon="-1.36212">
        <ele>73</ele>
        <time>2022-06-27T15:14:37Z</time>
      </trkpt>
      <trkpt lat="43.36671" lon="-1.36329">
        <ele>72</ele>
        <time>2022-06-27T15:14:53Z</time>
      </trkpt>
      <trkpt lat="43.36677" lon="-1.36374">
        <ele>73</ele>
        <time>2022-06-27T15:14:59Z</time>
      </trkpt>
      <trkpt lat="43.36675" lon="-1.36418">
        <ele>73</ele>
        <time>2022-06-27T15:15:04Z</time>
      </trkpt>
      <trkpt lat="43.36662" lon="-1.36478">
        <ele>72</ele>
        <time>2022-06-27T15:15:12Z</time>
      </trkpt>
      <trkpt lat="43.36514" lon="-1.36772">
        <ele>66</ele>
        <time>2022-06-27T15:15:59Z</time>
      </trkpt>
      <trkpt lat="43.36465" lon="-1.36881">
        <ele>72</ele>
        <time>2022-06-27T15:16:15Z</time>
      </trkpt>
      <trkpt lat="43.36443" lon="-1.36913">
        <ele>72</ele>
        <time>2022-06-27T15:16:21Z</time>
      </trkpt>
      <trkpt lat="43.36419" lon="-1.36932">
        <ele>71</ele>
        <time>2022-06-27T15:16:26Z</time>
      </trkpt>
      <trkpt lat="43.36399" lon="-1.3694">
        <ele>71</ele>
        <time>2022-06-27T15:16:30Z</time>
      </trkpt>
      <trkpt lat="43.36346" lon="-1.36937">
        <ele>70</ele>
        <time>2022-06-27T15:16:39Z</time>
      </trkpt>
      <trkpt lat="43.36317" lon="-1.36939">
        <ele>72</ele>
        <time>2022-06-27T15:16:44Z</time>
      </trkpt>
      <trkpt lat="43.36295" lon="-1.36947">
        <ele>75</ele>
        <time>2022-06-27T15:16:48Z</time>
      </trkpt>
      <trkpt lat="43.36275" lon="-1.36968">
        <ele>77</ele>
        <time>2022-06-27T15:16:53Z</time>
      </trkpt>
      <trkpt lat="43.36264" lon="-1.3699">
        <ele>78</ele>
        <time>2022-06-27T15:16:56Z</time>
      </trkpt>
      <trkpt lat="43.36244" lon="-1.37146">
        <ele>71</ele>
        <time>2022-06-27T15:17:17Z</time>
      </trkpt>
      <trkpt lat="43.36186" lon="-1.37341">
        <ele>69</ele>
        <time>2022-06-27T15:17:44Z</time>
      </trkpt>
      <trkpt lat="43.36182" lon="-1.37384">
        <ele>69</ele>
        <time>2022-06-27T15:17:50Z</time>
      </trkpt>
      <trkpt lat="43.36185" lon="-1.37455">
        <ele>71</ele>
        <time>2022-06-27T15:17:59Z</time>
      </trkpt>
      <trkpt lat="43.36176" lon="-1.37509">
        <ele>72</ele>
        <time>2022-06-27T15:18:06Z</time>
      </trkpt>
      <trkpt lat="43.36163" lon="-1.37549">
        <ele>70</ele>
        <time>2022-06-27T15:18:12Z</time>
      </trkpt>
      <trkpt lat="43.3612" lon="-1.37629">
        <ele>68</ele>
        <time>2022-06-27T15:18:24Z</time>
      </trkpt>
      <trkpt lat="43.36114" lon="-1.37656">
        <ele>69</ele>
        <time>2022-06-27T15:18:28Z</time>
      </trkpt>
      <trkpt lat="43.36114" lon="-1.37774">
        <ele>75</ele>
        <time>2022-06-27T15:18:43Z</time>
      </trkpt>
      <trkpt lat="43.3603" lon="-1.37989">
        <ele>79</ele>
        <time>2022-06-27T15:19:15Z</time>
      </trkpt>
      <trkpt lat="43.3605" lon="-1.38434">
        <ele>62</ele>
        <time>2022-06-27T15:20:13Z</time>
      </trkpt>
      <trkpt lat="43.36027" lon="-1.38515">
        <ele>60</ele>
        <time>2022-06-27T15:20:24Z</time>
      </trkpt>
      <trkpt lat="43.36016" lon="-1.38645">
        <ele>55</ele>
        <time>2022-06-27T15:20:41Z</time>
      </trkpt>
      <trkpt lat="43.35998" lon="-1.38691">
        <ele>48</ele>
        <time>2022-06-27T15:20:48Z</time>
      </trkpt>
      <trkpt lat="43.35922" lon="-1.38824">
        <ele>40</ele>
        <time>2022-06-27T15:21:09Z</time>
      </trkpt>
      <trkpt lat="43.35874" lon="-1.38952">
        <ele>39</ele>
        <time>2022-06-27T15:21:28Z</time>
      </trkpt>
      <trkpt lat="43.35841" lon="-1.39072">
        <ele>31</ele>
        <time>2022-06-27T15:21:45Z</time>
      </trkpt>
      <trkpt lat="43.35824" lon="-1.39102">
        <ele>29</ele>
        <time>2022-06-27T15:21:50Z</time>
      </trkpt>
      <trkpt lat="43.3581" lon="-1.39112">
        <ele>28</ele>
        <time>2022-06-27T15:21:52Z</time>
      </trkpt>
      <trkpt lat="43.35784" lon="-1.39115">
        <ele>27</ele>
        <time>2022-06-27T15:21:57Z</time>
      </trkpt>
      <trkpt lat="43.35766" lon="-1.39108">
        <ele>28</ele>
        <time>2022-06-27T15:22:00Z</time>
      </trkpt>
      <trkpt lat="43.35746" lon="-1.39088">
        <ele>28</ele>
        <time>2022-06-27T15:22:05Z</time>
      </trkpt>
      <trkpt lat="43.35717" lon="-1.3904">
        <ele>28</ele>
        <time>2022-06-27T15:22:13Z</time>
      </trkpt>
      <trkpt lat="43.35702" lon="-1.39032">
        <ele>26</ele>
        <time>2022-06-27T15:22:16Z</time>
      </trkpt>
      <trkpt lat="43.35687" lon="-1.39033">
        <ele>24</ele>
        <time>2022-06-27T15:22:18Z</time>
      </trkpt>
      <trkpt lat="43.35583" lon="-1.39071">
        <ele>28</ele>
        <time>2022-06-27T15:22:37Z</time>
      </trkpt>
      <trkpt lat="43.35539" lon="-1.39101">
        <ele>35</ele>
        <time>2022-06-27T15:22:46Z</time>
      </trkpt>
      <trkpt lat="43.35483" lon="-1.39168">
        <ele>44</ele>
        <time>2022-06-27T15:22:59Z</time>
      </trkpt>
      <trkpt lat="43.35474" lon="-1.39191">
        <ele>49</ele>
        <time>2022-06-27T15:23:03Z</time>
      </trkpt>
      <trkpt lat="43.3547" lon="-1.39226">
        <ele>53</ele>
        <time>2022-06-27T15:23:07Z</time>
      </trkpt>
      <trkpt lat="43.35485" lon="-1.39263">
        <ele>57</ele>
        <time>2022-06-27T15:23:13Z</time>
      </trkpt>
      <trkpt lat="43.35509" lon="-1.39272">
        <ele>58</ele>
        <time>2022-06-27T15:23:17Z</time>
      </trkpt>
      <trkpt lat="43.35553" lon="-1.39255">
        <ele>51</ele>
        <time>2022-06-27T15:23:25Z</time>
      </trkpt>
      <trkpt lat="43.35576" lon="-1.39262">
        <ele>50</ele>
        <time>2022-06-27T15:23:30Z</time>
      </trkpt>
      <trkpt lat="43.35589" lon="-1.39278">
        <ele>52</ele>
        <time>2022-06-27T15:23:33Z</time>
      </trkpt>
      <trkpt lat="43.3562" lon="-1.39336">
        <ele>57</ele>
        <time>2022-06-27T15:23:42Z</time>
      </trkpt>
      <trkpt lat="43.35639" lon="-1.39412">
        <ele>65</ele>
        <time>2022-06-27T15:23:52Z</time>
      </trkpt>
      <trkpt lat="43.3566" lon="-1.39449">
        <ele>65</ele>
        <time>2022-06-27T15:23:59Z</time>
      </trkpt>
      <trkpt lat="43.35727" lon="-1.39546">
        <ele>66</ele>
        <time>2022-06-27T15:24:16Z</time>
      </trkpt>
      <trkpt lat="43.35835" lon="-1.39666">
        <ele>71</ele>
        <time>2022-06-27T15:24:41Z</time>
      </trkpt>
      <trkpt lat="43.35984" lon="-1.3988">
        <ele>70</ele>
        <time>2022-06-27T15:25:19Z</time>
      </trkpt>
      <trkpt lat="43.35996" lon="-1.39884">
        <ele>70</ele>
        <time>2022-06-27T15:25:21Z</time>
      </trkpt>
      <trkpt lat="43.35995" lon="-1.39903">
        <ele>71</ele>
        <time>2022-06-27T15:25:24Z</time>
      </trkpt>
      <trkpt lat="43.3602" lon="-1.39929">
        <ele>70</ele>
        <time>2022-06-27T15:25:29Z</time>
      </trkpt>
      <trkpt lat="43.36047" lon="-1.39978">
        <ele>70</ele>
        <time>2022-06-27T15:25:37Z</time>
      </trkpt>
      <trkpt lat="43.36057" lon="-1.39978">
        <ele>70</ele>
        <time>2022-06-27T15:25:39Z</time>
      </trkpt>
      <trkpt lat="43.36061" lon="-1.39994">
        <ele>70</ele>
        <time>2022-06-27T15:25:41Z</time>
      </trkpt>
      <trkpt lat="43.36051" lon="-1.40002">
        <ele>70</ele>
        <time>2022-06-27T15:25:43Z</time>
      </trkpt>
      <trkpt lat="43.3605" lon="-1.4002">
        <ele>70</ele>
        <time>2022-06-27T15:25:45Z</time>
      </trkpt>
      <trkpt lat="43.36007" lon="-1.40157">
        <ele>69</ele>
        <time>2022-06-27T15:26:05Z</time>
      </trkpt>
      <trkpt lat="43.35812" lon="-1.4076">
        <ele>75</ele>
        <time>2022-06-27T15:27:30Z</time>
      </trkpt>
      <trkpt lat="43.35816" lon="-1.4078">
        <ele>74</ele>
        <time>2022-06-27T15:27:33Z</time>
      </trkpt>
      <trkpt lat="43.35804" lon="-1.40784">
        <ele>75</ele>
        <time>2022-06-27T15:27:35Z</time>
      </trkpt>
      <trkpt lat="43.35683" lon="-1.41057">
        <ele>79</ele>
        <time>2022-06-27T15:28:16Z</time>
      </trkpt>
      <trkpt lat="43.35687" lon="-1.41075">
        <ele>78</ele>
        <time>2022-06-27T15:28:19Z</time>
      </trkpt>
      <trkpt lat="43.3568" lon="-1.41083">
        <ele>78</ele>
        <time>2022-06-27T15:28:20Z</time>
      </trkpt>
      <trkpt lat="43.35672" lon="-1.41079">
        <ele>79</ele>
        <time>2022-06-27T15:28:22Z</time>
      </trkpt>
      <trkpt lat="43.35656" lon="-1.41122">
        <ele>79</ele>
        <time>2022-06-27T15:28:28Z</time>
      </trkpt>
      <trkpt lat="43.35626" lon="-1.41263">
        <ele>82</ele>
        <time>2022-06-27T15:28:47Z</time>
      </trkpt>
      <trkpt lat="43.35597" lon="-1.41366">
        <ele>84</ele>
        <time>2022-06-27T15:29:01Z</time>
      </trkpt>
      <trkpt lat="43.35552" lon="-1.41446">
        <ele>82</ele>
        <time>2022-06-27T15:29:15Z</time>
      </trkpt>
      <trkpt lat="43.35555" lon="-1.41458">
        <ele>82</ele>
        <time>2022-06-27T15:29:16Z</time>
      </trkpt>
      <trkpt lat="43.35545" lon="-1.41463">
        <ele>81</ele>
        <time>2022-06-27T15:29:18Z</time>
      </trkpt>
      <trkpt lat="43.35504" lon="-1.4154">
        <ele>75</ele>
        <time>2022-06-27T15:29:30Z</time>
      </trkpt>
      <trkpt lat="43.35449" lon="-1.41594">
        <ele>70</ele>
        <time>2022-06-27T15:29:42Z</time>
      </trkpt>
      <trkpt lat="43.35432" lon="-1.41624">
        <ele>67</ele>
        <time>2022-06-27T15:29:47Z</time>
      </trkpt>
      <trkpt lat="43.3536" lon="-1.41837">
        <ele>50</ele>
        <time>2022-06-27T15:30:18Z</time>
      </trkpt>
      <trkpt lat="43.35358" lon="-1.41885">
        <ele>50</ele>
        <time>2022-06-27T15:30:24Z</time>
      </trkpt>
      <trkpt lat="43.35349" lon="-1.41896">
        <ele>50</ele>
        <time>2022-06-27T15:30:26Z</time>
      </trkpt>
      <trkpt lat="43.35343" lon="-1.41921">
        <ele>49</ele>
        <time>2022-06-27T15:30:30Z</time>
      </trkpt>
      <trkpt lat="43.35345" lon="-1.41954">
        <ele>49</ele>
        <time>2022-06-27T15:30:34Z</time>
      </trkpt>
      <trkpt lat="43.35355" lon="-1.41984">
        <ele>50</ele>
        <time>2022-06-27T15:30:38Z</time>
      </trkpt>
      <trkpt lat="43.35386" lon="-1.42024">
        <ele>53</ele>
        <time>2022-06-27T15:30:46Z</time>
      </trkpt>
      <trkpt lat="43.35405" lon="-1.42034">
        <ele>55</ele>
        <time>2022-06-27T15:30:49Z</time>
      </trkpt>
      <trkpt lat="43.35428" lon="-1.4204">
        <ele>56</ele>
        <time>2022-06-27T15:30:53Z</time>
      </trkpt>
      <trkpt lat="43.35473" lon="-1.42039">
        <ele>59</ele>
        <time>2022-06-27T15:31:01Z</time>
      </trkpt>
      <trkpt lat="43.35486" lon="-1.42045">
        <ele>60</ele>
        <time>2022-06-27T15:31:04Z</time>
      </trkpt>
      <trkpt lat="43.35507" lon="-1.42073">
        <ele>62</ele>
        <time>2022-06-27T15:31:09Z</time>
      </trkpt>
      <trkpt lat="43.35514" lon="-1.42116">
        <ele>64</ele>
        <time>2022-06-27T15:31:15Z</time>
      </trkpt>
      <trkpt lat="43.35481" lon="-1.42236">
        <ele>72</ele>
        <time>2022-06-27T15:31:31Z</time>
      </trkpt>
      <trkpt lat="43.3549" lon="-1.42302">
        <ele>75</ele>
        <time>2022-06-27T15:31:40Z</time>
      </trkpt>
      <trkpt lat="43.35487" lon="-1.42367">
        <ele>76</ele>
        <time>2022-06-27T15:31:48Z</time>
      </trkpt>
      <trkpt lat="43.35465" lon="-1.42413">
        <ele>77</ele>
        <time>2022-06-27T15:31:56Z</time>
      </trkpt>
      <trkpt lat="43.35425" lon="-1.42461">
        <ele>82</ele>
        <time>2022-06-27T15:32:05Z</time>
      </trkpt>
      <trkpt lat="43.35398" lon="-1.42525">
        <ele>83</ele>
        <time>2022-06-27T15:32:15Z</time>
      </trkpt>
      <trkpt lat="43.35384" lon="-1.42741">
        <ele>92</ele>
        <time>2022-06-27T15:32:43Z</time>
      </trkpt>
      <trkpt lat="43.35389" lon="-1.42955">
        <ele>100</ele>
        <time>2022-06-27T15:33:10Z</time>
      </trkpt>
      <trkpt lat="43.35392" lon="-1.43001">
        <ele>99</ele>
        <time>2022-06-27T15:33:16Z</time>
      </trkpt>
      <trkpt lat="43.35421" lon="-1.43151">
        <ele>101</ele>
        <time>2022-06-27T15:33:36Z</time>
      </trkpt>
      <trkpt lat="43.35414" lon="-1.43213">
        <ele>103</ele>
        <time>2022-06-27T15:33:45Z</time>
      </trkpt>
      <trkpt lat="43.35401" lon="-1.43253">
        <ele>103</ele>
        <time>2022-06-27T15:33:50Z</time>
      </trkpt>
      <trkpt lat="43.35351" lon="-1.43318">
        <ele>103</ele>
        <time>2022-06-27T15:34:02Z</time>
      </trkpt>
      <trkpt lat="43.35068" lon="-1.43526">
        <ele>107</ele>
        <time>2022-06-27T15:35:00Z</time>
      </trkpt>
      <trkpt lat="43.34852" lon="-1.43712">
        <ele>100</ele>
        <time>2022-06-27T15:35:45Z</time>
      </trkpt>
      <trkpt lat="43.34819" lon="-1.43733">
        <ele>100</ele>
        <time>2022-06-27T15:35:51Z</time>
      </trkpt>
      <trkpt lat="43.34804" lon="-1.43739">
        <ele>99</ele>
        <time>2022-06-27T15:35:54Z</time>
      </trkpt>
      <trkpt lat="43.34768" lon="-1.43739">
        <ele>98</ele>
        <time>2022-06-27T15:36:01Z</time>
      </trkpt>
      <trkpt lat="43.34712" lon="-1.43714">
        <ele>94</ele>
        <time>2022-06-27T15:36:11Z</time>
      </trkpt>
      <trkpt lat="43.34673" lon="-1.43709">
        <ele>93</ele>
        <time>2022-06-27T15:36:18Z</time>
      </trkpt>
      <trkpt lat="43.34627" lon="-1.43751">
        <ele>98</ele>
        <time>2022-06-27T15:36:28Z</time>
      </trkpt>
      <trkpt lat="43.34593" lon="-1.4377">
        <ele>99</ele>
        <time>2022-06-27T15:36:34Z</time>
      </trkpt>
      <trkpt lat="43.34575" lon="-1.43767">
        <ele>99</ele>
        <time>2022-06-27T15:36:38Z</time>
      </trkpt>
      <trkpt lat="43.34527" lon="-1.43741">
        <ele>97</ele>
        <time>2022-06-27T15:36:47Z</time>
      </trkpt>
      <trkpt lat="43.34496" lon="-1.43735">
        <ele>96</ele>
        <time>2022-06-27T15:36:52Z</time>
      </trkpt>
      <trkpt lat="43.34451" lon="-1.43746">
        <ele>95</ele>
        <time>2022-06-27T15:37:00Z</time>
      </trkpt>
      <trkpt lat="43.34425" lon="-1.43765">
        <ele>93</ele>
        <time>2022-06-27T15:37:06Z</time>
      </trkpt>
      <trkpt lat="43.34393" lon="-1.43807">
        <ele>91</ele>
        <time>2022-06-27T15:37:14Z</time>
      </trkpt>
      <trkpt lat="43.34378" lon="-1.43839">
        <ele>90</ele>
        <time>2022-06-27T15:37:19Z</time>
      </trkpt>
      <trkpt lat="43.34336" lon="-1.43962">
        <ele>83</ele>
        <time>2022-06-27T15:37:36Z</time>
      </trkpt>
      <trkpt lat="43.34233" lon="-1.44106">
        <ele>75</ele>
        <time>2022-06-27T15:38:02Z</time>
      </trkpt>
      <trkpt lat="43.34203" lon="-1.44163">
        <ele>73</ele>
        <time>2022-06-27T15:38:11Z</time>
      </trkpt>
      <trkpt lat="43.34178" lon="-1.44232">
        <ele>70</ele>
        <time>2022-06-27T15:38:21Z</time>
      </trkpt>
      <trkpt lat="43.34152" lon="-1.44272">
        <ele>67</ele>
        <time>2022-06-27T15:38:28Z</time>
      </trkpt>
      <trkpt lat="43.34131" lon="-1.44299">
        <ele>65</ele>
        <time>2022-06-27T15:38:33Z</time>
      </trkpt>
      <trkpt lat="43.34091" lon="-1.44329">
        <ele>63</ele>
        <time>2022-06-27T15:38:41Z</time>
      </trkpt>
      <trkpt lat="43.3403" lon="-1.44352">
        <ele>62</ele>
        <time>2022-06-27T15:38:53Z</time>
      </trkpt>
      <trkpt lat="43.33998" lon="-1.44375">
        <ele>62</ele>
        <time>2022-06-27T15:38:59Z</time>
      </trkpt>
      <trkpt lat="43.33971" lon="-1.4441">
        <ele>61</ele>
        <time>2022-06-27T15:39:06Z</time>
      </trkpt>
      <trkpt lat="43.33942" lon="-1.44495">
        <ele>66</ele>
        <time>2022-06-27T15:39:18Z</time>
      </trkpt>
      <trkpt lat="43.33932" lon="-1.4451">
        <ele>67</ele>
        <time>2022-06-27T15:39:21Z</time>
      </trkpt>
      <trkpt lat="43.33882" lon="-1.44544">
        <ele>73</ele>
        <time>2022-06-27T15:39:30Z</time>
      </trkpt>
      <trkpt lat="43.33861" lon="-1.44563">
        <ele>76</ele>
        <time>2022-06-27T15:39:35Z</time>
      </trkpt>
      <trkpt lat="43.33848" lon="-1.44585">
        <ele>78</ele>
        <time>2022-06-27T15:39:39Z</time>
      </trkpt>
      <trkpt lat="43.33839" lon="-1.44626">
        <ele>79</ele>
        <time>2022-06-27T15:39:44Z</time>
      </trkpt>
      <trkpt lat="43.33844" lon="-1.44661">
        <ele>79</ele>
        <time>2022-06-27T15:39:49Z</time>
      </trkpt>
      <trkpt lat="43.33836" lon="-1.44705">
        <ele>78</ele>
        <time>2022-06-27T15:39:55Z</time>
      </trkpt>
      <trkpt lat="43.33839" lon="-1.44838">
        <ele>73</ele>
        <time>2022-06-27T15:40:12Z</time>
      </trkpt>
      <trkpt lat="43.33848" lon="-1.44879">
        <ele>73</ele>
        <time>2022-06-27T15:40:17Z</time>
      </trkpt>
      <trkpt lat="43.33984" lon="-1.45122">
        <ele>63</ele>
        <time>2022-06-27T15:40:57Z</time>
      </trkpt>
      <trkpt lat="43.33999" lon="-1.45136">
        <ele>62</ele>
        <time>2022-06-27T15:41:00Z</time>
      </trkpt>
      <trkpt lat="43.34013" lon="-1.4514">
        <ele>62</ele>
        <time>2022-06-27T15:41:03Z</time>
      </trkpt>
      <trkpt lat="43.34016" lon="-1.4516">
        <ele>61</ele>
        <time>2022-06-27T15:41:05Z</time>
      </trkpt>
      <trkpt lat="43.33989" lon="-1.45195">
        <ele>60</ele>
        <time>2022-06-27T15:41:12Z</time>
      </trkpt>
      <trkpt lat="43.33983" lon="-1.4523">
        <ele>60</ele>
        <time>2022-06-27T15:41:17Z</time>
      </trkpt>
      <trkpt lat="43.33964" lon="-1.4527">
        <ele>60</ele>
        <time>2022-06-27T15:41:23Z</time>
      </trkpt>
      <trkpt lat="43.33876" lon="-1.45358">
        <ele>60</ele>
        <time>2022-06-27T15:41:42Z</time>
      </trkpt>
      <trkpt lat="43.33842" lon="-1.45401">
        <ele>59</ele>
        <time>2022-06-27T15:41:51Z</time>
      </trkpt>
      <trkpt lat="43.33767" lon="-1.45574">
        <ele>62</ele>
        <time>2022-06-27T15:42:17Z</time>
      </trkpt>
      <trkpt lat="43.33573" lon="-1.45862">
        <ele>67</ele>
        <time>2022-06-27T15:43:07Z</time>
      </trkpt>
      <trkpt lat="43.33551" lon="-1.45913">
        <ele>65</ele>
        <time>2022-06-27T15:43:15Z</time>
      </trkpt>
      <trkpt lat="43.33547" lon="-1.45974">
        <ele>61</ele>
        <time>2022-06-27T15:43:23Z</time>
      </trkpt>
      <trkpt lat="43.33575" lon="-1.46087">
        <ele>57</ele>
        <time>2022-06-27T15:43:38Z</time>
      </trkpt>
      <trkpt lat="43.33623" lon="-1.46179">
        <ele>56</ele>
        <time>2022-06-27T15:43:53Z</time>
      </trkpt>
      <trkpt lat="43.33649" lon="-1.46259">
        <ele>56</ele>
        <time>2022-06-27T15:44:04Z</time>
      </trkpt>
      <trkpt lat="43.33698" lon="-1.46555">
        <ele>64</ele>
        <time>2022-06-27T15:44:44Z</time>
      </trkpt>
      <trkpt lat="43.33697" lon="-1.46717">
        <ele>66</ele>
        <time>2022-06-27T15:45:05Z</time>
      </trkpt>
      <trkpt lat="43.33719" lon="-1.46803">
        <ele>67</ele>
        <time>2022-06-27T15:45:16Z</time>
      </trkpt>
      <trkpt lat="43.3374" lon="-1.46847">
        <ele>67</ele>
        <time>2022-06-27T15:45:23Z</time>
      </trkpt>
      <trkpt lat="43.33765" lon="-1.46879">
        <ele>67</ele>
        <time>2022-06-27T15:45:29Z</time>
      </trkpt>
      <trkpt lat="43.33876" lon="-1.46955">
        <ele>65</ele>
        <time>2022-06-27T15:45:51Z</time>
      </trkpt>
      <trkpt lat="43.33956" lon="-1.47037">
        <ele>63</ele>
        <time>2022-06-27T15:46:09Z</time>
      </trkpt>
      <trkpt lat="43.33978" lon="-1.47069">
        <ele>64</ele>
        <time>2022-06-27T15:46:15Z</time>
      </trkpt>
      <trkpt lat="43.34061" lon="-1.47249">
        <ele>65</ele>
        <time>2022-06-27T15:46:42Z</time>
      </trkpt>
      <trkpt lat="43.34086" lon="-1.47273">
        <ele>62</ele>
        <time>2022-06-27T15:46:48Z</time>
      </trkpt>
      <trkpt lat="43.34089" lon="-1.47288">
        <ele>63</ele>
        <time>2022-06-27T15:46:50Z</time>
      </trkpt>
      <trkpt lat="43.34071" lon="-1.47314">
        <ele>66</ele>
        <time>2022-06-27T15:46:55Z</time>
      </trkpt>
      <trkpt lat="43.3407" lon="-1.47328">
        <ele>67</ele>
        <time>2022-06-27T15:46:56Z</time>
      </trkpt>
      <trkpt lat="43.34088" lon="-1.47467">
        <ele>64</ele>
        <time>2022-06-27T15:47:15Z</time>
      </trkpt>
      <trkpt lat="43.34085" lon="-1.47515">
        <ele>64</ele>
        <time>2022-06-27T15:47:21Z</time>
      </trkpt>
      <trkpt lat="43.34089" lon="-1.47535">
        <ele>65</ele>
        <time>2022-06-27T15:47:24Z</time>
      </trkpt>
      <trkpt lat="43.34011" lon="-1.47651">
        <ele>68</ele>
        <time>2022-06-27T15:47:44Z</time>
      </trkpt>
      <trkpt lat="43.33946" lon="-1.47725">
        <ele>67</ele>
        <time>2022-06-27T15:47:59Z</time>
      </trkpt>
      <trkpt lat="43.33921" lon="-1.47742">
        <ele>65</ele>
        <time>2022-06-27T15:48:04Z</time>
      </trkpt>
      <trkpt lat="43.33885" lon="-1.47757">
        <ele>65</ele>
        <time>2022-06-27T15:48:11Z</time>
      </trkpt>
      <trkpt lat="43.33845" lon="-1.47758">
        <ele>65</ele>
        <time>2022-06-27T15:48:18Z</time>
      </trkpt>
      <trkpt lat="43.33717" lon="-1.47729">
        <ele>68</ele>
        <time>2022-06-27T15:48:41Z</time>
      </trkpt>
      <trkpt lat="43.33678" lon="-1.4774">
        <ele>70</ele>
        <time>2022-06-27T15:48:48Z</time>
      </trkpt>
      <trkpt lat="43.33649" lon="-1.47767">
        <ele>72</ele>
        <time>2022-06-27T15:48:54Z</time>
      </trkpt>
      <trkpt lat="43.33636" lon="-1.47788">
        <ele>73</ele>
        <time>2022-06-27T15:48:58Z</time>
      </trkpt>
      <trkpt lat="43.33619" lon="-1.47846">
        <ele>75</ele>
        <time>2022-06-27T15:49:06Z</time>
      </trkpt>
      <trkpt lat="43.33562" lon="-1.48253">
        <ele>96</ele>
        <time>2022-06-27T15:49:59Z</time>
      </trkpt>
      <trkpt lat="43.33532" lon="-1.48328">
        <ele>98</ele>
        <time>2022-06-27T15:50:11Z</time>
      </trkpt>
      <trkpt lat="43.33476" lon="-1.4843">
        <ele>103</ele>
        <time>2022-06-27T15:50:27Z</time>
      </trkpt>
      <trkpt lat="43.33458" lon="-1.48476">
        <ele>106</ele>
        <time>2022-06-27T15:50:34Z</time>
      </trkpt>
      <trkpt lat="43.33436" lon="-1.48594">
        <ele>111</ele>
        <time>2022-06-27T15:50:50Z</time>
      </trkpt>
      <trkpt lat="43.33422" lon="-1.48636">
        <ele>110</ele>
        <time>2022-06-27T15:50:56Z</time>
      </trkpt>
      <trkpt lat="43.334" lon="-1.48674">
        <ele>111</ele>
        <time>2022-06-27T15:51:02Z</time>
      </trkpt>
      <trkpt lat="43.33343" lon="-1.48738">
        <ele>117</ele>
        <time>2022-06-27T15:51:15Z</time>
      </trkpt>
      <trkpt lat="43.33316" lon="-1.48784">
        <ele>120</ele>
        <time>2022-06-27T15:51:23Z</time>
      </trkpt>
      <trkpt lat="43.33289" lon="-1.48848">
        <ele>122</ele>
        <time>2022-06-27T15:51:32Z</time>
      </trkpt>
      <trkpt lat="43.33283" lon="-1.48892">
        <ele>122</ele>
        <time>2022-06-27T15:51:38Z</time>
      </trkpt>
      <trkpt lat="43.33314" lon="-1.49049">
        <ele>120</ele>
        <time>2022-06-27T15:51:59Z</time>
      </trkpt>
      <trkpt lat="43.33337" lon="-1.49388">
        <ele>105</ele>
        <time>2022-06-27T15:52:43Z</time>
      </trkpt>
      <trkpt lat="43.33336" lon="-1.49514">
        <ele>105</ele>
        <time>2022-06-27T15:52:59Z</time>
      </trkpt>
      <trkpt lat="43.33314" lon="-1.49693">
        <ele>96</ele>
        <time>2022-06-27T15:53:23Z</time>
      </trkpt>
      <trkpt lat="43.33313" lon="-1.49796">
        <ele>93</ele>
        <time>2022-06-27T15:53:36Z</time>
      </trkpt>
      <trkpt lat="43.3332" lon="-1.49838">
        <ele>92</ele>
        <time>2022-06-27T15:53:42Z</time>
      </trkpt>
      <trkpt lat="43.3346" lon="-1.50244">
        <ele>77</ele>
        <time>2022-06-27T15:54:40Z</time>
      </trkpt>
      <trkpt lat="43.33498" lon="-1.50311">
        <ele>75</ele>
        <time>2022-06-27T15:54:51Z</time>
      </trkpt>
      <trkpt lat="43.33551" lon="-1.50375">
        <ele>76</ele>
        <time>2022-06-27T15:55:04Z</time>
      </trkpt>
      <trkpt lat="43.33599" lon="-1.50474">
        <ele>76</ele>
        <time>2022-06-27T15:55:19Z</time>
      </trkpt>
      <trkpt lat="43.33612" lon="-1.5057">
        <ele>76</ele>
        <time>2022-06-27T15:55:32Z</time>
      </trkpt>
      <trkpt lat="43.33586" lon="-1.50738">
        <ele>62</ele>
        <time>2022-06-27T15:55:54Z</time>
      </trkpt>
      <trkpt lat="43.3363" lon="-1.51094">
        <ele>53</ele>
        <time>2022-06-27T15:56:41Z</time>
      </trkpt>
      <trkpt lat="43.33643" lon="-1.51157">
        <ele>52</ele>
        <time>2022-06-27T15:56:49Z</time>
      </trkpt>
      <trkpt lat="43.33747" lon="-1.51498">
        <ele>47</ele>
        <time>2022-06-27T15:57:37Z</time>
      </trkpt>
      <trkpt lat="43.34166" lon="-1.52489">
        <ele>41</ele>
        <time>2022-06-27T16:00:05Z</time>
      </trkpt>
      <trkpt lat="43.34321" lon="-1.52745">
        <ele>36</ele>
        <time>2022-06-27T16:00:48Z</time>
      </trkpt>
      <trkpt lat="43.34352" lon="-1.52768">
        <ele>35</ele>
        <time>2022-06-27T16:00:55Z</time>
      </trkpt>
      <trkpt lat="43.34352" lon="-1.52792">
        <ele>35</ele>
        <time>2022-06-27T16:00:58Z</time>
      </trkpt>
      <trkpt lat="43.34359" lon="-1.52813">
        <ele>35</ele>
        <time>2022-06-27T16:01:01Z</time>
      </trkpt>
      <trkpt lat="43.34439" lon="-1.5296">
        <ele>36</ele>
        <time>2022-06-27T16:01:24Z</time>
      </trkpt>
      <trkpt lat="43.34461" lon="-1.53096">
        <ele>41</ele>
        <time>2022-06-27T16:01:42Z</time>
      </trkpt>
      <trkpt lat="43.34488" lon="-1.53413">
        <ele>43</ele>
        <time>2022-06-27T16:02:24Z</time>
      </trkpt>
      <trkpt lat="43.34523" lon="-1.53674">
        <ele>39</ele>
        <time>2022-06-27T16:02:58Z</time>
      </trkpt>
      <trkpt lat="43.34564" lon="-1.53862">
        <ele>37</ele>
        <time>2022-06-27T16:03:23Z</time>
      </trkpt>
      <trkpt lat="43.34572" lon="-1.53997">
        <ele>34</ele>
        <time>2022-06-27T16:03:41Z</time>
      </trkpt>
      <trkpt lat="43.3459" lon="-1.54058">
        <ele>34</ele>
        <time>2022-06-27T16:03:50Z</time>
      </trkpt>
      <trkpt lat="43.34661" lon="-1.5421">
        <ele>37</ele>
        <time>2022-06-27T16:04:13Z</time>
      </trkpt>
      <trkpt lat="43.34673" lon="-1.54279">
        <ele>35</ele>
        <time>2022-06-27T16:04:22Z</time>
      </trkpt>
      <trkpt lat="43.3468" lon="-1.5445">
        <ele>29</ele>
        <time>2022-06-27T16:04:44Z</time>
      </trkpt>
      <trkpt lat="43.347" lon="-1.54509">
        <ele>28</ele>
        <time>2022-06-27T16:04:53Z</time>
      </trkpt>
      <trkpt lat="43.34888" lon="-1.548">
        <ele>25</ele>
        <time>2022-06-27T16:05:43Z</time>
      </trkpt>
      <trkpt lat="43.34909" lon="-1.54821">
        <ele>24</ele>
        <time>2022-06-27T16:05:48Z</time>
      </trkpt>
      <trkpt lat="43.34941" lon="-1.54841">
        <ele>23</ele>
        <time>2022-06-27T16:05:54Z</time>
      </trkpt>
      <trkpt lat="43.35125" lon="-1.54942">
        <ele>19</ele>
        <time>2022-06-27T16:06:29Z</time>
      </trkpt>
      <trkpt lat="43.35133" lon="-1.54964">
        <ele>18</ele>
        <time>2022-06-27T16:06:32Z</time>
      </trkpt>
      <trkpt lat="43.35123" lon="-1.5499">
        <ele>18</ele>
        <time>2022-06-27T16:06:36Z</time>
      </trkpt>
      <trkpt lat="43.35261" lon="-1.55301">
        <ele>17</ele>
        <time>2022-06-27T16:07:23Z</time>
      </trkpt>
      <trkpt lat="43.35293" lon="-1.55347">
        <ele>17</ele>
        <time>2022-06-27T16:07:31Z</time>
      </trkpt>
      <trkpt lat="43.35338" lon="-1.55377">
        <ele>16</ele>
        <time>2022-06-27T16:07:40Z</time>
      </trkpt>
      <trkpt lat="43.35369" lon="-1.55382">
        <ele>16</ele>
        <time>2022-06-27T16:07:46Z</time>
      </trkpt>
      <trkpt lat="43.35483" lon="-1.5537">
        <ele>16</ele>
        <time>2022-06-27T16:08:06Z</time>
      </trkpt>
      <trkpt lat="43.35523" lon="-1.55388">
        <ele>16</ele>
        <time>2022-06-27T16:08:14Z</time>
      </trkpt>
      <trkpt lat="43.35554" lon="-1.55395">
        <ele>16</ele>
        <time>2022-06-27T16:08:19Z</time>
      </trkpt>
      <trkpt lat="43.35563" lon="-1.55404">
        <ele>16</ele>
        <time>2022-06-27T16:08:21Z</time>
      </trkpt>
      <trkpt lat="43.35581" lon="-1.55514">
        <ele>13</ele>
        <time>2022-06-27T16:08:36Z</time>
      </trkpt>
      <trkpt lat="43.35588" lon="-1.55791">
        <ele>16</ele>
        <time>2022-06-27T16:09:12Z</time>
      </trkpt>
      <trkpt lat="43.35606" lon="-1.55857">
        <ele>15</ele>
        <time>2022-06-27T16:09:21Z</time>
      </trkpt>
      <trkpt lat="43.35646" lon="-1.55913">
        <ele>16</ele>
        <time>2022-06-27T16:09:31Z</time>
      </trkpt>
      <trkpt lat="43.3573" lon="-1.55977">
        <ele>17</ele>
        <time>2022-06-27T16:09:48Z</time>
      </trkpt>
      <trkpt lat="43.35741" lon="-1.55983">
        <ele>17</ele>
        <time>2022-06-27T16:09:50Z</time>
      </trkpt>
      <trkpt lat="43.35756" lon="-1.55977">
        <ele>17</ele>
        <time>2022-06-27T16:09:53Z</time>
      </trkpt>
      <trkpt lat="43.35767" lon="-1.55997">
        <ele>18</ele>
        <time>2022-06-27T16:09:56Z</time>
      </trkpt>
      <trkpt lat="43.3576" lon="-1.56015">
        <ele>19</ele>
        <time>2022-06-27T16:09:59Z</time>
      </trkpt>
      <trkpt lat="43.35747" lon="-1.56016">
        <ele>19</ele>
        <time>2022-06-27T16:10:01Z</time>
      </trkpt>
      <trkpt lat="43.35721" lon="-1.56041">
        <ele>19</ele>
        <time>2022-06-27T16:10:07Z</time>
      </trkpt>
      <trkpt lat="43.35652" lon="-1.56086">
        <ele>18</ele>
        <time>2022-06-27T16:10:20Z</time>
      </trkpt>
      <trkpt lat="43.35635" lon="-1.56106">
        <ele>18</ele>
        <time>2022-06-27T16:10:24Z</time>
      </trkpt>
      <trkpt lat="43.35623" lon="-1.56133">
        <ele>18</ele>
        <time>2022-06-27T16:10:29Z</time>
      </trkpt>
      <trkpt lat="43.35615" lon="-1.56214">
        <ele>19</ele>
        <time>2022-06-27T16:10:39Z</time>
      </trkpt>
      <trkpt lat="43.35622" lon="-1.56558">
        <ele>19</ele>
        <time>2022-06-27T16:11:24Z</time>
      </trkpt>
      <trkpt lat="43.35624" lon="-1.56587">
        <ele>19</ele>
        <time>2022-06-27T16:11:27Z</time>
      </trkpt>
      <trkpt lat="43.35633" lon="-1.56592">
        <ele>19</ele>
        <time>2022-06-27T16:11:29Z</time>
      </trkpt>
      <trkpt lat="43.35635" lon="-1.56604">
        <ele>19</ele>
        <time>2022-06-27T16:11:31Z</time>
      </trkpt>
      <trkpt lat="43.35624" lon="-1.56615">
        <ele>19</ele>
        <time>2022-06-27T16:11:33Z</time>
      </trkpt>
      <trkpt lat="43.35617" lon="-1.56692">
        <ele>19</ele>
        <time>2022-06-27T16:11:43Z</time>
      </trkpt>
      <trkpt lat="43.35592" lon="-1.56778">
        <ele>17</ele>
        <time>2022-06-27T16:11:55Z</time>
      </trkpt>
      <trkpt lat="43.35585" lon="-1.56823">
        <ele>17</ele>
        <time>2022-06-27T16:12:01Z</time>
      </trkpt>
      <trkpt lat="43.35593" lon="-1.56864">
        <ele>17</ele>
        <time>2022-06-27T16:12:07Z</time>
      </trkpt>
      <trkpt lat="43.35625" lon="-1.56922">
        <ele>17</ele>
        <time>2022-06-27T16:12:16Z</time>
      </trkpt>
      <trkpt lat="43.35733" lon="-1.5716">
        <ele>15</ele>
        <time>2022-06-27T16:12:52Z</time>
      </trkpt>
      <trkpt lat="43.35745" lon="-1.57225">
        <ele>14</ele>
        <time>2022-06-27T16:13:01Z</time>
      </trkpt>
      <trkpt lat="43.35763" lon="-1.57418">
        <ele>13</ele>
        <time>2022-06-27T16:13:26Z</time>
      </trkpt>
      <trkpt lat="43.35789" lon="-1.5747">
        <ele>13</ele>
        <time>2022-06-27T16:13:34Z</time>
      </trkpt>
      <trkpt lat="43.35779" lon="-1.57526">
        <ele>13</ele>
        <time>2022-06-27T16:13:42Z</time>
      </trkpt>
      <trkpt lat="43.35782" lon="-1.57586">
        <ele>13</ele>
        <time>2022-06-27T16:13:50Z</time>
      </trkpt>
      <trkpt lat="43.35838" lon="-1.57869">
        <ele>11</ele>
        <time>2022-06-27T16:14:28Z</time>
      </trkpt>
      <trkpt lat="43.35852" lon="-1.57913">
        <ele>12</ele>
        <time>2022-06-27T16:14:34Z</time>
      </trkpt>
      <trkpt lat="43.35894" lon="-1.57993">
        <ele>11</ele>
        <time>2022-06-27T16:14:47Z</time>
      </trkpt>
      <trkpt lat="43.36109" lon="-1.58303">
        <ele>12</ele>
        <time>2022-06-27T16:15:42Z</time>
      </trkpt>
      <trkpt lat="43.36129" lon="-1.58341">
        <ele>12</ele>
        <time>2022-06-27T16:15:48Z</time>
      </trkpt>
      <trkpt lat="43.36164" lon="-1.58429">
        <ele>12</ele>
        <time>2022-06-27T16:16:01Z</time>
      </trkpt>
      <trkpt lat="43.36257" lon="-1.58723">
        <ele>14</ele>
        <time>2022-06-27T16:16:42Z</time>
      </trkpt>
      <trkpt lat="43.3628" lon="-1.58766">
        <ele>18</ele>
        <time>2022-06-27T16:16:49Z</time>
      </trkpt>
      <trkpt lat="43.36308" lon="-1.58801">
        <ele>19</ele>
        <time>2022-06-27T16:16:56Z</time>
      </trkpt>
      <trkpt lat="43.36402" lon="-1.58885">
        <ele>17</ele>
        <time>2022-06-27T16:17:16Z</time>
      </trkpt>
      <trkpt lat="43.36444" lon="-1.58941">
        <ele>12</ele>
        <time>2022-06-27T16:17:26Z</time>
      </trkpt>
      <trkpt lat="43.3646" lon="-1.58976">
        <ele>11</ele>
        <time>2022-06-27T16:17:32Z</time>
      </trkpt>
      <trkpt lat="43.36538" lon="-1.59228">
        <ele>10</ele>
        <time>2022-06-27T16:18:07Z</time>
      </trkpt>
      <trkpt lat="43.36581" lon="-1.59376">
        <ele>9</ele>
        <time>2022-06-27T16:18:28Z</time>
      </trkpt>
      <trkpt lat="43.36589" lon="-1.5943">
        <ele>9</ele>
        <time>2022-06-27T16:18:35Z</time>
      </trkpt>
      <trkpt lat="43.36592" lon="-1.59482">
        <ele>9</ele>
        <time>2022-06-27T16:18:42Z</time>
      </trkpt>
      <trkpt lat="43.36567" lon="-1.59809">
        <ele>18</ele>
        <time>2022-06-27T16:19:24Z</time>
      </trkpt>
      <trkpt lat="43.36562" lon="-1.59843">
        <ele>18</ele>
        <time>2022-06-27T16:19:29Z</time>
      </trkpt>
      <trkpt lat="43.36549" lon="-1.59873">
        <ele>17</ele>
        <time>2022-06-27T16:19:33Z</time>
      </trkpt>
      <trkpt lat="43.36533" lon="-1.59897">
        <ele>16</ele>
        <time>2022-06-27T16:19:37Z</time>
      </trkpt>
      <trkpt lat="43.36476" lon="-1.5994">
        <ele>14</ele>
        <time>2022-06-27T16:19:49Z</time>
      </trkpt>
      <trkpt lat="43.36418" lon="-1.59996">
        <ele>13</ele>
        <time>2022-06-27T16:20:02Z</time>
      </trkpt>
      <trkpt lat="43.36371" lon="-1.60073">
        <ele>15</ele>
        <time>2022-06-27T16:20:15Z</time>
      </trkpt>
      <trkpt lat="43.36336" lon="-1.60166">
        <ele>16</ele>
        <time>2022-06-27T16:20:28Z</time>
      </trkpt>
      <trkpt lat="43.36316" lon="-1.60201">
        <ele>20</ele>
        <time>2022-06-27T16:20:34Z</time>
      </trkpt>
      <trkpt lat="43.36299" lon="-1.60225">
        <ele>21</ele>
        <time>2022-06-27T16:20:38Z</time>
      </trkpt>
      <trkpt lat="43.36203" lon="-1.60308">
        <ele>15</ele>
        <time>2022-06-27T16:20:58Z</time>
      </trkpt>
      <trkpt lat="43.36153" lon="-1.60362">
        <ele>14</ele>
        <time>2022-06-27T16:21:10Z</time>
      </trkpt>
      <trkpt lat="43.36126" lon="-1.60409">
        <ele>15</ele>
        <time>2022-06-27T16:21:18Z</time>
      </trkpt>
      <trkpt lat="43.36109" lon="-1.60462">
        <ele>16</ele>
        <time>2022-06-27T16:21:25Z</time>
      </trkpt>
      <trkpt lat="43.36102" lon="-1.60551">
        <ele>17</ele>
        <time>2022-06-27T16:21:37Z</time>
      </trkpt>
      <trkpt lat="43.36119" lon="-1.6075">
        <ele>18</ele>
        <time>2022-06-27T16:22:03Z</time>
      </trkpt>
      <trkpt lat="43.36103" lon="-1.61053">
        <ele>16</ele>
        <time>2022-06-27T16:22:42Z</time>
      </trkpt>
      <trkpt lat="43.36091" lon="-1.61139">
        <ele>13</ele>
        <time>2022-06-27T16:22:53Z</time>
      </trkpt>
      <trkpt lat="43.36066" lon="-1.61209">
        <ele>11</ele>
        <time>2022-06-27T16:23:03Z</time>
      </trkpt>
      <trkpt lat="43.36043" lon="-1.61253">
        <ele>11</ele>
        <time>2022-06-27T16:23:10Z</time>
      </trkpt>
      <trkpt lat="43.35934" lon="-1.61396">
        <ele>16</ele>
        <time>2022-06-27T16:23:37Z</time>
      </trkpt>
      <trkpt lat="43.35815" lon="-1.61503">
        <ele>12</ele>
        <time>2022-06-27T16:24:02Z</time>
      </trkpt>
      <trkpt lat="43.35787" lon="-1.61535">
        <ele>14</ele>
        <time>2022-06-27T16:24:09Z</time>
      </trkpt>
      <trkpt lat="43.35515" lon="-1.61963">
        <ele>18</ele>
        <time>2022-06-27T16:25:22Z</time>
      </trkpt>
      <trkpt lat="43.35486" lon="-1.62001">
        <ele>18</ele>
        <time>2022-06-27T16:25:29Z</time>
      </trkpt>
      <trkpt lat="43.35407" lon="-1.6206">
        <ele>21</ele>
        <time>2022-06-27T16:25:45Z</time>
      </trkpt>
      <trkpt lat="43.3524" lon="-1.62126">
        <ele>14</ele>
        <time>2022-06-27T16:26:16Z</time>
      </trkpt>
      <trkpt lat="43.35214" lon="-1.62143">
        <ele>12</ele>
        <time>2022-06-27T16:26:22Z</time>
      </trkpt>
      <trkpt lat="43.35191" lon="-1.62169">
        <ele>11</ele>
        <time>2022-06-27T16:26:27Z</time>
      </trkpt>
      <trkpt lat="43.35127" lon="-1.62289">
        <ele>11</ele>
        <time>2022-06-27T16:26:46Z</time>
      </trkpt>
      <trkpt lat="43.35109" lon="-1.62334">
        <ele>10</ele>
        <time>2022-06-27T16:26:53Z</time>
      </trkpt>
      <trkpt lat="43.35103" lon="-1.62461">
        <ele>10</ele>
        <time>2022-06-27T16:27:09Z</time>
      </trkpt>
      <trkpt lat="43.35118" lon="-1.62528">
        <ele>12</ele>
        <time>2022-06-27T16:27:18Z</time>
      </trkpt>
      <trkpt lat="43.35033" lon="-1.62537">
        <ele>6</ele>
        <time>2022-06-27T16:27:33Z</time>
      </trkpt>
      <trkpt lat="43.34909" lon="-1.62517">
        <ele>7</ele>
        <time>2022-06-27T16:27:56Z</time>
      </trkpt>
      <trkpt lat="43.34928" lon="-1.62581">
        <ele>6</ele>
        <time>2022-06-27T16:28:05Z</time>
      </trkpt>
      <trkpt lat="43.34929" lon="-1.62603">
        <ele>5</ele>
        <time>2022-06-27T16:28:07Z</time>
      </trkpt>
      <trkpt lat="43.34922" lon="-1.62669">
        <ele>3</ele>
        <time>2022-06-27T16:28:16Z</time>
      </trkpt>
      <trkpt lat="43.34902" lon="-1.62754">
        <ele>5</ele>
        <time>2022-06-27T16:28:28Z</time>
      </trkpt>
      <trkpt lat="43.34899" lon="-1.62812">
        <ele>8</ele>
        <time>2022-06-27T16:28:35Z</time>
      </trkpt>
      <trkpt lat="43.3491" lon="-1.62881">
        <ele>10</ele>
        <time>2022-06-27T16:28:44Z</time>
      </trkpt>
      <trkpt lat="43.34907" lon="-1.62983">
        <ele>15</ele>
        <time>2022-06-27T16:28:57Z</time>
      </trkpt>
      <trkpt lat="43.34913" lon="-1.63035">
        <ele>19</ele>
        <time>2022-06-27T16:29:04Z</time>
      </trkpt>
      <trkpt lat="43.34932" lon="-1.63079">
        <ele>20</ele>
        <time>2022-06-27T16:29:11Z</time>
      </trkpt>
      <trkpt lat="43.35121" lon="-1.63221">
        <ele>18</ele>
        <time>2022-06-27T16:29:49Z</time>
      </trkpt>
      <trkpt lat="43.35224" lon="-1.63308">
        <ele>19</ele>
        <time>2022-06-27T16:30:11Z</time>
      </trkpt>
      <trkpt lat="43.35279" lon="-1.63369">
        <ele>22</ele>
        <time>2022-06-27T16:30:23Z</time>
      </trkpt>
      <trkpt lat="43.35336" lon="-1.63406">
        <ele>20</ele>
        <time>2022-06-27T16:30:35Z</time>
      </trkpt>
      <trkpt lat="43.35371" lon="-1.63452">
        <ele>21</ele>
        <time>2022-06-27T16:30:43Z</time>
      </trkpt>
      <trkpt lat="43.35431" lon="-1.63491">
        <ele>15</ele>
        <time>2022-06-27T16:30:55Z</time>
      </trkpt>
      <trkpt lat="43.35441" lon="-1.63503">
        <ele>14</ele>
        <time>2022-06-27T16:30:57Z</time>
      </trkpt>
      <trkpt lat="43.35455" lon="-1.63546">
        <ele>14</ele>
        <time>2022-06-27T16:31:03Z</time>
      </trkpt>
      <trkpt lat="43.35442" lon="-1.63676">
        <ele>13</ele>
        <time>2022-06-27T16:31:20Z</time>
      </trkpt>
      <trkpt lat="43.35444" lon="-1.63795">
        <ele>7</ele>
        <time>2022-06-27T16:31:36Z</time>
      </trkpt>
      <trkpt lat="43.35458" lon="-1.63833">
        <ele>6</ele>
        <time>2022-06-27T16:31:41Z</time>
      </trkpt>
      <trkpt lat="43.35505" lon="-1.63876">
        <ele>7</ele>
        <time>2022-06-27T16:31:51Z</time>
      </trkpt>
      <trkpt lat="43.35525" lon="-1.63888">
        <ele>8</ele>
        <time>2022-06-27T16:31:55Z</time>
      </trkpt>
      <trkpt lat="43.35621" lon="-1.63921">
        <ele>11</ele>
        <time>2022-06-27T16:32:13Z</time>
      </trkpt>
      <trkpt lat="43.35721" lon="-1.63987">
        <ele>15</ele>
        <time>2022-06-27T16:32:33Z</time>
      </trkpt>
      <trkpt lat="43.35819" lon="-1.64043">
        <ele>13</ele>
        <time>2022-06-27T16:32:51Z</time>
      </trkpt>
      <trkpt lat="43.35835" lon="-1.64047">
        <ele>12</ele>
        <time>2022-06-27T16:32:54Z</time>
      </trkpt>
      <trkpt lat="43.35936" lon="-1.64056">
        <ele>9</ele>
        <time>2022-06-27T16:33:12Z</time>
      </trkpt>
      <trkpt lat="43.36086" lon="-1.6404">
        <ele>6</ele>
        <time>2022-06-27T16:33:39Z</time>
      </trkpt>
      <trkpt lat="43.36154" lon="-1.64061">
        <ele>14</ele>
        <time>2022-06-27T16:33:52Z</time>
      </trkpt>
      <trkpt lat="43.36345" lon="-1.64038">
        <ele>16</ele>
        <time>2022-06-27T16:34:26Z</time>
      </trkpt>
      <trkpt lat="43.36379" lon="-1.64049">
        <ele>15</ele>
        <time>2022-06-27T16:34:32Z</time>
      </trkpt>
      <trkpt lat="43.36771" lon="-1.64278">
        <ele>4</ele>
        <time>2022-06-27T16:35:48Z</time>
      </trkpt>
      <trkpt lat="43.37507" lon="-1.64744">
        <ele>6</ele>
        <time>2022-06-27T16:38:12Z</time>
      </trkpt>
      <trkpt lat="43.37527" lon="-1.6475">
        <ele>6</ele>
        <time>2022-06-27T16:38:15Z</time>
      </trkpt>
      <trkpt lat="43.37544" lon="-1.64748">
        <ele>5</ele>
        <time>2022-06-27T16:38:18Z</time>
      </trkpt>
      <trkpt lat="43.37579" lon="-1.64735">
        <ele>4</ele>
        <time>2022-06-27T16:38:25Z</time>
      </trkpt>
      <trkpt lat="43.37644" lon="-1.64693">
        <ele>5</ele>
        <time>2022-06-27T16:38:38Z</time>
      </trkpt>
      <trkpt lat="43.37666" lon="-1.64686">
        <ele>6</ele>
        <time>2022-06-27T16:38:42Z</time>
      </trkpt>
      <trkpt lat="43.37713" lon="-1.64704">
        <ele>6</ele>
        <time>2022-06-27T16:38:50Z</time>
      </trkpt>
      <trkpt lat="43.37823" lon="-1.64775">
        <ele>6</ele>
        <time>2022-06-27T16:39:12Z</time>
      </trkpt>
      <trkpt lat="43.37848" lon="-1.648">
        <ele>5</ele>
        <time>2022-06-27T16:39:18Z</time>
      </trkpt>
      <trkpt lat="43.37881" lon="-1.649">
        <ele>5</ele>
        <time>2022-06-27T16:39:32Z</time>
      </trkpt>
      <trkpt lat="43.37896" lon="-1.64971">
        <ele>4</ele>
        <time>2022-06-27T16:39:41Z</time>
      </trkpt>
      <trkpt lat="43.37903" lon="-1.65045">
        <ele>5</ele>
        <time>2022-06-27T16:39:51Z</time>
      </trkpt>
      <trkpt lat="43.3791" lon="-1.65045">
        <ele>5</ele>
        <time>2022-06-27T16:39:52Z</time>
      </trkpt>
      <trkpt lat="43.37972" lon="-1.65255">
        <ele>11</ele>
        <time>2022-06-27T16:40:21Z</time>
      </trkpt>
      <trkpt lat="43.37984" lon="-1.65418">
        <ele>6</ele>
        <time>2022-06-27T16:40:43Z</time>
      </trkpt>
      <trkpt lat="43.38008" lon="-1.65471">
        <ele>4</ele>
        <time>2022-06-27T16:40:51Z</time>
      </trkpt>
      <trkpt lat="43.3804" lon="-1.65515">
        <ele>5</ele>
        <time>2022-06-27T16:40:59Z</time>
      </trkpt>
      <trkpt lat="43.38054" lon="-1.65545">
        <ele>5</ele>
        <time>2022-06-27T16:41:03Z</time>
      </trkpt>
      <trkpt lat="43.38089" lon="-1.65644">
        <ele>4</ele>
        <time>2022-06-27T16:41:18Z</time>
      </trkpt>
      <trkpt lat="43.3809" lon="-1.65749">
        <ele>3</ele>
        <time>2022-06-27T16:41:31Z</time>
      </trkpt>
      <trkpt lat="43.38117" lon="-1.65877">
        <ele>-1</ele>
        <time>2022-06-27T16:41:48Z</time>
      </trkpt>
      <trkpt lat="43.38118" lon="-1.6598">
        <ele>2</ele>
        <time>2022-06-27T16:42:02Z</time>
      </trkpt>
      <trkpt lat="43.3811" lon="-1.65982">
        <ele>3</ele>
        <time>2022-06-27T16:42:03Z</time>
      </trkpt>
      <trkpt lat="43.38181" lon="-1.66132">
        <ele>3</ele>
        <time>2022-06-27T16:42:26Z</time>
      </trkpt>
      <trkpt lat="43.38306" lon="-1.66354">
        <ele>5</ele>
        <time>2022-06-27T16:43:03Z</time>
      </trkpt>
      <trkpt lat="43.38291" lon="-1.66432">
        <ele>5</ele>
        <time>2022-06-27T16:43:13Z</time>
      </trkpt>
      <trkpt lat="43.3826" lon="-1.66462">
        <ele>5</ele>
        <time>2022-06-27T16:43:20Z</time>
      </trkpt>
      <trkpt lat="43.38272" lon="-1.66557">
        <ele>4</ele>
        <time>2022-06-27T16:43:32Z</time>
      </trkpt>
      <trkpt lat="43.38298" lon="-1.66628">
        <ele>5</ele>
        <time>2022-06-27T16:43:43Z</time>
      </trkpt>
      <trkpt lat="43.38263" lon="-1.66649">
        <ele>5</ele>
        <time>2022-06-27T16:43:49Z</time>
      </trkpt>
      <trkpt lat="43.38308" lon="-1.66759">
        <ele>7</ele>
        <time>2022-06-27T16:44:06Z</time>
      </trkpt>
      <trkpt lat="43.38345" lon="-1.66759">
        <ele>6</ele>
        <time>2022-06-27T16:44:12Z</time>
      </trkpt>
      <trkpt lat="43.38366" lon="-1.66755">
        <ele>6</ele>
        <time>2022-06-27T16:44:16Z</time>
      </trkpt>
      <trkpt lat="43.38378" lon="-1.66744">
        <ele>5</ele>
        <time>2022-06-27T16:44:19Z</time>
      </trkpt>
      <trkpt lat="43.38449" lon="-1.66647">
        <ele>4</ele>
        <time>2022-06-27T16:44:36Z</time>
      </trkpt>
      <trkpt lat="43.38446" lon="-1.66631">
        <ele>4</ele>
        <time>2022-06-27T16:44:39Z</time>
      </trkpt>
      <trkpt lat="43.38411" lon="-1.66589">
        <ele>4</ele>
        <time>2022-06-27T16:44:47Z</time>
      </trkpt>
      <trkpt lat="43.38408" lon="-1.66568">
        <ele>4</ele>
        <time>2022-06-27T16:44:50Z</time>
      </trkpt>
      <trkpt lat="43.38593" lon="-1.66178">
        <ele>4</ele>
        <time>2022-06-27T16:45:50Z</time>
      </trkpt>
      <trkpt lat="43.3861" lon="-1.66153">
        <ele>6</ele>
        <time>2022-06-27T16:45:54Z</time>
      </trkpt>
      <trkpt lat="43.38612" lon="-1.66034">
        <ele>5</ele>
        <time>2022-06-27T16:46:10Z</time>
      </trkpt>
      <trkpt lat="43.3869" lon="-1.65822">
        <ele>4</ele>
        <time>2022-06-27T16:46:40Z</time>
      </trkpt>
      <trkpt lat="43.38702" lon="-1.65826">
        <ele>5</ele>
        <time>2022-06-27T16:46:43Z</time>
      </trkpt>
      <trkpt lat="43.38714" lon="-1.65839">
        <ele>5</ele>
        <time>2022-06-27T16:46:45Z</time>
      </trkpt>
      <trkpt lat="43.38706" lon="-1.65867">
        <ele>5</ele>
        <time>2022-06-27T16:46:49Z</time>
      </trkpt>
      <trkpt lat="43.38777" lon="-1.66076">
        <ele>7</ele>
        <time>2022-06-27T16:47:19Z</time>
      </trkpt>
      <trkpt lat="43.38694" lon="-1.66304">
        <ele>3</ele>
        <time>2022-06-27T16:47:52Z</time>
      </trkpt>
      <trkpt lat="43.38689" lon="-1.66327">
        <ele>2</ele>
        <time>2022-06-27T16:47:55Z</time>
      </trkpt>
      <trkpt lat="43.38672" lon="-1.66332">
        <ele>4</ele>
        <time>2022-06-27T16:47:58Z</time>
      </trkpt>
      <trkpt lat="43.38616" lon="-1.66321">
        <ele>3.1</ele>
        <time>2022-06-27T16:48:08Z</time>
      </trkpt>
      <trkpt lat="43.38498" lon="-1.66202">
        <ele>5</ele>
        <time>2022-06-27T16:48:34Z</time>
      </trkpt>
      <trkpt lat="43.38481" lon="-1.66168">
        <ele>5</ele>
        <time>2022-06-27T16:48:40Z</time>
      </trkpt>
      <trkpt lat="43.38488" lon="-1.66153">
        <ele>5</ele>
        <time>2022-06-27T16:48:42Z</time>
      </trkpt>
      <trkpt lat="43.38511" lon="-1.66147">
        <ele>5</ele>
        <time>2022-06-27T16:48:46Z</time>
      </trkpt>
      <trkpt lat="43.38488" lon="-1.66171">
        <ele>5</ele>
        <time>2022-06-27T16:48:51Z</time>
      </trkpt>
      <trkpt lat="43.38456" lon="-1.66137">
        <ele>6</ele>
        <time>2022-06-27T16:48:58Z</time>
      </trkpt>
      <trkpt lat="43.38328" lon="-1.65957">
        <ele>6</ele>
        <time>2022-06-27T16:49:31Z</time>
      </trkpt>
      <trkpt lat="43.3827" lon="-1.65838">
        <ele>3</ele>
        <time>2022-06-27T16:49:50Z</time>
      </trkpt>
      <trkpt lat="43.38226" lon="-1.65703">
        <ele>3</ele>
        <time>2022-06-27T16:50:09Z</time>
      </trkpt>
      <trkpt lat="43.38227" lon="-1.65671">
        <ele>3</ele>
        <time>2022-06-27T16:50:13Z</time>
      </trkpt>
      <trkpt lat="43.38336" lon="-1.65515">
        <ele>4</ele>
        <time>2022-06-27T16:50:41Z</time>
      </trkpt>
      <trkpt lat="43.38321" lon="-1.6547">
        <ele>4</ele>
        <time>2022-06-27T16:50:47Z</time>
      </trkpt>
      <trkpt lat="43.38381" lon="-1.65305">
        <ele>9</ele>
        <time>2022-06-27T16:51:11Z</time>
      </trkpt>
      <trkpt lat="43.3836" lon="-1.65258">
        <ele>11</ele>
        <time>2022-06-27T16:51:18Z</time>
      </trkpt>
      <trkpt lat="43.38332" lon="-1.65221">
        <ele>10</ele>
        <time>2022-06-27T16:51:25Z</time>
      </trkpt>
      <trkpt lat="43.38323" lon="-1.65175">
        <ele>11</ele>
        <time>2022-06-27T16:51:31Z</time>
      </trkpt>
      <trkpt lat="43.38265" lon="-1.65015">
        <ele>8</ele>
        <time>2022-06-27T16:51:54Z</time>
      </trkpt>
      <trkpt lat="43.38245" lon="-1.64941">
        <ele>8</ele>
        <time>2022-06-27T16:52:05Z</time>
      </trkpt>
      <trkpt lat="43.38272" lon="-1.64576">
        <ele>7</ele>
        <time>2022-06-27T16:52:52Z</time>
      </trkpt>
      <trkpt lat="43.38271" lon="-1.64443">
        <ele>8</ele>
        <time>2022-06-27T16:53:09Z</time>
      </trkpt>
      <trkpt lat="43.38261" lon="-1.64386">
        <ele>7</ele>
        <time>2022-06-27T16:53:17Z</time>
      </trkpt>
      <trkpt lat="43.38242" lon="-1.64333">
        <ele>5</ele>
        <time>2022-06-27T16:53:24Z</time>
      </trkpt>
      <trkpt lat="43.38223" lon="-1.64304">
        <ele>5</ele>
        <time>2022-06-27T16:53:29Z</time>
      </trkpt>
      <trkpt lat="43.38117" lon="-1.64196">
        <ele>6</ele>
        <time>2022-06-27T16:53:53Z</time>
      </trkpt>
      <trkpt lat="43.3805" lon="-1.64058">
        <ele>9</ele>
        <time>2022-06-27T16:54:14Z</time>
      </trkpt>
      <trkpt lat="43.37757" lon="-1.6378">
        <ele>8</ele>
        <time>2022-06-27T16:55:18Z</time>
      </trkpt>
      <trkpt lat="43.37617" lon="-1.63784">
        <ele>6</ele>
        <time>2022-06-27T16:55:43Z</time>
      </trkpt>
      <trkpt lat="43.37523" lon="-1.6381">
        <ele>4</ele>
        <time>2022-06-27T16:56:00Z</time>
      </trkpt>
      <trkpt lat="43.37511" lon="-1.63792">
        <ele>4</ele>
        <time>2022-06-27T16:56:03Z</time>
      </trkpt>
      <trkpt lat="43.37445" lon="-1.63794">
        <ele>4</ele>
        <time>2022-06-27T16:56:15Z</time>
      </trkpt>
      <trkpt lat="43.37409" lon="-1.63788">
        <ele>4</ele>
        <time>2022-06-27T16:56:21Z</time>
      </trkpt>
      <trkpt lat="43.37111" lon="-1.63806">
        <ele>5</ele>
        <time>2022-06-27T16:57:14Z</time>
      </trkpt>
      <trkpt lat="43.37063" lon="-1.63793">
        <ele>6</ele>
        <time>2022-06-27T16:57:23Z</time>
      </trkpt>
      <trkpt lat="43.36722" lon="-1.6358">
        <ele>7</ele>
        <time>2022-06-27T16:58:30Z</time>
      </trkpt>
      <trkpt lat="43.36676" lon="-1.63574">
        <ele>8</ele>
        <time>2022-06-27T16:58:38Z</time>
      </trkpt>
      <trkpt lat="43.36644" lon="-1.63577">
        <ele>7</ele>
        <time>2022-06-27T16:58:43Z</time>
      </trkpt>
      <trkpt lat="43.36367" lon="-1.63664">
        <ele>7</ele>
        <time>2022-06-27T16:59:34Z</time>
      </trkpt>
      <trkpt lat="43.36308" lon="-1.63673">
        <ele>7</ele>
        <time>2022-06-27T16:59:45Z</time>
      </trkpt>
      <trkpt lat="43.36255" lon="-1.63666">
        <ele>6</ele>
        <time>2022-06-27T16:59:54Z</time>
      </trkpt>
      <trkpt lat="43.36097" lon="-1.63603">
        <ele>5</ele>
        <time>2022-06-27T17:00:23Z</time>
      </trkpt>
      <trkpt lat="43.36061" lon="-1.63577">
        <ele>5</ele>
        <time>2022-06-27T17:00:31Z</time>
      </trkpt>
      <trkpt lat="43.36039" lon="-1.63549">
        <ele>6</ele>
        <time>2022-06-27T17:00:36Z</time>
      </trkpt>
      <trkpt lat="43.35995" lon="-1.63453">
        <ele>8</ele>
        <time>2022-06-27T17:00:51Z</time>
      </trkpt>
      <trkpt lat="43.35935" lon="-1.63358">
        <ele>9</ele>
        <time>2022-06-27T17:01:07Z</time>
      </trkpt>
      <trkpt lat="43.35859" lon="-1.6328">
        <ele>9</ele>
        <time>2022-06-27T17:01:24Z</time>
      </trkpt>
      <trkpt lat="43.35789" lon="-1.63219">
        <ele>9</ele>
        <time>2022-06-27T17:01:38Z</time>
      </trkpt>
      <trkpt lat="43.3575" lon="-1.63192">
        <ele>7</ele>
        <time>2022-06-27T17:01:46Z</time>
      </trkpt>
      <trkpt lat="43.35679" lon="-1.63165">
        <ele>6</ele>
        <time>2022-06-27T17:01:59Z</time>
      </trkpt>
      <trkpt lat="43.35657" lon="-1.63166">
        <ele>6</ele>
        <time>2022-06-27T17:02:03Z</time>
      </trkpt>
      <trkpt lat="43.35638" lon="-1.63154">
        <ele>6</ele>
        <time>2022-06-27T17:02:07Z</time>
      </trkpt>
      <trkpt lat="43.35403" lon="-1.63082">
        <ele>7</ele>
        <time>2022-06-27T17:02:50Z</time>
      </trkpt>
      <trkpt lat="43.3535" lon="-1.63044">
        <ele>7</ele>
        <time>2022-06-27T17:03:00Z</time>
      </trkpt>
      <trkpt lat="43.35306" lon="-1.62998">
        <ele>6</ele>
        <time>2022-06-27T17:03:10Z</time>
      </trkpt>
      <trkpt lat="43.35289" lon="-1.62974">
        <ele>6</ele>
        <time>2022-06-27T17:03:15Z</time>
      </trkpt>
      <trkpt lat="43.35255" lon="-1.629">
        <ele>6</ele>
        <time>2022-06-27T17:03:26Z</time>
      </trkpt>
      <trkpt lat="43.35207" lon="-1.62759">
        <ele>8</ele>
        <time>2022-06-27T17:03:46Z</time>
      </trkpt>
      <trkpt lat="43.35118" lon="-1.62528">
        <ele>12</ele>
        <time>2022-06-27T17:04:20Z</time>
      </trkpt>
      <trkpt lat="43.35103" lon="-1.62461">
        <ele>10</ele>
        <time>2022-06-27T17:04:29Z</time>
      </trkpt>
      <trkpt lat="43.35109" lon="-1.62334">
        <ele>10</ele>
        <time>2022-06-27T17:04:45Z</time>
      </trkpt>
      <trkpt lat="43.35191" lon="-1.62169">
        <ele>11</ele>
        <time>2022-06-27T17:05:11Z</time>
      </trkpt>
      <trkpt lat="43.35214" lon="-1.62143">
        <ele>12</ele>
        <time>2022-06-27T17:05:17Z</time>
      </trkpt>
      <trkpt lat="43.3524" lon="-1.62126">
        <ele>14</ele>
        <time>2022-06-27T17:05:22Z</time>
      </trkpt>
      <trkpt lat="43.35407" lon="-1.6206">
        <ele>21</ele>
        <time>2022-06-27T17:05:53Z</time>
      </trkpt>
      <trkpt lat="43.35486" lon="-1.62001">
        <ele>18</ele>
        <time>2022-06-27T17:06:09Z</time>
      </trkpt>
      <trkpt lat="43.35515" lon="-1.61963">
        <ele>18</ele>
        <time>2022-06-27T17:06:16Z</time>
      </trkpt>
      <trkpt lat="43.35787" lon="-1.61535">
        <ele>14</ele>
        <time>2022-06-27T17:07:29Z</time>
      </trkpt>
      <trkpt lat="43.35815" lon="-1.61503">
        <ele>12</ele>
        <time>2022-06-27T17:07:36Z</time>
      </trkpt>
      <trkpt lat="43.35934" lon="-1.61396">
        <ele>16</ele>
        <time>2022-06-27T17:08:01Z</time>
      </trkpt>
      <trkpt lat="43.36043" lon="-1.61253">
        <ele>11</ele>
        <time>2022-06-27T17:08:28Z</time>
      </trkpt>
      <trkpt lat="43.36083" lon="-1.61166">
        <ele>12</ele>
        <time>2022-06-27T17:08:41Z</time>
      </trkpt>
      <trkpt lat="43.36103" lon="-1.61053">
        <ele>16</ele>
        <time>2022-06-27T17:08:56Z</time>
      </trkpt>
      <trkpt lat="43.36119" lon="-1.6075">
        <ele>18</ele>
        <time>2022-06-27T17:09:36Z</time>
      </trkpt>
      <trkpt lat="43.36102" lon="-1.60518">
        <ele>17</ele>
        <time>2022-06-27T17:10:06Z</time>
      </trkpt>
      <trkpt lat="43.36109" lon="-1.60462">
        <ele>16</ele>
        <time>2022-06-27T17:10:13Z</time>
      </trkpt>
      <trkpt lat="43.36126" lon="-1.60409">
        <ele>15</ele>
        <time>2022-06-27T17:10:21Z</time>
      </trkpt>
      <trkpt lat="43.36138" lon="-1.60384">
        <ele>15</ele>
        <time>2022-06-27T17:10:24Z</time>
      </trkpt>
      <trkpt lat="43.36173" lon="-1.60338">
        <ele>13</ele>
        <time>2022-06-27T17:10:33Z</time>
      </trkpt>
      <trkpt lat="43.36299" lon="-1.60225">
        <ele>21</ele>
        <time>2022-06-27T17:11:00Z</time>
      </trkpt>
      <trkpt lat="43.36336" lon="-1.60166">
        <ele>16</ele>
        <time>2022-06-27T17:11:10Z</time>
      </trkpt>
      <trkpt lat="43.36387" lon="-1.60042">
        <ele>15</ele>
        <time>2022-06-27T17:11:28Z</time>
      </trkpt>
      <trkpt lat="43.36418" lon="-1.59996">
        <ele>13</ele>
        <time>2022-06-27T17:11:36Z</time>
      </trkpt>
      <trkpt lat="43.36447" lon="-1.59965">
        <ele>14</ele>
        <time>2022-06-27T17:11:43Z</time>
      </trkpt>
      <trkpt lat="43.36533" lon="-1.59897">
        <ele>16</ele>
        <time>2022-06-27T17:12:01Z</time>
      </trkpt>
      <trkpt lat="43.36562" lon="-1.59843">
        <ele>18</ele>
        <time>2022-06-27T17:12:09Z</time>
      </trkpt>
      <trkpt lat="43.36567" lon="-1.59809">
        <ele>18</ele>
        <time>2022-06-27T17:12:14Z</time>
      </trkpt>
      <trkpt lat="43.36592" lon="-1.59482">
        <ele>9</ele>
        <time>2022-06-27T17:12:56Z</time>
      </trkpt>
      <trkpt lat="43.36589" lon="-1.5943">
        <ele>9</ele>
        <time>2022-06-27T17:13:03Z</time>
      </trkpt>
      <trkpt lat="43.36581" lon="-1.59376">
        <ele>9</ele>
        <time>2022-06-27T17:13:10Z</time>
      </trkpt>
      <trkpt lat="43.3646" lon="-1.58976">
        <ele>11</ele>
        <time>2022-06-27T17:14:06Z</time>
      </trkpt>
      <trkpt lat="43.36427" lon="-1.58913">
        <ele>13</ele>
        <time>2022-06-27T17:14:16Z</time>
      </trkpt>
      <trkpt lat="43.36308" lon="-1.58801">
        <ele>19</ele>
        <time>2022-06-27T17:14:42Z</time>
      </trkpt>
      <trkpt lat="43.3628" lon="-1.58766">
        <ele>18</ele>
        <time>2022-06-27T17:14:49Z</time>
      </trkpt>
      <trkpt lat="43.36257" lon="-1.58723">
        <ele>14</ele>
        <time>2022-06-27T17:14:56Z</time>
      </trkpt>
      <trkpt lat="43.36164" lon="-1.58429">
        <ele>12</ele>
        <time>2022-06-27T17:15:37Z</time>
      </trkpt>
      <trkpt lat="43.36129" lon="-1.58341">
        <ele>12</ele>
        <time>2022-06-27T17:15:50Z</time>
      </trkpt>
      <trkpt lat="43.36109" lon="-1.58303">
        <ele>12</ele>
        <time>2022-06-27T17:15:56Z</time>
      </trkpt>
      <trkpt lat="43.35894" lon="-1.57993">
        <ele>11</ele>
        <time>2022-06-27T17:16:51Z</time>
      </trkpt>
      <trkpt lat="43.35852" lon="-1.57913">
        <ele>12</ele>
        <time>2022-06-27T17:17:04Z</time>
      </trkpt>
      <trkpt lat="43.35827" lon="-1.57821">
        <ele>11</ele>
        <time>2022-06-27T17:17:17Z</time>
      </trkpt>
      <trkpt lat="43.35782" lon="-1.57586">
        <ele>13</ele>
        <time>2022-06-27T17:17:48Z</time>
      </trkpt>
      <trkpt lat="43.35745" lon="-1.57225">
        <ele>14</ele>
        <time>2022-06-27T17:18:36Z</time>
      </trkpt>
      <trkpt lat="43.35733" lon="-1.5716">
        <ele>15</ele>
        <time>2022-06-27T17:18:44Z</time>
      </trkpt>
      <trkpt lat="43.35625" lon="-1.56922">
        <ele>17</ele>
        <time>2022-06-27T17:19:21Z</time>
      </trkpt>
      <trkpt lat="43.35593" lon="-1.56864">
        <ele>17</ele>
        <time>2022-06-27T17:19:30Z</time>
      </trkpt>
      <trkpt lat="43.35585" lon="-1.56823">
        <ele>17</ele>
        <time>2022-06-27T17:19:35Z</time>
      </trkpt>
      <trkpt lat="43.35625" lon="-1.56642">
        <ele>19</ele>
        <time>2022-06-27T17:20:00Z</time>
      </trkpt>
      <trkpt lat="43.35624" lon="-1.56615">
        <ele>19</ele>
        <time>2022-06-27T17:20:03Z</time>
      </trkpt>
      <trkpt lat="43.35615" lon="-1.56601">
        <ele>19</ele>
        <time>2022-06-27T17:20:06Z</time>
      </trkpt>
      <trkpt lat="43.35624" lon="-1.56587">
        <ele>19</ele>
        <time>2022-06-27T17:20:08Z</time>
      </trkpt>
      <trkpt lat="43.35615" lon="-1.56214">
        <ele>19</ele>
        <time>2022-06-27T17:20:57Z</time>
      </trkpt>
      <trkpt lat="43.35623" lon="-1.56133">
        <ele>18</ele>
        <time>2022-06-27T17:21:07Z</time>
      </trkpt>
      <trkpt lat="43.35635" lon="-1.56106">
        <ele>18</ele>
        <time>2022-06-27T17:21:11Z</time>
      </trkpt>
      <trkpt lat="43.35652" lon="-1.56086">
        <ele>18</ele>
        <time>2022-06-27T17:21:15Z</time>
      </trkpt>
      <trkpt lat="43.3573" lon="-1.56032">
        <ele>19</ele>
        <time>2022-06-27T17:21:31Z</time>
      </trkpt>
      <trkpt lat="43.35741" lon="-1.55983">
        <ele>17</ele>
        <time>2022-06-27T17:21:37Z</time>
      </trkpt>
      <trkpt lat="43.35756" lon="-1.55977">
        <ele>17</ele>
        <time>2022-06-27T17:21:40Z</time>
      </trkpt>
      <trkpt lat="43.35774" lon="-1.55958">
        <ele>18</ele>
        <time>2022-06-27T17:21:44Z</time>
      </trkpt>
      <trkpt lat="43.35787" lon="-1.55898">
        <ele>20</ele>
        <time>2022-06-27T17:21:52Z</time>
      </trkpt>
      <trkpt lat="43.3578" lon="-1.55666">
        <ele>23</ele>
        <time>2022-06-27T17:22:22Z</time>
      </trkpt>
      <trkpt lat="43.35798" lon="-1.55504">
        <ele>25</ele>
        <time>2022-06-27T17:22:44Z</time>
      </trkpt>
      <trkpt lat="43.35769" lon="-1.55301">
        <ele>22</ele>
        <time>2022-06-27T17:23:10Z</time>
      </trkpt>
      <trkpt lat="43.35763" lon="-1.55276">
        <ele>22</ele>
        <time>2022-06-27T17:23:14Z</time>
      </trkpt>
      <trkpt lat="43.35681" lon="-1.55144">
        <ele>21</ele>
        <time>2022-06-27T17:23:36Z</time>
      </trkpt>
      <trkpt lat="43.35639" lon="-1.55061">
        <ele>22</ele>
        <time>2022-06-27T17:23:49Z</time>
      </trkpt>
      <trkpt lat="43.35784" lon="-1.54901">
        <ele>30</ele>
        <time>2022-06-27T17:24:22Z</time>
      </trkpt>
      <trkpt lat="43.35848" lon="-1.54788">
        <ele>35</ele>
        <time>2022-06-27T17:24:41Z</time>
      </trkpt>
      <trkpt lat="43.35865" lon="-1.54771">
        <ele>37</ele>
        <time>2022-06-27T17:24:45Z</time>
      </trkpt>
      <trkpt lat="43.3601" lon="-1.54708">
        <ele>53</ele>
        <time>2022-06-27T17:25:12Z</time>
      </trkpt>
      <trkpt lat="43.36068" lon="-1.54671">
        <ele>58</ele>
        <time>2022-06-27T17:25:23Z</time>
      </trkpt>
      <trkpt lat="43.36233" lon="-1.54606">
        <ele>67</ele>
        <time>2022-06-27T17:25:54Z</time>
      </trkpt>
      <trkpt lat="43.36274" lon="-1.54596">
        <ele>69</ele>
        <time>2022-06-27T17:26:01Z</time>
      </trkpt>
      <trkpt lat="43.36304" lon="-1.54576">
        <ele>72</ele>
        <time>2022-06-27T17:26:07Z</time>
      </trkpt>
      <trkpt lat="43.3632" lon="-1.54556">
        <ele>76</ele>
        <time>2022-06-27T17:26:11Z</time>
      </trkpt>
      <trkpt lat="43.36338" lon="-1.54516">
        <ele>82</ele>
        <time>2022-06-27T17:26:17Z</time>
      </trkpt>
      <trkpt lat="43.36347" lon="-1.54511">
        <ele>83</ele>
        <time>2022-06-27T17:26:19Z</time>
      </trkpt>
      <trkpt lat="43.36384" lon="-1.54515">
        <ele>85</ele>
        <time>2022-06-27T17:26:25Z</time>
      </trkpt>
      <trkpt lat="43.36529" lon="-1.54476">
        <ele>90</ele>
        <time>2022-06-27T17:26:51Z</time>
      </trkpt>
      <trkpt lat="43.36539" lon="-1.54346">
        <ele>90</ele>
        <time>2022-06-27T17:27:08Z</time>
      </trkpt>
      <trkpt lat="43.36522" lon="-1.54318">
        <ele>91</ele>
        <time>2022-06-27T17:27:13Z</time>
      </trkpt>
      <trkpt lat="43.36468" lon="-1.54315">
        <ele>97</ele>
        <time>2022-06-27T17:27:23Z</time>
      </trkpt>
      <trkpt lat="43.36434" lon="-1.54296">
        <ele>100</ele>
        <time>2022-06-27T17:27:29Z</time>
      </trkpt>
      <trkpt lat="43.36416" lon="-1.54258">
        <ele>100</ele>
        <time>2022-06-27T17:27:35Z</time>
      </trkpt>
      <trkpt lat="43.36438" lon="-1.54039">
        <ele>95</ele>
        <time>2022-06-27T17:28:04Z</time>
      </trkpt>
      <trkpt lat="43.36453" lon="-1.53796">
        <ele>99</ele>
        <time>2022-06-27T17:28:35Z</time>
      </trkpt>
      <trkpt lat="43.36504" lon="-1.53627">
        <ele>97</ele>
        <time>2022-06-27T17:28:59Z</time>
      </trkpt>
      <trkpt lat="43.36507" lon="-1.53566">
        <ele>97</ele>
        <time>2022-06-27T17:29:07Z</time>
      </trkpt>
      <trkpt lat="43.36496" lon="-1.53439">
        <ele>104</ele>
        <time>2022-06-27T17:29:23Z</time>
      </trkpt>
      <trkpt lat="43.3641" lon="-1.52925">
        <ele>115</ele>
        <time>2022-06-27T17:30:32Z</time>
      </trkpt>
      <trkpt lat="43.3639" lon="-1.52871">
        <ele>114</ele>
        <time>2022-06-27T17:30:39Z</time>
      </trkpt>
      <trkpt lat="43.36322" lon="-1.52743">
        <ele>118</ele>
        <time>2022-06-27T17:31:00Z</time>
      </trkpt>
      <trkpt lat="43.36299" lon="-1.52656">
        <ele>123</ele>
        <time>2022-06-27T17:31:12Z</time>
      </trkpt>
      <trkpt lat="43.36298" lon="-1.52625">
        <ele>125</ele>
        <time>2022-06-27T17:31:16Z</time>
      </trkpt>
      <trkpt lat="43.36335" lon="-1.52415">
        <ele>132</ele>
        <time>2022-06-27T17:31:44Z</time>
      </trkpt>
      <trkpt lat="43.36356" lon="-1.52376">
        <ele>132</ele>
        <time>2022-06-27T17:31:50Z</time>
      </trkpt>
      <trkpt lat="43.36417" lon="-1.52323">
        <ele>131</ele>
        <time>2022-06-27T17:32:03Z</time>
      </trkpt>
      <trkpt lat="43.36473" lon="-1.5229">
        <ele>130</ele>
        <time>2022-06-27T17:32:14Z</time>
      </trkpt>
      <trkpt lat="43.36523" lon="-1.52274">
        <ele>133</ele>
        <time>2022-06-27T17:32:23Z</time>
      </trkpt>
      <trkpt lat="43.36545" lon="-1.52284">
        <ele>134</ele>
        <time>2022-06-27T17:32:27Z</time>
      </trkpt>
      <trkpt lat="43.36555" lon="-1.52297">
        <ele>134</ele>
        <time>2022-06-27T17:32:30Z</time>
      </trkpt>
      <trkpt lat="43.36591" lon="-1.52379">
        <ele>132</ele>
        <time>2022-06-27T17:32:42Z</time>
      </trkpt>
      <trkpt lat="43.36599" lon="-1.52391">
        <ele>132</ele>
        <time>2022-06-27T17:32:44Z</time>
      </trkpt>
      <trkpt lat="43.3662" lon="-1.52401">
        <ele>133</ele>
        <time>2022-06-27T17:32:48Z</time>
      </trkpt>
      <trkpt lat="43.36641" lon="-1.52391">
        <ele>135</ele>
        <time>2022-06-27T17:32:52Z</time>
      </trkpt>
      <trkpt lat="43.36655" lon="-1.52375">
        <ele>137</ele>
        <time>2022-06-27T17:32:55Z</time>
      </trkpt>
      <trkpt lat="43.36717" lon="-1.52356">
        <ele>137</ele>
        <time>2022-06-27T17:33:06Z</time>
      </trkpt>
      <trkpt lat="43.36755" lon="-1.52327">
        <ele>140</ele>
        <time>2022-06-27T17:33:14Z</time>
      </trkpt>
      <trkpt lat="43.36764" lon="-1.52325">
        <ele>141</ele>
        <time>2022-06-27T17:33:16Z</time>
      </trkpt>
      <trkpt lat="43.36779" lon="-1.52335">
        <ele>142</ele>
        <time>2022-06-27T17:33:19Z</time>
      </trkpt>
      <trkpt lat="43.36831" lon="-1.52476">
        <ele>140</ele>
        <time>2022-06-27T17:33:39Z</time>
      </trkpt>
      <trkpt lat="43.36841" lon="-1.52544">
        <ele>141</ele>
        <time>2022-06-27T17:33:48Z</time>
      </trkpt>
      <trkpt lat="43.36833" lon="-1.52616">
        <ele>139</ele>
        <time>2022-06-27T17:33:58Z</time>
      </trkpt>
      <trkpt lat="43.36853" lon="-1.52645">
        <ele>139</ele>
        <time>2022-06-27T17:34:03Z</time>
      </trkpt>
      <trkpt lat="43.36867" lon="-1.52655">
        <ele>139</ele>
        <time>2022-06-27T17:34:06Z</time>
      </trkpt>
      <trkpt lat="43.36882" lon="-1.52658">
        <ele>139</ele>
        <time>2022-06-27T17:34:08Z</time>
      </trkpt>
      <trkpt lat="43.36908" lon="-1.52652">
        <ele>141</ele>
        <time>2022-06-27T17:34:13Z</time>
      </trkpt>
      <trkpt lat="43.36952" lon="-1.52605">
        <ele>142</ele>
        <time>2022-06-27T17:34:23Z</time>
      </trkpt>
      <trkpt lat="43.37005" lon="-1.52582">
        <ele>141</ele>
        <time>2022-06-27T17:34:33Z</time>
      </trkpt>
      <trkpt lat="43.37046" lon="-1.52546">
        <ele>141</ele>
        <time>2022-06-27T17:34:41Z</time>
      </trkpt>
      <trkpt lat="43.37064" lon="-1.52497">
        <ele>141</ele>
        <time>2022-06-27T17:34:49Z</time>
      </trkpt>
      <trkpt lat="43.37071" lon="-1.52361">
        <ele>143</ele>
        <time>2022-06-27T17:35:06Z</time>
      </trkpt>
      <trkpt lat="43.37078" lon="-1.52342">
        <ele>143</ele>
        <time>2022-06-27T17:35:09Z</time>
      </trkpt>
      <trkpt lat="43.37089" lon="-1.52331">
        <ele>142</ele>
        <time>2022-06-27T17:35:11Z</time>
      </trkpt>
      <trkpt lat="43.37147" lon="-1.52301">
        <ele>136</ele>
        <time>2022-06-27T17:35:22Z</time>
      </trkpt>
      <trkpt lat="43.37178" lon="-1.52275">
        <ele>134</ele>
        <time>2022-06-27T17:35:29Z</time>
      </trkpt>
      <trkpt lat="43.37257" lon="-1.52177">
        <ele>139</ele>
        <time>2022-06-27T17:35:48Z</time>
      </trkpt>
      <trkpt lat="43.37283" lon="-1.52118">
        <ele>138</ele>
        <time>2022-06-27T17:35:57Z</time>
      </trkpt>
      <trkpt lat="43.37289" lon="-1.52082">
        <ele>138</ele>
        <time>2022-06-27T17:36:01Z</time>
      </trkpt>
      <trkpt lat="43.37287" lon="-1.52055">
        <ele>138</ele>
        <time>2022-06-27T17:36:05Z</time>
      </trkpt>
      <trkpt lat="43.37258" lon="-1.51934">
        <ele>139</ele>
        <time>2022-06-27T17:36:21Z</time>
      </trkpt>
      <trkpt lat="43.37228" lon="-1.51845">
        <ele>139</ele>
        <time>2022-06-27T17:36:34Z</time>
      </trkpt>
      <trkpt lat="43.37229" lon="-1.518">
        <ele>139</ele>
        <time>2022-06-27T17:36:40Z</time>
      </trkpt>
      <trkpt lat="43.37249" lon="-1.51722">
        <ele>139</ele>
        <time>2022-06-27T17:36:51Z</time>
      </trkpt>
      <trkpt lat="43.37279" lon="-1.51656">
        <ele>137</ele>
        <time>2022-06-27T17:37:01Z</time>
      </trkpt>
      <trkpt lat="43.373" lon="-1.51641">
        <ele>137</ele>
        <time>2022-06-27T17:37:05Z</time>
      </trkpt>
      <trkpt lat="43.374" lon="-1.51603">
        <ele>134</ele>
        <time>2022-06-27T17:37:23Z</time>
      </trkpt>
      <trkpt lat="43.37423" lon="-1.51565">
        <ele>134</ele>
        <time>2022-06-27T17:37:30Z</time>
      </trkpt>
      <trkpt lat="43.37452" lon="-1.51326">
        <ele>131</ele>
        <time>2022-06-27T17:38:01Z</time>
      </trkpt>
      <trkpt lat="43.37454" lon="-1.51254">
        <ele>132</ele>
        <time>2022-06-27T17:38:10Z</time>
      </trkpt>
      <trkpt lat="43.37462" lon="-1.51223">
        <ele>132</ele>
        <time>2022-06-27T17:38:15Z</time>
      </trkpt>
      <trkpt lat="43.37498" lon="-1.51158">
        <ele>135</ele>
        <time>2022-06-27T17:38:25Z</time>
      </trkpt>
      <trkpt lat="43.37523" lon="-1.51135">
        <ele>136</ele>
        <time>2022-06-27T17:38:31Z</time>
      </trkpt>
      <trkpt lat="43.37576" lon="-1.51129">
        <ele>136</ele>
        <time>2022-06-27T17:38:40Z</time>
      </trkpt>
      <trkpt lat="43.37641" lon="-1.51154">
        <ele>135</ele>
        <time>2022-06-27T17:38:52Z</time>
      </trkpt>
      <trkpt lat="43.37666" lon="-1.51152">
        <ele>136</ele>
        <time>2022-06-27T17:38:57Z</time>
      </trkpt>
      <trkpt lat="43.3768" lon="-1.51144">
        <ele>136</ele>
        <time>2022-06-27T17:38:59Z</time>
      </trkpt>
      <trkpt lat="43.37704" lon="-1.51106">
        <ele>137</ele>
        <time>2022-06-27T17:39:06Z</time>
      </trkpt>
      <trkpt lat="43.37737" lon="-1.51026">
        <ele>136</ele>
        <time>2022-06-27T17:39:18Z</time>
      </trkpt>
      <trkpt lat="43.37768" lon="-1.50997">
        <ele>135</ele>
        <time>2022-06-27T17:39:24Z</time>
      </trkpt>
      <trkpt lat="43.3784" lon="-1.50843">
        <ele>132</ele>
        <time>2022-06-27T17:39:48Z</time>
      </trkpt>
      <trkpt lat="43.37847" lon="-1.50819">
        <ele>132</ele>
        <time>2022-06-27T17:39:51Z</time>
      </trkpt>
      <trkpt lat="43.37859" lon="-1.50665">
        <ele>129</ele>
        <time>2022-06-27T17:40:11Z</time>
      </trkpt>
      <trkpt lat="43.37871" lon="-1.50596">
        <ele>128</ele>
        <time>2022-06-27T17:40:21Z</time>
      </trkpt>
      <trkpt lat="43.37875" lon="-1.50531">
        <ele>128</ele>
        <time>2022-06-27T17:40:29Z</time>
      </trkpt>
      <trkpt lat="43.37867" lon="-1.50466">
        <ele>127</ele>
        <time>2022-06-27T17:40:38Z</time>
      </trkpt>
      <trkpt lat="43.37871" lon="-1.5045">
        <ele>127</ele>
        <time>2022-06-27T17:40:40Z</time>
      </trkpt>
      <trkpt lat="43.3789" lon="-1.50437">
        <ele>128</ele>
        <time>2022-06-27T17:40:43Z</time>
      </trkpt>
      <trkpt lat="43.37947" lon="-1.50456">
        <ele>129</ele>
        <time>2022-06-27T17:40:54Z</time>
      </trkpt>
      <trkpt lat="43.38017" lon="-1.50433">
        <ele>128</ele>
        <time>2022-06-27T17:41:07Z</time>
      </trkpt>
      <trkpt lat="43.38125" lon="-1.5043">
        <ele>127</ele>
        <time>2022-06-27T17:41:26Z</time>
      </trkpt>
      <trkpt lat="43.3826" lon="-1.50458">
        <ele>127</ele>
        <time>2022-06-27T17:41:50Z</time>
      </trkpt>
      <trkpt lat="43.38359" lon="-1.50285">
        <ele>126</ele>
        <time>2022-06-27T17:42:19Z</time>
      </trkpt>
      <trkpt lat="43.38412" lon="-1.50226">
        <ele>128</ele>
        <time>2022-06-27T17:42:31Z</time>
      </trkpt>
      <trkpt lat="43.3844" lon="-1.50174">
        <ele>129</ele>
        <time>2022-06-27T17:42:39Z</time>
      </trkpt>
      <trkpt lat="43.38452" lon="-1.50137">
        <ele>131</ele>
        <time>2022-06-27T17:42:44Z</time>
      </trkpt>
      <trkpt lat="43.38475" lon="-1.49994">
        <ele>136</ele>
        <time>2022-06-27T17:43:03Z</time>
      </trkpt>
      <trkpt lat="43.38555" lon="-1.49922">
        <ele>140</ele>
        <time>2022-06-27T17:43:20Z</time>
      </trkpt>
      <trkpt lat="43.38573" lon="-1.49898">
        <ele>141</ele>
        <time>2022-06-27T17:43:25Z</time>
      </trkpt>
      <trkpt lat="43.3866" lon="-1.49697">
        <ele>138</ele>
        <time>2022-06-27T17:43:55Z</time>
      </trkpt>
      <trkpt lat="43.3868" lon="-1.49636">
        <ele>134</ele>
        <time>2022-06-27T17:44:04Z</time>
      </trkpt>
      <trkpt lat="43.38685" lon="-1.49592">
        <ele>133</ele>
        <time>2022-06-27T17:44:10Z</time>
      </trkpt>
      <trkpt lat="43.38678" lon="-1.49501">
        <ele>133</ele>
        <time>2022-06-27T17:44:21Z</time>
      </trkpt>
      <trkpt lat="43.38706" lon="-1.49424">
        <ele>126</ele>
        <time>2022-06-27T17:44:32Z</time>
      </trkpt>
      <trkpt lat="43.38737" lon="-1.49263">
        <ele>126</ele>
        <time>2022-06-27T17:44:54Z</time>
      </trkpt>
      <trkpt lat="43.38734" lon="-1.49133">
        <ele>119</ele>
        <time>2022-06-27T17:45:11Z</time>
      </trkpt>
      <trkpt lat="43.38696" lon="-1.4882">
        <ele>107</ele>
        <time>2022-06-27T17:45:52Z</time>
      </trkpt>
      <trkpt lat="43.38651" lon="-1.48743">
        <ele>108</ele>
        <time>2022-06-27T17:46:05Z</time>
      </trkpt>
      <trkpt lat="43.38642" lon="-1.48713">
        <ele>107</ele>
        <time>2022-06-27T17:46:09Z</time>
      </trkpt>
      <trkpt lat="43.38633" lon="-1.48568">
        <ele>114</ele>
        <time>2022-06-27T17:46:28Z</time>
      </trkpt>
      <trkpt lat="43.38636" lon="-1.48544">
        <ele>115</ele>
        <time>2022-06-27T17:46:31Z</time>
      </trkpt>
      <trkpt lat="43.3866" lon="-1.48496">
        <ele>117</ele>
        <time>2022-06-27T17:46:38Z</time>
      </trkpt>
      <trkpt lat="43.38727" lon="-1.48435">
        <ele>114</ele>
        <time>2022-06-27T17:46:53Z</time>
      </trkpt>
      <trkpt lat="43.38777" lon="-1.48351">
        <ele>111</ele>
        <time>2022-06-27T17:47:07Z</time>
      </trkpt>
      <trkpt lat="43.38806" lon="-1.48185">
        <ele>112</ele>
        <time>2022-06-27T17:47:29Z</time>
      </trkpt>
      <trkpt lat="43.38797" lon="-1.48047">
        <ele>111</ele>
        <time>2022-06-27T17:47:47Z</time>
      </trkpt>
      <trkpt lat="43.38784" lon="-1.48006">
        <ele>109</ele>
        <time>2022-06-27T17:47:52Z</time>
      </trkpt>
      <trkpt lat="43.38723" lon="-1.47963">
        <ele>107</ele>
        <time>2022-06-27T17:48:05Z</time>
      </trkpt>
      <trkpt lat="43.38699" lon="-1.47935">
        <ele>105</ele>
        <time>2022-06-27T17:48:10Z</time>
      </trkpt>
      <trkpt lat="43.38599" lon="-1.47742">
        <ele>94</ele>
        <time>2022-06-27T17:48:41Z</time>
      </trkpt>
      <trkpt lat="43.38573" lon="-1.47605">
        <ele>90</ele>
        <time>2022-06-27T17:48:59Z</time>
      </trkpt>
      <trkpt lat="43.38582" lon="-1.47451">
        <ele>87</ele>
        <time>2022-06-27T17:49:19Z</time>
      </trkpt>
      <trkpt lat="43.3853" lon="-1.47247">
        <ele>79</ele>
        <time>2022-06-27T17:49:47Z</time>
      </trkpt>
      <trkpt lat="43.38539" lon="-1.47212">
        <ele>76</ele>
        <time>2022-06-27T17:49:52Z</time>
      </trkpt>
      <trkpt lat="43.38574" lon="-1.47178">
        <ele>76</ele>
        <time>2022-06-27T17:50:00Z</time>
      </trkpt>
      <trkpt lat="43.38578" lon="-1.47147">
        <ele>75</ele>
        <time>2022-06-27T17:50:04Z</time>
      </trkpt>
      <trkpt lat="43.38552" lon="-1.47046">
        <ele>70</ele>
        <time>2022-06-27T17:50:17Z</time>
      </trkpt>
      <trkpt lat="43.38527" lon="-1.4698">
        <ele>65</ele>
        <time>2022-06-27T17:50:27Z</time>
      </trkpt>
      <trkpt lat="43.3847" lon="-1.46856">
        <ele>54</ele>
        <time>2022-06-27T17:50:46Z</time>
      </trkpt>
      <trkpt lat="43.38358" lon="-1.46657">
        <ele>45</ele>
        <time>2022-06-27T17:51:19Z</time>
      </trkpt>
      <trkpt lat="43.3835" lon="-1.46599">
        <ele>45</ele>
        <time>2022-06-27T17:51:26Z</time>
      </trkpt>
      <trkpt lat="43.38352" lon="-1.46552">
        <ele>43</ele>
        <time>2022-06-27T17:51:32Z</time>
      </trkpt>
      <trkpt lat="43.38368" lon="-1.46483">
        <ele>41</ele>
        <time>2022-06-27T17:51:42Z</time>
      </trkpt>
      <trkpt lat="43.38394" lon="-1.46433">
        <ele>39</ele>
        <time>2022-06-27T17:51:50Z</time>
      </trkpt>
      <trkpt lat="43.38392" lon="-1.46425">
        <ele>39</ele>
        <time>2022-06-27T17:51:51Z</time>
      </trkpt>
      <trkpt lat="43.38398" lon="-1.46414">
        <ele>38</ele>
        <time>2022-06-27T17:51:53Z</time>
      </trkpt>
      <trkpt lat="43.3841" lon="-1.46418">
        <ele>38</ele>
        <time>2022-06-27T17:51:55Z</time>
      </trkpt>
      <trkpt lat="43.38461" lon="-1.46373">
        <ele>36</ele>
        <time>2022-06-27T17:52:06Z</time>
      </trkpt>
      <trkpt lat="43.38513" lon="-1.46373">
        <ele>34</ele>
        <time>2022-06-27T17:52:15Z</time>
      </trkpt>
      <trkpt lat="43.38545" lon="-1.4636">
        <ele>35</ele>
        <time>2022-06-27T17:52:21Z</time>
      </trkpt>
      <trkpt lat="43.38591" lon="-1.463">
        <ele>39</ele>
        <time>2022-06-27T17:52:32Z</time>
      </trkpt>
      <trkpt lat="43.38628" lon="-1.46268">
        <ele>44</ele>
        <time>2022-06-27T17:52:40Z</time>
      </trkpt>
      <trkpt lat="43.38653" lon="-1.46266">
        <ele>45</ele>
        <time>2022-06-27T17:52:44Z</time>
      </trkpt>
      <trkpt lat="43.38738" lon="-1.46328">
        <ele>44</ele>
        <time>2022-06-27T17:53:01Z</time>
      </trkpt>
      <trkpt lat="43.38761" lon="-1.46327">
        <ele>46</ele>
        <time>2022-06-27T17:53:05Z</time>
      </trkpt>
      <trkpt lat="43.3887" lon="-1.46281">
        <ele>48</ele>
        <time>2022-06-27T17:53:26Z</time>
      </trkpt>
      <trkpt lat="43.38906" lon="-1.46253">
        <ele>48</ele>
        <time>2022-06-27T17:53:33Z</time>
      </trkpt>
      <trkpt lat="43.38929" lon="-1.46219">
        <ele>53</ele>
        <time>2022-06-27T17:53:39Z</time>
      </trkpt>
      <trkpt lat="43.38963" lon="-1.46201">
        <ele>51</ele>
        <time>2022-06-27T17:53:46Z</time>
      </trkpt>
      <trkpt lat="43.38993" lon="-1.46164">
        <ele>52</ele>
        <time>2022-06-27T17:53:53Z</time>
      </trkpt>
      <trkpt lat="43.39025" lon="-1.46092">
        <ele>57</ele>
        <time>2022-06-27T17:54:04Z</time>
      </trkpt>
      <trkpt lat="43.39088" lon="-1.45996">
        <ele>58</ele>
        <time>2022-06-27T17:54:20Z</time>
      </trkpt>
      <trkpt lat="43.39119" lon="-1.45965">
        <ele>57</ele>
        <time>2022-06-27T17:54:27Z</time>
      </trkpt>
      <trkpt lat="43.39149" lon="-1.45954">
        <ele>56</ele>
        <time>2022-06-27T17:54:33Z</time>
      </trkpt>
      <trkpt lat="43.39246" lon="-1.45946">
        <ele>54</ele>
        <time>2022-06-27T17:54:50Z</time>
      </trkpt>
      <trkpt lat="43.39251" lon="-1.45933">
        <ele>55</ele>
        <time>2022-06-27T17:54:52Z</time>
      </trkpt>
      <trkpt lat="43.39245" lon="-1.45828">
        <ele>54</ele>
        <time>2022-06-27T17:55:06Z</time>
      </trkpt>
      <trkpt lat="43.39255" lon="-1.45781">
        <ele>46</ele>
        <time>2022-06-27T17:55:12Z</time>
      </trkpt>
      <trkpt lat="43.39246" lon="-1.4576">
        <ele>45</ele>
        <time>2022-06-27T17:55:15Z</time>
      </trkpt>
      <trkpt lat="43.39223" lon="-1.45747">
        <ele>47</ele>
        <time>2022-06-27T17:55:19Z</time>
      </trkpt>
      <trkpt lat="43.39213" lon="-1.45731">
        <ele>46</ele>
        <time>2022-06-27T17:55:22Z</time>
      </trkpt>
      <trkpt lat="43.39212" lon="-1.457">
        <ele>41</ele>
        <time>2022-06-27T17:55:26Z</time>
      </trkpt>
      <trkpt lat="43.39203" lon="-1.45677">
        <ele>39</ele>
        <time>2022-06-27T17:55:30Z</time>
      </trkpt>
      <trkpt lat="43.3921" lon="-1.45642">
        <ele>35</ele>
        <time>2022-06-27T17:55:34Z</time>
      </trkpt>
      <trkpt lat="43.39207" lon="-1.45617">
        <ele>33</ele>
        <time>2022-06-27T17:55:38Z</time>
      </trkpt>
      <trkpt lat="43.39181" lon="-1.45585">
        <ele>32</ele>
        <time>2022-06-27T17:55:44Z</time>
      </trkpt>
      <trkpt lat="43.39159" lon="-1.45546">
        <ele>33</ele>
        <time>2022-06-27T17:55:50Z</time>
      </trkpt>
      <trkpt lat="43.3915" lon="-1.45523">
        <ele>34</ele>
        <time>2022-06-27T17:55:53Z</time>
      </trkpt>
      <trkpt lat="43.39154" lon="-1.45518">
        <ele>33</ele>
        <time>2022-06-27T17:55:54Z</time>
      </trkpt>
      <trkpt lat="43.39132" lon="-1.45481">
        <ele>35</ele>
        <time>2022-06-27T17:56:01Z</time>
      </trkpt>
      <trkpt lat="43.39056" lon="-1.45298">
        <ele>30</ele>
        <time>2022-06-27T17:56:28Z</time>
      </trkpt>
      <trkpt lat="43.3902" lon="-1.45248">
        <ele>25</ele>
        <time>2022-06-27T17:56:37Z</time>
      </trkpt>
      <trkpt lat="43.39013" lon="-1.45242">
        <ele>24</ele>
        <time>2022-06-27T17:56:38Z</time>
      </trkpt>
      <trkpt lat="43.38997" lon="-1.45247">
        <ele>25</ele>
        <time>2022-06-27T17:56:41Z</time>
      </trkpt>
      <trkpt lat="43.38992" lon="-1.4524">
        <ele>24</ele>
        <time>2022-06-27T17:56:43Z</time>
      </trkpt>
      <trkpt lat="43.38991" lon="-1.45222">
        <ele>23</ele>
        <time>2022-06-27T17:56:45Z</time>
      </trkpt>
      <trkpt lat="43.39" lon="-1.45213">
        <ele>22</ele>
        <time>2022-06-27T17:56:47Z</time>
      </trkpt>
      <trkpt lat="43.39014" lon="-1.45222">
        <ele>22</ele>
        <time>2022-06-27T17:56:50Z</time>
      </trkpt>
      <trkpt lat="43.39246" lon="-1.45171">
        <ele>23</ele>
        <time>2022-06-27T17:57:31Z</time>
      </trkpt>
      <trkpt lat="43.39311" lon="-1.45169">
        <ele>23</ele>
        <time>2022-06-27T17:57:43Z</time>
      </trkpt>
      <trkpt lat="43.39334" lon="-1.4516">
        <ele>23</ele>
        <time>2022-06-27T17:57:47Z</time>
      </trkpt>
      <trkpt lat="43.39349" lon="-1.45144">
        <ele>21</ele>
        <time>2022-06-27T17:57:51Z</time>
      </trkpt>
      <trkpt lat="43.39445" lon="-1.45216">
        <ele>21</ele>
        <time>2022-06-27T17:58:10Z</time>
      </trkpt>
      <trkpt lat="43.39451" lon="-1.4523">
        <ele>21</ele>
        <time>2022-06-27T17:58:12Z</time>
      </trkpt>
      <trkpt lat="43.39519" lon="-1.45283">
        <ele>21</ele>
        <time>2022-06-27T17:58:26Z</time>
      </trkpt>
      <trkpt lat="43.39618" lon="-1.4539">
        <ele>16</ele>
        <time>2022-06-27T17:58:49Z</time>
      </trkpt>
      <trkpt lat="43.39695" lon="-1.45423">
        <ele>15</ele>
        <time>2022-06-27T17:59:03Z</time>
      </trkpt>
      <trkpt lat="43.39701" lon="-1.45421">
        <ele>15</ele>
        <time>2022-06-27T17:59:04Z</time>
      </trkpt>
      <trkpt lat="43.39706" lon="-1.4543">
        <ele>15</ele>
        <time>2022-06-27T17:59:05Z</time>
      </trkpt>
      <trkpt lat="43.39726" lon="-1.45427">
        <ele>15</ele>
        <time>2022-06-27T17:59:09Z</time>
      </trkpt>
      <trkpt lat="43.39734" lon="-1.45431">
        <ele>15</ele>
        <time>2022-06-27T17:59:11Z</time>
      </trkpt>
      <trkpt lat="43.39883" lon="-1.45525">
        <ele>13</ele>
        <time>2022-06-27T17:59:40Z</time>
      </trkpt>
      <trkpt lat="43.40003" lon="-1.45663">
        <ele>15</ele>
        <time>2022-06-27T18:00:08Z</time>
      </trkpt>
      <trkpt lat="43.40078" lon="-1.45486">
        <ele>7</ele>
        <time>2022-06-27T18:00:34Z</time>
      </trkpt>
      <trkpt lat="43.40084" lon="-1.45483">
        <ele>7</ele>
        <time>2022-06-27T18:00:35Z</time>
      </trkpt>
      <trkpt lat="43.40109" lon="-1.45426">
        <ele>7</ele>
        <time>2022-06-27T18:00:44Z</time>
      </trkpt>
      <trkpt lat="43.40133" lon="-1.45387">
        <ele>6</ele>
        <time>2022-06-27T18:00:50Z</time>
      </trkpt>
      <trkpt lat="43.40438" lon="-1.4496">
        <ele>7</ele>
        <time>2022-06-27T18:02:08Z</time>
      </trkpt>
      <trkpt lat="43.40453" lon="-1.44951">
        <ele>7</ele>
        <time>2022-06-27T18:02:11Z</time>
      </trkpt>
      <trkpt lat="43.40542" lon="-1.44995">
        <ele>8</ele>
        <time>2022-06-27T18:02:28Z</time>
      </trkpt>
      <trkpt lat="43.40584" lon="-1.45027">
        <ele>7</ele>
        <time>2022-06-27T18:02:36Z</time>
      </trkpt>
      <trkpt lat="43.40674" lon="-1.45036">
        <ele>7</ele>
        <time>2022-06-27T18:02:52Z</time>
      </trkpt>
      <trkpt lat="43.40781" lon="-1.45106">
        <ele>7</ele>
        <time>2022-06-27T18:03:13Z</time>
      </trkpt>
      <trkpt lat="43.40805" lon="-1.45107">
        <ele>7</ele>
        <time>2022-06-27T18:03:17Z</time>
      </trkpt>
      <trkpt lat="43.40813" lon="-1.45102">
        <ele>7</ele>
        <time>2022-06-27T18:03:19Z</time>
      </trkpt>
      <trkpt lat="43.40855" lon="-1.45046">
        <ele>8</ele>
        <time>2022-06-27T18:03:29Z</time>
      </trkpt>
      <trkpt lat="43.40866" lon="-1.45041">
        <ele>8</ele>
        <time>2022-06-27T18:03:32Z</time>
      </trkpt>
      <trkpt lat="43.40965" lon="-1.45074">
        <ele>6</ele>
        <time>2022-06-27T18:03:50Z</time>
      </trkpt>
      <trkpt lat="43.4108" lon="-1.45052">
        <ele>9</ele>
        <time>2022-06-27T18:04:10Z</time>
      </trkpt>
      <trkpt lat="43.41099" lon="-1.45062">
        <ele>12</ele>
        <time>2022-06-27T18:04:14Z</time>
      </trkpt>
      <trkpt lat="43.41233" lon="-1.45192">
        <ele>12</ele>
        <time>2022-06-27T18:04:43Z</time>
      </trkpt>
      <trkpt lat="43.41255" lon="-1.45205">
        <ele>12</ele>
        <time>2022-06-27T18:04:47Z</time>
      </trkpt>
      <trkpt lat="43.41268" lon="-1.45204">
        <ele>12</ele>
        <time>2022-06-27T18:04:50Z</time>
      </trkpt>
      <trkpt lat="43.41349" lon="-1.45165">
        <ele>15</ele>
        <time>2022-06-27T18:05:05Z</time>
      </trkpt>
      <trkpt lat="43.41435" lon="-1.45184">
        <ele>14</ele>
        <time>2022-06-27T18:05:20Z</time>
      </trkpt>
      <trkpt lat="43.41452" lon="-1.45193">
        <ele>16</ele>
        <time>2022-06-27T18:05:24Z</time>
      </trkpt>
      <trkpt lat="43.41513" lon="-1.45258">
        <ele>14</ele>
        <time>2022-06-27T18:05:37Z</time>
      </trkpt>
      <trkpt lat="43.41529" lon="-1.45267">
        <ele>16</ele>
        <time>2022-06-27T18:05:40Z</time>
      </trkpt>
      <trkpt lat="43.42011" lon="-1.45445">
        <ele>17</ele>
        <time>2022-06-27T18:07:09Z</time>
      </trkpt>
      <trkpt lat="43.42027" lon="-1.45457">
        <ele>17</ele>
        <time>2022-06-27T18:07:13Z</time>
      </trkpt>
      <trkpt lat="43.42105" lon="-1.45585">
        <ele>12</ele>
        <time>2022-06-27T18:07:34Z</time>
      </trkpt>
      <trkpt lat="43.42118" lon="-1.45599">
        <ele>11</ele>
        <time>2022-06-27T18:07:37Z</time>
      </trkpt>
      <trkpt lat="43.42153" lon="-1.45615">
        <ele>11</ele>
        <time>2022-06-27T18:07:44Z</time>
      </trkpt>
      <trkpt lat="43.42209" lon="-1.456">
        <ele>10</ele>
        <time>2022-06-27T18:07:54Z</time>
      </trkpt>
      <trkpt lat="43.42261" lon="-1.45548">
        <ele>13</ele>
        <time>2022-06-27T18:08:05Z</time>
      </trkpt>
      <trkpt lat="43.42276" lon="-1.45526">
        <ele>13</ele>
        <time>2022-06-27T18:08:09Z</time>
      </trkpt>
      <trkpt lat="43.42306" lon="-1.45435">
        <ele>13</ele>
        <time>2022-06-27T18:08:22Z</time>
      </trkpt>
      <trkpt lat="43.42326" lon="-1.45413">
        <ele>10</ele>
        <time>2022-06-27T18:08:27Z</time>
      </trkpt>
      <trkpt lat="43.42388" lon="-1.45397">
        <ele>12</ele>
        <time>2022-06-27T18:08:38Z</time>
      </trkpt>
      <trkpt lat="43.42488" lon="-1.45383">
        <ele>12</ele>
        <time>2022-06-27T18:08:56Z</time>
      </trkpt>
      <trkpt lat="43.42593" lon="-1.45327">
        <ele>10</ele>
        <time>2022-06-27T18:09:16Z</time>
      </trkpt>
      <trkpt lat="43.42666" lon="-1.45261">
        <ele>13</ele>
        <time>2022-06-27T18:09:31Z</time>
      </trkpt>
      <trkpt lat="43.42707" lon="-1.45242">
        <ele>15</ele>
        <time>2022-06-27T18:09:39Z</time>
      </trkpt>
      <trkpt lat="43.42723" lon="-1.45247">
        <ele>14</ele>
        <time>2022-06-27T18:09:42Z</time>
      </trkpt>
      <trkpt lat="43.42867" lon="-1.4541">
        <ele>11</ele>
        <time>2022-06-27T18:10:15Z</time>
      </trkpt>
      <trkpt lat="43.42999" lon="-1.45498">
        <ele>8</ele>
        <time>2022-06-27T18:10:41Z</time>
      </trkpt>
      <trkpt lat="43.43036" lon="-1.45507">
        <ele>7</ele>
        <time>2022-06-27T18:10:48Z</time>
      </trkpt>
      <trkpt lat="43.4309" lon="-1.45507">
        <ele>6</ele>
        <time>2022-06-27T18:10:57Z</time>
      </trkpt>
      <trkpt lat="43.43158" lon="-1.4553">
        <ele>7</ele>
        <time>2022-06-27T18:11:10Z</time>
      </trkpt>
      <trkpt lat="43.43177" lon="-1.45526">
        <ele>8</ele>
        <time>2022-06-27T18:11:13Z</time>
      </trkpt>
      <trkpt lat="43.43202" lon="-1.45498">
        <ele>14</ele>
        <time>2022-06-27T18:11:19Z</time>
      </trkpt>
      <trkpt lat="43.43243" lon="-1.45341">
        <ele>18</ele>
        <time>2022-06-27T18:11:41Z</time>
      </trkpt>
      <trkpt lat="43.43336" lon="-1.4524">
        <ele>27</ele>
        <time>2022-06-27T18:12:02Z</time>
      </trkpt>
      <trkpt lat="43.43413" lon="-1.45137">
        <ele>35</ele>
        <time>2022-06-27T18:12:21Z</time>
      </trkpt>
      <trkpt lat="43.43426" lon="-1.45131">
        <ele>37</ele>
        <time>2022-06-27T18:12:23Z</time>
      </trkpt>
      <trkpt lat="43.43457" lon="-1.45134">
        <ele>40</ele>
        <time>2022-06-27T18:12:29Z</time>
      </trkpt>
      <trkpt lat="43.43491" lon="-1.45157">
        <ele>45</ele>
        <time>2022-06-27T18:12:35Z</time>
      </trkpt>
      <trkpt lat="43.43513" lon="-1.452">
        <ele>47</ele>
        <time>2022-06-27T18:12:42Z</time>
      </trkpt>
      <trkpt lat="43.43544" lon="-1.45231">
        <ele>48</ele>
        <time>2022-06-27T18:12:49Z</time>
      </trkpt>
      <trkpt lat="43.4365" lon="-1.45243">
        <ele>50</ele>
        <time>2022-06-27T18:13:08Z</time>
      </trkpt>
      <trkpt lat="43.43714" lon="-1.45262">
        <ele>54</ele>
        <time>2022-06-27T18:13:20Z</time>
      </trkpt>
      <trkpt lat="43.4373" lon="-1.45273">
        <ele>55</ele>
        <time>2022-06-27T18:13:23Z</time>
      </trkpt>
      <trkpt lat="43.43798" lon="-1.45438">
        <ele>64</ele>
        <time>2022-06-27T18:13:47Z</time>
      </trkpt>
      <trkpt lat="43.43822" lon="-1.45475">
        <ele>63</ele>
        <time>2022-06-27T18:13:54Z</time>
      </trkpt>
      <trkpt lat="43.43875" lon="-1.45514">
        <ele>61</ele>
        <time>2022-06-27T18:14:04Z</time>
      </trkpt>
      <trkpt lat="43.43967" lon="-1.45545">
        <ele>62</ele>
        <time>2022-06-27T18:14:21Z</time>
      </trkpt>
      <trkpt lat="43.44001" lon="-1.45583">
        <ele>61</ele>
        <time>2022-06-27T18:14:29Z</time>
      </trkpt>
      <trkpt lat="43.44035" lon="-1.4561">
        <ele>62</ele>
        <time>2022-06-27T18:14:36Z</time>
      </trkpt>
      <trkpt lat="43.44086" lon="-1.4569">
        <ele>62</ele>
        <time>2022-06-27T18:14:50Z</time>
      </trkpt>
      <trkpt lat="43.44148" lon="-1.45757">
        <ele>62</ele>
        <time>2022-06-27T18:15:04Z</time>
      </trkpt>
      <trkpt lat="43.44194" lon="-1.45817">
        <ele>62</ele>
        <time>2022-06-27T18:15:15Z</time>
      </trkpt>
      <trkpt lat="43.44217" lon="-1.45835">
        <ele>61</ele>
        <time>2022-06-27T18:15:20Z</time>
      </trkpt>
      <trkpt lat="43.44228" lon="-1.45832">
        <ele>61</ele>
        <time>2022-06-27T18:15:22Z</time>
      </trkpt>
      <trkpt lat="43.44231" lon="-1.45851">
        <ele>62</ele>
        <time>2022-06-27T18:15:24Z</time>
      </trkpt>
      <trkpt lat="43.44248" lon="-1.45876">
        <ele>62</ele>
        <time>2022-06-27T18:15:29Z</time>
      </trkpt>
      <trkpt lat="43.44272" lon="-1.45931">
        <ele>62</ele>
        <time>2022-06-27T18:15:37Z</time>
      </trkpt>
      <trkpt lat="43.44375" lon="-1.46065">
        <ele>61</ele>
        <time>2022-06-27T18:16:02Z</time>
      </trkpt>
      <trkpt lat="43.44413" lon="-1.46106">
        <ele>62</ele>
        <time>2022-06-27T18:16:11Z</time>
      </trkpt>
      <trkpt lat="43.44461" lon="-1.46134">
        <ele>61</ele>
        <time>2022-06-27T18:16:20Z</time>
      </trkpt>
      <trkpt lat="43.44542" lon="-1.46153">
        <ele>60</ele>
        <time>2022-06-27T18:16:35Z</time>
      </trkpt>
      <trkpt lat="43.44616" lon="-1.46162">
        <ele>57</ele>
        <time>2022-06-27T18:16:48Z</time>
      </trkpt>
      <trkpt lat="43.44821" lon="-1.46251">
        <ele>60</ele>
        <time>2022-06-27T18:17:26Z</time>
      </trkpt>
      <trkpt lat="43.44971" lon="-1.46439">
        <ele>66</ele>
        <time>2022-06-27T18:18:02Z</time>
      </trkpt>
      <trkpt lat="43.45057" lon="-1.46595">
        <ele>64</ele>
        <time>2022-06-27T18:18:28Z</time>
      </trkpt>
      <trkpt lat="43.45102" lon="-1.4663">
        <ele>62</ele>
        <time>2022-06-27T18:18:37Z</time>
      </trkpt>
      <trkpt lat="43.45141" lon="-1.46637">
        <ele>59</ele>
        <time>2022-06-27T18:18:44Z</time>
      </trkpt>
      <trkpt lat="43.45206" lon="-1.46629">
        <ele>59</ele>
        <time>2022-06-27T18:18:55Z</time>
      </trkpt>
      <trkpt lat="43.45247" lon="-1.46609">
        <ele>60</ele>
        <time>2022-06-27T18:19:03Z</time>
      </trkpt>
      <trkpt lat="43.45289" lon="-1.46573">
        <ele>60</ele>
        <time>2022-06-27T18:19:12Z</time>
      </trkpt>
      <trkpt lat="43.45347" lon="-1.46459">
        <ele>59</ele>
        <time>2022-06-27T18:19:30Z</time>
      </trkpt>
      <trkpt lat="43.45359" lon="-1.46449">
        <ele>58</ele>
        <time>2022-06-27T18:19:32Z</time>
      </trkpt>
      <trkpt lat="43.45589" lon="-1.4633">
        <ele>37</ele>
        <time>2022-06-27T18:20:16Z</time>
      </trkpt>
      <trkpt lat="43.45656" lon="-1.46271">
        <ele>35</ele>
        <time>2022-06-27T18:20:30Z</time>
      </trkpt>
      <trkpt lat="43.45704" lon="-1.462">
        <ele>33</ele>
        <time>2022-06-27T18:20:43Z</time>
      </trkpt>
      <trkpt lat="43.4572" lon="-1.46163">
        <ele>32</ele>
        <time>2022-06-27T18:20:48Z</time>
      </trkpt>
      <trkpt lat="43.45727" lon="-1.46042">
        <ele>26</ele>
        <time>2022-06-27T18:21:04Z</time>
      </trkpt>
      <trkpt lat="43.45744" lon="-1.45984">
        <ele>23</ele>
        <time>2022-06-27T18:21:12Z</time>
      </trkpt>
      <trkpt lat="43.45772" lon="-1.45943">
        <ele>23</ele>
        <time>2022-06-27T18:21:19Z</time>
      </trkpt>
      <trkpt lat="43.45848" lon="-1.4589">
        <ele>22</ele>
        <time>2022-06-27T18:21:35Z</time>
      </trkpt>
      <trkpt lat="43.45874" lon="-1.45859">
        <ele>22</ele>
        <time>2022-06-27T18:21:41Z</time>
      </trkpt>
      <trkpt lat="43.45892" lon="-1.45816">
        <ele>21</ele>
        <time>2022-06-27T18:21:47Z</time>
      </trkpt>
      <trkpt lat="43.45901" lon="-1.45756">
        <ele>17</ele>
        <time>2022-06-27T18:21:55Z</time>
      </trkpt>
      <trkpt lat="43.45913" lon="-1.45721">
        <ele>16</ele>
        <time>2022-06-27T18:22:00Z</time>
      </trkpt>
      <trkpt lat="43.45983" lon="-1.45632">
        <ele>12</ele>
        <time>2022-06-27T18:22:17Z</time>
      </trkpt>
      <trkpt lat="43.46042" lon="-1.45531">
        <ele>10</ele>
        <time>2022-06-27T18:22:34Z</time>
      </trkpt>
      <trkpt lat="43.46238" lon="-1.45342">
        <ele>14</ele>
        <time>2022-06-27T18:23:16Z</time>
      </trkpt>
      <trkpt lat="43.46534" lon="-1.45136">
        <ele>2</ele>
        <time>2022-06-27T18:24:15Z</time>
      </trkpt>
      <trkpt lat="43.46595" lon="-1.45055">
        <ele>1</ele>
        <time>2022-06-27T18:24:30Z</time>
      </trkpt>
      <trkpt lat="43.46618" lon="-1.4501">
        <ele>1</ele>
        <time>2022-06-27T18:24:37Z</time>
      </trkpt>
      <trkpt lat="43.46651" lon="-1.44916">
        <ele>3</ele>
        <time>2022-06-27T18:24:51Z</time>
      </trkpt>
      <trkpt lat="43.46666" lon="-1.44892">
        <ele>4</ele>
        <time>2022-06-27T18:24:55Z</time>
      </trkpt>
      <trkpt lat="43.46687" lon="-1.44879">
        <ele>7</ele>
        <time>2022-06-27T18:24:59Z</time>
      </trkpt>
      <trkpt lat="43.46704" lon="-1.44879">
        <ele>8</ele>
        <time>2022-06-27T18:25:02Z</time>
      </trkpt>
      <trkpt lat="43.46851" lon="-1.44922">
        <ele>16</ele>
        <time>2022-06-27T18:25:29Z</time>
      </trkpt>
      <trkpt lat="43.46876" lon="-1.4494">
        <ele>16</ele>
        <time>2022-06-27T18:25:34Z</time>
      </trkpt>
      <trkpt lat="43.4691" lon="-1.44986">
        <ele>15</ele>
        <time>2022-06-27T18:25:42Z</time>
      </trkpt>
      <trkpt lat="43.46946" lon="-1.45002">
        <ele>17</ele>
        <time>2022-06-27T18:25:49Z</time>
      </trkpt>
      <trkpt lat="43.47002" lon="-1.45041">
        <ele>19</ele>
        <time>2022-06-27T18:26:00Z</time>
      </trkpt>
      <trkpt lat="43.47008" lon="-1.45042">
        <ele>19</ele>
        <time>2022-06-27T18:26:01Z</time>
      </trkpt>
      <trkpt lat="43.47011" lon="-1.45032">
        <ele>20</ele>
        <time>2022-06-27T18:26:03Z</time>
      </trkpt>
      <trkpt lat="43.47022" lon="-1.45027">
        <ele>20</ele>
        <time>2022-06-27T18:26:05Z</time>
      </trkpt>
      <trkpt lat="43.47038" lon="-1.44893">
        <ele>25</ele>
        <time>2022-06-27T18:26:22Z</time>
      </trkpt>
      <trkpt lat="43.47038" lon="-1.44721">
        <ele>31</ele>
        <time>2022-06-27T18:26:45Z</time>
      </trkpt>
      <trkpt lat="43.47032" lon="-1.44689">
        <ele>32</ele>
        <time>2022-06-27T18:26:49Z</time>
      </trkpt>
      <trkpt lat="43.46997" lon="-1.44588">
        <ele>29</ele>
        <time>2022-06-27T18:27:03Z</time>
      </trkpt>
      <trkpt lat="43.46977" lon="-1.44577">
        <ele>29</ele>
        <time>2022-06-27T18:27:07Z</time>
      </trkpt>
      <trkpt lat="43.46956" lon="-1.44583">
        <ele>30</ele>
        <time>2022-06-27T18:27:11Z</time>
      </trkpt>
      <trkpt lat="43.46942" lon="-1.44568">
        <ele>29</ele>
        <time>2022-06-27T18:27:14Z</time>
      </trkpt>
      <trkpt lat="43.46939" lon="-1.44542">
        <ele>29</ele>
        <time>2022-06-27T18:27:17Z</time>
      </trkpt>
      <trkpt lat="43.46954" lon="-1.44519">
        <ele>28</ele>
        <time>2022-06-27T18:27:21Z</time>
      </trkpt>
      <trkpt lat="43.46968" lon="-1.44518">
        <ele>28</ele>
        <time>2022-06-27T18:27:24Z</time>
      </trkpt>
      <trkpt lat="43.4699" lon="-1.445">
        <ele>29</ele>
        <time>2022-06-27T18:27:28Z</time>
      </trkpt>
      <trkpt lat="43.4704" lon="-1.44417">
        <ele>29</ele>
        <time>2022-06-27T18:27:42Z</time>
      </trkpt>
      <trkpt lat="43.47134" lon="-1.44313">
        <ele>17</ele>
        <time>2022-06-27T18:28:04Z</time>
      </trkpt>
      <trkpt lat="43.47171" lon="-1.44282">
        <ele>16</ele>
        <time>2022-06-27T18:28:12Z</time>
      </trkpt>
      <trkpt lat="43.47178" lon="-1.44267">
        <ele>16</ele>
        <time>2022-06-27T18:28:14Z</time>
      </trkpt>
      <trkpt lat="43.4719" lon="-1.44267">
        <ele>15</ele>
        <time>2022-06-27T18:28:16Z</time>
      </trkpt>
      <trkpt lat="43.47236" lon="-1.44248">
        <ele>15</ele>
        <time>2022-06-27T18:28:25Z</time>
      </trkpt>
      <trkpt lat="43.4738" lon="-1.44247">
        <ele>10</ele>
        <time>2022-06-27T18:28:50Z</time>
      </trkpt>
      <trkpt lat="43.47444" lon="-1.44241">
        <ele>7</ele>
        <time>2022-06-27T18:29:02Z</time>
      </trkpt>
      <trkpt lat="43.47483" lon="-1.44229">
        <ele>5</ele>
        <time>2022-06-27T18:29:09Z</time>
      </trkpt>
      <trkpt lat="43.47502" lon="-1.44205">
        <ele>5</ele>
        <time>2022-06-27T18:29:13Z</time>
      </trkpt>
      <trkpt lat="43.47517" lon="-1.44198">
        <ele>5</ele>
        <time>2022-06-27T18:29:16Z</time>
      </trkpt>
      <trkpt lat="43.47529" lon="-1.44202">
        <ele>4</ele>
        <time>2022-06-27T18:29:18Z</time>
      </trkpt>
      <trkpt lat="43.4754" lon="-1.44218">
        <ele>4</ele>
        <time>2022-06-27T18:29:21Z</time>
      </trkpt>
      <trkpt lat="43.47581" lon="-1.44226">
        <ele>2</ele>
        <time>2022-06-27T18:29:29Z</time>
      </trkpt>
      <trkpt lat="43.47964" lon="-1.44179">
        <ele>2</ele>
        <time>2022-06-27T18:30:37Z</time>
      </trkpt>
      <trkpt lat="43.48016" lon="-1.44163">
        <ele>2</ele>
        <time>2022-06-27T18:30:46Z</time>
      </trkpt>
      <trkpt lat="43.48033" lon="-1.4414">
        <ele>2</ele>
        <time>2022-06-27T18:30:51Z</time>
      </trkpt>
      <trkpt lat="43.48052" lon="-1.44139">
        <ele>2</ele>
        <time>2022-06-27T18:30:54Z</time>
      </trkpt>
      <trkpt lat="43.48062" lon="-1.44145">
        <ele>3</ele>
        <time>2022-06-27T18:30:56Z</time>
      </trkpt>
      <trkpt lat="43.48073" lon="-1.44168">
        <ele>3</ele>
        <time>2022-06-27T18:31:00Z</time>
      </trkpt>
      <trkpt lat="43.48072" lon="-1.44196">
        <ele>3</ele>
        <time>2022-06-27T18:31:03Z</time>
      </trkpt>
      <trkpt lat="43.48066" lon="-1.44208">
        <ele>3</ele>
        <time>2022-06-27T18:31:05Z</time>
      </trkpt>
      <trkpt lat="43.4807" lon="-1.44234">
        <ele>2</ele>
        <time>2022-06-27T18:31:08Z</time>
      </trkpt>
      <trkpt lat="43.48081" lon="-1.44263">
        <ele>2</ele>
        <time>2022-06-27T18:31:13Z</time>
      </trkpt>
      <trkpt lat="43.48104" lon="-1.44299">
        <ele>2</ele>
        <time>2022-06-27T18:31:19Z</time>
      </trkpt>
      <trkpt lat="43.48137" lon="-1.4433">
        <ele>3</ele>
        <time>2022-06-27T18:31:26Z</time>
      </trkpt>
      <trkpt lat="43.48156" lon="-1.44336">
        <ele>4</ele>
        <time>2022-06-27T18:31:29Z</time>
      </trkpt>
      <trkpt lat="43.48166" lon="-1.44328">
        <ele>4</ele>
        <time>2022-06-27T18:31:32Z</time>
      </trkpt>
      <trkpt lat="43.48181" lon="-1.44331">
        <ele>4</ele>
        <time>2022-06-27T18:31:34Z</time>
      </trkpt>
      <trkpt lat="43.48188" lon="-1.44341">
        <ele>4</ele>
        <time>2022-06-27T18:31:36Z</time>
      </trkpt>
      <trkpt lat="43.4819" lon="-1.44362">
        <ele>3</ele>
        <time>2022-06-27T18:31:39Z</time>
      </trkpt>
      <trkpt lat="43.48282" lon="-1.44475">
        <ele>3</ele>
        <time>2022-06-27T18:32:01Z</time>
      </trkpt>
      <trkpt lat="43.4837" lon="-1.44519">
        <ele>3</ele>
        <time>2022-06-27T18:32:17Z</time>
      </trkpt>
      <trkpt lat="43.48392" lon="-1.44544">
        <ele>3</ele>
        <time>2022-06-27T18:32:22Z</time>
      </trkpt>
      <trkpt lat="43.48413" lon="-1.44605">
        <ele>3</ele>
        <time>2022-06-27T18:32:31Z</time>
      </trkpt>
      <trkpt lat="43.48412" lon="-1.44666">
        <ele>3</ele>
        <time>2022-06-27T18:32:39Z</time>
      </trkpt>
      <trkpt lat="43.48421" lon="-1.44704">
        <ele>3</ele>
        <time>2022-06-27T18:32:44Z</time>
      </trkpt>
      <trkpt lat="43.48417" lon="-1.44729">
        <ele>4</ele>
        <time>2022-06-27T18:32:47Z</time>
      </trkpt>
      <trkpt lat="43.48398" lon="-1.44743">
        <ele>4</ele>
        <time>2022-06-27T18:32:51Z</time>
      </trkpt>
      <trkpt lat="43.48384" lon="-1.44736">
        <ele>5</ele>
        <time>2022-06-27T18:32:54Z</time>
      </trkpt>
      <trkpt lat="43.48375" lon="-1.44711">
        <ele>5</ele>
        <time>2022-06-27T18:32:58Z</time>
      </trkpt>
      <trkpt lat="43.48351" lon="-1.44673">
        <ele>5</ele>
        <time>2022-06-27T18:33:04Z</time>
      </trkpt>
      <trkpt lat="43.48366" lon="-1.44486">
        <ele>3</ele>
        <time>2022-06-27T18:33:28Z</time>
      </trkpt>
      <trkpt lat="43.4838" lon="-1.44448">
        <ele>3</ele>
        <time>2022-06-27T18:33:34Z</time>
      </trkpt>
      <trkpt lat="43.48408" lon="-1.44408">
        <ele>1</ele>
        <time>2022-06-27T18:33:41Z</time>
      </trkpt>
      <trkpt lat="43.48439" lon="-1.44345">
        <ele>1</ele>
        <time>2022-06-27T18:33:51Z</time>
      </trkpt>
      <trkpt lat="43.48523" lon="-1.44128">
        <ele>2</ele>
        <time>2022-06-27T18:34:23Z</time>
      </trkpt>
      <trkpt lat="43.48567" lon="-1.4404">
        <ele>2</ele>
        <time>2022-06-27T18:34:36Z</time>
      </trkpt>
      <trkpt lat="43.48637" lon="-1.43867">
        <ele>1</ele>
        <time>2022-06-27T18:35:02Z</time>
      </trkpt>
      <trkpt lat="43.48738" lon="-1.43669">
        <ele>1</ele>
        <time>2022-06-27T18:35:33Z</time>
      </trkpt>
      <trkpt lat="43.48778" lon="-1.43544">
        <ele>1</ele>
        <time>2022-06-27T18:35:51Z</time>
      </trkpt>
      <trkpt lat="43.48842" lon="-1.43403">
        <ele>2</ele>
        <time>2022-06-27T18:36:12Z</time>
      </trkpt>
      <trkpt lat="43.48849" lon="-1.43359">
        <ele>2</ele>
        <time>2022-06-27T18:36:18Z</time>
      </trkpt>
      <trkpt lat="43.48836" lon="-1.43256">
        <ele>3</ele>
        <time>2022-06-27T18:36:32Z</time>
      </trkpt>
      <trkpt lat="43.48839" lon="-1.43233">
        <ele>3</ele>
        <time>2022-06-27T18:36:35Z</time>
      </trkpt>
      <trkpt lat="43.48854" lon="-1.43213">
        <ele>2</ele>
        <time>2022-06-27T18:36:38Z</time>
      </trkpt>
      <trkpt lat="43.48872" lon="-1.43207">
        <ele>2</ele>
        <time>2022-06-27T18:36:42Z</time>
      </trkpt>
      <trkpt lat="43.48887" lon="-1.43212">
        <ele>2</ele>
        <time>2022-06-27T18:36:44Z</time>
      </trkpt>
      <trkpt lat="43.4891" lon="-1.4324">
        <ele>2</ele>
        <time>2022-06-27T18:36:50Z</time>
      </trkpt>
      <trkpt lat="43.48949" lon="-1.43237">
        <ele>1</ele>
        <time>2022-06-27T18:36:57Z</time>
      </trkpt>
      <trkpt lat="43.48959" lon="-1.43229">
        <ele>1</ele>
        <time>2022-06-27T18:36:59Z</time>
      </trkpt>
      <trkpt lat="43.49055" lon="-1.43124">
        <ele>1</ele>
        <time>2022-06-27T18:37:21Z</time>
      </trkpt>
      <trkpt lat="43.4916" lon="-1.42982">
        <ele>2.2</ele>
        <time>2022-06-27T18:37:47Z</time>
      </trkpt>
      <trkpt lat="43.4924" lon="-1.4286">
        <ele>1</ele>
        <time>2022-06-27T18:38:08Z</time>
      </trkpt>
      <trkpt lat="43.49259" lon="-1.42819">
        <ele>1</ele>
        <time>2022-06-27T18:38:14Z</time>
      </trkpt>
      <trkpt lat="43.49268" lon="-1.42778">
        <ele>1</ele>
        <time>2022-06-27T18:38:20Z</time>
      </trkpt>
      <trkpt lat="43.49277" lon="-1.42611">
        <ele>5</ele>
        <time>2022-06-27T18:38:41Z</time>
      </trkpt>
      <trkpt lat="43.49262" lon="-1.42475">
        <ele>5</ele>
        <time>2022-06-27T18:38:59Z</time>
      </trkpt>
      <trkpt lat="43.49244" lon="-1.42447">
        <ele>5</ele>
        <time>2022-06-27T18:39:04Z</time>
      </trkpt>
      <trkpt lat="43.49242" lon="-1.42429">
        <ele>4</ele>
        <time>2022-06-27T18:39:06Z</time>
      </trkpt>
      <trkpt lat="43.49252" lon="-1.42418">
        <ele>4</ele>
        <time>2022-06-27T18:39:09Z</time>
      </trkpt>
      <trkpt lat="43.49267" lon="-1.42429">
        <ele>4</ele>
        <time>2022-06-27T18:39:12Z</time>
      </trkpt>
      <trkpt lat="43.49282" lon="-1.42417">
        <ele>4</ele>
        <time>2022-06-27T18:39:15Z</time>
      </trkpt>
      <trkpt lat="43.49333" lon="-1.42286">
        <ele>1</ele>
        <time>2022-06-27T18:39:34Z</time>
      </trkpt>
      <trkpt lat="43.49354" lon="-1.42246">
        <ele>2</ele>
        <time>2022-06-27T18:39:40Z</time>
      </trkpt>
      <trkpt lat="43.49407" lon="-1.42177">
        <ele>2</ele>
        <time>2022-06-27T18:39:53Z</time>
      </trkpt>
      <trkpt lat="43.495" lon="-1.42086">
        <ele>1</ele>
        <time>2022-06-27T18:40:14Z</time>
      </trkpt>
      <trkpt lat="43.49527" lon="-1.42011">
        <ele>3</ele>
        <time>2022-06-27T18:40:24Z</time>
      </trkpt>
      <trkpt lat="43.49547" lon="-1.41871">
        <ele>1.6</ele>
        <time>2022-06-27T18:40:43Z</time>
      </trkpt>
      <trkpt lat="43.49556" lon="-1.4178">
        <ele>3</ele>
        <time>2022-06-27T18:40:55Z</time>
      </trkpt>
      <trkpt lat="43.49562" lon="-1.41587">
        <ele>2</ele>
        <time>2022-06-27T18:41:20Z</time>
      </trkpt>
      <trkpt lat="43.49547" lon="-1.41115">
        <ele>1.4</ele>
        <time>2022-06-27T18:42:21Z</time>
      </trkpt>
      <trkpt lat="43.49542" lon="-1.41077">
        <ele>2</ele>
        <time>2022-06-27T18:42:26Z</time>
      </trkpt>
      <trkpt lat="43.4952" lon="-1.41013">
        <ele>2.3</ele>
        <time>2022-06-27T18:42:35Z</time>
      </trkpt>
      <trkpt lat="43.49512" lon="-1.4095">
        <ele>1</ele>
        <time>2022-06-27T18:42:43Z</time>
      </trkpt>
      <trkpt lat="43.49532" lon="-1.40626">
        <ele>1</ele>
        <time>2022-06-27T18:43:25Z</time>
      </trkpt>
      <trkpt lat="43.49507" lon="-1.4048">
        <ele>1</ele>
        <time>2022-06-27T18:43:44Z</time>
      </trkpt>
      <trkpt lat="43.49491" lon="-1.40107">
        <ele>1</ele>
        <time>2022-06-27T18:44:33Z</time>
      </trkpt>
      <trkpt lat="43.49461" lon="-1.39955">
        <ele>1</ele>
        <time>2022-06-27T18:44:53Z</time>
      </trkpt>
      <trkpt lat="43.49397" lon="-1.39796">
        <ele>2.2</ele>
        <time>2022-06-27T18:45:16Z</time>
      </trkpt>
      <trkpt lat="43.49373" lon="-1.39716">
        <ele>2</ele>
        <time>2022-06-27T18:45:28Z</time>
      </trkpt>
      <trkpt lat="43.49348" lon="-1.39585">
        <ele>2</ele>
        <time>2022-06-27T18:45:45Z</time>
      </trkpt>
      <trkpt lat="43.49319" lon="-1.39365">
        <ele>2</ele>
        <time>2022-06-27T18:46:14Z</time>
      </trkpt>
      <trkpt lat="43.49298" lon="-1.39249">
        <ele>4</ele>
        <time>2022-06-27T18:46:29Z</time>
      </trkpt>
      <trkpt lat="43.49271" lon="-1.39162">
        <ele>1</ele>
        <time>2022-06-27T18:46:42Z</time>
      </trkpt>
      <trkpt lat="43.49205" lon="-1.39007">
        <ele>2</ele>
        <time>2022-06-27T18:47:05Z</time>
      </trkpt>
      <trkpt lat="43.49147" lon="-1.38819">
        <ele>2.4</ele>
        <time>2022-06-27T18:47:31Z</time>
      </trkpt>
      <trkpt lat="43.4913" lon="-1.38739">
        <ele>2</ele>
        <time>2022-06-27T18:47:42Z</time>
      </trkpt>
      <trkpt lat="43.49124" lon="-1.3845">
        <ele>1</ele>
        <time>2022-06-27T18:48:19Z</time>
      </trkpt>
      <trkpt lat="43.4913" lon="-1.38203">
        <ele>2</ele>
        <time>2022-06-27T18:48:51Z</time>
      </trkpt>
      <trkpt lat="43.49127" lon="-1.37542">
        <ele>1.6</ele>
        <time>2022-06-27T18:50:16Z</time>
      </trkpt>
      <trkpt lat="43.49143" lon="-1.37365">
        <ele>1</ele>
        <time>2022-06-27T18:50:39Z</time>
      </trkpt>
      <trkpt lat="43.49202" lon="-1.37016">
        <ele>1</ele>
        <time>2022-06-27T18:51:26Z</time>
      </trkpt>
      <trkpt lat="43.49297" lon="-1.36599">
        <ele>1</ele>
        <time>2022-06-27T18:52:22Z</time>
      </trkpt>
      <trkpt lat="43.49428" lon="-1.36196">
        <ele>1</ele>
        <time>2022-06-27T18:53:19Z</time>
      </trkpt>
      <trkpt lat="43.49485" lon="-1.36067">
        <ele>2</ele>
        <time>2022-06-27T18:53:39Z</time>
      </trkpt>
      <trkpt lat="43.49486" lon="-1.36053">
        <ele>3</ele>
        <time>2022-06-27T18:53:40Z</time>
      </trkpt>
      <trkpt lat="43.49496" lon="-1.36042">
        <ele>4</ele>
        <time>2022-06-27T18:53:43Z</time>
      </trkpt>
      <trkpt lat="43.49524" lon="-1.3598">
        <ele>6</ele>
        <time>2022-06-27T18:53:52Z</time>
      </trkpt>
      <trkpt lat="43.49537" lon="-1.35925">
        <ele>7</ele>
        <time>2022-06-27T18:54:00Z</time>
      </trkpt>
      <trkpt lat="43.49543" lon="-1.35802">
        <ele>7</ele>
        <time>2022-06-27T18:54:16Z</time>
      </trkpt>
      <trkpt lat="43.49522" lon="-1.35588">
        <ele>6</ele>
        <time>2022-06-27T18:54:43Z</time>
      </trkpt>
      <trkpt lat="43.49522" lon="-1.3555">
        <ele>5</ele>
        <time>2022-06-27T18:54:48Z</time>
      </trkpt>
      <trkpt lat="43.49535" lon="-1.3549">
        <ele>3</ele>
        <time>2022-06-27T18:54:56Z</time>
      </trkpt>
      <trkpt lat="43.49624" lon="-1.35223">
        <ele>2</ele>
        <time>2022-06-27T18:55:34Z</time>
      </trkpt>
      <trkpt lat="43.49673" lon="-1.35109">
        <ele>2</ele>
        <time>2022-06-27T18:55:51Z</time>
      </trkpt>
      <trkpt lat="43.49723" lon="-1.3502">
        <ele>2</ele>
        <time>2022-06-27T18:56:06Z</time>
      </trkpt>
      <trkpt lat="43.49917" lon="-1.34721">
        <ele>2</ele>
        <time>2022-06-27T18:56:58Z</time>
      </trkpt>
      <trkpt lat="43.49972" lon="-1.34606">
        <ele>2</ele>
        <time>2022-06-27T18:57:16Z</time>
      </trkpt>
      <trkpt lat="43.50026" lon="-1.34443">
        <ele>2</ele>
        <time>2022-06-27T18:57:39Z</time>
      </trkpt>
      <trkpt lat="43.50108" lon="-1.34112">
        <ele>2</ele>
        <time>2022-06-27T18:58:24Z</time>
      </trkpt>
      <trkpt lat="43.50118" lon="-1.34004">
        <ele>3</ele>
        <time>2022-06-27T18:58:38Z</time>
      </trkpt>
      <trkpt lat="43.50137" lon="-1.33193">
        <ele>2</ele>
        <time>2022-06-27T19:00:23Z</time>
      </trkpt>
      <trkpt lat="43.50124" lon="-1.33043">
        <ele>3</ele>
        <time>2022-06-27T19:00:42Z</time>
      </trkpt>
      <trkpt lat="43.50151" lon="-1.329">
        <ele>1</ele>
        <time>2022-06-27T19:01:01Z</time>
      </trkpt>
      <trkpt lat="43.50154" lon="-1.3283">
        <ele>1.5</ele>
        <time>2022-06-27T19:01:10Z</time>
      </trkpt>
      <trkpt lat="43.50142" lon="-1.32637">
        <ele>3.1</ele>
        <time>2022-06-27T19:01:35Z</time>
      </trkpt>
      <trkpt lat="43.50106" lon="-1.32458">
        <ele>1</ele>
        <time>2022-06-27T19:01:59Z</time>
      </trkpt>
      <trkpt lat="43.50099" lon="-1.3233">
        <ele>2</ele>
        <time>2022-06-27T19:02:16Z</time>
      </trkpt>
      <trkpt lat="43.50105" lon="-1.3224">
        <ele>1</ele>
        <time>2022-06-27T19:02:27Z</time>
      </trkpt>
      <trkpt lat="43.50147" lon="-1.31934">
        <ele>1</ele>
        <time>2022-06-27T19:03:08Z</time>
      </trkpt>
      <trkpt lat="43.50153" lon="-1.31836">
        <ele>2</ele>
        <time>2022-06-27T19:03:20Z</time>
      </trkpt>
      <trkpt lat="43.50145" lon="-1.31744">
        <ele>2</ele>
        <time>2022-06-27T19:03:32Z</time>
      </trkpt>
      <trkpt lat="43.50127" lon="-1.31682">
        <ele>4</ele>
        <time>2022-06-27T19:03:41Z</time>
      </trkpt>
      <trkpt lat="43.49894" lon="-1.31127">
        <ele>4</ele>
        <time>2022-06-27T19:05:04Z</time>
      </trkpt>
      <trkpt lat="43.49875" lon="-1.31074">
        <ele>4</ele>
        <time>2022-06-27T19:05:11Z</time>
      </trkpt>
      <trkpt lat="43.49862" lon="-1.31015">
        <ele>4</ele>
        <time>2022-06-27T19:05:19Z</time>
      </trkpt>
      <trkpt lat="43.49853" lon="-1.30943">
        <ele>4</ele>
        <time>2022-06-27T19:05:29Z</time>
      </trkpt>
      <trkpt lat="43.49856" lon="-1.30818">
        <ele>3</ele>
        <time>2022-06-27T19:05:45Z</time>
      </trkpt>
      <trkpt lat="43.49964" lon="-1.30136">
        <ele>3</ele>
        <time>2022-06-27T19:07:15Z</time>
      </trkpt>
      <trkpt lat="43.49963" lon="-1.29889">
        <ele>4</ele>
        <time>2022-06-27T19:07:47Z</time>
      </trkpt>
      <trkpt lat="43.49956" lon="-1.2985">
        <ele>4</ele>
        <time>2022-06-27T19:07:52Z</time>
      </trkpt>
      <trkpt lat="43.49941" lon="-1.29823">
        <ele>4</ele>
        <time>2022-06-27T19:07:56Z</time>
      </trkpt>
      <trkpt lat="43.49926" lon="-1.29817">
        <ele>4</ele>
        <time>2022-06-27T19:07:59Z</time>
      </trkpt>
      <trkpt lat="43.49907" lon="-1.2982">
        <ele>4</ele>
        <time>2022-06-27T19:08:02Z</time>
      </trkpt>
      <trkpt lat="43.49894" lon="-1.29805">
        <ele>5</ele>
        <time>2022-06-27T19:08:06Z</time>
      </trkpt>
      <trkpt lat="43.49873" lon="-1.29706">
        <ele>6</ele>
        <time>2022-06-27T19:08:19Z</time>
      </trkpt>
      <trkpt lat="43.49863" lon="-1.29688">
        <ele>7</ele>
        <time>2022-06-27T19:08:22Z</time>
      </trkpt>
      <trkpt lat="43.4985" lon="-1.29675">
        <ele>7</ele>
        <time>2022-06-27T19:08:25Z</time>
      </trkpt>
      <trkpt lat="43.4982" lon="-1.2966">
        <ele>8</ele>
        <time>2022-06-27T19:08:30Z</time>
      </trkpt>
      <trkpt lat="43.49796" lon="-1.29635">
        <ele>9</ele>
        <time>2022-06-27T19:08:36Z</time>
      </trkpt>
      <trkpt lat="43.49808" lon="-1.29616">
        <ele>8</ele>
        <time>2022-06-27T19:08:39Z</time>
      </trkpt>
      <trkpt lat="43.49816" lon="-1.29574">
        <ele>7</ele>
        <time>2022-06-27T19:08:44Z</time>
      </trkpt>
      <trkpt lat="43.4998" lon="-1.29384">
        <ele>2</ele>
        <time>2022-06-27T19:09:23Z</time>
      </trkpt>
      <trkpt lat="43.50021" lon="-1.2936">
        <ele>2</ele>
        <time>2022-06-27T19:09:31Z</time>
      </trkpt>
      <trkpt lat="43.50276" lon="-1.29277">
        <ele>1</ele>
        <time>2022-06-27T19:10:17Z</time>
      </trkpt>
      <trkpt lat="43.50299" lon="-1.29252">
        <ele>1</ele>
        <time>2022-06-27T19:10:22Z</time>
      </trkpt>
      <trkpt lat="43.50303" lon="-1.29231">
        <ele>1</ele>
        <time>2022-06-27T19:10:25Z</time>
      </trkpt>
      <trkpt lat="43.50285" lon="-1.29122">
        <ele>1</ele>
        <time>2022-06-27T19:10:40Z</time>
      </trkpt>
      <trkpt lat="43.50265" lon="-1.28714">
        <ele>1</ele>
        <time>2022-06-27T19:11:32Z</time>
      </trkpt>
      <trkpt lat="43.50294" lon="-1.28585">
        <ele>1</ele>
        <time>2022-06-27T19:11:50Z</time>
      </trkpt>
      <trkpt lat="43.5031" lon="-1.28463">
        <ele>1</ele>
        <time>2022-06-27T19:12:06Z</time>
      </trkpt>
      <trkpt lat="43.5033" lon="-1.2843">
        <ele>2.9</ele>
        <time>2022-06-27T19:12:11Z</time>
      </trkpt>
      <trkpt lat="43.50354" lon="-1.28426">
        <ele>-1</ele>
        <time>2022-06-27T19:12:16Z</time>
      </trkpt>
      <trkpt lat="43.50658" lon="-1.2851">
        <ele>5</ele>
        <time>2022-06-27T19:13:11Z</time>
      </trkpt>
      <trkpt lat="43.50742" lon="-1.28521">
        <ele>5</ele>
        <time>2022-06-27T19:13:26Z</time>
      </trkpt>
      <trkpt lat="43.50916" lon="-1.28491">
        <ele>2</ele>
        <time>2022-06-27T19:13:57Z</time>
      </trkpt>
      <trkpt lat="43.51021" lon="-1.28467">
        <ele>2</ele>
        <time>2022-06-27T19:14:16Z</time>
      </trkpt>
      <trkpt lat="43.51167" lon="-1.28474">
        <ele>3</ele>
        <time>2022-06-27T19:14:42Z</time>
      </trkpt>
      <trkpt lat="43.51494" lon="-1.28561">
        <ele>18</ele>
        <time>2022-06-27T19:15:41Z</time>
      </trkpt>
      <trkpt lat="43.51598" lon="-1.28557">
        <ele>23</ele>
        <time>2022-06-27T19:16:00Z</time>
      </trkpt>
      <trkpt lat="43.51853" lon="-1.285">
        <ele>41</ele>
        <time>2022-06-27T19:16:46Z</time>
      </trkpt>
      <trkpt lat="43.51928" lon="-1.28516">
        <ele>41</ele>
        <time>2022-06-27T19:16:59Z</time>
      </trkpt>
      <trkpt lat="43.52" lon="-1.28543">
        <ele>41</ele>
        <time>2022-06-27T19:17:12Z</time>
      </trkpt>
      <trkpt lat="43.52018" lon="-1.28542">
        <ele>41</ele>
        <time>2022-06-27T19:17:16Z</time>
      </trkpt>
      <trkpt lat="43.52037" lon="-1.28533">
        <ele>41</ele>
        <time>2022-06-27T19:17:19Z</time>
      </trkpt>
      <trkpt lat="43.52422" lon="-1.28069">
        <ele>40</ele>
        <time>2022-06-27T19:18:50Z</time>
      </trkpt>
      <trkpt lat="43.52452" lon="-1.28045">
        <ele>40</ele>
        <time>2022-06-27T19:18:56Z</time>
      </trkpt>
      <trkpt lat="43.52469" lon="-1.28038">
        <ele>41</ele>
        <time>2022-06-27T19:19:00Z</time>
      </trkpt>
      <trkpt lat="43.52645" lon="-1.28018">
        <ele>41</ele>
        <time>2022-06-27T19:19:31Z</time>
      </trkpt>
      <trkpt lat="43.53154" lon="-1.27875">
        <ele>38</ele>
        <time>2022-06-27T19:21:03Z</time>
      </trkpt>
      <trkpt lat="43.53192" lon="-1.27876">
        <ele>38</ele>
        <time>2022-06-27T19:21:10Z</time>
      </trkpt>
      <trkpt lat="43.53423" lon="-1.27928">
        <ele>37</ele>
        <time>2022-06-27T19:21:52Z</time>
      </trkpt>
      <trkpt lat="43.53469" lon="-1.27923">
        <ele>36</ele>
        <time>2022-06-27T19:22:00Z</time>
      </trkpt>
      <trkpt lat="43.5354" lon="-1.27882">
        <ele>37</ele>
        <time>2022-06-27T19:22:14Z</time>
      </trkpt>
      <trkpt lat="43.5359" lon="-1.27822">
        <ele>36</ele>
        <time>2022-06-27T19:22:26Z</time>
      </trkpt>
      <trkpt lat="43.5364" lon="-1.27728">
        <ele>34</ele>
        <time>2022-06-27T19:22:41Z</time>
      </trkpt>
      <trkpt lat="43.53676" lon="-1.27708">
        <ele>34</ele>
        <time>2022-06-27T19:22:47Z</time>
      </trkpt>
      <trkpt lat="43.54156" lon="-1.27713">
        <ele>36</ele>
        <time>2022-06-27T19:24:13Z</time>
      </trkpt>
      <trkpt lat="43.54238" lon="-1.27679">
        <ele>38</ele>
        <time>2022-06-27T19:24:28Z</time>
      </trkpt>
      <trkpt lat="43.54266" lon="-1.2764">
        <ele>37</ele>
        <time>2022-06-27T19:24:35Z</time>
      </trkpt>
      <trkpt lat="43.54275" lon="-1.27598">
        <ele>36</ele>
        <time>2022-06-27T19:24:41Z</time>
      </trkpt>
      <trkpt lat="43.54301" lon="-1.2755">
        <ele>30</ele>
        <time>2022-06-27T19:24:49Z</time>
      </trkpt>
      <trkpt lat="43.54322" lon="-1.27493">
        <ele>25</ele>
        <time>2022-06-27T19:24:57Z</time>
      </trkpt>
      <trkpt lat="43.54335" lon="-1.2748">
        <ele>23</ele>
        <time>2022-06-27T19:25:00Z</time>
      </trkpt>
      <trkpt lat="43.54467" lon="-1.27412">
        <ele>16</ele>
        <time>2022-06-27T19:25:25Z</time>
      </trkpt>
      <trkpt lat="43.54538" lon="-1.274">
        <ele>21</ele>
        <time>2022-06-27T19:25:37Z</time>
      </trkpt>
      <trkpt lat="43.5468" lon="-1.27341">
        <ele>26</ele>
        <time>2022-06-27T19:26:04Z</time>
      </trkpt>
      <trkpt lat="43.54691" lon="-1.27342">
        <ele>26</ele>
        <time>2022-06-27T19:26:06Z</time>
      </trkpt>
      <trkpt lat="43.54717" lon="-1.27359">
        <ele>27</ele>
        <time>2022-06-27T19:26:11Z</time>
      </trkpt>
      <trkpt lat="43.54731" lon="-1.27387">
        <ele>29</ele>
        <time>2022-06-27T19:26:15Z</time>
      </trkpt>
      <trkpt lat="43.54757" lon="-1.2748">
        <ele>35</ele>
        <time>2022-06-27T19:26:28Z</time>
      </trkpt>
      <trkpt lat="43.54852" lon="-1.27617">
        <ele>43</ele>
        <time>2022-06-27T19:26:53Z</time>
      </trkpt>
      <trkpt lat="43.54869" lon="-1.27634">
        <ele>44</ele>
        <time>2022-06-27T19:26:56Z</time>
      </trkpt>
      <trkpt lat="43.5489" lon="-1.27646">
        <ele>43</ele>
        <time>2022-06-27T19:27:00Z</time>
      </trkpt>
      <trkpt lat="43.55043" lon="-1.27687">
        <ele>44</ele>
        <time>2022-06-27T19:27:28Z</time>
      </trkpt>
      <trkpt lat="43.55063" lon="-1.27698">
        <ele>43</ele>
        <time>2022-06-27T19:27:32Z</time>
      </trkpt>
      <trkpt lat="43.55134" lon="-1.27765">
        <ele>31</ele>
        <time>2022-06-27T19:27:47Z</time>
      </trkpt>
      <trkpt lat="43.55156" lon="-1.27771">
        <ele>28</ele>
        <time>2022-06-27T19:27:51Z</time>
      </trkpt>
      <trkpt lat="43.55194" lon="-1.2776">
        <ele>26</ele>
        <time>2022-06-27T19:27:58Z</time>
      </trkpt>
      <trkpt lat="43.55282" lon="-1.27704">
        <ele>24</ele>
        <time>2022-06-27T19:28:15Z</time>
      </trkpt>
      <trkpt lat="43.55361" lon="-1.27626">
        <ele>27</ele>
        <time>2022-06-27T19:28:33Z</time>
      </trkpt>
      <trkpt lat="43.55406" lon="-1.27598">
        <ele>31</ele>
        <time>2022-06-27T19:28:41Z</time>
      </trkpt>
      <trkpt lat="43.55615" lon="-1.27531">
        <ele>36</ele>
        <time>2022-06-27T19:29:20Z</time>
      </trkpt>
      <trkpt lat="43.55849" lon="-1.27409">
        <ele>42</ele>
        <time>2022-06-27T19:30:04Z</time>
      </trkpt>
      <trkpt lat="43.55902" lon="-1.27392">
        <ele>44</ele>
        <time>2022-06-27T19:30:14Z</time>
      </trkpt>
      <trkpt lat="43.55982" lon="-1.27391">
        <ele>42</ele>
        <time>2022-06-27T19:30:28Z</time>
      </trkpt>
      <trkpt lat="43.56024" lon="-1.2724">
        <ele>43</ele>
        <time>2022-06-27T19:30:49Z</time>
      </trkpt>
      <trkpt lat="43.56029" lon="-1.27236">
        <ele>42</ele>
        <time>2022-06-27T19:30:50Z</time>
      </trkpt>
      <trkpt lat="43.56055" lon="-1.27244">
        <ele>42</ele>
        <time>2022-06-27T19:30:55Z</time>
      </trkpt>
      <trkpt lat="43.56383" lon="-1.27178">
        <ele>40</ele>
        <time>2022-06-27T19:31:54Z</time>
      </trkpt>
      <trkpt lat="43.56451" lon="-1.27189">
        <ele>40</ele>
        <time>2022-06-27T19:32:06Z</time>
      </trkpt>
      <trkpt lat="43.56474" lon="-1.27198">
        <ele>40</ele>
        <time>2022-06-27T19:32:10Z</time>
      </trkpt>
      <trkpt lat="43.56516" lon="-1.27227">
        <ele>40</ele>
        <time>2022-06-27T19:32:18Z</time>
      </trkpt>
      <trkpt lat="43.56658" lon="-1.27369">
        <ele>39</ele>
        <time>2022-06-27T19:32:50Z</time>
      </trkpt>
      <trkpt lat="43.5675" lon="-1.27499">
        <ele>40</ele>
        <time>2022-06-27T19:33:13Z</time>
      </trkpt>
      <trkpt lat="43.56785" lon="-1.2753">
        <ele>41</ele>
        <time>2022-06-27T19:33:20Z</time>
      </trkpt>
      <trkpt lat="43.56845" lon="-1.27552">
        <ele>41</ele>
        <time>2022-06-27T19:33:32Z</time>
      </trkpt>
      <trkpt lat="43.56913" lon="-1.27556">
        <ele>42</ele>
        <time>2022-06-27T19:33:44Z</time>
      </trkpt>
      <trkpt lat="43.56946" lon="-1.27551">
        <ele>41</ele>
        <time>2022-06-27T19:33:50Z</time>
      </trkpt>
      <trkpt lat="43.57094" lon="-1.27488">
        <ele>40</ele>
        <time>2022-06-27T19:34:17Z</time>
      </trkpt>
      <trkpt lat="43.57129" lon="-1.27468">
        <ele>41</ele>
        <time>2022-06-27T19:34:24Z</time>
      </trkpt>
      <trkpt lat="43.57468" lon="-1.27242">
        <ele>42</ele>
        <time>2022-06-27T19:35:31Z</time>
      </trkpt>
      <trkpt lat="43.57513" lon="-1.27215">
        <ele>40</ele>
        <time>2022-06-27T19:35:40Z</time>
      </trkpt>
      <trkpt lat="43.57547" lon="-1.27202">
        <ele>40</ele>
        <time>2022-06-27T19:35:46Z</time>
      </trkpt>
      <trkpt lat="43.5759" lon="-1.27193">
        <ele>40</ele>
        <time>2022-06-27T19:35:54Z</time>
      </trkpt>
      <trkpt lat="43.57828" lon="-1.27199">
        <ele>39</ele>
        <time>2022-06-27T19:36:36Z</time>
      </trkpt>
      <trkpt lat="43.57956" lon="-1.27153">
        <ele>42</ele>
        <time>2022-06-27T19:36:59Z</time>
      </trkpt>
      <trkpt lat="43.58142" lon="-1.27103">
        <ele>40</ele>
        <time>2022-06-27T19:37:33Z</time>
      </trkpt>
      <trkpt lat="43.58163" lon="-1.27084">
        <ele>39</ele>
        <time>2022-06-27T19:37:38Z</time>
      </trkpt>
      <trkpt lat="43.58173" lon="-1.27053">
        <ele>39</ele>
        <time>2022-06-27T19:37:42Z</time>
      </trkpt>
      <trkpt lat="43.58172" lon="-1.26813">
        <ele>42</ele>
        <time>2022-06-27T19:38:13Z</time>
      </trkpt>
      <trkpt lat="43.58187" lon="-1.26644">
        <ele>42</ele>
        <time>2022-06-27T19:38:35Z</time>
      </trkpt>
      <trkpt lat="43.58195" lon="-1.26631">
        <ele>41</ele>
        <time>2022-06-27T19:38:37Z</time>
      </trkpt>
      <trkpt lat="43.58214" lon="-1.26619">
        <ele>42</ele>
        <time>2022-06-27T19:38:41Z</time>
      </trkpt>
      <trkpt lat="43.58369" lon="-1.26615">
        <ele>35</ele>
        <time>2022-06-27T19:39:08Z</time>
      </trkpt>
      <trkpt lat="43.58629" lon="-1.26711">
        <ele>42</ele>
        <time>2022-06-27T19:39:56Z</time>
      </trkpt>
      <trkpt lat="43.58668" lon="-1.26731">
        <ele>43</ele>
        <time>2022-06-27T19:40:04Z</time>
      </trkpt>
      <trkpt lat="43.5897" lon="-1.2697">
        <ele>52</ele>
        <time>2022-06-27T19:41:06Z</time>
      </trkpt>
      <trkpt lat="43.59099" lon="-1.27042">
        <ele>60</ele>
        <time>2022-06-27T19:41:30Z</time>
      </trkpt>
      <trkpt lat="43.5918" lon="-1.27049">
        <ele>62</ele>
        <time>2022-06-27T19:41:45Z</time>
      </trkpt>
      <trkpt lat="43.59417" lon="-1.27027">
        <ele>61</ele>
        <time>2022-06-27T19:42:27Z</time>
      </trkpt>
      <trkpt lat="43.5948" lon="-1.27029">
        <ele>59</ele>
        <time>2022-06-27T19:42:38Z</time>
      </trkpt>
      <trkpt lat="43.59717" lon="-1.27086">
        <ele>62</ele>
        <time>2022-06-27T19:43:21Z</time>
      </trkpt>
      <trkpt lat="43.59961" lon="-1.27172">
        <ele>50</ele>
        <time>2022-06-27T19:44:06Z</time>
      </trkpt>
      <trkpt lat="43.59996" lon="-1.27201">
        <ele>49</ele>
        <time>2022-06-27T19:44:13Z</time>
      </trkpt>
      <trkpt lat="43.60055" lon="-1.27271">
        <ele>48</ele>
        <time>2022-06-27T19:44:27Z</time>
      </trkpt>
      <trkpt lat="43.60196" lon="-1.27353">
        <ele>36</ele>
        <time>2022-06-27T19:44:54Z</time>
      </trkpt>
      <trkpt lat="43.60219" lon="-1.27358">
        <ele>37</ele>
        <time>2022-06-27T19:44:58Z</time>
      </trkpt>
      <trkpt lat="43.60239" lon="-1.27359">
        <ele>38</ele>
        <time>2022-06-27T19:45:02Z</time>
      </trkpt>
      <trkpt lat="43.60272" lon="-1.2735">
        <ele>38</ele>
        <time>2022-06-27T19:45:08Z</time>
      </trkpt>
      <trkpt lat="43.60429" lon="-1.27296">
        <ele>44</ele>
        <time>2022-06-27T19:45:37Z</time>
      </trkpt>
      <trkpt lat="43.60532" lon="-1.27283">
        <ele>47</ele>
        <time>2022-06-27T19:45:55Z</time>
      </trkpt>
      <trkpt lat="43.60584" lon="-1.27267">
        <ele>49</ele>
        <time>2022-06-27T19:46:05Z</time>
      </trkpt>
      <trkpt lat="43.60717" lon="-1.27207">
        <ele>54</ele>
        <time>2022-06-27T19:46:30Z</time>
      </trkpt>
      <trkpt lat="43.60769" lon="-1.27191">
        <ele>54</ele>
        <time>2022-06-27T19:46:39Z</time>
      </trkpt>
      <trkpt lat="43.60848" lon="-1.27186">
        <ele>51</ele>
        <time>2022-06-27T19:46:53Z</time>
      </trkpt>
      <trkpt lat="43.61138" lon="-1.27209">
        <ele>46</ele>
        <time>2022-06-27T19:47:45Z</time>
      </trkpt>
      <trkpt lat="43.61194" lon="-1.272">
        <ele>42</ele>
        <time>2022-06-27T19:47:55Z</time>
      </trkpt>
      <trkpt lat="43.61411" lon="-1.27141">
        <ele>41</ele>
        <time>2022-06-27T19:48:34Z</time>
      </trkpt>
      <trkpt lat="43.61446" lon="-1.27115">
        <ele>39</ele>
        <time>2022-06-27T19:48:41Z</time>
      </trkpt>
      <trkpt lat="43.61445" lon="-1.27159">
        <ele>41</ele>
        <time>2022-06-27T19:48:47Z</time>
      </trkpt>
      <trkpt lat="43.615" lon="-1.27163">
        <ele>39</ele>
        <time>2022-06-27T19:48:57Z</time>
      </trkpt>
      <trkpt lat="43.61518" lon="-1.2717">
        <ele>40</ele>
        <time>2022-06-27T19:49:00Z</time>
      </trkpt>
      <trkpt lat="43.62295" lon="-1.27608">
        <ele>29</ele>
        <time>2022-06-27T19:51:29Z</time>
      </trkpt>
      <trkpt lat="43.62339" lon="-1.27643">
        <ele>27</ele>
        <time>2022-06-27T19:51:38Z</time>
      </trkpt>
      <trkpt lat="43.64657" lon="-1.29927">
        <ele>25</ele>
        <time>2022-06-27T20:00:05Z</time>
      </trkpt>
      <trkpt lat="43.64943" lon="-1.30151">
        <ele>22</ele>
        <time>2022-06-27T20:01:03Z</time>
      </trkpt>
      <trkpt lat="43.64992" lon="-1.30172">
        <ele>23</ele>
        <time>2022-06-27T20:01:13Z</time>
      </trkpt>
      <trkpt lat="43.65353" lon="-1.30231">
        <ele>20</ele>
        <time>2022-06-27T20:02:17Z</time>
      </trkpt>
      <trkpt lat="43.65421" lon="-1.30235">
        <ele>14</ele>
        <time>2022-06-27T20:02:29Z</time>
      </trkpt>
      <trkpt lat="43.65476" lon="-1.30221">
        <ele>15</ele>
        <time>2022-06-27T20:02:39Z</time>
      </trkpt>
      <trkpt lat="43.65505" lon="-1.30198">
        <ele>15</ele>
        <time>2022-06-27T20:02:45Z</time>
      </trkpt>
      <trkpt lat="43.65652" lon="-1.30012">
        <ele>19</ele>
        <time>2022-06-27T20:03:21Z</time>
      </trkpt>
      <trkpt lat="43.65663" lon="-1.2996">
        <ele>20</ele>
        <time>2022-06-27T20:03:28Z</time>
      </trkpt>
      <trkpt lat="43.65673" lon="-1.29952">
        <ele>21</ele>
        <time>2022-06-27T20:03:30Z</time>
      </trkpt>
      <trkpt lat="43.65715" lon="-1.29974">
        <ele>22</ele>
        <time>2022-06-27T20:03:38Z</time>
      </trkpt>
      <trkpt lat="43.65884" lon="-1.30034">
        <ele>26</ele>
        <time>2022-06-27T20:04:09Z</time>
      </trkpt>
      <trkpt lat="43.66" lon="-1.30111">
        <ele>30</ele>
        <time>2022-06-27T20:04:32Z</time>
      </trkpt>
      <trkpt lat="43.66034" lon="-1.30123">
        <ele>31</ele>
        <time>2022-06-27T20:04:38Z</time>
      </trkpt>
      <trkpt lat="43.66093" lon="-1.30133">
        <ele>33</ele>
        <time>2022-06-27T20:04:48Z</time>
      </trkpt>
      <trkpt lat="43.66078" lon="-1.30307">
        <ele>33</ele>
        <time>2022-06-27T20:05:11Z</time>
      </trkpt>
      <trkpt lat="43.66126" lon="-1.303">
        <ele>34</ele>
        <time>2022-06-27T20:05:20Z</time>
      </trkpt>
      <trkpt lat="43.66302" lon="-1.30257">
        <ele>30</ele>
        <time>2022-06-27T20:05:51Z</time>
      </trkpt>
      <trkpt lat="43.66335" lon="-1.30256">
        <ele>28</ele>
        <time>2022-06-27T20:05:57Z</time>
      </trkpt>
      <trkpt lat="43.66526" lon="-1.30292">
        <ele>29</ele>
        <time>2022-06-27T20:06:32Z</time>
      </trkpt>
      <trkpt lat="43.66548" lon="-1.30306">
        <ele>29</ele>
        <time>2022-06-27T20:06:36Z</time>
      </trkpt>
      <trkpt lat="43.66582" lon="-1.30348">
        <ele>31</ele>
        <time>2022-06-27T20:06:44Z</time>
      </trkpt>
      <trkpt lat="43.66608" lon="-1.30414">
        <ele>30</ele>
        <time>2022-06-27T20:06:54Z</time>
      </trkpt>
      <trkpt lat="43.66619" lon="-1.30417">
        <ele>30</ele>
        <time>2022-06-27T20:06:56Z</time>
      </trkpt>
      <trkpt lat="43.66622" lon="-1.30427">
        <ele>29</ele>
        <time>2022-06-27T20:06:57Z</time>
      </trkpt>
      <trkpt lat="43.66616" lon="-1.30439">
        <ele>29</ele>
        <time>2022-06-27T20:06:59Z</time>
      </trkpt>
      <trkpt lat="43.66758" lon="-1.3083">
        <ele>32</ele>
        <time>2022-06-27T20:07:55Z</time>
      </trkpt>
      <trkpt lat="43.6677" lon="-1.30834">
        <ele>32</ele>
        <time>2022-06-27T20:07:57Z</time>
      </trkpt>
      <trkpt lat="43.66772" lon="-1.30844">
        <ele>33</ele>
        <time>2022-06-27T20:07:59Z</time>
      </trkpt>
      <trkpt lat="43.66766" lon="-1.30855">
        <ele>33</ele>
        <time>2022-06-27T20:08:01Z</time>
      </trkpt>
      <trkpt lat="43.66806" lon="-1.30963">
        <ele>33</ele>
        <time>2022-06-27T20:08:16Z</time>
      </trkpt>
      <trkpt lat="43.66858" lon="-1.31049">
        <ele>31</ele>
        <time>2022-06-27T20:08:31Z</time>
      </trkpt>
      <trkpt lat="43.67167" lon="-1.31452">
        <ele>32</ele>
        <time>2022-06-27T20:09:46Z</time>
      </trkpt>
      <trkpt lat="43.67234" lon="-1.31517">
        <ele>34</ele>
        <time>2022-06-27T20:10:01Z</time>
      </trkpt>
      <trkpt lat="43.67307" lon="-1.31575">
        <ele>35</ele>
        <time>2022-06-27T20:10:16Z</time>
      </trkpt>
      <trkpt lat="43.67397" lon="-1.31687">
        <ele>35</ele>
        <time>2022-06-27T20:10:37Z</time>
      </trkpt>
      <trkpt lat="43.6745" lon="-1.31763">
        <ele>37</ele>
        <time>2022-06-27T20:10:51Z</time>
      </trkpt>
      <trkpt lat="43.67526" lon="-1.31898">
        <ele>35</ele>
        <time>2022-06-27T20:11:13Z</time>
      </trkpt>
      <trkpt lat="43.68288" lon="-1.32822">
        <ele>28</ele>
        <time>2022-06-27T20:14:13Z</time>
      </trkpt>
      <trkpt lat="43.68295" lon="-1.32817">
        <ele>28</ele>
        <time>2022-06-27T20:14:15Z</time>
      </trkpt>
      <trkpt lat="43.68303" lon="-1.3282">
        <ele>28</ele>
        <time>2022-06-27T20:14:16Z</time>
      </trkpt>
      <trkpt lat="43.68304" lon="-1.32841">
        <ele>29</ele>
        <time>2022-06-27T20:14:19Z</time>
      </trkpt>
      <trkpt lat="43.68756" lon="-1.33385">
        <ele>30</ele>
        <time>2022-06-27T20:16:05Z</time>
      </trkpt>
      <trkpt lat="43.68768" lon="-1.33391">
        <ele>29</ele>
        <time>2022-06-27T20:16:08Z</time>
      </trkpt>
      <trkpt lat="43.68766" lon="-1.33405">
        <ele>30</ele>
        <time>2022-06-27T20:16:10Z</time>
      </trkpt>
      <trkpt lat="43.6876" lon="-1.33408">
        <ele>30</ele>
        <time>2022-06-27T20:16:11Z</time>
      </trkpt>
      <trkpt lat="43.68753" lon="-1.33402">
        <ele>30</ele>
        <time>2022-06-27T20:16:12Z</time>
      </trkpt>
      <trkpt lat="43.68717" lon="-1.33429">
        <ele>31</ele>
        <time>2022-06-27T20:16:19Z</time>
      </trkpt>
      <trkpt lat="43.68691" lon="-1.33472">
        <ele>31</ele>
        <time>2022-06-27T20:16:27Z</time>
      </trkpt>
      <trkpt lat="43.68689" lon="-1.33512">
        <ele>31</ele>
        <time>2022-06-27T20:16:32Z</time>
      </trkpt>
      <trkpt lat="43.68711" lon="-1.3376">
        <ele>32</ele>
        <time>2022-06-27T20:17:04Z</time>
      </trkpt>
      <trkpt lat="43.68778" lon="-1.33994">
        <ele>30</ele>
        <time>2022-06-27T20:17:36Z</time>
      </trkpt>
      <trkpt lat="43.68788" lon="-1.34">
        <ele>30</ele>
        <time>2022-06-27T20:17:38Z</time>
      </trkpt>
      <trkpt lat="43.68782" lon="-1.34013">
        <ele>30</ele>
        <time>2022-06-27T20:17:40Z</time>
      </trkpt>
      <trkpt lat="43.68883" lon="-1.34359">
        <ele>35</ele>
        <time>2022-06-27T20:18:28Z</time>
      </trkpt>
      <trkpt lat="43.68898" lon="-1.34455">
        <ele>36</ele>
        <time>2022-06-27T20:18:41Z</time>
      </trkpt>
      <trkpt lat="43.68801" lon="-1.35106">
        <ele>23</ele>
        <time>2022-06-27T20:20:06Z</time>
      </trkpt>
      <trkpt lat="43.68799" lon="-1.35123">
        <ele>22</ele>
        <time>2022-06-27T20:20:09Z</time>
      </trkpt>
      <trkpt lat="43.68807" lon="-1.35139">
        <ele>22</ele>
        <time>2022-06-27T20:20:11Z</time>
      </trkpt>
      <trkpt lat="43.68795" lon="-1.3515">
        <ele>22</ele>
        <time>2022-06-27T20:20:14Z</time>
      </trkpt>
      <trkpt lat="43.68754" lon="-1.35433">
        <ele>19</ele>
        <time>2022-06-27T20:20:51Z</time>
      </trkpt>
      <trkpt lat="43.68753" lon="-1.35491">
        <ele>18</ele>
        <time>2022-06-27T20:20:58Z</time>
      </trkpt>
      <trkpt lat="43.68794" lon="-1.35668">
        <ele>16</ele>
        <time>2022-06-27T20:21:22Z</time>
      </trkpt>
      <trkpt lat="43.68889" lon="-1.36335">
        <ele>19</ele>
        <time>2022-06-27T20:22:50Z</time>
      </trkpt>
      <trkpt lat="43.68902" lon="-1.36341">
        <ele>19</ele>
        <time>2022-06-27T20:22:52Z</time>
      </trkpt>
      <trkpt lat="43.68907" lon="-1.36352">
        <ele>19</ele>
        <time>2022-06-27T20:22:54Z</time>
      </trkpt>
      <trkpt lat="43.68906" lon="-1.36366">
        <ele>20</ele>
        <time>2022-06-27T20:22:56Z</time>
      </trkpt>
      <trkpt lat="43.68895" lon="-1.36378">
        <ele>20</ele>
        <time>2022-06-27T20:22:58Z</time>
      </trkpt>
      <trkpt lat="43.68954" lon="-1.36813">
        <ele>20</ele>
        <time>2022-06-27T20:23:55Z</time>
      </trkpt>
      <trkpt lat="43.68998" lon="-1.37083">
        <ele>20</ele>
        <time>2022-06-27T20:24:31Z</time>
      </trkpt>
      <trkpt lat="43.69008" lon="-1.37165">
        <ele>18</ele>
        <time>2022-06-27T20:24:41Z</time>
      </trkpt>
      <trkpt lat="43.6901" lon="-1.37259">
        <ele>18</ele>
        <time>2022-06-27T20:24:53Z</time>
      </trkpt>
      <trkpt lat="43.69061" lon="-1.37412">
        <ele>21</ele>
        <time>2022-06-27T20:25:15Z</time>
      </trkpt>
      <trkpt lat="43.69141" lon="-1.3741">
        <ele>19</ele>
        <time>2022-06-27T20:25:29Z</time>
      </trkpt>
      <trkpt lat="43.69177" lon="-1.3753">
        <ele>17</ele>
        <time>2022-06-27T20:25:46Z</time>
      </trkpt>
      <trkpt lat="43.69209" lon="-1.37598">
        <ele>17</ele>
        <time>2022-06-27T20:25:56Z</time>
      </trkpt>
      <trkpt lat="43.69234" lon="-1.37642">
        <ele>16</ele>
        <time>2022-06-27T20:26:04Z</time>
      </trkpt>
      <trkpt lat="43.69246" lon="-1.37656">
        <ele>15</ele>
        <time>2022-06-27T20:26:06Z</time>
      </trkpt>
      <trkpt lat="43.69257" lon="-1.37653">
        <ele>15</ele>
        <time>2022-06-27T20:26:08Z</time>
      </trkpt>
      <trkpt lat="43.69261" lon="-1.37659">
        <ele>15</ele>
        <time>2022-06-27T20:26:10Z</time>
      </trkpt>
      <trkpt lat="43.69256" lon="-1.37783">
        <ele>16</ele>
        <time>2022-06-27T20:26:25Z</time>
      </trkpt>
      <trkpt lat="43.69268" lon="-1.3789">
        <ele>20</ele>
        <time>2022-06-27T20:26:39Z</time>
      </trkpt>
      <trkpt lat="43.69292" lon="-1.37957">
        <ele>26</ele>
        <time>2022-06-27T20:26:49Z</time>
      </trkpt>
      <trkpt lat="43.69464" lon="-1.3825">
        <ele>25</ele>
        <time>2022-06-27T20:27:38Z</time>
      </trkpt>
      <trkpt lat="43.69491" lon="-1.38321">
        <ele>22</ele>
        <time>2022-06-27T20:27:48Z</time>
      </trkpt>
      <trkpt lat="43.69528" lon="-1.38491">
        <ele>26</ele>
        <time>2022-06-27T20:28:11Z</time>
      </trkpt>
      <trkpt lat="43.69554" lon="-1.38544">
        <ele>26</ele>
        <time>2022-06-27T20:28:19Z</time>
      </trkpt>
      <trkpt lat="43.69888" lon="-1.38893">
        <ele>26</ele>
        <time>2022-06-27T20:29:33Z</time>
      </trkpt>
      <trkpt lat="43.69944" lon="-1.38975">
        <ele>27</ele>
        <time>2022-06-27T20:29:48Z</time>
      </trkpt>
      <trkpt lat="43.6996" lon="-1.39017">
        <ele>26</ele>
        <time>2022-06-27T20:29:54Z</time>
      </trkpt>
      <trkpt lat="43.69984" lon="-1.39135">
        <ele>25</ele>
        <time>2022-06-27T20:30:10Z</time>
      </trkpt>
      <trkpt lat="43.70016" lon="-1.39263">
        <ele>21</ele>
        <time>2022-06-27T20:30:27Z</time>
      </trkpt>
      <trkpt lat="43.70076" lon="-1.39538">
        <ele>25</ele>
        <time>2022-06-27T20:31:04Z</time>
      </trkpt>
      <trkpt lat="43.70084" lon="-1.3967">
        <ele>29</ele>
        <time>2022-06-27T20:31:21Z</time>
      </trkpt>
      <trkpt lat="43.70107" lon="-1.39751">
        <ele>31</ele>
        <time>2022-06-27T20:31:32Z</time>
      </trkpt>
      <trkpt lat="43.70185" lon="-1.39997">
        <ele>26</ele>
        <time>2022-06-27T20:32:07Z</time>
      </trkpt>
      <trkpt lat="43.70246" lon="-1.40251">
        <ele>23</ele>
        <time>2022-06-27T20:32:41Z</time>
      </trkpt>
      <trkpt lat="43.70341" lon="-1.40454">
        <ele>49</ele>
        <time>2022-06-27T20:33:13Z</time>
      </trkpt>
      <trkpt lat="43.70356" lon="-1.40517">
        <ele>52</ele>
        <time>2022-06-27T20:33:21Z</time>
      </trkpt>
      <trkpt lat="43.70386" lon="-1.40741">
        <ele>37</ele>
        <time>2022-06-27T20:33:50Z</time>
      </trkpt>
      <trkpt lat="43.70373" lon="-1.41006">
        <ele>25</ele>
        <time>2022-06-27T20:34:25Z</time>
      </trkpt>
      <trkpt lat="43.70383" lon="-1.41067">
        <ele>26</ele>
        <time>2022-06-27T20:34:33Z</time>
      </trkpt>
      <trkpt lat="43.70415" lon="-1.41138">
        <ele>23</ele>
        <time>2022-06-27T20:34:43Z</time>
      </trkpt>
      <trkpt lat="43.70454" lon="-1.41272">
        <ele>17</ele>
        <time>2022-06-27T20:35:02Z</time>
      </trkpt>
      <trkpt lat="43.70515" lon="-1.4137">
        <ele>19</ele>
        <time>2022-06-27T20:35:19Z</time>
      </trkpt>
      <trkpt lat="43.70543" lon="-1.41408">
        <ele>22</ele>
        <time>2022-06-27T20:35:26Z</time>
      </trkpt>
      <trkpt lat="43.70565" lon="-1.41425">
        <ele>22</ele>
        <time>2022-06-27T20:35:30Z</time>
      </trkpt>
      <trkpt lat="43.70588" lon="-1.41471">
        <ele>21</ele>
        <time>2022-06-27T20:35:37Z</time>
      </trkpt>
      <trkpt lat="43.70632" lon="-1.41779">
        <ele>13</ele>
        <time>2022-06-27T20:36:18Z</time>
      </trkpt>
      <trkpt lat="43.70652" lon="-1.41789">
        <ele>12</ele>
        <time>2022-06-27T20:36:21Z</time>
      </trkpt>
      <trkpt lat="43.70764" lon="-1.41705">
        <ele>16</ele>
        <time>2022-06-27T20:36:44Z</time>
      </trkpt>
      <trkpt lat="43.70795" lon="-1.41702">
        <ele>19</ele>
        <time>2022-06-27T20:36:50Z</time>
      </trkpt>
      <trkpt lat="43.70817" lon="-1.41707">
        <ele>21</ele>
        <time>2022-06-27T20:36:54Z</time>
      </trkpt>
      <trkpt lat="43.70858" lon="-1.4174">
        <ele>22</ele>
        <time>2022-06-27T20:37:02Z</time>
      </trkpt>
      <trkpt lat="43.70908" lon="-1.41834">
        <ele>21</ele>
        <time>2022-06-27T20:37:17Z</time>
      </trkpt>
      <trkpt lat="43.70944" lon="-1.41877">
        <ele>17</ele>
        <time>2022-06-27T20:37:25Z</time>
      </trkpt>
      <trkpt lat="43.70965" lon="-1.41892">
        <ele>14</ele>
        <time>2022-06-27T20:37:30Z</time>
      </trkpt>
      <trkpt lat="43.71007" lon="-1.41909">
        <ele>8</ele>
        <time>2022-06-27T20:37:37Z</time>
      </trkpt>
      <trkpt lat="43.71028" lon="-1.41911">
        <ele>9</ele>
        <time>2022-06-27T20:37:41Z</time>
      </trkpt>
      <trkpt lat="43.71087" lon="-1.41902">
        <ele>11</ele>
        <time>2022-06-27T20:37:52Z</time>
      </trkpt>
      <trkpt lat="43.71136" lon="-1.41887">
        <ele>13</ele>
        <time>2022-06-27T20:38:01Z</time>
      </trkpt>
      <trkpt lat="43.71198" lon="-1.41881">
        <ele>14</ele>
        <time>2022-06-27T20:38:12Z</time>
      </trkpt>
      <trkpt lat="43.71222" lon="-1.41893">
        <ele>12</ele>
        <time>2022-06-27T20:38:16Z</time>
      </trkpt>
      <trkpt lat="43.71266" lon="-1.41936">
        <ele>11</ele>
        <time>2022-06-27T20:38:26Z</time>
      </trkpt>
      <trkpt lat="43.71301" lon="-1.41948">
        <ele>10</ele>
        <time>2022-06-27T20:38:32Z</time>
      </trkpt>
      <trkpt lat="43.71326" lon="-1.41992">
        <ele>9</ele>
        <time>2022-06-27T20:38:40Z</time>
      </trkpt>
      <trkpt lat="43.7137" lon="-1.42042">
        <ele>9</ele>
        <time>2022-06-27T20:38:50Z</time>
      </trkpt>
      <trkpt lat="43.71423" lon="-1.42084">
        <ele>7</ele>
        <time>2022-06-27T20:39:01Z</time>
      </trkpt>
      <trkpt lat="43.71493" lon="-1.42112">
        <ele>8</ele>
        <time>2022-06-27T20:39:13Z</time>
      </trkpt>
      <trkpt lat="43.71552" lon="-1.42109">
        <ele>8</ele>
        <time>2022-06-27T20:39:24Z</time>
      </trkpt>
      <trkpt lat="43.71606" lon="-1.42079">
        <ele>7</ele>
        <time>2022-06-27T20:39:34Z</time>
      </trkpt>
      <trkpt lat="43.71631" lon="-1.42052">
        <ele>7</ele>
        <time>2022-06-27T20:39:40Z</time>
      </trkpt>
      <trkpt lat="43.71747" lon="-1.41868">
        <ele>20</ele>
        <time>2022-06-27T20:40:11Z</time>
      </trkpt>
      <trkpt lat="43.7181" lon="-1.41787">
        <ele>20</ele>
        <time>2022-06-27T20:40:27Z</time>
      </trkpt>
      <trkpt lat="43.71907" lon="-1.41687">
        <ele>9</ele>
        <time>2022-06-27T20:40:48Z</time>
      </trkpt>
      <trkpt lat="43.71981" lon="-1.41628">
        <ele>10</ele>
        <time>2022-06-27T20:41:03Z</time>
      </trkpt>
      <trkpt lat="43.72099" lon="-1.41555">
        <ele>25</ele>
        <time>2022-06-27T20:41:26Z</time>
      </trkpt>
      <trkpt lat="43.72127" lon="-1.41532">
        <ele>25</ele>
        <time>2022-06-27T20:41:32Z</time>
      </trkpt>
      <trkpt lat="43.7216" lon="-1.41519">
        <ele>24</ele>
        <time>2022-06-27T20:41:38Z</time>
      </trkpt>
      <trkpt lat="43.7227" lon="-1.41447">
        <ele>17</ele>
        <time>2022-06-27T20:42:00Z</time>
      </trkpt>
      <trkpt lat="43.72273" lon="-1.41456">
        <ele>17</ele>
        <time>2022-06-27T20:42:01Z</time>
      </trkpt>
      <trkpt lat="43.72385" lon="-1.41384">
        <ele>20</ele>
        <time>2022-06-27T20:42:23Z</time>
      </trkpt>
      <trkpt lat="43.72381" lon="-1.41373">
        <ele>19</ele>
        <time>2022-06-27T20:42:25Z</time>
      </trkpt>
      <trkpt lat="43.72441" lon="-1.41341">
        <ele>17</ele>
        <time>2022-06-27T20:42:36Z</time>
      </trkpt>
      <trkpt lat="43.72644" lon="-1.41208">
        <ele>15</ele>
        <time>2022-06-27T20:43:16Z</time>
      </trkpt>
      <trkpt lat="43.72674" lon="-1.41177">
        <ele>15</ele>
        <time>2022-06-27T20:43:23Z</time>
      </trkpt>
      <trkpt lat="43.72771" lon="-1.41157">
        <ele>16</ele>
        <time>2022-06-27T20:43:40Z</time>
      </trkpt>
      <trkpt lat="43.72848" lon="-1.41162">
        <ele>15</ele>
        <time>2022-06-27T20:43:54Z</time>
      </trkpt>
      <trkpt lat="43.72872" lon="-1.41169">
        <ele>15</ele>
        <time>2022-06-27T20:43:58Z</time>
      </trkpt>
      <trkpt lat="43.72964" lon="-1.41217">
        <ele>17</ele>
        <time>2022-06-27T20:44:16Z</time>
      </trkpt>
      <trkpt lat="43.73058" lon="-1.41298">
        <ele>16</ele>
        <time>2022-06-27T20:44:36Z</time>
      </trkpt>
      <trkpt lat="43.7309" lon="-1.41306">
        <ele>16</ele>
        <time>2022-06-27T20:44:41Z</time>
      </trkpt>
      <trkpt lat="43.73135" lon="-1.41291">
        <ele>15</ele>
        <time>2022-06-27T20:44:50Z</time>
      </trkpt>
      <trkpt lat="43.73443" lon="-1.41142">
        <ele>13</ele>
        <time>2022-06-27T20:45:48Z</time>
      </trkpt>
      <trkpt lat="43.7349" lon="-1.41151">
        <ele>13</ele>
        <time>2022-06-27T20:45:56Z</time>
      </trkpt>
      <trkpt lat="43.73516" lon="-1.41163">
        <ele>12</ele>
        <time>2022-06-27T20:46:01Z</time>
      </trkpt>
      <trkpt lat="43.73616" lon="-1.41227">
        <ele>14</ele>
        <time>2022-06-27T20:46:21Z</time>
      </trkpt>
      <trkpt lat="43.7364" lon="-1.4123">
        <ele>15</ele>
        <time>2022-06-27T20:46:25Z</time>
      </trkpt>
      <trkpt lat="43.73657" lon="-1.41224">
        <ele>16</ele>
        <time>2022-06-27T20:46:28Z</time>
      </trkpt>
      <trkpt lat="43.75682" lon="-1.39588">
        <ele>14</ele>
        <time>2022-06-27T20:53:25Z</time>
      </trkpt>
      <trkpt lat="43.76261" lon="-1.39113">
        <ele>11</ele>
        <time>2022-06-27T20:55:25Z</time>
      </trkpt>
      <trkpt lat="43.76272" lon="-1.39108">
        <ele>11</ele>
        <time>2022-06-27T20:55:27Z</time>
      </trkpt>
      <trkpt lat="43.76292" lon="-1.39131">
        <ele>11</ele>
        <time>2022-06-27T20:55:32Z</time>
      </trkpt>
      <trkpt lat="43.76731" lon="-1.39352">
        <ele>12</ele>
        <time>2022-06-27T20:56:55Z</time>
      </trkpt>
      <trkpt lat="43.7685" lon="-1.39367">
        <ele>11</ele>
        <time>2022-06-27T20:57:16Z</time>
      </trkpt>
      <trkpt lat="43.77032" lon="-1.39284">
        <ele>5</ele>
        <time>2022-06-27T20:57:50Z</time>
      </trkpt>
      <trkpt lat="43.77361" lon="-1.39472">
        <ele>4</ele>
        <time>2022-06-27T20:58:53Z</time>
      </trkpt>
      <trkpt lat="43.77386" lon="-1.39497">
        <ele>4</ele>
        <time>2022-06-27T20:58:59Z</time>
      </trkpt>
      <trkpt lat="43.77409" lon="-1.3948">
        <ele>4</ele>
        <time>2022-06-27T20:59:04Z</time>
      </trkpt>
      <trkpt lat="43.77448" lon="-1.3936">
        <ele>3</ele>
        <time>2022-06-27T20:59:20Z</time>
      </trkpt>
      <trkpt lat="43.77828" lon="-1.39569">
        <ele>16</ele>
        <time>2022-06-27T21:00:33Z</time>
      </trkpt>
      <trkpt lat="43.77946" lon="-1.39619">
        <ele>12</ele>
        <time>2022-06-27T21:00:55Z</time>
      </trkpt>
      <trkpt lat="43.7812" lon="-1.39632">
        <ele>7</ele>
        <time>2022-06-27T21:01:26Z</time>
      </trkpt>
      <trkpt lat="43.78361" lon="-1.39629">
        <ele>4</ele>
        <time>2022-06-27T21:02:09Z</time>
      </trkpt>
      <trkpt lat="43.7862" lon="-1.39532">
        <ele>5</ele>
        <time>2022-06-27T21:02:57Z</time>
      </trkpt>
      <trkpt lat="43.78742" lon="-1.39466">
        <ele>7</ele>
        <time>2022-06-27T21:03:20Z</time>
      </trkpt>
      <trkpt lat="43.78929" lon="-1.39256">
        <ele>6</ele>
        <time>2022-06-27T21:04:03Z</time>
      </trkpt>
      <trkpt lat="43.79676" lon="-1.38347">
        <ele>12</ele>
        <time>2022-06-27T21:07:00Z</time>
      </trkpt>
      <trkpt lat="43.79744" lon="-1.38288">
        <ele>10</ele>
        <time>2022-06-27T21:07:14Z</time>
      </trkpt>
      <trkpt lat="43.80108" lon="-1.38078">
        <ele>9</ele>
        <time>2022-06-27T21:08:24Z</time>
      </trkpt>
      <trkpt lat="43.80951" lon="-1.37254">
        <ele>9</ele>
        <time>2022-06-27T21:11:28Z</time>
      </trkpt>
      <trkpt lat="43.81266" lon="-1.36935">
        <ele>19</ele>
        <time>2022-06-27T21:12:37Z</time>
      </trkpt>
      <trkpt lat="43.81351" lon="-1.3686">
        <ele>20</ele>
        <time>2022-06-27T21:12:55Z</time>
      </trkpt>
      <trkpt lat="43.81445" lon="-1.36821">
        <ele>18</ele>
        <time>2022-06-27T21:13:13Z</time>
      </trkpt>
      <trkpt lat="43.81831" lon="-1.36759">
        <ele>12</ele>
        <time>2022-06-27T21:14:22Z</time>
      </trkpt>
      <trkpt lat="43.81897" lon="-1.3674">
        <ele>10</ele>
        <time>2022-06-27T21:14:34Z</time>
      </trkpt>
      <trkpt lat="43.83231" lon="-1.35982">
        <ele>26</ele>
        <time>2022-06-27T21:18:50Z</time>
      </trkpt>
      <trkpt lat="43.83308" lon="-1.35949">
        <ele>25</ele>
        <time>2022-06-27T21:19:05Z</time>
      </trkpt>
      <trkpt lat="43.8358" lon="-1.35961">
        <ele>24</ele>
        <time>2022-06-27T21:19:53Z</time>
      </trkpt>
      <trkpt lat="43.83696" lon="-1.35926">
        <ele>21</ele>
        <time>2022-06-27T21:20:14Z</time>
      </trkpt>
      <trkpt lat="43.84764" lon="-1.35306">
        <ele>21</ele>
        <time>2022-06-27T21:23:40Z</time>
      </trkpt>
      <trkpt lat="43.84881" lon="-1.35236">
        <ele>18</ele>
        <time>2022-06-27T21:24:03Z</time>
      </trkpt>
      <trkpt lat="43.84954" lon="-1.35181">
        <ele>18</ele>
        <time>2022-06-27T21:24:18Z</time>
      </trkpt>
      <trkpt lat="43.85027" lon="-1.35084">
        <ele>17</ele>
        <time>2022-06-27T21:24:36Z</time>
      </trkpt>
      <trkpt lat="43.85519" lon="-1.34109">
        <ele>29</ele>
        <time>2022-06-27T21:27:08Z</time>
      </trkpt>
      <trkpt lat="43.85584" lon="-1.34003">
        <ele>28</ele>
        <time>2022-06-27T21:27:26Z</time>
      </trkpt>
      <trkpt lat="43.85851" lon="-1.33603">
        <ele>20</ele>
        <time>2022-06-27T21:28:36Z</time>
      </trkpt>
      <trkpt lat="43.85892" lon="-1.33526">
        <ele>21</ele>
        <time>2022-06-27T21:28:48Z</time>
      </trkpt>
      <trkpt lat="43.85933" lon="-1.33383">
        <ele>27</ele>
        <time>2022-06-27T21:29:08Z</time>
      </trkpt>
      <trkpt lat="43.86017" lon="-1.33072">
        <ele>44</ele>
        <time>2022-06-27T21:29:51Z</time>
      </trkpt>
      <trkpt lat="43.86062" lon="-1.32957">
        <ele>46</ele>
        <time>2022-06-27T21:30:07Z</time>
      </trkpt>
      <trkpt lat="43.86115" lon="-1.32873">
        <ele>40</ele>
        <time>2022-06-27T21:30:22Z</time>
      </trkpt>
      <trkpt lat="43.86412" lon="-1.3251">
        <ele>30</ele>
        <time>2022-06-27T21:31:32Z</time>
      </trkpt>
      <trkpt lat="43.86469" lon="-1.32416">
        <ele>24</ele>
        <time>2022-06-27T21:31:48Z</time>
      </trkpt>
      <trkpt lat="43.86796" lon="-1.31001">
        <ele>30</ele>
        <time>2022-06-27T21:34:59Z</time>
      </trkpt>
      <trkpt lat="43.86839" lon="-1.30898">
        <ele>27</ele>
        <time>2022-06-27T21:35:14Z</time>
      </trkpt>
      <trkpt lat="43.86992" lon="-1.30635">
        <ele>18</ele>
        <time>2022-06-27T21:35:57Z</time>
      </trkpt>
      <trkpt lat="43.87037" lon="-1.30542">
        <ele>20</ele>
        <time>2022-06-27T21:36:12Z</time>
      </trkpt>
      <trkpt lat="43.87186" lon="-1.30143">
        <ele>18</ele>
        <time>2022-06-27T21:37:09Z</time>
      </trkpt>
      <trkpt lat="43.87219" lon="-1.30126">
        <ele>18</ele>
        <time>2022-06-27T21:37:15Z</time>
      </trkpt>
      <trkpt lat="43.87248" lon="-1.30047">
        <ele>18</ele>
        <time>2022-06-27T21:37:27Z</time>
      </trkpt>
      <trkpt lat="43.87473" lon="-1.30219">
        <ele>22</ele>
        <time>2022-06-27T21:38:13Z</time>
      </trkpt>
      <trkpt lat="43.87504" lon="-1.30224">
        <ele>24</ele>
        <time>2022-06-27T21:38:18Z</time>
      </trkpt>
      <trkpt lat="43.87517" lon="-1.30272">
        <ele>26</ele>
        <time>2022-06-27T21:38:25Z</time>
      </trkpt>
      <trkpt lat="43.87614" lon="-1.30304">
        <ele>26</ele>
        <time>2022-06-27T21:38:42Z</time>
      </trkpt>
      <trkpt lat="43.87727" lon="-1.30272">
        <ele>19</ele>
        <time>2022-06-27T21:39:03Z</time>
      </trkpt>
      <trkpt lat="43.87735" lon="-1.30256">
        <ele>18</ele>
        <time>2022-06-27T21:39:05Z</time>
      </trkpt>
      <trkpt lat="43.87753" lon="-1.30264">
        <ele>17</ele>
        <time>2022-06-27T21:39:09Z</time>
      </trkpt>
      <trkpt lat="43.87779" lon="-1.30245">
        <ele>16</ele>
        <time>2022-06-27T21:39:14Z</time>
      </trkpt>
      <trkpt lat="43.88024" lon="-1.30149">
        <ele>17</ele>
        <time>2022-06-27T21:39:59Z</time>
      </trkpt>
      <trkpt lat="43.88027" lon="-1.30139">
        <ele>17</ele>
        <time>2022-06-27T21:40:01Z</time>
      </trkpt>
      <trkpt lat="43.88035" lon="-1.30148">
        <ele>17</ele>
        <time>2022-06-27T21:40:03Z</time>
      </trkpt>
      <trkpt lat="43.88143" lon="-1.30177">
        <ele>17</ele>
        <time>2022-06-27T21:40:22Z</time>
      </trkpt>
      <trkpt lat="43.88165" lon="-1.30177">
        <ele>17</ele>
        <time>2022-06-27T21:40:26Z</time>
      </trkpt>
      <trkpt lat="43.88198" lon="-1.30166">
        <ele>17</ele>
        <time>2022-06-27T21:40:32Z</time>
      </trkpt>
      <trkpt lat="43.88226" lon="-1.30148">
        <ele>16</ele>
        <time>2022-06-27T21:40:38Z</time>
      </trkpt>
      <trkpt lat="43.8826" lon="-1.30118">
        <ele>15</ele>
        <time>2022-06-27T21:40:45Z</time>
      </trkpt>
      <trkpt lat="43.88476" lon="-1.29876">
        <ele>11</ele>
        <time>2022-06-27T21:41:34Z</time>
      </trkpt>
      <trkpt lat="43.88611" lon="-1.29587">
        <ele>15</ele>
        <time>2022-06-27T21:42:18Z</time>
      </trkpt>
      <trkpt lat="43.88704" lon="-1.29441">
        <ele>13</ele>
        <time>2022-06-27T21:42:43Z</time>
      </trkpt>
      <trkpt lat="43.88781" lon="-1.2937">
        <ele>12</ele>
        <time>2022-06-27T21:43:00Z</time>
      </trkpt>
      <trkpt lat="43.88816" lon="-1.29353">
        <ele>11</ele>
        <time>2022-06-27T21:43:06Z</time>
      </trkpt>
      <trkpt lat="43.89063" lon="-1.2927">
        <ele>11</ele>
        <time>2022-06-27T21:43:52Z</time>
      </trkpt>
      <trkpt lat="43.89065" lon="-1.29285">
        <ele>11</ele>
        <time>2022-06-27T21:43:54Z</time>
      </trkpt>
      <trkpt lat="43.89375" lon="-1.29176">
        <ele>13</ele>
        <time>2022-06-27T21:44:50Z</time>
      </trkpt>
      <trkpt lat="43.89429" lon="-1.29167">
        <ele>14</ele>
        <time>2022-06-27T21:45:00Z</time>
      </trkpt>
      <trkpt lat="43.89473" lon="-1.29169">
        <ele>13</ele>
        <time>2022-06-27T21:45:08Z</time>
      </trkpt>
      <trkpt lat="43.89821" lon="-1.29229">
        <ele>19</ele>
        <time>2022-06-27T21:46:10Z</time>
      </trkpt>
      <trkpt lat="43.89876" lon="-1.29231">
        <ele>20</ele>
        <time>2022-06-27T21:46:20Z</time>
      </trkpt>
      <trkpt lat="43.8998" lon="-1.29251">
        <ele>22</ele>
        <time>2022-06-27T21:46:39Z</time>
      </trkpt>
      <trkpt lat="43.90077" lon="-1.29259">
        <ele>25</ele>
        <time>2022-06-27T21:46:56Z</time>
      </trkpt>
      <trkpt lat="43.9013" lon="-1.29274">
        <ele>27</ele>
        <time>2022-06-27T21:47:06Z</time>
      </trkpt>
      <trkpt lat="43.90183" lon="-1.29277">
        <ele>28</ele>
        <time>2022-06-27T21:47:15Z</time>
      </trkpt>
      <trkpt lat="43.90217" lon="-1.29285">
        <ele>28</ele>
        <time>2022-06-27T21:47:21Z</time>
      </trkpt>
      <trkpt lat="43.90295" lon="-1.29293">
        <ele>26</ele>
        <time>2022-06-27T21:47:35Z</time>
      </trkpt>
      <trkpt lat="43.90296" lon="-1.29279">
        <ele>25</ele>
        <time>2022-06-27T21:47:37Z</time>
      </trkpt>
      <trkpt lat="43.90305" lon="-1.2928">
        <ele>25</ele>
        <time>2022-06-27T21:47:39Z</time>
      </trkpt>
      <trkpt lat="43.90308" lon="-1.29271">
        <ele>24</ele>
        <time>2022-06-27T21:47:40Z</time>
      </trkpt>
      <trkpt lat="43.90321" lon="-1.29268">
        <ele>23</ele>
        <time>2022-06-27T21:47:42Z</time>
      </trkpt>
      <trkpt lat="43.90327" lon="-1.29284">
        <ele>24</ele>
        <time>2022-06-27T21:47:45Z</time>
      </trkpt>
      <trkpt lat="43.90368" lon="-1.2929">
        <ele>24</ele>
        <time>2022-06-27T21:47:52Z</time>
      </trkpt>
      <trkpt lat="43.90432" lon="-1.29314">
        <ele>27</ele>
        <time>2022-06-27T21:48:04Z</time>
      </trkpt>
      <trkpt lat="43.91281" lon="-1.29791">
        <ele>19</ele>
        <time>2022-06-27T21:50:47Z</time>
      </trkpt>
      <trkpt lat="43.91414" lon="-1.29871">
        <ele>16</ele>
        <time>2022-06-27T21:51:12Z</time>
      </trkpt>
      <trkpt lat="43.91428" lon="-1.29895">
        <ele>14</ele>
        <time>2022-06-27T21:51:16Z</time>
      </trkpt>
      <trkpt lat="43.9144" lon="-1.29938">
        <ele>13</ele>
        <time>2022-06-27T21:51:22Z</time>
      </trkpt>
      <trkpt lat="43.9142" lon="-1.30068">
        <ele>16</ele>
        <time>2022-06-27T21:51:39Z</time>
      </trkpt>
      <trkpt lat="43.91507" lon="-1.30347">
        <ele>17</ele>
        <time>2022-06-27T21:52:18Z</time>
      </trkpt>
      <trkpt lat="43.91519" lon="-1.30372">
        <ele>18</ele>
        <time>2022-06-27T21:52:22Z</time>
      </trkpt>
      <trkpt lat="43.91542" lon="-1.30395">
        <ele>19</ele>
        <time>2022-06-27T21:52:27Z</time>
      </trkpt>
      <trkpt lat="43.91573" lon="-1.3041">
        <ele>18</ele>
        <time>2022-06-27T21:52:33Z</time>
      </trkpt>
      <trkpt lat="43.91747" lon="-1.30455">
        <ele>21</ele>
        <time>2022-06-27T21:53:05Z</time>
      </trkpt>
      <trkpt lat="43.92047" lon="-1.30521">
        <ele>23</ele>
        <time>2022-06-27T21:53:59Z</time>
      </trkpt>
      <trkpt lat="43.92891" lon="-1.30562">
        <ele>24</ele>
        <time>2022-06-27T21:56:29Z</time>
      </trkpt>
      <trkpt lat="43.92939" lon="-1.30559">
        <ele>26</ele>
        <time>2022-06-27T21:56:37Z</time>
      </trkpt>
      <trkpt lat="43.93361" lon="-1.3049">
        <ele>26</ele>
        <time>2022-06-27T21:57:53Z</time>
      </trkpt>
      <trkpt lat="43.93423" lon="-1.30485">
        <ele>29</ele>
        <time>2022-06-27T21:58:04Z</time>
      </trkpt>
      <trkpt lat="43.93658" lon="-1.30492">
        <ele>28</ele>
        <time>2022-06-27T21:58:46Z</time>
      </trkpt>
      <trkpt lat="43.93691" lon="-1.30487">
        <ele>28</ele>
        <time>2022-06-27T21:58:52Z</time>
      </trkpt>
      <trkpt lat="43.93721" lon="-1.30476">
        <ele>29</ele>
        <time>2022-06-27T21:58:57Z</time>
      </trkpt>
      <trkpt lat="43.9396" lon="-1.3035">
        <ele>32</ele>
        <time>2022-06-27T21:59:43Z</time>
      </trkpt>
      <trkpt lat="43.94048" lon="-1.30321">
        <ele>31</ele>
        <time>2022-06-27T21:59:59Z</time>
      </trkpt>
      <trkpt lat="43.94145" lon="-1.30302">
        <ele>32</ele>
        <time>2022-06-27T22:00:16Z</time>
      </trkpt>
      <trkpt lat="43.94388" lon="-1.30285">
        <ele>33</ele>
        <time>2022-06-27T22:01:00Z</time>
      </trkpt>
      <trkpt lat="43.947" lon="-1.30224">
        <ele>26</ele>
        <time>2022-06-27T22:01:56Z</time>
      </trkpt>
      <trkpt lat="43.94847" lon="-1.30231">
        <ele>27</ele>
        <time>2022-06-27T22:02:22Z</time>
      </trkpt>
      <trkpt lat="43.94877" lon="-1.30227">
        <ele>27</ele>
        <time>2022-06-27T22:02:27Z</time>
      </trkpt>
      <trkpt lat="43.95006" lon="-1.30182">
        <ele>30</ele>
        <time>2022-06-27T22:02:51Z</time>
      </trkpt>
      <trkpt lat="43.95116" lon="-1.30126">
        <ele>31</ele>
        <time>2022-06-27T22:03:12Z</time>
      </trkpt>
      <trkpt lat="43.96043" lon="-1.2987">
        <ele>34</ele>
        <time>2022-06-27T22:06:00Z</time>
      </trkpt>
      <trkpt lat="43.96321" lon="-1.29704">
        <ele>40</ele>
        <time>2022-06-27T22:06:54Z</time>
      </trkpt>
      <trkpt lat="43.96524" lon="-1.29643">
        <ele>35</ele>
        <time>2022-06-27T22:07:31Z</time>
      </trkpt>
      <trkpt lat="43.96771" lon="-1.29559">
        <ele>42</ele>
        <time>2022-06-27T22:08:16Z</time>
      </trkpt>
      <trkpt lat="43.96797" lon="-1.29546">
        <ele>43</ele>
        <time>2022-06-27T22:08:21Z</time>
      </trkpt>
      <trkpt lat="43.96828" lon="-1.29519">
        <ele>45</ele>
        <time>2022-06-27T22:08:27Z</time>
      </trkpt>
      <trkpt lat="43.97221" lon="-1.29027">
        <ele>40</ele>
        <time>2022-06-27T22:10:01Z</time>
      </trkpt>
      <trkpt lat="43.9823" lon="-1.27739">
        <ele>40</ele>
        <time>2022-06-27T22:14:05Z</time>
      </trkpt>
      <trkpt lat="43.98364" lon="-1.27572">
        <ele>42</ele>
        <time>2022-06-27T22:14:37Z</time>
      </trkpt>
      <trkpt lat="43.98402" lon="-1.27537">
        <ele>42</ele>
        <time>2022-06-27T22:14:45Z</time>
      </trkpt>
      <trkpt lat="43.98441" lon="-1.27523">
        <ele>41</ele>
        <time>2022-06-27T22:14:53Z</time>
      </trkpt>
      <trkpt lat="43.98984" lon="-1.2742">
        <ele>37</ele>
        <time>2022-06-27T22:16:30Z</time>
      </trkpt>
      <trkpt lat="43.99151" lon="-1.27383">
        <ele>36</ele>
        <time>2022-06-27T22:17:00Z</time>
      </trkpt>
      <trkpt lat="43.99206" lon="-1.27346">
        <ele>37</ele>
        <time>2022-06-27T22:17:11Z</time>
      </trkpt>
      <trkpt lat="43.99457" lon="-1.27149">
        <ele>34</ele>
        <time>2022-06-27T22:18:02Z</time>
      </trkpt>
      <trkpt lat="43.9981" lon="-1.26938">
        <ele>35</ele>
        <time>2022-06-27T22:19:11Z</time>
      </trkpt>
      <trkpt lat="44.00388" lon="-1.26765">
        <ele>33</ele>
        <time>2022-06-27T22:20:56Z</time>
      </trkpt>
      <trkpt lat="44.01185" lon="-1.26472">
        <ele>31</ele>
        <time>2022-06-27T22:23:23Z</time>
      </trkpt>
      <trkpt lat="44.01232" lon="-1.26443">
        <ele>29</ele>
        <time>2022-06-27T22:23:32Z</time>
      </trkpt>
      <trkpt lat="44.01314" lon="-1.26347">
        <ele>25</ele>
        <time>2022-06-27T22:23:51Z</time>
      </trkpt>
      <trkpt lat="44.0137" lon="-1.26303">
        <ele>25</ele>
        <time>2022-06-27T22:24:02Z</time>
      </trkpt>
      <trkpt lat="44.01494" lon="-1.26244">
        <ele>27</ele>
        <time>2022-06-27T22:24:26Z</time>
      </trkpt>
      <trkpt lat="44.02593" lon="-1.25888">
        <ele>23</ele>
        <time>2022-06-27T22:27:46Z</time>
      </trkpt>
      <trkpt lat="44.02609" lon="-1.25877">
        <ele>22</ele>
        <time>2022-06-27T22:27:49Z</time>
      </trkpt>
      <trkpt lat="44.02617" lon="-1.25862">
        <ele>22</ele>
        <time>2022-06-27T22:27:52Z</time>
      </trkpt>
      <trkpt lat="44.02648" lon="-1.25868">
        <ele>20</ele>
        <time>2022-06-27T22:27:57Z</time>
      </trkpt>
      <trkpt lat="44.03233" lon="-1.25676">
        <ele>13</ele>
        <time>2022-06-27T22:29:44Z</time>
      </trkpt>
      <trkpt lat="44.03207" lon="-1.25611">
        <ele>14</ele>
        <time>2022-06-27T22:29:54Z</time>
      </trkpt>
      <trkpt lat="44.03193" lon="-1.25552">
        <ele>15</ele>
        <time>2022-06-27T22:30:02Z</time>
      </trkpt>
      <trkpt lat="44.03154" lon="-1.2525">
        <ele>18</ele>
        <time>2022-06-27T22:30:41Z</time>
      </trkpt>
      <trkpt lat="44.03457" lon="-1.2471">
        <ele>19</ele>
        <time>2022-06-27T22:32:09Z</time>
      </trkpt>
      <trkpt lat="44.03939" lon="-1.24116">
        <ele>15</ele>
        <time>2022-06-27T22:34:03Z</time>
      </trkpt>
      <trkpt lat="44.04127" lon="-1.23869">
        <ele>15</ele>
        <time>2022-06-27T22:34:49Z</time>
      </trkpt>
      <trkpt lat="44.04134" lon="-1.23848">
        <ele>15</ele>
        <time>2022-06-27T22:34:52Z</time>
      </trkpt>
      <trkpt lat="44.04205" lon="-1.23802">
        <ele>15</ele>
        <time>2022-06-27T22:35:06Z</time>
      </trkpt>
      <trkpt lat="44.04278" lon="-1.23774">
        <ele>16</ele>
        <time>2022-06-27T22:35:20Z</time>
      </trkpt>
      <trkpt lat="44.05329" lon="-1.23204">
        <ele>15</ele>
        <time>2022-06-27T22:38:40Z</time>
      </trkpt>
      <trkpt lat="44.05638" lon="-1.22905">
        <ele>27</ele>
        <time>2022-06-27T22:39:47Z</time>
      </trkpt>
      <trkpt lat="44.05661" lon="-1.22876">
        <ele>29</ele>
        <time>2022-06-27T22:39:53Z</time>
      </trkpt>
      <trkpt lat="44.05728" lon="-1.22716">
        <ele>31</ele>
        <time>2022-06-27T22:40:17Z</time>
      </trkpt>
      <trkpt lat="44.05807" lon="-1.22641">
        <ele>28</ele>
        <time>2022-06-27T22:40:34Z</time>
      </trkpt>
      <trkpt lat="44.05849" lon="-1.22611">
        <ele>26</ele>
        <time>2022-06-27T22:40:42Z</time>
      </trkpt>
      <trkpt lat="44.06054" lon="-1.22628">
        <ele>22</ele>
        <time>2022-06-27T22:41:19Z</time>
      </trkpt>
      <trkpt lat="44.06182" lon="-1.22609">
        <ele>24</ele>
        <time>2022-06-27T22:41:41Z</time>
      </trkpt>
      <trkpt lat="44.06201" lon="-1.22616">
        <ele>24</ele>
        <time>2022-06-27T22:41:45Z</time>
      </trkpt>
      <trkpt lat="44.06224" lon="-1.22635">
        <ele>24</ele>
        <time>2022-06-27T22:41:50Z</time>
      </trkpt>
      <trkpt lat="44.06254" lon="-1.22697">
        <ele>24</ele>
        <time>2022-06-27T22:41:59Z</time>
      </trkpt>
      <trkpt lat="44.06271" lon="-1.22701">
        <ele>24</ele>
        <time>2022-06-27T22:42:02Z</time>
      </trkpt>
      <trkpt lat="44.06375" lon="-1.22688">
        <ele>22</ele>
        <time>2022-06-27T22:42:21Z</time>
      </trkpt>
      <trkpt lat="44.06414" lon="-1.22695">
        <ele>21</ele>
        <time>2022-06-27T22:42:28Z</time>
      </trkpt>
      <trkpt lat="44.06742" lon="-1.22878">
        <ele>10</ele>
        <time>2022-06-27T22:43:31Z</time>
      </trkpt>
      <trkpt lat="44.06744" lon="-1.22873">
        <ele>10</ele>
        <time>2022-06-27T22:43:31Z</time>
      </trkpt>
      <trkpt lat="44.0718" lon="-1.23121">
        <ele>10</ele>
        <time>2022-06-27T22:44:55Z</time>
      </trkpt>
      <trkpt lat="44.07229" lon="-1.2314">
        <ele>10</ele>
        <time>2022-06-27T22:45:04Z</time>
      </trkpt>
      <trkpt lat="44.07398" lon="-1.23183">
        <ele>11</ele>
        <time>2022-06-27T22:45:35Z</time>
      </trkpt>
      <trkpt lat="44.07451" lon="-1.23174">
        <ele>12</ele>
        <time>2022-06-27T22:45:44Z</time>
      </trkpt>
      <trkpt lat="44.07484" lon="-1.23135">
        <ele>13</ele>
        <time>2022-06-27T22:45:52Z</time>
      </trkpt>
      <trkpt lat="44.07492" lon="-1.23135">
        <ele>13</ele>
        <time>2022-06-27T22:45:54Z</time>
      </trkpt>
      <trkpt lat="44.07506" lon="-1.23147">
        <ele>13</ele>
        <time>2022-06-27T22:45:56Z</time>
      </trkpt>
      <trkpt lat="44.07531" lon="-1.2315">
        <ele>13</ele>
        <time>2022-06-27T22:46:01Z</time>
      </trkpt>
      <trkpt lat="44.07759" lon="-1.23084">
        <ele>14</ele>
        <time>2022-06-27T22:46:42Z</time>
      </trkpt>
      <trkpt lat="44.09133" lon="-1.23165">
        <ele>26</ele>
        <time>2022-06-27T22:50:47Z</time>
      </trkpt>
      <trkpt lat="44.09738" lon="-1.2324">
        <ele>33</ele>
        <time>2022-06-27T22:52:35Z</time>
      </trkpt>
      <trkpt lat="44.10914" lon="-1.23397">
        <ele>37</ele>
        <time>2022-06-27T22:56:05Z</time>
      </trkpt>
      <trkpt lat="44.11283" lon="-1.2344">
        <ele>32</ele>
        <time>2022-06-27T22:57:11Z</time>
      </trkpt>
      <trkpt lat="44.11311" lon="-1.23436">
        <ele>32</ele>
        <time>2022-06-27T22:57:16Z</time>
      </trkpt>
      <trkpt lat="44.11342" lon="-1.23423">
        <ele>31</ele>
        <time>2022-06-27T22:57:22Z</time>
      </trkpt>
      <trkpt lat="44.11529" lon="-1.23321">
        <ele>44</ele>
        <time>2022-06-27T22:57:58Z</time>
      </trkpt>
      <trkpt lat="44.11642" lon="-1.23252">
        <ele>45</ele>
        <time>2022-06-27T22:58:20Z</time>
      </trkpt>
      <trkpt lat="44.12346" lon="-1.22738">
        <ele>36</ele>
        <time>2022-06-27T23:00:41Z</time>
      </trkpt>
      <trkpt lat="44.1334" lon="-1.21976">
        <ele>44</ele>
        <time>2022-06-27T23:04:03Z</time>
      </trkpt>
      <trkpt lat="44.13651" lon="-1.21758">
        <ele>52</ele>
        <time>2022-06-27T23:05:05Z</time>
      </trkpt>
      <trkpt lat="44.137" lon="-1.21748">
        <ele>49</ele>
        <time>2022-06-27T23:05:14Z</time>
      </trkpt>
      <trkpt lat="44.14142" lon="-1.21746">
        <ele>43</ele>
        <time>2022-06-27T23:06:32Z</time>
      </trkpt>
      <trkpt lat="44.14176" lon="-1.21769">
        <ele>44</ele>
        <time>2022-06-27T23:06:39Z</time>
      </trkpt>
      <trkpt lat="44.1444" lon="-1.22006">
        <ele>46</ele>
        <time>2022-06-27T23:07:35Z</time>
      </trkpt>
      <trkpt lat="44.1447" lon="-1.22021">
        <ele>45</ele>
        <time>2022-06-27T23:07:41Z</time>
      </trkpt>
      <trkpt lat="44.14501" lon="-1.2202">
        <ele>45</ele>
        <time>2022-06-27T23:07:46Z</time>
      </trkpt>
      <trkpt lat="44.14539" lon="-1.2199">
        <ele>44</ele>
        <time>2022-06-27T23:07:54Z</time>
      </trkpt>
      <trkpt lat="44.14724" lon="-1.2168">
        <ele>44</ele>
        <time>2022-06-27T23:08:45Z</time>
      </trkpt>
      <trkpt lat="44.1477" lon="-1.21637">
        <ele>43</ele>
        <time>2022-06-27T23:08:55Z</time>
      </trkpt>
      <trkpt lat="44.14779" lon="-1.21589">
        <ele>43</ele>
        <time>2022-06-27T23:09:02Z</time>
      </trkpt>
      <trkpt lat="44.15023" lon="-1.21516">
        <ele>46</ele>
        <time>2022-06-27T23:09:46Z</time>
      </trkpt>
      <trkpt lat="44.15198" lon="-1.2147">
        <ele>45</ele>
        <time>2022-06-27T23:10:18Z</time>
      </trkpt>
      <trkpt lat="44.15291" lon="-1.21478">
        <ele>45</ele>
        <time>2022-06-27T23:10:34Z</time>
      </trkpt>
      <trkpt lat="44.16295" lon="-1.21909">
        <ele>39</ele>
        <time>2022-06-27T23:13:41Z</time>
      </trkpt>
      <trkpt lat="44.1644" lon="-1.21961">
        <ele>40</ele>
        <time>2022-06-27T23:14:08Z</time>
      </trkpt>
      <trkpt lat="44.16777" lon="-1.21981">
        <ele>37</ele>
        <time>2022-06-27T23:15:08Z</time>
      </trkpt>
      <trkpt lat="44.16822" lon="-1.21994">
        <ele>37</ele>
        <time>2022-06-27T23:15:16Z</time>
      </trkpt>
      <trkpt lat="44.169" lon="-1.22044">
        <ele>35</ele>
        <time>2022-06-27T23:15:31Z</time>
      </trkpt>
      <trkpt lat="44.17338" lon="-1.22377">
        <ele>34</ele>
        <time>2022-06-27T23:17:00Z</time>
      </trkpt>
      <trkpt lat="44.17374" lon="-1.22398">
        <ele>34</ele>
        <time>2022-06-27T23:17:07Z</time>
      </trkpt>
      <trkpt lat="44.17459" lon="-1.22438">
        <ele>34</ele>
        <time>2022-06-27T23:17:23Z</time>
      </trkpt>
      <trkpt lat="44.18022" lon="-1.22651">
        <ele>32</ele>
        <time>2022-06-27T23:19:07Z</time>
      </trkpt>
      <trkpt lat="44.18594" lon="-1.228">
        <ele>29</ele>
        <time>2022-06-27T23:20:50Z</time>
      </trkpt>
      <trkpt lat="44.19311" lon="-1.22976">
        <ele>20</ele>
        <time>2022-06-27T23:23:00Z</time>
      </trkpt>
      <trkpt lat="44.19331" lon="-1.2296">
        <ele>20</ele>
        <time>2022-06-27T23:23:04Z</time>
      </trkpt>
      <trkpt lat="44.19338" lon="-1.22945">
        <ele>20</ele>
        <time>2022-06-27T23:23:06Z</time>
      </trkpt>
      <trkpt lat="44.19347" lon="-1.22942">
        <ele>20</ele>
        <time>2022-06-27T23:23:08Z</time>
      </trkpt>
      <trkpt lat="44.19356" lon="-1.22947">
        <ele>20</ele>
        <time>2022-06-27T23:23:10Z</time>
      </trkpt>
      <trkpt lat="44.19373" lon="-1.22981">
        <ele>20</ele>
        <time>2022-06-27T23:23:15Z</time>
      </trkpt>
      <trkpt lat="44.19404" lon="-1.22984">
        <ele>20</ele>
        <time>2022-06-27T23:23:20Z</time>
      </trkpt>
      <trkpt lat="44.1999" lon="-1.22974">
        <ele>15</ele>
        <time>2022-06-27T23:25:05Z</time>
      </trkpt>
      <trkpt lat="44.19995" lon="-1.22943">
        <ele>14</ele>
        <time>2022-06-27T23:25:09Z</time>
      </trkpt>
      <trkpt lat="44.1999" lon="-1.22918">
        <ele>14</ele>
        <time>2022-06-27T23:25:12Z</time>
      </trkpt>
      <trkpt lat="44.20036" lon="-1.22749">
        <ele>17</ele>
        <time>2022-06-27T23:25:35Z</time>
      </trkpt>
      <trkpt lat="44.20044" lon="-1.22745">
        <ele>18</ele>
        <time>2022-06-27T23:25:37Z</time>
      </trkpt>
      <trkpt lat="44.20223" lon="-1.22445">
        <ele>17</ele>
        <time>2022-06-27T23:26:26Z</time>
      </trkpt>
      <trkpt lat="44.20246" lon="-1.22416">
        <ele>18</ele>
        <time>2022-06-27T23:26:32Z</time>
      </trkpt>
      <trkpt lat="44.2031" lon="-1.22352">
        <ele>18</ele>
        <time>2022-06-27T23:26:46Z</time>
      </trkpt>
      <trkpt lat="44.20234" lon="-1.22279">
        <ele>17</ele>
        <time>2022-06-27T23:27:02Z</time>
        <extensions>
          <visugpx:TrkExtension xmlns:visugpx="https://www.visugpx.com/editgpx/">
            <visugpx:node>1</visugpx:node>
            </visugpx:TrkExtension>
        </extensions>
      </trkpt>
      <trkpt lat="44.20238" lon="-1.22284">
        <ele>16.4</ele>
      </trkpt>
      <trkpt lat="44.20276" lon="-1.22309">
        <ele>16</ele>
      </trkpt>
      <trkpt lat="44.20305" lon="-1.22345">
        <ele>16</ele>
      </trkpt>
      <trkpt lat="44.20314" lon="-1.22355">
        <ele>16</ele>
      </trkpt>
      <trkpt lat="44.20439" lon="-1.22456">
        <ele>13</ele>
      </trkpt>
      <trkpt lat="44.20471" lon="-1.22383">
        <ele>13</ele>
      </trkpt>
      <trkpt lat="44.20475" lon="-1.22372">
        <ele>13</ele>
      </trkpt>
      <trkpt lat="44.20498" lon="-1.22319">
        <ele>13</ele>
      </trkpt>
      <trkpt lat="44.20506" lon="-1.22299">
        <ele>13.4</ele>
      </trkpt>
      <trkpt lat="44.20548" lon="-1.22202">
        <ele>13</ele>
      </trkpt>
      <trkpt lat="44.20558" lon="-1.22182">
        <ele>13</ele>
      </trkpt>
      <trkpt lat="44.20561" lon="-1.22176">
        <ele>13</ele>
      </trkpt>
      <trkpt lat="44.20564" lon="-1.22165">
        <ele>13.1</ele>
      </trkpt>
      <trkpt lat="44.20565" lon="-1.22157">
        <ele>13.5</ele>
      </trkpt>
      <trkpt lat="44.20592" lon="-1.22093">
        <ele>14.1</ele>
      </trkpt>
      <trkpt lat="44.20597" lon="-1.22082">
        <ele>14</ele>
      </trkpt>
      <trkpt lat="44.20609" lon="-1.22053">
        <ele>13.2</ele>
      </trkpt>
      <trkpt lat="44.20611" lon="-1.22049">
        <ele>13.2</ele>
      </trkpt>
      <trkpt lat="44.20612" lon="-1.22047">
        <ele>13.3</ele>
      </trkpt>
      <trkpt lat="44.2066" lon="-1.21937">
        <ele>14.2</ele>
      </trkpt>
      <trkpt lat="44.2067" lon="-1.21913">
        <ele>14</ele>
      </trkpt>
      <trkpt lat="44.20672" lon="-1.21899">
        <ele>14.3</ele>
      </trkpt>
      <trkpt lat="44.20672" lon="-1.21887">
        <ele>14.6</ele>
      </trkpt>
      <trkpt lat="44.20671" lon="-1.21887">
        <ele>14.7</ele>
      </trkpt>
      <trkpt lat="44.2067" lon="-1.21885">
        <ele>14.8</ele>
      </trkpt>
      <trkpt lat="44.2067" lon="-1.21883">
        <ele>14.8</ele>
      </trkpt>
      <trkpt lat="44.20669" lon="-1.21875">
        <ele>14.9</ele>
      </trkpt>
      <trkpt lat="44.2067" lon="-1.21872">
        <ele>14.9</ele>
      </trkpt>
      <trkpt lat="44.20672" lon="-1.21869">
        <ele>14.9</ele>
      </trkpt>
      <trkpt lat="44.20675" lon="-1.21867">
        <ele>14.9</ele>
      </trkpt>
      <trkpt lat="44.20677" lon="-1.21866">
        <ele>14.9</ele>
      </trkpt>
      <trkpt lat="44.20679" lon="-1.21867">
        <ele>14.8</ele>
      </trkpt>
      <trkpt lat="44.2068" lon="-1.21867">
        <ele>14.8</ele>
      </trkpt>
      <trkpt lat="44.20685" lon="-1.21865">
        <ele>14.8</ele>
      </trkpt>
      <trkpt lat="44.2069" lon="-1.21863">
        <ele>14.9</ele>
      </trkpt>
      <trkpt lat="44.20697" lon="-1.21857">
        <ele>14.8</ele>
      </trkpt>
      <trkpt lat="44.207" lon="-1.21852">
        <ele>14.7</ele>
      </trkpt>
      <trkpt lat="44.208" lon="-1.21618">
        <ele>16</ele>
      </trkpt>
      <trkpt lat="44.20853" lon="-1.21494">
        <ele>16.2</ele>
      </trkpt>
      <trkpt lat="44.20866" lon="-1.21462">
        <ele>16</ele>
      </trkpt>
      <trkpt lat="44.20871" lon="-1.21448">
        <ele>16</ele>
      </trkpt>
      <trkpt lat="44.20878" lon="-1.21425">
        <ele>16</ele>
      </trkpt>
      <trkpt lat="44.20891" lon="-1.21377">
        <ele>15.9</ele>
      </trkpt>
      <trkpt lat="44.20928" lon="-1.21238">
        <ele>15.2</ele>
      </trkpt>
      <trkpt lat="44.20934" lon="-1.21216">
        <ele>15.7</ele>
      </trkpt>
      <trkpt lat="44.20938" lon="-1.21202">
        <ele>15.9</ele>
      </trkpt>
      <trkpt lat="44.20943" lon="-1.21186">
        <ele>16</ele>
      </trkpt>
      <trkpt lat="44.20945" lon="-1.21178">
        <ele>16</ele>
      </trkpt>
      <trkpt lat="44.20952" lon="-1.2116">
        <ele>16</ele>
      </trkpt>
      <trkpt lat="44.20985" lon="-1.21095">
        <ele>16</ele>
      </trkpt>
      <trkpt lat="44.21069" lon="-1.2095">
        <ele>15.1</ele>
      </trkpt>
      <trkpt lat="44.21083" lon="-1.20924">
        <ele>15</ele>
      </trkpt>
      <trkpt lat="44.21104" lon="-1.20888">
        <ele>15</ele>
      </trkpt>
      <trkpt lat="44.21124" lon="-1.20847">
        <ele>15</ele>
      </trkpt>
      <trkpt lat="44.21146" lon="-1.20796">
        <ele>14.4</ele>
      </trkpt>
      <trkpt lat="44.21152" lon="-1.20781">
        <ele>13.6</ele>
      </trkpt>
      <trkpt lat="44.21175" lon="-1.20712">
        <ele>14</ele>
      </trkpt>
      <trkpt lat="44.21221" lon="-1.20577">
        <ele>15</ele>
      </trkpt>
      <trkpt lat="44.21293" lon="-1.20356">
        <ele>15</ele>
      </trkpt>
      <trkpt lat="44.21316" lon="-1.20286">
        <ele>14.6</ele>
      </trkpt>
      <trkpt lat="44.21323" lon="-1.20265">
        <ele>14.7</ele>
      </trkpt>
      <trkpt lat="44.21342" lon="-1.20206">
        <ele>14.7</ele>
      </trkpt>
      <trkpt lat="44.21347" lon="-1.2019">
        <ele>14.6</ele>
      </trkpt>
      <trkpt lat="44.21369" lon="-1.20132">
        <ele>14.8</ele>
      </trkpt>
      <trkpt lat="44.21401" lon="-1.20035">
        <ele>15</ele>
      </trkpt>
      <trkpt lat="44.21425" lon="-1.19962">
        <ele>14.8</ele>
      </trkpt>
      <trkpt lat="44.21427" lon="-1.19957">
        <ele>14.8</ele>
      </trkpt>
      <trkpt lat="44.21486" lon="-1.19779">
        <ele>15</ele>
      </trkpt>
      <trkpt lat="44.21507" lon="-1.19713">
        <ele>14.7</ele>
      </trkpt>
      <trkpt lat="44.21519" lon="-1.19661">
        <ele>14.3</ele>
      </trkpt>
      <trkpt lat="44.21521" lon="-1.19646">
        <ele>14.2</ele>
      </trkpt>
      <trkpt lat="44.21523" lon="-1.19629">
        <ele>14.5</ele>
      </trkpt>
      <trkpt lat="44.21524" lon="-1.19604">
        <ele>15</ele>
      </trkpt>
      <trkpt lat="44.21523" lon="-1.1959">
        <ele>15</ele>
      </trkpt>
      <trkpt lat="44.21521" lon="-1.1957">
        <ele>15</ele>
      </trkpt>
      <trkpt lat="44.2152" lon="-1.19563">
        <ele>15</ele>
      </trkpt>
      <trkpt lat="44.21519" lon="-1.1956">
        <ele>15</ele>
      </trkpt>
      <trkpt lat="44.21517" lon="-1.19551">
        <ele>15</ele>
      </trkpt>
      <trkpt lat="44.21518" lon="-1.19546">
        <ele>15</ele>
      </trkpt>
      <trkpt lat="44.2152" lon="-1.19542">
        <ele>15</ele>
      </trkpt>
      <trkpt lat="44.21522" lon="-1.19539">
        <ele>15</ele>
      </trkpt>
      <trkpt lat="44.21524" lon="-1.1953">
        <ele>15</ele>
      </trkpt>
      <trkpt lat="44.21523" lon="-1.19509">
        <ele>14.9</ele>
      </trkpt>
      <trkpt lat="44.21523" lon="-1.19495">
        <ele>14.7</ele>
      </trkpt>
      <trkpt lat="44.21522" lon="-1.19487">
        <ele>14.4</ele>
      </trkpt>
      <trkpt lat="44.21512" lon="-1.19336">
        <ele>14.6</ele>
      </trkpt>
      <trkpt lat="44.2151" lon="-1.19315">
        <ele>14.9</ele>
      </trkpt>
      <trkpt lat="44.21509" lon="-1.19292">
        <ele>15</ele>
      </trkpt>
      <trkpt lat="44.21502" lon="-1.19196">
        <ele>14.9</ele>
      </trkpt>
      <trkpt lat="44.215" lon="-1.19175">
        <ele>15</ele>
      </trkpt>
      <trkpt lat="44.21499" lon="-1.19155">
        <ele>14.6</ele>
      </trkpt>
      <trkpt lat="44.21485" lon="-1.18957">
        <ele>13</ele>
      </trkpt>
      <trkpt lat="44.21479" lon="-1.18876">
        <ele>12</ele>
      </trkpt>
      <trkpt lat="44.21476" lon="-1.18856">
        <ele>12.2</ele>
      </trkpt>
      <trkpt lat="44.21472" lon="-1.18838">
        <ele>12.8</ele>
      </trkpt>
      <trkpt lat="44.21469" lon="-1.18827">
        <ele>13.2</ele>
      </trkpt>
      <trkpt lat="44.21464" lon="-1.18824">
        <ele>13.2</ele>
      </trkpt>
      <trkpt lat="44.21461" lon="-1.18819">
        <ele>13.3</ele>
      </trkpt>
      <trkpt lat="44.21458" lon="-1.18813">
        <ele>13.4</ele>
      </trkpt>
      <trkpt lat="44.21457" lon="-1.18806">
        <ele>13.4</ele>
      </trkpt>
      <trkpt lat="44.21457" lon="-1.18799">
        <ele>13.5</ele>
      </trkpt>
      <trkpt lat="44.21459" lon="-1.18792">
        <ele>13.5</ele>
      </trkpt>
      <trkpt lat="44.21462" lon="-1.18787">
        <ele>13.5</ele>
      </trkpt>
      <trkpt lat="44.21462" lon="-1.18786">
        <ele>13.4</ele>
      </trkpt>
      <trkpt lat="44.21466" lon="-1.18778">
        <ele>13.2</ele>
      </trkpt>
      <trkpt lat="44.21469" lon="-1.18757">
        <ele>13.1</ele>
      </trkpt>
      <trkpt lat="44.21469" lon="-1.18731">
        <ele>13.1</ele>
      </trkpt>
      <trkpt lat="44.21468" lon="-1.18718">
        <ele>13.3</ele>
      </trkpt>
      <trkpt lat="44.21464" lon="-1.18662">
        <ele>14</ele>
      </trkpt>
      <trkpt lat="44.2146" lon="-1.18608">
        <ele>14</ele>
      </trkpt>
      <trkpt lat="44.21456" lon="-1.18554">
        <ele>14</ele>
      </trkpt>
      <trkpt lat="44.21449" lon="-1.18461">
        <ele>14.8</ele>
      </trkpt>
      <trkpt lat="44.21446" lon="-1.18426">
        <ele>14.9</ele>
      </trkpt>
      <trkpt lat="44.21438" lon="-1.18371">
        <ele>14</ele>
      </trkpt>
      <trkpt lat="44.21437" lon="-1.18364">
        <ele>14</ele>
      </trkpt>
      <trkpt lat="44.21437" lon="-1.18357">
        <ele>14</ele>
      </trkpt>
      <trkpt lat="44.21437" lon="-1.18347">
        <ele>14</ele>
      </trkpt>
      <trkpt lat="44.2144" lon="-1.18323">
        <ele>14.4</ele>
      </trkpt>
      <trkpt lat="44.21451" lon="-1.18276">
        <ele>14</ele>
      </trkpt>
      <trkpt lat="44.21456" lon="-1.18251">
        <ele>14</ele>
      </trkpt>
      <trkpt lat="44.21509" lon="-1.17987">
        <ele>11</ele>
      </trkpt>
      <trkpt lat="44.21629" lon="-1.17379">
        <ele>13.2</ele>
      </trkpt>
      <trkpt lat="44.21653" lon="-1.17257">
        <ele>12.6</ele>
      </trkpt>
      <trkpt lat="44.2167" lon="-1.17201">
        <ele>12</ele>
      </trkpt>
      <trkpt lat="44.21703" lon="-1.17101">
        <ele>11.6</ele>
      </trkpt>
      <trkpt lat="44.21737" lon="-1.17">
        <ele>12.5</ele>
      </trkpt>
      <trkpt lat="44.21745" lon="-1.16978">
        <ele>12.8</ele>
      </trkpt>
      <trkpt lat="44.21859" lon="-1.16637">
        <ele>10.9</ele>
      </trkpt>
      <trkpt lat="44.21916" lon="-1.16467">
        <ele>12</ele>
      </trkpt>
      <trkpt lat="44.21948" lon="-1.16381">
        <ele>11.9</ele>
      </trkpt>
      <trkpt lat="44.22021" lon="-1.16195">
        <ele>12</ele>
      </trkpt>
      <trkpt lat="44.22086" lon="-1.16029">
        <ele>11.9</ele>
      </trkpt>
      <trkpt lat="44.22281" lon="-1.15529">
        <ele>12</ele>
      </trkpt>
      <trkpt lat="44.22293" lon="-1.15501">
        <ele>12</ele>
      </trkpt>
      <trkpt lat="44.22304" lon="-1.15483">
        <ele>12</ele>
      </trkpt>
      <trkpt lat="44.2231" lon="-1.1547">
        <ele>12</ele>
      </trkpt>
      <trkpt lat="44.22313" lon="-1.15457">
        <ele>12</ele>
      </trkpt>
      <trkpt lat="44.22316" lon="-1.15443">
        <ele>12</ele>
      </trkpt>
      <trkpt lat="44.22319" lon="-1.15433">
        <ele>12</ele>
      </trkpt>
      <trkpt lat="44.22329" lon="-1.15408">
        <ele>12</ele>
      </trkpt>
      <trkpt lat="44.22374" lon="-1.15295">
        <ele>12.8</ele>
      </trkpt>
      <trkpt lat="44.22386" lon="-1.15255">
        <ele>13</ele>
      </trkpt>
      <trkpt lat="44.22388" lon="-1.15248">
        <ele>13</ele>
      </trkpt>
      <trkpt lat="44.2239" lon="-1.15242">
        <ele>13</ele>
      </trkpt>
      <trkpt lat="44.22393" lon="-1.15226">
        <ele>13</ele>
      </trkpt>
      <trkpt lat="44.22395" lon="-1.15206">
        <ele>13</ele>
      </trkpt>
      <trkpt lat="44.22396" lon="-1.15185">
        <ele>13</ele>
      </trkpt>
      <trkpt lat="44.22397" lon="-1.15171">
        <ele>13</ele>
      </trkpt>
      <trkpt lat="44.22397" lon="-1.15162">
        <ele>13</ele>
      </trkpt>
      <trkpt lat="44.22395" lon="-1.15115">
        <ele>13.7</ele>
      </trkpt>
      <trkpt lat="44.22395" lon="-1.15112">
        <ele>13.8</ele>
      </trkpt>
      <trkpt lat="44.22394" lon="-1.15109">
        <ele>13.8</ele>
      </trkpt>
      <trkpt lat="44.22394" lon="-1.15104">
        <ele>13.9</ele>
      </trkpt>
      <trkpt lat="44.22394" lon="-1.15091">
        <ele>13.9</ele>
      </trkpt>
      <trkpt lat="44.22395" lon="-1.15052">
        <ele>14.1</ele>
      </trkpt>
      <trkpt lat="44.22402" lon="-1.14975">
        <ele>14.1</ele>
      </trkpt>
      <trkpt lat="44.22403" lon="-1.14965">
        <ele>13.9</ele>
      </trkpt>
      <trkpt lat="44.22408" lon="-1.1491">
        <ele>13.4</ele>
      </trkpt>
      <trkpt lat="44.22409" lon="-1.14907">
        <ele>13.4</ele>
      </trkpt>
      <trkpt lat="44.22412" lon="-1.14881">
        <ele>13.8</ele>
      </trkpt>
      <trkpt lat="44.22419" lon="-1.14852">
        <ele>14.3</ele>
      </trkpt>
      <trkpt lat="44.22421" lon="-1.14839">
        <ele>14.5</ele>
      </trkpt>
      <trkpt lat="44.22421" lon="-1.14831">
        <ele>14.6</ele>
      </trkpt>
      <trkpt lat="44.22423" lon="-1.14765">
        <ele>13.8</ele>
      </trkpt>
      <trkpt lat="44.22442" lon="-1.1458">
        <ele>15.9</ele>
      </trkpt>
      <trkpt lat="44.22451" lon="-1.1452">
        <ele>15.5</ele>
      </trkpt>
      <trkpt lat="44.22461" lon="-1.1447">
        <ele>17</ele>
      </trkpt>
      <trkpt lat="44.22476" lon="-1.14422">
        <ele>15.9</ele>
      </trkpt>
      <trkpt lat="44.22546" lon="-1.14225">
        <ele>15.3</ele>
      </trkpt>
      <trkpt lat="44.22562" lon="-1.1418">
        <ele>15.4</ele>
      </trkpt>
      <trkpt lat="44.22603" lon="-1.14065">
        <ele>15</ele>
      </trkpt>
      <trkpt lat="44.22612" lon="-1.14038">
        <ele>15</ele>
        <extensions>
          <visugpx:TrkExtension xmlns:visugpx="https://www.visugpx.com/editgpx/">
            <visugpx:node>2</visugpx:node>
            </visugpx:TrkExtension>
        </extensions>
      </trkpt>
      <trkpt lat="44.22656" lon="-1.13914">
        <ele>15.1</ele>
      </trkpt>
      <trkpt lat="44.22662" lon="-1.139">
        <ele>15.5</ele>
      </trkpt>
      <trkpt lat="44.22671" lon="-1.13879">
        <ele>16.1</ele>
      </trkpt>
      <trkpt lat="44.2268" lon="-1.13862">
        <ele>16.5</ele>
      </trkpt>
      <trkpt lat="44.22683" lon="-1.13856">
        <ele>16.5</ele>
      </trkpt>
      <trkpt lat="44.22687" lon="-1.13849">
        <ele>16.4</ele>
      </trkpt>
      <trkpt lat="44.22704" lon="-1.13822">
        <ele>16.9</ele>
      </trkpt>
      <trkpt lat="44.22748" lon="-1.13766">
        <ele>16.3</ele>
      </trkpt>
      <trkpt lat="44.22855" lon="-1.13628">
        <ele>13</ele>
      </trkpt>
      <trkpt lat="44.22858" lon="-1.13625">
        <ele>13</ele>
      </trkpt>
      <trkpt lat="44.22868" lon="-1.13612">
        <ele>13</ele>
      </trkpt>
      <trkpt lat="44.22904" lon="-1.13564">
        <ele>13.9</ele>
      </trkpt>
      <trkpt lat="44.22921" lon="-1.13542">
        <ele>14.7</ele>
      </trkpt>
      <trkpt lat="44.2293" lon="-1.13531">
        <ele>15</ele>
      </trkpt>
      <trkpt lat="44.22938" lon="-1.1352">
        <ele>15.5</ele>
      </trkpt>
      <trkpt lat="44.22956" lon="-1.135">
        <ele>16</ele>
      </trkpt>
      <trkpt lat="44.22995" lon="-1.13465">
        <ele>17</ele>
      </trkpt>
      <trkpt lat="44.23003" lon="-1.13457">
        <ele>17</ele>
      </trkpt>
      <trkpt lat="44.23096" lon="-1.13375">
        <ele>17.5</ele>
      </trkpt>
      <trkpt lat="44.23204" lon="-1.13281">
        <ele>18</ele>
      </trkpt>
      <trkpt lat="44.23271" lon="-1.13227">
        <ele>18</ele>
      </trkpt>
      <trkpt lat="44.2336" lon="-1.13162">
        <ele>18.2</ele>
      </trkpt>
      <trkpt lat="44.23458" lon="-1.13092">
        <ele>19</ele>
      </trkpt>
      <trkpt lat="44.23535" lon="-1.13037">
        <ele>19.9</ele>
      </trkpt>
      <trkpt lat="44.2366" lon="-1.12948">
        <ele>20.8</ele>
      </trkpt>
      <trkpt lat="44.23796" lon="-1.12851">
        <ele>22</ele>
      </trkpt>
      <trkpt lat="44.23904" lon="-1.12774">
        <ele>23</ele>
      </trkpt>
      <trkpt lat="44.24041" lon="-1.12677">
        <ele>24</ele>
      </trkpt>
      <trkpt lat="44.24213" lon="-1.12553">
        <ele>25.7</ele>
      </trkpt>
      <trkpt lat="44.24224" lon="-1.12542">
        <ele>26</ele>
      </trkpt>
      <trkpt lat="44.2423" lon="-1.12531">
        <ele>26</ele>
      </trkpt>
      <trkpt lat="44.24231" lon="-1.12528">
        <ele>26</ele>
      </trkpt>
      <trkpt lat="44.24236" lon="-1.12533">
        <ele>26</ele>
      </trkpt>
      <trkpt lat="44.24237" lon="-1.12534">
        <ele>26</ele>
        <extensions>
          <visugpx:TrkExtension xmlns:visugpx="https://www.visugpx.com/editgpx/">
            <visugpx:node>3</visugpx:node>
            </visugpx:TrkExtension>
        </extensions>
      </trkpt>
      <trkpt lat="44.24236" lon="-1.12533">
        <ele>26</ele>
      </trkpt>
      <trkpt lat="44.24231" lon="-1.12528">
        <ele>26</ele>
      </trkpt>
      <trkpt lat="44.24233" lon="-1.12522">
        <ele>26</ele>
      </trkpt>
      <trkpt lat="44.24236" lon="-1.1251">
        <ele>26</ele>
      </trkpt>
      <trkpt lat="44.24236" lon="-1.12493">
        <ele>25.7</ele>
      </trkpt>
      <trkpt lat="44.24224" lon="-1.12425">
        <ele>25</ele>
      </trkpt>
      <trkpt lat="44.24209" lon="-1.12351">
        <ele>24.6</ele>
      </trkpt>
      <trkpt lat="44.24187" lon="-1.12238">
        <ele>22.2</ele>
      </trkpt>
      <trkpt lat="44.24179" lon="-1.12205">
        <ele>23.4</ele>
      </trkpt>
      <trkpt lat="44.24176" lon="-1.12192">
        <ele>24.1</ele>
      </trkpt>
      <trkpt lat="44.24175" lon="-1.12186">
        <ele>24.2</ele>
      </trkpt>
      <trkpt lat="44.24173" lon="-1.12178">
        <ele>24.5</ele>
      </trkpt>
      <trkpt lat="44.24169" lon="-1.12166">
        <ele>24.9</ele>
      </trkpt>
      <trkpt lat="44.24167" lon="-1.12161">
        <ele>25</ele>
      </trkpt>
      <trkpt lat="44.24154" lon="-1.12129">
        <ele>25.5</ele>
      </trkpt>
      <trkpt lat="44.2414" lon="-1.12108">
        <ele>25.1</ele>
      </trkpt>
      <trkpt lat="44.24132" lon="-1.12098">
        <ele>25.5</ele>
      </trkpt>
      <trkpt lat="44.24127" lon="-1.12091">
        <ele>25.5</ele>
      </trkpt>
      <trkpt lat="44.24122" lon="-1.12086">
        <ele>25.4</ele>
      </trkpt>
      <trkpt lat="44.24116" lon="-1.1208">
        <ele>25.2</ele>
      </trkpt>
      <trkpt lat="44.24092" lon="-1.12057">
        <ele>25</ele>
      </trkpt>
      <trkpt lat="44.24076" lon="-1.12041">
        <ele>25</ele>
      </trkpt>
      <trkpt lat="44.24062" lon="-1.12026">
        <ele>25</ele>
      </trkpt>
      <trkpt lat="44.24052" lon="-1.12013">
        <ele>25</ele>
      </trkpt>
      <trkpt lat="44.24044" lon="-1.12004">
        <ele>25</ele>
      </trkpt>
      <trkpt lat="44.24032" lon="-1.11989">
        <ele>25.1</ele>
      </trkpt>
      <trkpt lat="44.24028" lon="-1.11984">
        <ele>25</ele>
        <extensions>
          <visugpx:TrkExtension xmlns:visugpx="https://www.visugpx.com/editgpx/">
            <visugpx:node>4</visugpx:node>
            </visugpx:TrkExtension>
        </extensions>
      </trkpt>
    </trkseg>
  </trk>
</gpx>